<?xml version="1.0" encoding="UTF-8" standalone="no" ?>
<gpx xmlns="http://www.topografix.com/GPX/1/1" xmlns:xsi="http://www.w3.org/2001/XMLSchema-instance" xsi:schemaLocation="http://www.topografix.com/GPX/1/1 http://www.topografix.com/GPX/1/1/gpx.xsd" version="1.1" creator="VisuGPX - https://www.visugpx.com">
  <metadata>
    <name>Caroux2012</name>
    <desc><![CDATA[Caroux2012]]></desc>
  </metadata>
  <trk>
    <name><![CDATA[Rando-course]]></name>
    <cmt><![CDATA[Caroux]]></cmt>
    <trkseg>
      <trkpt lat="43.56676" lon="2.96056">
        <ele>192.88171386719</ele>
        <time>2012-05-07T06:06:23Z</time>
      </trkpt>
      <trkpt lat="43.56676" lon="2.96055">
        <ele>192.88171386719</ele>
        <time>2012-05-07T06:06:24Z</time>
      </trkpt>
      <trkpt lat="43.56673" lon="2.96049">
        <ele>191.92028808594</ele>
        <time>2012-05-07T06:06:30Z</time>
      </trkpt>
      <trkpt lat="43.56672" lon="2.96043">
        <ele>192.40112304688</ele>
        <time>2012-05-07T06:06:34Z</time>
      </trkpt>
      <trkpt lat="43.56672" lon="2.9603">
        <ele>190.47839355469</ele>
        <time>2012-05-07T06:06:41Z</time>
      </trkpt>
      <trkpt lat="43.56678" lon="2.96023">
        <ele>189.99768066406</ele>
        <time>2012-05-07T06:06:45Z</time>
      </trkpt>
      <trkpt lat="43.56686" lon="2.96018">
        <ele>190.47839355469</ele>
        <time>2012-05-07T06:06:52Z</time>
      </trkpt>
      <trkpt lat="43.5669" lon="2.96017">
        <ele>191.43957519531</ele>
        <time>2012-05-07T06:06:56Z</time>
      </trkpt>
      <trkpt lat="43.56697" lon="2.96011">
        <ele>192.88171386719</ele>
        <time>2012-05-07T06:07:05Z</time>
      </trkpt>
      <trkpt lat="43.56701" lon="2.96011">
        <ele>193.84301757812</ele>
        <time>2012-05-07T06:07:11Z</time>
      </trkpt>
      <trkpt lat="43.56703" lon="2.96019">
        <ele>193.84301757812</ele>
        <time>2012-05-07T06:07:16Z</time>
      </trkpt>
      <trkpt lat="43.56707" lon="2.96033">
        <ele>191.92028808594</ele>
        <time>2012-05-07T06:07:23Z</time>
      </trkpt>
      <trkpt lat="43.56711" lon="2.96043">
        <ele>190.958984375</ele>
        <time>2012-05-07T06:07:27Z</time>
      </trkpt>
      <trkpt lat="43.56712" lon="2.96044">
        <ele>190.47839355469</ele>
        <time>2012-05-07T06:07:29Z</time>
      </trkpt>
      <trkpt lat="43.56716" lon="2.96049">
        <ele>190.958984375</ele>
        <time>2012-05-07T06:07:36Z</time>
      </trkpt>
      <trkpt lat="43.56721" lon="2.96058">
        <ele>191.43957519531</ele>
        <time>2012-05-07T06:07:40Z</time>
      </trkpt>
      <trkpt lat="43.56725" lon="2.96067">
        <ele>190.47839355469</ele>
        <time>2012-05-07T06:07:44Z</time>
      </trkpt>
      <trkpt lat="43.56731" lon="2.96078">
        <ele>189.99768066406</ele>
        <time>2012-05-07T06:07:49Z</time>
      </trkpt>
      <trkpt lat="43.56739" lon="2.96092">
        <ele>188.07507324219</ele>
        <time>2012-05-07T06:07:54Z</time>
      </trkpt>
      <trkpt lat="43.56742" lon="2.96097">
        <ele>187.59436035156</ele>
        <time>2012-05-07T06:07:56Z</time>
      </trkpt>
      <trkpt lat="43.56746" lon="2.9611">
        <ele>187.59436035156</ele>
        <time>2012-05-07T06:08:00Z</time>
      </trkpt>
      <trkpt lat="43.56751" lon="2.96119">
        <ele>187.11376953125</ele>
        <time>2012-05-07T06:08:04Z</time>
      </trkpt>
      <trkpt lat="43.56753" lon="2.96121">
        <ele>187.11376953125</ele>
        <time>2012-05-07T06:08:05Z</time>
      </trkpt>
      <trkpt lat="43.56761" lon="2.9614">
        <ele>188.07507324219</ele>
        <time>2012-05-07T06:08:12Z</time>
      </trkpt>
      <trkpt lat="43.5677" lon="2.96158">
        <ele>189.51696777344</ele>
        <time>2012-05-07T06:08:19Z</time>
      </trkpt>
      <trkpt lat="43.56777" lon="2.96169">
        <ele>189.99768066406</ele>
        <time>2012-05-07T06:08:24Z</time>
      </trkpt>
      <trkpt lat="43.5678" lon="2.96176">
        <ele>189.99768066406</ele>
        <time>2012-05-07T06:08:27Z</time>
      </trkpt>
      <trkpt lat="43.56788" lon="2.96192">
        <ele>189.51696777344</ele>
        <time>2012-05-07T06:08:34Z</time>
      </trkpt>
      <trkpt lat="43.56794" lon="2.96206">
        <ele>189.03637695312</ele>
        <time>2012-05-07T06:08:40Z</time>
      </trkpt>
      <trkpt lat="43.56799" lon="2.96218">
        <ele>189.51696777344</ele>
        <time>2012-05-07T06:08:45Z</time>
      </trkpt>
      <trkpt lat="43.56807" lon="2.96233">
        <ele>189.51696777344</ele>
        <time>2012-05-07T06:08:51Z</time>
      </trkpt>
      <trkpt lat="43.56812" lon="2.96245">
        <ele>189.99768066406</ele>
        <time>2012-05-07T06:08:56Z</time>
      </trkpt>
      <trkpt lat="43.56817" lon="2.96257">
        <ele>190.47839355469</ele>
        <time>2012-05-07T06:09:01Z</time>
      </trkpt>
      <trkpt lat="43.56824" lon="2.96271">
        <ele>190.958984375</ele>
        <time>2012-05-07T06:09:07Z</time>
      </trkpt>
      <trkpt lat="43.56828" lon="2.96282">
        <ele>191.43957519531</ele>
        <time>2012-05-07T06:09:11Z</time>
      </trkpt>
      <trkpt lat="43.56835" lon="2.96295">
        <ele>191.92028808594</ele>
        <time>2012-05-07T06:09:16Z</time>
      </trkpt>
      <trkpt lat="43.56841" lon="2.9631">
        <ele>191.43957519531</ele>
        <time>2012-05-07T06:09:22Z</time>
      </trkpt>
      <trkpt lat="43.56847" lon="2.96323">
        <ele>192.40112304688</ele>
        <time>2012-05-07T06:09:27Z</time>
      </trkpt>
      <trkpt lat="43.56852" lon="2.96336">
        <ele>192.40112304688</ele>
        <time>2012-05-07T06:09:32Z</time>
      </trkpt>
      <trkpt lat="43.56855" lon="2.96344">
        <ele>191.92028808594</ele>
        <time>2012-05-07T06:09:35Z</time>
      </trkpt>
      <trkpt lat="43.56864" lon="2.96358">
        <ele>193.3623046875</ele>
        <time>2012-05-07T06:09:41Z</time>
      </trkpt>
      <trkpt lat="43.56868" lon="2.96369">
        <ele>193.84301757812</ele>
        <time>2012-05-07T06:09:45Z</time>
      </trkpt>
      <trkpt lat="43.56875" lon="2.96384">
        <ele>193.84301757812</ele>
        <time>2012-05-07T06:09:51Z</time>
      </trkpt>
      <trkpt lat="43.56877" lon="2.96386">
        <ele>194.32373046875</ele>
        <time>2012-05-07T06:09:52Z</time>
      </trkpt>
      <trkpt lat="43.56882" lon="2.96394">
        <ele>194.32373046875</ele>
        <time>2012-05-07T06:09:56Z</time>
      </trkpt>
      <trkpt lat="43.56884" lon="2.96397">
        <ele>194.80432128906</ele>
        <time>2012-05-07T06:09:57Z</time>
      </trkpt>
      <trkpt lat="43.56887" lon="2.96403">
        <ele>194.80432128906</ele>
        <time>2012-05-07T06:10:00Z</time>
      </trkpt>
      <trkpt lat="43.56894" lon="2.96415">
        <ele>196.72692871094</ele>
        <time>2012-05-07T06:10:05Z</time>
      </trkpt>
      <trkpt lat="43.56898" lon="2.96425">
        <ele>197.20751953125</ele>
        <time>2012-05-07T06:10:09Z</time>
      </trkpt>
      <trkpt lat="43.56904" lon="2.96439">
        <ele>199.61083984375</ele>
        <time>2012-05-07T06:10:14Z</time>
      </trkpt>
      <trkpt lat="43.56911" lon="2.96457">
        <ele>199.13012695312</ele>
        <time>2012-05-07T06:10:20Z</time>
      </trkpt>
      <trkpt lat="43.56916" lon="2.96465">
        <ele>200.09167480469</ele>
        <time>2012-05-07T06:10:24Z</time>
      </trkpt>
      <trkpt lat="43.56921" lon="2.96475">
        <ele>200.572265625</ele>
        <time>2012-05-07T06:10:28Z</time>
      </trkpt>
      <trkpt lat="43.56928" lon="2.96487">
        <ele>201.53356933594</ele>
        <time>2012-05-07T06:10:33Z</time>
      </trkpt>
      <trkpt lat="43.56933" lon="2.96501">
        <ele>201.05285644531</ele>
        <time>2012-05-07T06:10:38Z</time>
      </trkpt>
      <trkpt lat="43.5694" lon="2.96514">
        <ele>201.53356933594</ele>
        <time>2012-05-07T06:10:43Z</time>
      </trkpt>
      <trkpt lat="43.56948" lon="2.96527">
        <ele>201.53356933594</ele>
        <time>2012-05-07T06:10:48Z</time>
      </trkpt>
      <trkpt lat="43.56953" lon="2.9654">
        <ele>201.05285644531</ele>
        <time>2012-05-07T06:10:53Z</time>
      </trkpt>
      <trkpt lat="43.56958" lon="2.96552">
        <ele>200.572265625</ele>
        <time>2012-05-07T06:10:58Z</time>
      </trkpt>
      <trkpt lat="43.56966" lon="2.96568">
        <ele>200.09167480469</ele>
        <time>2012-05-07T06:11:04Z</time>
      </trkpt>
      <trkpt lat="43.56968" lon="2.9657">
        <ele>199.61083984375</ele>
        <time>2012-05-07T06:11:05Z</time>
      </trkpt>
      <trkpt lat="43.56972" lon="2.96581">
        <ele>199.61083984375</ele>
        <time>2012-05-07T06:11:09Z</time>
      </trkpt>
      <trkpt lat="43.56973" lon="2.96583">
        <ele>199.61083984375</ele>
        <time>2012-05-07T06:11:10Z</time>
      </trkpt>
      <trkpt lat="43.56979" lon="2.96597">
        <ele>200.09167480469</ele>
        <time>2012-05-07T06:11:15Z</time>
      </trkpt>
      <trkpt lat="43.56985" lon="2.96613">
        <ele>200.09167480469</ele>
        <time>2012-05-07T06:11:21Z</time>
      </trkpt>
      <trkpt lat="43.56986" lon="2.96616">
        <ele>200.09167480469</ele>
        <time>2012-05-07T06:11:22Z</time>
      </trkpt>
      <trkpt lat="43.56993" lon="2.96629">
        <ele>200.572265625</ele>
        <time>2012-05-07T06:11:27Z</time>
      </trkpt>
      <trkpt lat="43.56997" lon="2.96641">
        <ele>201.05285644531</ele>
        <time>2012-05-07T06:11:31Z</time>
      </trkpt>
      <trkpt lat="43.57005" lon="2.9666">
        <ele>200.572265625</ele>
        <time>2012-05-07T06:11:38Z</time>
      </trkpt>
      <trkpt lat="43.57008" lon="2.96668">
        <ele>200.09167480469</ele>
        <time>2012-05-07T06:11:41Z</time>
      </trkpt>
      <trkpt lat="43.57014" lon="2.96681">
        <ele>202.01428222656</ele>
        <time>2012-05-07T06:11:46Z</time>
      </trkpt>
      <trkpt lat="43.57017" lon="2.96685">
        <ele>202.49487304688</ele>
        <time>2012-05-07T06:11:48Z</time>
      </trkpt>
      <trkpt lat="43.57029" lon="2.96685">
        <ele>205.37878417969</ele>
        <time>2012-05-07T06:11:54Z</time>
      </trkpt>
      <trkpt lat="43.57039" lon="2.9668">
        <ele>206.34008789062</ele>
        <time>2012-05-07T06:11:59Z</time>
      </trkpt>
      <trkpt lat="43.57051" lon="2.96671">
        <ele>207.30139160156</ele>
        <time>2012-05-07T06:12:05Z</time>
      </trkpt>
      <trkpt lat="43.5706" lon="2.96659">
        <ele>207.30139160156</ele>
        <time>2012-05-07T06:12:11Z</time>
      </trkpt>
      <trkpt lat="43.5707" lon="2.96647">
        <ele>207.78210449219</ele>
        <time>2012-05-07T06:12:17Z</time>
      </trkpt>
      <trkpt lat="43.57082" lon="2.96635">
        <ele>207.30139160156</ele>
        <time>2012-05-07T06:12:24Z</time>
      </trkpt>
      <trkpt lat="43.57092" lon="2.9663">
        <ele>208.74340820312</ele>
        <time>2012-05-07T06:12:29Z</time>
      </trkpt>
      <trkpt lat="43.57104" lon="2.96633">
        <ele>209.70483398438</ele>
        <time>2012-05-07T06:12:34Z</time>
      </trkpt>
      <trkpt lat="43.57117" lon="2.9664">
        <ele>209.22412109375</ele>
        <time>2012-05-07T06:12:41Z</time>
      </trkpt>
      <trkpt lat="43.57132" lon="2.96645">
        <ele>210.18542480469</ele>
        <time>2012-05-07T06:12:47Z</time>
      </trkpt>
      <trkpt lat="43.57141" lon="2.9665">
        <ele>210.18542480469</ele>
        <time>2012-05-07T06:12:51Z</time>
      </trkpt>
      <trkpt lat="43.57156" lon="2.96657">
        <ele>208.74340820312</ele>
        <time>2012-05-07T06:12:58Z</time>
      </trkpt>
      <trkpt lat="43.57166" lon="2.96657">
        <ele>207.78210449219</ele>
        <time>2012-05-07T06:13:02Z</time>
      </trkpt>
      <trkpt lat="43.57178" lon="2.96654">
        <ele>206.82067871094</ele>
        <time>2012-05-07T06:13:07Z</time>
      </trkpt>
      <trkpt lat="43.5719" lon="2.9665">
        <ele>205.85949707031</ele>
        <time>2012-05-07T06:13:12Z</time>
      </trkpt>
      <trkpt lat="43.57199" lon="2.96648">
        <ele>207.30139160156</ele>
        <time>2012-05-07T06:13:16Z</time>
      </trkpt>
      <trkpt lat="43.57209" lon="2.96647">
        <ele>206.34008789062</ele>
        <time>2012-05-07T06:13:20Z</time>
      </trkpt>
      <trkpt lat="43.57212" lon="2.96647">
        <ele>205.85949707031</ele>
        <time>2012-05-07T06:13:22Z</time>
      </trkpt>
      <trkpt lat="43.5722" lon="2.9665">
        <ele>205.37878417969</ele>
        <time>2012-05-07T06:13:26Z</time>
      </trkpt>
      <trkpt lat="43.57228" lon="2.96656">
        <ele>205.37878417969</ele>
        <time>2012-05-07T06:13:30Z</time>
      </trkpt>
      <trkpt lat="43.57239" lon="2.96665">
        <ele>205.37878417969</ele>
        <time>2012-05-07T06:13:35Z</time>
      </trkpt>
      <trkpt lat="43.57243" lon="2.96668">
        <ele>204.89807128906</ele>
        <time>2012-05-07T06:13:37Z</time>
      </trkpt>
      <trkpt lat="43.57251" lon="2.96672">
        <ele>205.37878417969</ele>
        <time>2012-05-07T06:13:40Z</time>
      </trkpt>
      <trkpt lat="43.57257" lon="2.96678">
        <ele>205.85949707031</ele>
        <time>2012-05-07T06:13:44Z</time>
      </trkpt>
      <trkpt lat="43.57265" lon="2.96685">
        <ele>207.78210449219</ele>
        <time>2012-05-07T06:13:48Z</time>
      </trkpt>
      <trkpt lat="43.57275" lon="2.96693">
        <ele>206.82067871094</ele>
        <time>2012-05-07T06:13:53Z</time>
      </trkpt>
      <trkpt lat="43.57288" lon="2.96697">
        <ele>205.85949707031</ele>
        <time>2012-05-07T06:13:59Z</time>
      </trkpt>
      <trkpt lat="43.57296" lon="2.96699">
        <ele>205.85949707031</ele>
        <time>2012-05-07T06:14:02Z</time>
      </trkpt>
      <trkpt lat="43.57306" lon="2.96704">
        <ele>205.85949707031</ele>
        <time>2012-05-07T06:14:08Z</time>
      </trkpt>
      <trkpt lat="43.57319" lon="2.96711">
        <ele>204.41748046875</ele>
        <time>2012-05-07T06:14:15Z</time>
      </trkpt>
      <trkpt lat="43.5733" lon="2.96716">
        <ele>202.01428222656</ele>
        <time>2012-05-07T06:14:20Z</time>
      </trkpt>
      <trkpt lat="43.57342" lon="2.96717">
        <ele>199.61083984375</ele>
        <time>2012-05-07T06:14:26Z</time>
      </trkpt>
      <trkpt lat="43.57354" lon="2.96716">
        <ele>198.1689453125</ele>
        <time>2012-05-07T06:14:32Z</time>
      </trkpt>
      <trkpt lat="43.57364" lon="2.96712">
        <ele>199.13012695312</ele>
        <time>2012-05-07T06:14:36Z</time>
      </trkpt>
      <trkpt lat="43.57377" lon="2.96708">
        <ele>201.05285644531</ele>
        <time>2012-05-07T06:14:41Z</time>
      </trkpt>
      <trkpt lat="43.57386" lon="2.96705">
        <ele>204.41748046875</ele>
        <time>2012-05-07T06:14:46Z</time>
      </trkpt>
      <trkpt lat="43.57399" lon="2.96702">
        <ele>205.37878417969</ele>
        <time>2012-05-07T06:14:51Z</time>
      </trkpt>
      <trkpt lat="43.57409" lon="2.96698">
        <ele>205.85949707031</ele>
        <time>2012-05-07T06:14:56Z</time>
      </trkpt>
      <trkpt lat="43.57418" lon="2.96692">
        <ele>207.30139160156</ele>
        <time>2012-05-07T06:15:01Z</time>
      </trkpt>
      <trkpt lat="43.57421" lon="2.9669">
        <ele>208.26281738281</ele>
        <time>2012-05-07T06:15:04Z</time>
      </trkpt>
      <trkpt lat="43.57429" lon="2.96684">
        <ele>208.74340820312</ele>
        <time>2012-05-07T06:15:09Z</time>
      </trkpt>
      <trkpt lat="43.57437" lon="2.96672">
        <ele>207.78210449219</ele>
        <time>2012-05-07T06:15:14Z</time>
      </trkpt>
      <trkpt lat="43.57446" lon="2.96661">
        <ele>207.30139160156</ele>
        <time>2012-05-07T06:15:19Z</time>
      </trkpt>
      <trkpt lat="43.5745" lon="2.9666">
        <ele>207.78210449219</ele>
        <time>2012-05-07T06:15:21Z</time>
      </trkpt>
      <trkpt lat="43.57465" lon="2.96656">
        <ele>207.78210449219</ele>
        <time>2012-05-07T06:15:27Z</time>
      </trkpt>
      <trkpt lat="43.57476" lon="2.9665">
        <ele>206.82067871094</ele>
        <time>2012-05-07T06:15:32Z</time>
      </trkpt>
      <trkpt lat="43.57487" lon="2.96642">
        <ele>204.89807128906</ele>
        <time>2012-05-07T06:15:37Z</time>
      </trkpt>
      <trkpt lat="43.57499" lon="2.96636">
        <ele>203.45617675781</ele>
        <time>2012-05-07T06:15:42Z</time>
      </trkpt>
      <trkpt lat="43.57508" lon="2.9663">
        <ele>203.93688964844</ele>
        <time>2012-05-07T06:15:46Z</time>
      </trkpt>
      <trkpt lat="43.5752" lon="2.96628">
        <ele>204.41748046875</ele>
        <time>2012-05-07T06:15:51Z</time>
      </trkpt>
      <trkpt lat="43.57533" lon="2.96624">
        <ele>203.93688964844</ele>
        <time>2012-05-07T06:15:56Z</time>
      </trkpt>
      <trkpt lat="43.57546" lon="2.96625">
        <ele>204.41748046875</ele>
        <time>2012-05-07T06:16:01Z</time>
      </trkpt>
      <trkpt lat="43.57549" lon="2.96627">
        <ele>206.82067871094</ele>
        <time>2012-05-07T06:16:05Z</time>
      </trkpt>
      <trkpt lat="43.57549" lon="2.96627">
        <ele>207.78210449219</ele>
        <time>2012-05-07T06:16:06Z</time>
      </trkpt>
      <trkpt lat="43.57546" lon="2.96629">
        <ele>208.26281738281</ele>
        <time>2012-05-07T06:16:09Z</time>
      </trkpt>
      <trkpt lat="43.57546" lon="2.96627">
        <ele>209.70483398438</ele>
        <time>2012-05-07T06:16:16Z</time>
      </trkpt>
      <trkpt lat="43.5755" lon="2.96626">
        <ele>210.18542480469</ele>
        <time>2012-05-07T06:16:20Z</time>
      </trkpt>
      <trkpt lat="43.57551" lon="2.96626">
        <ele>215.47265625</ele>
        <time>2012-05-07T06:16:26Z</time>
      </trkpt>
      <trkpt lat="43.57551" lon="2.96638">
        <ele>221.72119140625</ele>
        <time>2012-05-07T06:16:31Z</time>
      </trkpt>
      <trkpt lat="43.57553" lon="2.96642">
        <ele>221.72119140625</ele>
        <time>2012-05-07T06:16:33Z</time>
      </trkpt>
      <trkpt lat="43.57555" lon="2.96645">
        <ele>222.20178222656</ele>
        <time>2012-05-07T06:16:36Z</time>
      </trkpt>
      <trkpt lat="43.57557" lon="2.96647">
        <ele>227.48913574219</ele>
        <time>2012-05-07T06:16:41Z</time>
      </trkpt>
      <trkpt lat="43.57561" lon="2.96642">
        <ele>232.77648925781</ele>
        <time>2012-05-07T06:16:50Z</time>
      </trkpt>
      <trkpt lat="43.57565" lon="2.96639">
        <ele>231.81494140625</ele>
        <time>2012-05-07T06:16:54Z</time>
      </trkpt>
      <trkpt lat="43.57568" lon="2.96638">
        <ele>231.81494140625</ele>
        <time>2012-05-07T06:16:59Z</time>
      </trkpt>
      <trkpt lat="43.57575" lon="2.96634">
        <ele>229.41174316406</ele>
        <time>2012-05-07T06:17:04Z</time>
      </trkpt>
      <trkpt lat="43.57585" lon="2.96634">
        <ele>225.0859375</ele>
        <time>2012-05-07T06:17:11Z</time>
      </trkpt>
      <trkpt lat="43.5759" lon="2.96636">
        <ele>224.60522460938</ele>
        <time>2012-05-07T06:17:15Z</time>
      </trkpt>
      <trkpt lat="43.57595" lon="2.96638">
        <ele>222.68249511719</ele>
        <time>2012-05-07T06:17:21Z</time>
      </trkpt>
      <trkpt lat="43.57603" lon="2.96638">
        <ele>219.31799316406</ele>
        <time>2012-05-07T06:17:28Z</time>
      </trkpt>
      <trkpt lat="43.5761" lon="2.96638">
        <ele>218.35656738281</ele>
        <time>2012-05-07T06:17:36Z</time>
      </trkpt>
      <trkpt lat="43.57614" lon="2.96636">
        <ele>218.83728027344</ele>
        <time>2012-05-07T06:17:42Z</time>
      </trkpt>
      <trkpt lat="43.57621" lon="2.96631">
        <ele>225.56652832031</ele>
        <time>2012-05-07T06:17:50Z</time>
      </trkpt>
      <trkpt lat="43.57623" lon="2.96629">
        <ele>227.48913574219</ele>
        <time>2012-05-07T06:17:53Z</time>
      </trkpt>
      <trkpt lat="43.57631" lon="2.96623">
        <ele>231.81494140625</ele>
        <time>2012-05-07T06:18:01Z</time>
      </trkpt>
      <trkpt lat="43.57639" lon="2.96621">
        <ele>239.50549316406</ele>
        <time>2012-05-07T06:18:10Z</time>
      </trkpt>
      <trkpt lat="43.57642" lon="2.9662">
        <ele>241.90893554688</ele>
        <time>2012-05-07T06:18:12Z</time>
      </trkpt>
      <trkpt lat="43.57644" lon="2.9662">
        <ele>245.75415039062</ele>
        <time>2012-05-07T06:18:15Z</time>
      </trkpt>
      <trkpt lat="43.5765" lon="2.96619">
        <ele>247.19604492188</ele>
        <time>2012-05-07T06:18:24Z</time>
      </trkpt>
      <trkpt lat="43.57654" lon="2.9662">
        <ele>243.35083007812</ele>
        <time>2012-05-07T06:18:30Z</time>
      </trkpt>
      <trkpt lat="43.57656" lon="2.96621">
        <ele>239.98620605469</ele>
        <time>2012-05-07T06:18:36Z</time>
      </trkpt>
      <trkpt lat="43.57659" lon="2.9662">
        <ele>236.62170410156</ele>
        <time>2012-05-07T06:18:42Z</time>
      </trkpt>
      <trkpt lat="43.57663" lon="2.9662">
        <ele>236.14099121094</ele>
        <time>2012-05-07T06:18:51Z</time>
      </trkpt>
      <trkpt lat="43.57667" lon="2.96622">
        <ele>236.14099121094</ele>
        <time>2012-05-07T06:18:56Z</time>
      </trkpt>
      <trkpt lat="43.57672" lon="2.96622">
        <ele>238.54431152344</ele>
        <time>2012-05-07T06:19:03Z</time>
      </trkpt>
      <trkpt lat="43.57676" lon="2.96623">
        <ele>240.46704101562</ele>
        <time>2012-05-07T06:19:09Z</time>
      </trkpt>
      <trkpt lat="43.57679" lon="2.96624">
        <ele>241.42822265625</ele>
        <time>2012-05-07T06:19:15Z</time>
      </trkpt>
      <trkpt lat="43.57682" lon="2.96625">
        <ele>240.94763183594</ele>
        <time>2012-05-07T06:19:21Z</time>
      </trkpt>
      <trkpt lat="43.57682" lon="2.96629">
        <ele>238.54431152344</ele>
        <time>2012-05-07T06:19:26Z</time>
      </trkpt>
      <trkpt lat="43.57679" lon="2.96635">
        <ele>239.02490234375</ele>
        <time>2012-05-07T06:19:33Z</time>
      </trkpt>
      <trkpt lat="43.57674" lon="2.96639">
        <ele>239.02490234375</ele>
        <time>2012-05-07T06:19:39Z</time>
      </trkpt>
      <trkpt lat="43.57669" lon="2.96644">
        <ele>238.06359863281</ele>
        <time>2012-05-07T06:19:45Z</time>
      </trkpt>
      <trkpt lat="43.57664" lon="2.96647">
        <ele>238.06359863281</ele>
        <time>2012-05-07T06:19:50Z</time>
      </trkpt>
      <trkpt lat="43.57658" lon="2.96658">
        <ele>240.46704101562</ele>
        <time>2012-05-07T06:19:59Z</time>
      </trkpt>
      <trkpt lat="43.57657" lon="2.96661">
        <ele>241.42822265625</ele>
        <time>2012-05-07T06:20:04Z</time>
      </trkpt>
      <trkpt lat="43.5766" lon="2.9666">
        <ele>245.75415039062</ele>
        <time>2012-05-07T06:20:11Z</time>
      </trkpt>
      <trkpt lat="43.57663" lon="2.96656">
        <ele>250.56079101562</ele>
        <time>2012-05-07T06:20:20Z</time>
      </trkpt>
      <trkpt lat="43.57664" lon="2.96658">
        <ele>250.56079101562</ele>
        <time>2012-05-07T06:20:24Z</time>
      </trkpt>
      <trkpt lat="43.57664" lon="2.96661">
        <ele>249.59948730469</ele>
        <time>2012-05-07T06:20:26Z</time>
      </trkpt>
      <trkpt lat="43.57662" lon="2.9667">
        <ele>249.59948730469</ele>
        <time>2012-05-07T06:20:34Z</time>
      </trkpt>
      <trkpt lat="43.57664" lon="2.9667">
        <ele>252.00280761719</ele>
        <time>2012-05-07T06:20:39Z</time>
      </trkpt>
      <trkpt lat="43.57668" lon="2.96668">
        <ele>256.80932617188</ele>
        <time>2012-05-07T06:20:44Z</time>
      </trkpt>
      <trkpt lat="43.57671" lon="2.9667">
        <ele>258.25134277344</ele>
        <time>2012-05-07T06:20:49Z</time>
      </trkpt>
      <trkpt lat="43.57674" lon="2.96668">
        <ele>259.693359375</ele>
        <time>2012-05-07T06:20:54Z</time>
      </trkpt>
      <trkpt lat="43.57679" lon="2.96667">
        <ele>263.05786132812</ele>
        <time>2012-05-07T06:20:59Z</time>
      </trkpt>
      <trkpt lat="43.57682" lon="2.96669">
        <ele>264.01928710938</ele>
        <time>2012-05-07T06:21:05Z</time>
      </trkpt>
      <trkpt lat="43.57681" lon="2.96676">
        <ele>262.5771484375</ele>
        <time>2012-05-07T06:21:10Z</time>
      </trkpt>
      <trkpt lat="43.57682" lon="2.96681">
        <ele>260.17395019531</ele>
        <time>2012-05-07T06:21:15Z</time>
      </trkpt>
      <trkpt lat="43.57681" lon="2.96686">
        <ele>260.65454101562</ele>
        <time>2012-05-07T06:21:20Z</time>
      </trkpt>
      <trkpt lat="43.57681" lon="2.96689">
        <ele>264.49987792969</ele>
        <time>2012-05-07T06:21:27Z</time>
      </trkpt>
      <trkpt lat="43.57684" lon="2.96688">
        <ele>266.42248535156</ele>
        <time>2012-05-07T06:21:32Z</time>
      </trkpt>
      <trkpt lat="43.57687" lon="2.96691">
        <ele>265.94189453125</ele>
        <time>2012-05-07T06:21:36Z</time>
      </trkpt>
      <trkpt lat="43.57689" lon="2.96694">
        <ele>264.49987792969</ele>
        <time>2012-05-07T06:21:41Z</time>
      </trkpt>
      <trkpt lat="43.57686" lon="2.96697">
        <ele>264.98059082031</ele>
        <time>2012-05-07T06:21:46Z</time>
      </trkpt>
      <trkpt lat="43.57683" lon="2.96698">
        <ele>266.42248535156</ele>
        <time>2012-05-07T06:21:50Z</time>
      </trkpt>
      <trkpt lat="43.5768" lon="2.96704">
        <ele>267.38391113281</ele>
        <time>2012-05-07T06:21:57Z</time>
      </trkpt>
      <trkpt lat="43.57678" lon="2.96708">
        <ele>268.34509277344</ele>
        <time>2012-05-07T06:22:02Z</time>
      </trkpt>
      <trkpt lat="43.57675" lon="2.96713">
        <ele>268.82580566406</ele>
        <time>2012-05-07T06:22:08Z</time>
      </trkpt>
      <trkpt lat="43.57672" lon="2.96717">
        <ele>269.787109375</ele>
        <time>2012-05-07T06:22:13Z</time>
      </trkpt>
      <trkpt lat="43.5767" lon="2.96722">
        <ele>269.30651855469</ele>
        <time>2012-05-07T06:22:19Z</time>
      </trkpt>
      <trkpt lat="43.57668" lon="2.96725">
        <ele>267.86450195312</ele>
        <time>2012-05-07T06:22:25Z</time>
      </trkpt>
      <trkpt lat="43.57667" lon="2.96728">
        <ele>274.11303710938</ele>
        <time>2012-05-07T06:22:33Z</time>
      </trkpt>
      <trkpt lat="43.57669" lon="2.96728">
        <ele>276.51635742188</ele>
        <time>2012-05-07T06:22:37Z</time>
      </trkpt>
      <trkpt lat="43.57675" lon="2.96729">
        <ele>280.84240722656</ele>
        <time>2012-05-07T06:22:43Z</time>
      </trkpt>
      <trkpt lat="43.57678" lon="2.9673">
        <ele>285.64880371094</ele>
        <time>2012-05-07T06:22:48Z</time>
      </trkpt>
      <trkpt lat="43.57683" lon="2.96731">
        <ele>289.97485351562</ele>
        <time>2012-05-07T06:22:56Z</time>
      </trkpt>
      <trkpt lat="43.57685" lon="2.96734">
        <ele>290.93615722656</ele>
        <time>2012-05-07T06:23:00Z</time>
      </trkpt>
      <trkpt lat="43.57689" lon="2.9674">
        <ele>289.01354980469</ele>
        <time>2012-05-07T06:23:06Z</time>
      </trkpt>
      <trkpt lat="43.57693" lon="2.96741">
        <ele>292.37817382812</ele>
        <time>2012-05-07T06:23:11Z</time>
      </trkpt>
      <trkpt lat="43.57697" lon="2.96745">
        <ele>291.41674804688</ele>
        <time>2012-05-07T06:23:19Z</time>
      </trkpt>
      <trkpt lat="43.57693" lon="2.96749">
        <ele>289.97485351562</ele>
        <time>2012-05-07T06:23:25Z</time>
      </trkpt>
      <trkpt lat="43.5769" lon="2.96755">
        <ele>287.57141113281</ele>
        <time>2012-05-07T06:23:32Z</time>
      </trkpt>
      <trkpt lat="43.57687" lon="2.96758">
        <ele>288.53295898438</ele>
        <time>2012-05-07T06:23:38Z</time>
      </trkpt>
      <trkpt lat="43.57689" lon="2.96761">
        <ele>290.45556640625</ele>
        <time>2012-05-07T06:23:43Z</time>
      </trkpt>
      <trkpt lat="43.57692" lon="2.96762">
        <ele>292.85876464844</ele>
        <time>2012-05-07T06:23:47Z</time>
      </trkpt>
      <trkpt lat="43.57695" lon="2.96764">
        <ele>293.33935546875</ele>
        <time>2012-05-07T06:23:53Z</time>
      </trkpt>
      <trkpt lat="43.577" lon="2.96764">
        <ele>297.18469238281</ele>
        <time>2012-05-07T06:24:00Z</time>
      </trkpt>
      <trkpt lat="43.57703" lon="2.96765">
        <ele>297.66540527344</ele>
        <time>2012-05-07T06:24:05Z</time>
      </trkpt>
      <trkpt lat="43.57707" lon="2.96768">
        <ele>298.62670898438</ele>
        <time>2012-05-07T06:24:10Z</time>
      </trkpt>
      <trkpt lat="43.57712" lon="2.96769">
        <ele>303.43322753906</ele>
        <time>2012-05-07T06:24:18Z</time>
      </trkpt>
      <trkpt lat="43.57718" lon="2.96769">
        <ele>307.27856445312</ele>
        <time>2012-05-07T06:24:24Z</time>
      </trkpt>
      <trkpt lat="43.57721" lon="2.96773">
        <ele>305.35595703125</ele>
        <time>2012-05-07T06:24:30Z</time>
      </trkpt>
      <trkpt lat="43.57719" lon="2.96775">
        <ele>305.83666992188</ele>
        <time>2012-05-07T06:24:34Z</time>
      </trkpt>
      <trkpt lat="43.57714" lon="2.9678">
        <ele>304.87524414062</ele>
        <time>2012-05-07T06:24:41Z</time>
      </trkpt>
      <trkpt lat="43.57711" lon="2.96785">
        <ele>304.39465332031</ele>
        <time>2012-05-07T06:24:47Z</time>
      </trkpt>
      <trkpt lat="43.57709" lon="2.96789">
        <ele>303.91394042969</ele>
        <time>2012-05-07T06:24:52Z</time>
      </trkpt>
      <trkpt lat="43.57712" lon="2.9679">
        <ele>304.39465332031</ele>
        <time>2012-05-07T06:24:59Z</time>
      </trkpt>
      <trkpt lat="43.57715" lon="2.96791">
        <ele>304.87524414062</ele>
        <time>2012-05-07T06:25:05Z</time>
      </trkpt>
      <trkpt lat="43.57718" lon="2.96789">
        <ele>307.75927734375</ele>
        <time>2012-05-07T06:25:11Z</time>
      </trkpt>
      <trkpt lat="43.57722" lon="2.96789">
        <ele>309.68188476562</ele>
        <time>2012-05-07T06:25:16Z</time>
      </trkpt>
      <trkpt lat="43.57726" lon="2.9679">
        <ele>314.48840332031</ele>
        <time>2012-05-07T06:25:21Z</time>
      </trkpt>
      <trkpt lat="43.57729" lon="2.96793">
        <ele>316.41101074219</ele>
        <time>2012-05-07T06:25:25Z</time>
      </trkpt>
      <trkpt lat="43.57735" lon="2.96794">
        <ele>319.77563476562</ele>
        <time>2012-05-07T06:25:33Z</time>
      </trkpt>
      <trkpt lat="43.57739" lon="2.96795">
        <ele>322.17895507812</ele>
        <time>2012-05-07T06:25:39Z</time>
      </trkpt>
      <trkpt lat="43.57743" lon="2.96795">
        <ele>321.2177734375</ele>
        <time>2012-05-07T06:25:44Z</time>
      </trkpt>
      <trkpt lat="43.5775" lon="2.96795">
        <ele>322.17895507812</ele>
        <time>2012-05-07T06:25:50Z</time>
      </trkpt>
      <trkpt lat="43.57759" lon="2.96795">
        <ele>323.62097167969</ele>
        <time>2012-05-07T06:25:59Z</time>
      </trkpt>
      <trkpt lat="43.57766" lon="2.96789">
        <ele>325.06298828125</ele>
        <time>2012-05-07T06:26:05Z</time>
      </trkpt>
      <trkpt lat="43.57771" lon="2.96786">
        <ele>326.5048828125</ele>
        <time>2012-05-07T06:26:10Z</time>
      </trkpt>
      <trkpt lat="43.57774" lon="2.96784">
        <ele>324.58227539062</ele>
        <time>2012-05-07T06:26:14Z</time>
      </trkpt>
      <trkpt lat="43.5778" lon="2.96781">
        <ele>322.17895507812</ele>
        <time>2012-05-07T06:26:22Z</time>
      </trkpt>
      <trkpt lat="43.57784" lon="2.96774">
        <ele>321.69836425781</ele>
        <time>2012-05-07T06:26:28Z</time>
      </trkpt>
      <trkpt lat="43.57785" lon="2.96773">
        <ele>321.69836425781</ele>
        <time>2012-05-07T06:26:29Z</time>
      </trkpt>
      <trkpt lat="43.57787" lon="2.96766">
        <ele>322.65966796875</ele>
        <time>2012-05-07T06:26:34Z</time>
      </trkpt>
      <trkpt lat="43.5779" lon="2.96768">
        <ele>323.62097167969</ele>
        <time>2012-05-07T06:26:41Z</time>
      </trkpt>
      <trkpt lat="43.57791" lon="2.96774">
        <ele>325.06298828125</ele>
        <time>2012-05-07T06:26:49Z</time>
      </trkpt>
      <trkpt lat="43.57793" lon="2.96771">
        <ele>324.58227539062</ele>
        <time>2012-05-07T06:26:54Z</time>
      </trkpt>
      <trkpt lat="43.57796" lon="2.96769">
        <ele>325.06298828125</ele>
        <time>2012-05-07T06:26:59Z</time>
      </trkpt>
      <trkpt lat="43.57798" lon="2.9677">
        <ele>326.5048828125</ele>
        <time>2012-05-07T06:27:04Z</time>
      </trkpt>
      <trkpt lat="43.57798" lon="2.96774">
        <ele>328.90832519531</ele>
        <time>2012-05-07T06:27:10Z</time>
      </trkpt>
      <trkpt lat="43.57798" lon="2.96777">
        <ele>329.86950683594</ele>
        <time>2012-05-07T06:27:15Z</time>
      </trkpt>
      <trkpt lat="43.57798" lon="2.96782">
        <ele>331.79211425781</ele>
        <time>2012-05-07T06:27:20Z</time>
      </trkpt>
      <trkpt lat="43.578" lon="2.96787">
        <ele>332.27282714844</ele>
        <time>2012-05-07T06:27:26Z</time>
      </trkpt>
      <trkpt lat="43.57802" lon="2.96789">
        <ele>333.23413085938</ele>
        <time>2012-05-07T06:27:31Z</time>
      </trkpt>
      <trkpt lat="43.57805" lon="2.96784">
        <ele>335.15673828125</ele>
        <time>2012-05-07T06:27:37Z</time>
      </trkpt>
      <trkpt lat="43.57807" lon="2.96779">
        <ele>337.07946777344</ele>
        <time>2012-05-07T06:27:43Z</time>
      </trkpt>
      <trkpt lat="43.57809" lon="2.96775">
        <ele>338.04077148438</ele>
        <time>2012-05-07T06:27:47Z</time>
      </trkpt>
      <trkpt lat="43.57812" lon="2.96772">
        <ele>339.96337890625</ele>
        <time>2012-05-07T06:27:52Z</time>
      </trkpt>
      <trkpt lat="43.57814" lon="2.96774">
        <ele>339.96337890625</ele>
        <time>2012-05-07T06:27:57Z</time>
      </trkpt>
      <trkpt lat="43.57816" lon="2.96778">
        <ele>340.92468261719</ele>
        <time>2012-05-07T06:28:02Z</time>
      </trkpt>
      <trkpt lat="43.57818" lon="2.96784">
        <ele>341.88598632812</ele>
        <time>2012-05-07T06:28:09Z</time>
      </trkpt>
      <trkpt lat="43.5782" lon="2.96788">
        <ele>343.32788085938</ele>
        <time>2012-05-07T06:28:15Z</time>
      </trkpt>
      <trkpt lat="43.57823" lon="2.96786">
        <ele>342.84729003906</ele>
        <time>2012-05-07T06:28:21Z</time>
      </trkpt>
      <trkpt lat="43.57825" lon="2.96783">
        <ele>343.80859375</ele>
        <time>2012-05-07T06:28:26Z</time>
      </trkpt>
      <trkpt lat="43.57828" lon="2.9678">
        <ele>344.28942871094</ele>
        <time>2012-05-07T06:28:33Z</time>
      </trkpt>
      <trkpt lat="43.57832" lon="2.96779">
        <ele>346.21203613281</ele>
        <time>2012-05-07T06:28:40Z</time>
      </trkpt>
      <trkpt lat="43.57835" lon="2.96781">
        <ele>346.69262695312</ele>
        <time>2012-05-07T06:28:44Z</time>
      </trkpt>
      <trkpt lat="43.57836" lon="2.9678">
        <ele>347.17321777344</ele>
        <time>2012-05-07T06:28:47Z</time>
      </trkpt>
      <trkpt lat="43.57838" lon="2.96781">
        <ele>346.69262695312</ele>
        <time>2012-05-07T06:28:52Z</time>
      </trkpt>
      <trkpt lat="43.57842" lon="2.96781">
        <ele>345.25061035156</ele>
        <time>2012-05-07T06:28:56Z</time>
      </trkpt>
      <trkpt lat="43.57844" lon="2.96783">
        <ele>343.32788085938</ele>
        <time>2012-05-07T06:29:01Z</time>
      </trkpt>
      <trkpt lat="43.5785" lon="2.9678">
        <ele>350.05725097656</ele>
        <time>2012-05-07T06:29:10Z</time>
      </trkpt>
      <trkpt lat="43.57857" lon="2.96777">
        <ele>356.78637695312</ele>
        <time>2012-05-07T06:29:15Z</time>
      </trkpt>
      <trkpt lat="43.57858" lon="2.96776">
        <ele>359.67041015625</ele>
        <time>2012-05-07T06:29:16Z</time>
      </trkpt>
      <trkpt lat="43.57867" lon="2.96783">
        <ele>356.30578613281</ele>
        <time>2012-05-07T06:29:24Z</time>
      </trkpt>
      <trkpt lat="43.57877" lon="2.9678">
        <ele>361.11242675781</ele>
        <time>2012-05-07T06:29:33Z</time>
      </trkpt>
      <trkpt lat="43.57884" lon="2.96783">
        <ele>359.67041015625</ele>
        <time>2012-05-07T06:29:40Z</time>
      </trkpt>
      <trkpt lat="43.57888" lon="2.96789">
        <ele>355.8251953125</ele>
        <time>2012-05-07T06:29:48Z</time>
      </trkpt>
      <trkpt lat="43.5789" lon="2.96793">
        <ele>354.38317871094</ele>
        <time>2012-05-07T06:29:52Z</time>
      </trkpt>
      <trkpt lat="43.57888" lon="2.96796">
        <ele>359.18969726562</ele>
        <time>2012-05-07T06:30:05Z</time>
      </trkpt>
      <trkpt lat="43.5789" lon="2.96796">
        <ele>358.708984375</ele>
        <time>2012-05-07T06:30:10Z</time>
      </trkpt>
      <trkpt lat="43.57893" lon="2.96796">
        <ele>360.63171386719</ele>
        <time>2012-05-07T06:30:14Z</time>
      </trkpt>
      <trkpt lat="43.57894" lon="2.96801">
        <ele>361.11242675781</ele>
        <time>2012-05-07T06:30:19Z</time>
      </trkpt>
      <trkpt lat="43.57894" lon="2.96799">
        <ele>366.39953613281</ele>
        <time>2012-05-07T06:30:22Z</time>
      </trkpt>
      <trkpt lat="43.57898" lon="2.9679">
        <ele>376.49353027344</ele>
        <time>2012-05-07T06:30:27Z</time>
      </trkpt>
      <trkpt lat="43.57898" lon="2.96785">
        <ele>392.8359375</ele>
        <time>2012-05-07T06:30:37Z</time>
      </trkpt>
      <trkpt lat="43.57899" lon="2.96784">
        <ele>396.68115234375</ele>
        <time>2012-05-07T06:30:43Z</time>
      </trkpt>
      <trkpt lat="43.57901" lon="2.96785">
        <ele>400.52648925781</ele>
        <time>2012-05-07T06:30:49Z</time>
      </trkpt>
      <trkpt lat="43.57903" lon="2.96784">
        <ele>404.37170410156</ele>
        <time>2012-05-07T06:30:59Z</time>
      </trkpt>
      <trkpt lat="43.57904" lon="2.96779">
        <ele>418.31079101562</ele>
        <time>2012-05-07T06:31:09Z</time>
      </trkpt>
      <trkpt lat="43.5791" lon="2.96782">
        <ele>421.67541503906</ele>
        <time>2012-05-07T06:31:27Z</time>
      </trkpt>
      <trkpt lat="43.57914" lon="2.96792">
        <ele>409.17834472656</ele>
        <time>2012-05-07T06:31:33Z</time>
      </trkpt>
      <trkpt lat="43.57919" lon="2.96809">
        <ele>387.06799316406</ele>
        <time>2012-05-07T06:31:40Z</time>
      </trkpt>
      <trkpt lat="43.57921" lon="2.96809">
        <ele>386.58740234375</ele>
        <time>2012-05-07T06:31:45Z</time>
      </trkpt>
      <trkpt lat="43.57925" lon="2.96809">
        <ele>384.18408203125</ele>
        <time>2012-05-07T06:31:51Z</time>
      </trkpt>
      <trkpt lat="43.57928" lon="2.96808">
        <ele>383.22265625</ele>
        <time>2012-05-07T06:31:56Z</time>
      </trkpt>
      <trkpt lat="43.57928" lon="2.96808">
        <ele>383.22265625</ele>
        <time>2012-05-07T06:31:57Z</time>
      </trkpt>
      <trkpt lat="43.5793" lon="2.96805">
        <ele>383.70324707031</ele>
        <time>2012-05-07T06:32:02Z</time>
      </trkpt>
      <trkpt lat="43.57931" lon="2.96809">
        <ele>382.74206542969</ele>
        <time>2012-05-07T06:32:06Z</time>
      </trkpt>
      <trkpt lat="43.57932" lon="2.9681">
        <ele>382.26135253906</ele>
        <time>2012-05-07T06:32:11Z</time>
      </trkpt>
      <trkpt lat="43.57935" lon="2.96809">
        <ele>382.74206542969</ele>
        <time>2012-05-07T06:32:17Z</time>
      </trkpt>
      <trkpt lat="43.57939" lon="2.96806">
        <ele>386.10668945312</ele>
        <time>2012-05-07T06:32:23Z</time>
      </trkpt>
      <trkpt lat="43.57943" lon="2.96804">
        <ele>388.51000976562</ele>
        <time>2012-05-07T06:32:29Z</time>
      </trkpt>
      <trkpt lat="43.57945" lon="2.96799">
        <ele>392.8359375</ele>
        <time>2012-05-07T06:32:32Z</time>
      </trkpt>
      <trkpt lat="43.5795" lon="2.96788">
        <ele>402.9296875</ele>
        <time>2012-05-07T06:32:37Z</time>
      </trkpt>
      <trkpt lat="43.57955" lon="2.96779">
        <ele>409.65905761719</ele>
        <time>2012-05-07T06:32:43Z</time>
      </trkpt>
      <trkpt lat="43.57956" lon="2.96782">
        <ele>403.41040039062</ele>
        <time>2012-05-07T06:32:48Z</time>
      </trkpt>
      <trkpt lat="43.57956" lon="2.96784">
        <ele>399.56506347656</ele>
        <time>2012-05-07T06:32:49Z</time>
      </trkpt>
      <trkpt lat="43.57958" lon="2.96787">
        <ele>397.64245605469</ele>
        <time>2012-05-07T06:32:52Z</time>
      </trkpt>
      <trkpt lat="43.57959" lon="2.96794">
        <ele>391.39379882812</ele>
        <time>2012-05-07T06:32:58Z</time>
      </trkpt>
      <trkpt lat="43.57961" lon="2.96793">
        <ele>393.31652832031</ele>
        <time>2012-05-07T06:33:03Z</time>
      </trkpt>
      <trkpt lat="43.57962" lon="2.96791">
        <ele>393.79724121094</ele>
        <time>2012-05-07T06:33:09Z</time>
      </trkpt>
      <trkpt lat="43.57963" lon="2.96788">
        <ele>392.8359375</ele>
        <time>2012-05-07T06:33:13Z</time>
      </trkpt>
      <trkpt lat="43.57967" lon="2.96791">
        <ele>391.87451171875</ele>
        <time>2012-05-07T06:33:20Z</time>
      </trkpt>
      <trkpt lat="43.57969" lon="2.96794">
        <ele>390.4326171875</ele>
        <time>2012-05-07T06:33:22Z</time>
      </trkpt>
      <trkpt lat="43.57968" lon="2.968">
        <ele>392.8359375</ele>
        <time>2012-05-07T06:33:27Z</time>
      </trkpt>
      <trkpt lat="43.57967" lon="2.96806">
        <ele>396.20056152344</ele>
        <time>2012-05-07T06:33:35Z</time>
      </trkpt>
      <trkpt lat="43.57969" lon="2.96807">
        <ele>398.60375976562</ele>
        <time>2012-05-07T06:33:39Z</time>
      </trkpt>
      <trkpt lat="43.57972" lon="2.96802">
        <ele>400.52648925781</ele>
        <time>2012-05-07T06:33:46Z</time>
      </trkpt>
      <trkpt lat="43.57974" lon="2.96799">
        <ele>402.44909667969</ele>
        <time>2012-05-07T06:33:50Z</time>
      </trkpt>
      <trkpt lat="43.57976" lon="2.96793">
        <ele>404.85229492188</ele>
        <time>2012-05-07T06:33:57Z</time>
      </trkpt>
      <trkpt lat="43.57976" lon="2.96789">
        <ele>405.3330078125</ele>
        <time>2012-05-07T06:34:02Z</time>
      </trkpt>
      <trkpt lat="43.57974" lon="2.96782">
        <ele>406.29431152344</ele>
        <time>2012-05-07T06:34:08Z</time>
      </trkpt>
      <trkpt lat="43.57975" lon="2.96778">
        <ele>405.3330078125</ele>
        <time>2012-05-07T06:34:13Z</time>
      </trkpt>
      <trkpt lat="43.57978" lon="2.9678">
        <ele>403.89111328125</ele>
        <time>2012-05-07T06:34:20Z</time>
      </trkpt>
      <trkpt lat="43.57981" lon="2.96783">
        <ele>405.81372070312</ele>
        <time>2012-05-07T06:34:25Z</time>
      </trkpt>
      <trkpt lat="43.57986" lon="2.96785">
        <ele>406.29431152344</ele>
        <time>2012-05-07T06:34:30Z</time>
      </trkpt>
      <trkpt lat="43.57987" lon="2.96787">
        <ele>406.29431152344</ele>
        <time>2012-05-07T06:34:32Z</time>
      </trkpt>
      <trkpt lat="43.5799" lon="2.96793">
        <ele>406.77490234375</ele>
        <time>2012-05-07T06:34:39Z</time>
      </trkpt>
      <trkpt lat="43.57992" lon="2.96796">
        <ele>408.69763183594</ele>
        <time>2012-05-07T06:34:46Z</time>
      </trkpt>
      <trkpt lat="43.57995" lon="2.96791">
        <ele>410.62023925781</ele>
        <time>2012-05-07T06:34:54Z</time>
      </trkpt>
      <trkpt lat="43.57998" lon="2.96787">
        <ele>413.02355957031</ele>
        <time>2012-05-07T06:35:01Z</time>
      </trkpt>
      <trkpt lat="43.58001" lon="2.96783">
        <ele>414.46545410156</ele>
        <time>2012-05-07T06:35:09Z</time>
      </trkpt>
      <trkpt lat="43.58004" lon="2.96783">
        <ele>414.94616699219</ele>
        <time>2012-05-07T06:35:13Z</time>
      </trkpt>
      <trkpt lat="43.58008" lon="2.96784">
        <ele>416.38818359375</ele>
        <time>2012-05-07T06:35:20Z</time>
      </trkpt>
      <trkpt lat="43.58011" lon="2.96783">
        <ele>416.86889648438</ele>
        <time>2012-05-07T06:35:26Z</time>
      </trkpt>
      <trkpt lat="43.58015" lon="2.96782">
        <ele>416.86889648438</ele>
        <time>2012-05-07T06:35:33Z</time>
      </trkpt>
      <trkpt lat="43.58018" lon="2.96781">
        <ele>417.83020019531</ele>
        <time>2012-05-07T06:35:38Z</time>
      </trkpt>
      <trkpt lat="43.58022" lon="2.96778">
        <ele>421.67541503906</ele>
        <time>2012-05-07T06:35:43Z</time>
      </trkpt>
      <trkpt lat="43.58025" lon="2.96775">
        <ele>422.15600585938</ele>
        <time>2012-05-07T06:35:48Z</time>
      </trkpt>
      <trkpt lat="43.58028" lon="2.96775">
        <ele>423.11743164062</ele>
        <time>2012-05-07T06:35:53Z</time>
      </trkpt>
      <trkpt lat="43.58033" lon="2.96772">
        <ele>426.00134277344</ele>
        <time>2012-05-07T06:36:00Z</time>
      </trkpt>
      <trkpt lat="43.58038" lon="2.9677">
        <ele>425.04016113281</ele>
        <time>2012-05-07T06:36:07Z</time>
      </trkpt>
      <trkpt lat="43.58041" lon="2.96773">
        <ele>427.443359375</ele>
        <time>2012-05-07T06:36:12Z</time>
      </trkpt>
      <trkpt lat="43.58044" lon="2.96775">
        <ele>427.92395019531</ele>
        <time>2012-05-07T06:36:19Z</time>
      </trkpt>
      <trkpt lat="43.58044" lon="2.96779">
        <ele>428.40466308594</ele>
        <time>2012-05-07T06:36:25Z</time>
      </trkpt>
      <trkpt lat="43.58042" lon="2.96783">
        <ele>431.28857421875</ele>
        <time>2012-05-07T06:36:32Z</time>
      </trkpt>
      <trkpt lat="43.58043" lon="2.96786">
        <ele>431.28857421875</ele>
        <time>2012-05-07T06:36:36Z</time>
      </trkpt>
      <trkpt lat="43.58046" lon="2.96785">
        <ele>431.76916503906</ele>
        <time>2012-05-07T06:36:41Z</time>
      </trkpt>
      <trkpt lat="43.5805" lon="2.96783">
        <ele>432.73071289062</ele>
        <time>2012-05-07T06:36:47Z</time>
      </trkpt>
      <trkpt lat="43.58055" lon="2.96783">
        <ele>434.17260742188</ele>
        <time>2012-05-07T06:36:54Z</time>
      </trkpt>
      <trkpt lat="43.58059" lon="2.96787">
        <ele>434.17260742188</ele>
        <time>2012-05-07T06:37:01Z</time>
      </trkpt>
      <trkpt lat="43.58063" lon="2.96791">
        <ele>435.13391113281</ele>
        <time>2012-05-07T06:37:07Z</time>
      </trkpt>
      <trkpt lat="43.58068" lon="2.96794">
        <ele>437.05651855469</ele>
        <time>2012-05-07T06:37:13Z</time>
      </trkpt>
      <trkpt lat="43.5807" lon="2.96797">
        <ele>438.49853515625</ele>
        <time>2012-05-07T06:37:17Z</time>
      </trkpt>
      <trkpt lat="43.58073" lon="2.96798">
        <ele>440.42126464844</ele>
        <time>2012-05-07T06:37:23Z</time>
      </trkpt>
      <trkpt lat="43.58075" lon="2.96804">
        <ele>440.42126464844</ele>
        <time>2012-05-07T06:37:28Z</time>
      </trkpt>
      <trkpt lat="43.58079" lon="2.96808">
        <ele>442.34387207031</ele>
        <time>2012-05-07T06:37:33Z</time>
      </trkpt>
      <trkpt lat="43.5808" lon="2.96812">
        <ele>443.78576660156</ele>
        <time>2012-05-07T06:37:39Z</time>
      </trkpt>
      <trkpt lat="43.58082" lon="2.96816">
        <ele>447.15026855469</ele>
        <time>2012-05-07T06:37:45Z</time>
      </trkpt>
      <trkpt lat="43.58084" lon="2.9682">
        <ele>449.5537109375</ele>
        <time>2012-05-07T06:37:50Z</time>
      </trkpt>
      <trkpt lat="43.58088" lon="2.96824">
        <ele>451.47631835938</ele>
        <time>2012-05-07T06:37:55Z</time>
      </trkpt>
      <trkpt lat="43.58092" lon="2.96826">
        <ele>454.8408203125</ele>
        <time>2012-05-07T06:38:00Z</time>
      </trkpt>
      <trkpt lat="43.58094" lon="2.9683">
        <ele>456.76354980469</ele>
        <time>2012-05-07T06:38:06Z</time>
      </trkpt>
      <trkpt lat="43.58091" lon="2.96833">
        <ele>459.16687011719</ele>
        <time>2012-05-07T06:38:12Z</time>
      </trkpt>
      <trkpt lat="43.58085" lon="2.96833">
        <ele>459.64758300781</ele>
        <time>2012-05-07T06:38:17Z</time>
      </trkpt>
      <trkpt lat="43.58082" lon="2.96831">
        <ele>459.16687011719</ele>
        <time>2012-05-07T06:38:20Z</time>
      </trkpt>
      <trkpt lat="43.58075" lon="2.9683">
        <ele>459.64758300781</ele>
        <time>2012-05-07T06:38:26Z</time>
      </trkpt>
      <trkpt lat="43.58072" lon="2.96832">
        <ele>459.16687011719</ele>
        <time>2012-05-07T06:38:30Z</time>
      </trkpt>
      <trkpt lat="43.58073" lon="2.96834">
        <ele>459.64758300781</ele>
        <time>2012-05-07T06:38:32Z</time>
      </trkpt>
      <trkpt lat="43.58078" lon="2.96838">
        <ele>463.01208496094</ele>
        <time>2012-05-07T06:38:39Z</time>
      </trkpt>
      <trkpt lat="43.58082" lon="2.96844">
        <ele>463.01208496094</ele>
        <time>2012-05-07T06:38:45Z</time>
      </trkpt>
      <trkpt lat="43.58086" lon="2.96846">
        <ele>465.41552734375</ele>
        <time>2012-05-07T06:38:51Z</time>
      </trkpt>
      <trkpt lat="43.58091" lon="2.96849">
        <ele>463.49279785156</ele>
        <time>2012-05-07T06:38:57Z</time>
      </trkpt>
      <trkpt lat="43.58095" lon="2.9685">
        <ele>462.53137207031</ele>
        <time>2012-05-07T06:39:03Z</time>
      </trkpt>
      <trkpt lat="43.58099" lon="2.96851">
        <ele>461.57019042969</ele>
        <time>2012-05-07T06:39:07Z</time>
      </trkpt>
      <trkpt lat="43.58104" lon="2.96853">
        <ele>462.05078125</ele>
        <time>2012-05-07T06:39:12Z</time>
      </trkpt>
      <trkpt lat="43.58109" lon="2.96854">
        <ele>463.97338867188</ele>
        <time>2012-05-07T06:39:18Z</time>
      </trkpt>
      <trkpt lat="43.5811" lon="2.96852">
        <ele>466.37670898438</ele>
        <time>2012-05-07T06:39:20Z</time>
      </trkpt>
      <trkpt lat="43.58116" lon="2.96849">
        <ele>470.22192382812</ele>
        <time>2012-05-07T06:39:26Z</time>
      </trkpt>
      <trkpt lat="43.5812" lon="2.96848">
        <ele>474.06726074219</ele>
        <time>2012-05-07T06:39:32Z</time>
      </trkpt>
      <trkpt lat="43.58118" lon="2.96857">
        <ele>472.62536621094</ele>
        <time>2012-05-07T06:39:40Z</time>
      </trkpt>
      <trkpt lat="43.58115" lon="2.96861">
        <ele>469.74133300781</ele>
        <time>2012-05-07T06:39:45Z</time>
      </trkpt>
      <trkpt lat="43.58112" lon="2.96862">
        <ele>470.22192382812</ele>
        <time>2012-05-07T06:39:48Z</time>
      </trkpt>
      <trkpt lat="43.58105" lon="2.96865">
        <ele>470.22192382812</ele>
        <time>2012-05-07T06:39:55Z</time>
      </trkpt>
      <trkpt lat="43.58101" lon="2.96865">
        <ele>473.58666992188</ele>
        <time>2012-05-07T06:40:00Z</time>
      </trkpt>
      <trkpt lat="43.58098" lon="2.96868">
        <ele>472.14465332031</ele>
        <time>2012-05-07T06:40:04Z</time>
      </trkpt>
      <trkpt lat="43.58092" lon="2.96873">
        <ele>470.70263671875</ele>
        <time>2012-05-07T06:40:10Z</time>
      </trkpt>
      <trkpt lat="43.58094" lon="2.96874">
        <ele>475.02868652344</ele>
        <time>2012-05-07T06:40:15Z</time>
      </trkpt>
      <trkpt lat="43.58098" lon="2.96875">
        <ele>473.58666992188</ele>
        <time>2012-05-07T06:40:20Z</time>
      </trkpt>
      <trkpt lat="43.58105" lon="2.96877">
        <ele>474.06726074219</ele>
        <time>2012-05-07T06:40:26Z</time>
      </trkpt>
      <trkpt lat="43.58106" lon="2.96877">
        <ele>474.54797363281</ele>
        <time>2012-05-07T06:40:27Z</time>
      </trkpt>
      <trkpt lat="43.58112" lon="2.96878">
        <ele>476.95129394531</ele>
        <time>2012-05-07T06:40:34Z</time>
      </trkpt>
      <trkpt lat="43.58117" lon="2.96875">
        <ele>482.23852539062</ele>
        <time>2012-05-07T06:40:39Z</time>
      </trkpt>
      <trkpt lat="43.58123" lon="2.96868">
        <ele>484.1611328125</ele>
        <time>2012-05-07T06:40:46Z</time>
      </trkpt>
      <trkpt lat="43.58129" lon="2.96868">
        <ele>481.7578125</ele>
        <time>2012-05-07T06:40:53Z</time>
      </trkpt>
      <trkpt lat="43.5813" lon="2.96872">
        <ele>482.71923828125</ele>
        <time>2012-05-07T06:40:58Z</time>
      </trkpt>
      <trkpt lat="43.58128" lon="2.96877">
        <ele>483.19982910156</ele>
        <time>2012-05-07T06:41:04Z</time>
      </trkpt>
      <trkpt lat="43.58128" lon="2.96881">
        <ele>485.12243652344</ele>
        <time>2012-05-07T06:41:09Z</time>
      </trkpt>
      <trkpt lat="43.58131" lon="2.96879">
        <ele>490.40979003906</ele>
        <time>2012-05-07T06:41:15Z</time>
      </trkpt>
      <trkpt lat="43.58134" lon="2.96876">
        <ele>493.77429199219</ele>
        <time>2012-05-07T06:41:21Z</time>
      </trkpt>
      <trkpt lat="43.58138" lon="2.96881">
        <ele>490.40979003906</ele>
        <time>2012-05-07T06:41:28Z</time>
      </trkpt>
      <trkpt lat="43.58135" lon="2.96886">
        <ele>489.92907714844</ele>
        <time>2012-05-07T06:41:36Z</time>
      </trkpt>
      <trkpt lat="43.58133" lon="2.9689">
        <ele>490.89038085938</ele>
        <time>2012-05-07T06:41:41Z</time>
      </trkpt>
      <trkpt lat="43.5813" lon="2.96896">
        <ele>488.00646972656</ele>
        <time>2012-05-07T06:41:48Z</time>
      </trkpt>
      <trkpt lat="43.58135" lon="2.96897">
        <ele>491.85168457031</ele>
        <time>2012-05-07T06:41:56Z</time>
      </trkpt>
      <trkpt lat="43.5814" lon="2.96892">
        <ele>495.69689941406</ele>
        <time>2012-05-07T06:42:02Z</time>
      </trkpt>
      <trkpt lat="43.58145" lon="2.96889">
        <ele>496.65832519531</ele>
        <time>2012-05-07T06:42:09Z</time>
      </trkpt>
      <trkpt lat="43.58146" lon="2.96893">
        <ele>495.69689941406</ele>
        <time>2012-05-07T06:42:14Z</time>
      </trkpt>
      <trkpt lat="43.58144" lon="2.969">
        <ele>494.73559570312</ele>
        <time>2012-05-07T06:42:20Z</time>
      </trkpt>
      <trkpt lat="43.58141" lon="2.96904">
        <ele>496.177734375</ele>
        <time>2012-05-07T06:42:25Z</time>
      </trkpt>
      <trkpt lat="43.5814" lon="2.96907">
        <ele>498.58093261719</ele>
        <time>2012-05-07T06:42:29Z</time>
      </trkpt>
      <trkpt lat="43.5814" lon="2.96906">
        <ele>509.63610839844</ele>
        <time>2012-05-07T06:42:41Z</time>
      </trkpt>
      <trkpt lat="43.58143" lon="2.96901">
        <ele>513.96203613281</ele>
        <time>2012-05-07T06:42:46Z</time>
      </trkpt>
      <trkpt lat="43.58149" lon="2.96896">
        <ele>516.84594726562</ele>
        <time>2012-05-07T06:42:52Z</time>
      </trkpt>
      <trkpt lat="43.58155" lon="2.96895">
        <ele>514.44262695312</ele>
        <time>2012-05-07T06:42:59Z</time>
      </trkpt>
      <trkpt lat="43.58161" lon="2.96895">
        <ele>514.44262695312</ele>
        <time>2012-05-07T06:43:05Z</time>
      </trkpt>
      <trkpt lat="43.58167" lon="2.96895">
        <ele>513.96203613281</ele>
        <time>2012-05-07T06:43:11Z</time>
      </trkpt>
      <trkpt lat="43.5817" lon="2.96898">
        <ele>511.07800292969</ele>
        <time>2012-05-07T06:43:14Z</time>
      </trkpt>
      <trkpt lat="43.58177" lon="2.96899">
        <ele>510.11669921875</ele>
        <time>2012-05-07T06:43:22Z</time>
      </trkpt>
      <trkpt lat="43.58181" lon="2.96901">
        <ele>508.19409179688</ele>
        <time>2012-05-07T06:43:26Z</time>
      </trkpt>
      <trkpt lat="43.58187" lon="2.96896">
        <ele>509.63610839844</ele>
        <time>2012-05-07T06:43:32Z</time>
      </trkpt>
      <trkpt lat="43.58189" lon="2.96894">
        <ele>511.07800292969</ele>
        <time>2012-05-07T06:43:34Z</time>
      </trkpt>
      <trkpt lat="43.58192" lon="2.96894">
        <ele>511.55871582031</ele>
        <time>2012-05-07T06:43:37Z</time>
      </trkpt>
      <trkpt lat="43.58196" lon="2.96896">
        <ele>511.55871582031</ele>
        <time>2012-05-07T06:43:41Z</time>
      </trkpt>
      <trkpt lat="43.58202" lon="2.96899">
        <ele>512.03942871094</ele>
        <time>2012-05-07T06:43:47Z</time>
      </trkpt>
      <trkpt lat="43.58208" lon="2.96898">
        <ele>513.4814453125</ele>
        <time>2012-05-07T06:43:54Z</time>
      </trkpt>
      <trkpt lat="43.58212" lon="2.96893">
        <ele>520.69128417969</ele>
        <time>2012-05-07T06:43:59Z</time>
      </trkpt>
      <trkpt lat="43.5821" lon="2.969">
        <ele>525.49780273438</ele>
        <time>2012-05-07T06:44:09Z</time>
      </trkpt>
      <trkpt lat="43.58214" lon="2.96904">
        <ele>521.65258789062</ele>
        <time>2012-05-07T06:44:14Z</time>
      </trkpt>
      <trkpt lat="43.58216" lon="2.96904">
        <ele>521.65258789062</ele>
        <time>2012-05-07T06:44:16Z</time>
      </trkpt>
      <trkpt lat="43.58221" lon="2.96904">
        <ele>524.53649902344</ele>
        <time>2012-05-07T06:44:22Z</time>
      </trkpt>
      <trkpt lat="43.5822" lon="2.9691">
        <ele>531.74633789062</ele>
        <time>2012-05-07T06:44:36Z</time>
      </trkpt>
      <trkpt lat="43.58223" lon="2.9691">
        <ele>531.74633789062</ele>
        <time>2012-05-07T06:44:41Z</time>
      </trkpt>
      <trkpt lat="43.58228" lon="2.96909">
        <ele>529.82373046875</ele>
        <time>2012-05-07T06:44:47Z</time>
      </trkpt>
      <trkpt lat="43.58233" lon="2.96909">
        <ele>527.42041015625</ele>
        <time>2012-05-07T06:44:53Z</time>
      </trkpt>
      <trkpt lat="43.58238" lon="2.96906">
        <ele>535.59155273438</ele>
        <time>2012-05-07T06:45:00Z</time>
      </trkpt>
      <trkpt lat="43.58243" lon="2.96905">
        <ele>536.55310058594</ele>
        <time>2012-05-07T06:45:05Z</time>
      </trkpt>
      <trkpt lat="43.58244" lon="2.96903">
        <ele>537.51428222656</ele>
        <time>2012-05-07T06:45:06Z</time>
      </trkpt>
      <trkpt lat="43.5825" lon="2.96898">
        <ele>542.32092285156</ele>
        <time>2012-05-07T06:45:13Z</time>
      </trkpt>
      <trkpt lat="43.58255" lon="2.96896">
        <ele>545.20483398438</ele>
        <time>2012-05-07T06:45:17Z</time>
      </trkpt>
      <trkpt lat="43.58258" lon="2.96892">
        <ele>545.20483398438</ele>
        <time>2012-05-07T06:45:21Z</time>
      </trkpt>
      <trkpt lat="43.58263" lon="2.96879">
        <ele>548.0888671875</ele>
        <time>2012-05-07T06:45:28Z</time>
      </trkpt>
      <trkpt lat="43.58266" lon="2.96881">
        <ele>540.39831542969</ele>
        <time>2012-05-07T06:45:32Z</time>
      </trkpt>
      <trkpt lat="43.58271" lon="2.96881">
        <ele>534.14965820312</ele>
        <time>2012-05-07T06:45:38Z</time>
      </trkpt>
      <trkpt lat="43.58273" lon="2.96882">
        <ele>533.18835449219</ele>
        <time>2012-05-07T06:45:39Z</time>
      </trkpt>
      <trkpt lat="43.58279" lon="2.96884">
        <ele>530.30444335938</ele>
        <time>2012-05-07T06:45:45Z</time>
      </trkpt>
      <trkpt lat="43.58284" lon="2.96881">
        <ele>529.82373046875</ele>
        <time>2012-05-07T06:45:51Z</time>
      </trkpt>
      <trkpt lat="43.58287" lon="2.9688">
        <ele>530.30444335938</ele>
        <time>2012-05-07T06:45:56Z</time>
      </trkpt>
      <trkpt lat="43.5829" lon="2.96878">
        <ele>530.30444335938</ele>
        <time>2012-05-07T06:46:01Z</time>
      </trkpt>
      <trkpt lat="43.58294" lon="2.96879">
        <ele>528.86254882812</ele>
        <time>2012-05-07T06:46:07Z</time>
      </trkpt>
      <trkpt lat="43.58294" lon="2.96882">
        <ele>533.6689453125</ele>
        <time>2012-05-07T06:46:13Z</time>
      </trkpt>
      <trkpt lat="43.58296" lon="2.96885">
        <ele>543.28210449219</ele>
        <time>2012-05-07T06:46:26Z</time>
      </trkpt>
      <trkpt lat="43.58301" lon="2.96884">
        <ele>543.28210449219</ele>
        <time>2012-05-07T06:46:32Z</time>
      </trkpt>
      <trkpt lat="43.58305" lon="2.96883">
        <ele>542.80151367188</ele>
        <time>2012-05-07T06:46:40Z</time>
      </trkpt>
      <trkpt lat="43.58308" lon="2.96879">
        <ele>543.28210449219</ele>
        <time>2012-05-07T06:46:45Z</time>
      </trkpt>
      <trkpt lat="43.5831" lon="2.96876">
        <ele>542.32092285156</ele>
        <time>2012-05-07T06:46:50Z</time>
      </trkpt>
      <trkpt lat="43.58313" lon="2.96871">
        <ele>542.32092285156</ele>
        <time>2012-05-07T06:46:56Z</time>
      </trkpt>
      <trkpt lat="43.58314" lon="2.96863">
        <ele>544.24365234375</ele>
        <time>2012-05-07T06:47:03Z</time>
      </trkpt>
      <trkpt lat="43.58315" lon="2.96855">
        <ele>546.16625976562</ele>
        <time>2012-05-07T06:47:10Z</time>
      </trkpt>
      <trkpt lat="43.58317" lon="2.96847">
        <ele>547.12744140625</ele>
        <time>2012-05-07T06:47:17Z</time>
      </trkpt>
      <trkpt lat="43.58322" lon="2.96845">
        <ele>548.0888671875</ele>
        <time>2012-05-07T06:47:24Z</time>
      </trkpt>
      <trkpt lat="43.58324" lon="2.96849">
        <ele>548.0888671875</ele>
        <time>2012-05-07T06:47:30Z</time>
      </trkpt>
      <trkpt lat="43.58326" lon="2.96853">
        <ele>549.05004882812</ele>
        <time>2012-05-07T06:47:36Z</time>
      </trkpt>
      <trkpt lat="43.58328" lon="2.96858">
        <ele>548.5693359375</ele>
        <time>2012-05-07T06:47:41Z</time>
      </trkpt>
      <trkpt lat="43.5833" lon="2.96864">
        <ele>550.4921875</ele>
        <time>2012-05-07T06:47:46Z</time>
      </trkpt>
      <trkpt lat="43.58332" lon="2.96871">
        <ele>551.45336914062</ele>
        <time>2012-05-07T06:47:52Z</time>
      </trkpt>
      <trkpt lat="43.58334" lon="2.96876">
        <ele>554.81787109375</ele>
        <time>2012-05-07T06:47:59Z</time>
      </trkpt>
      <trkpt lat="43.58335" lon="2.96881">
        <ele>557.22143554688</ele>
        <time>2012-05-07T06:48:07Z</time>
      </trkpt>
      <trkpt lat="43.58336" lon="2.96884">
        <ele>557.7021484375</ele>
        <time>2012-05-07T06:48:11Z</time>
      </trkpt>
      <trkpt lat="43.58338" lon="2.96888">
        <ele>558.66333007812</ele>
        <time>2012-05-07T06:48:17Z</time>
      </trkpt>
      <trkpt lat="43.58335" lon="2.96895">
        <ele>561.54736328125</ele>
        <time>2012-05-07T06:48:22Z</time>
      </trkpt>
      <trkpt lat="43.58336" lon="2.96898">
        <ele>564.91186523438</ele>
        <time>2012-05-07T06:48:28Z</time>
      </trkpt>
      <trkpt lat="43.5834" lon="2.96903">
        <ele>571.64086914062</ele>
        <time>2012-05-07T06:48:39Z</time>
      </trkpt>
      <trkpt lat="43.58342" lon="2.96897">
        <ele>573.08325195312</ele>
        <time>2012-05-07T06:48:48Z</time>
      </trkpt>
      <trkpt lat="43.58344" lon="2.96895">
        <ele>573.08325195312</ele>
        <time>2012-05-07T06:48:55Z</time>
      </trkpt>
      <trkpt lat="43.58343" lon="2.96901">
        <ele>570.19897460938</ele>
        <time>2012-05-07T06:49:00Z</time>
      </trkpt>
      <trkpt lat="43.58345" lon="2.96904">
        <ele>569.71850585938</ele>
        <time>2012-05-07T06:49:04Z</time>
      </trkpt>
      <trkpt lat="43.58347" lon="2.96909">
        <ele>573.08325195312</ele>
        <time>2012-05-07T06:49:10Z</time>
      </trkpt>
      <trkpt lat="43.58346" lon="2.96915">
        <ele>572.6025390625</ele>
        <time>2012-05-07T06:49:16Z</time>
      </trkpt>
      <trkpt lat="43.58348" lon="2.96915">
        <ele>575.486328125</ele>
        <time>2012-05-07T06:49:21Z</time>
      </trkpt>
      <trkpt lat="43.58351" lon="2.96911">
        <ele>577.8896484375</ele>
        <time>2012-05-07T06:49:25Z</time>
      </trkpt>
      <trkpt lat="43.58353" lon="2.96908">
        <ele>578.85107421875</ele>
        <time>2012-05-07T06:49:29Z</time>
      </trkpt>
      <trkpt lat="43.58353" lon="2.96919">
        <ele>581.73486328125</ele>
        <time>2012-05-07T06:49:49Z</time>
      </trkpt>
      <trkpt lat="43.5836" lon="2.96918">
        <ele>584.13818359375</ele>
        <time>2012-05-07T06:50:00Z</time>
      </trkpt>
      <trkpt lat="43.58361" lon="2.96913">
        <ele>590.86743164062</ele>
        <time>2012-05-07T06:50:07Z</time>
      </trkpt>
      <trkpt lat="43.58364" lon="2.96914">
        <ele>594.23217773438</ele>
        <time>2012-05-07T06:50:11Z</time>
      </trkpt>
      <trkpt lat="43.58366" lon="2.96922">
        <ele>592.79028320312</ele>
        <time>2012-05-07T06:50:18Z</time>
      </trkpt>
      <trkpt lat="43.5836" lon="2.96934">
        <ele>595.193359375</ele>
        <time>2012-05-07T06:50:32Z</time>
      </trkpt>
      <trkpt lat="43.58365" lon="2.96935">
        <ele>598.55786132812</ele>
        <time>2012-05-07T06:50:39Z</time>
      </trkpt>
      <trkpt lat="43.58368" lon="2.96932">
        <ele>603.36450195312</ele>
        <time>2012-05-07T06:50:46Z</time>
      </trkpt>
      <trkpt lat="43.58371" lon="2.96928">
        <ele>608.65185546875</ele>
        <time>2012-05-07T06:50:51Z</time>
      </trkpt>
      <trkpt lat="43.58372" lon="2.96927">
        <ele>611.05517578125</ele>
        <time>2012-05-07T06:50:56Z</time>
      </trkpt>
      <trkpt lat="43.58376" lon="2.96929">
        <ele>610.09375</ele>
        <time>2012-05-07T06:51:02Z</time>
      </trkpt>
      <trkpt lat="43.58376" lon="2.96934">
        <ele>608.17138671875</ele>
        <time>2012-05-07T06:51:07Z</time>
      </trkpt>
      <trkpt lat="43.58376" lon="2.96941">
        <ele>604.806640625</ele>
        <time>2012-05-07T06:51:13Z</time>
      </trkpt>
      <trkpt lat="43.58374" lon="2.96946">
        <ele>606.72924804688</ele>
        <time>2012-05-07T06:51:19Z</time>
      </trkpt>
      <trkpt lat="43.58376" lon="2.9695">
        <ele>608.65185546875</ele>
        <time>2012-05-07T06:51:26Z</time>
      </trkpt>
      <trkpt lat="43.58379" lon="2.96947">
        <ele>612.0166015625</ele>
        <time>2012-05-07T06:51:31Z</time>
      </trkpt>
      <trkpt lat="43.58381" lon="2.96949">
        <ele>612.97778320312</ele>
        <time>2012-05-07T06:51:37Z</time>
      </trkpt>
      <trkpt lat="43.58379" lon="2.96956">
        <ele>612.4970703125</ele>
        <time>2012-05-07T06:51:47Z</time>
      </trkpt>
      <trkpt lat="43.58376" lon="2.96959">
        <ele>612.4970703125</ele>
        <time>2012-05-07T06:51:51Z</time>
      </trkpt>
      <trkpt lat="43.58381" lon="2.96959">
        <ele>618.74560546875</ele>
        <time>2012-05-07T06:52:01Z</time>
      </trkpt>
      <trkpt lat="43.58384" lon="2.96959">
        <ele>620.66845703125</ele>
        <time>2012-05-07T06:52:06Z</time>
      </trkpt>
      <trkpt lat="43.58387" lon="2.96954">
        <ele>626.43627929688</ele>
        <time>2012-05-07T06:52:13Z</time>
      </trkpt>
      <trkpt lat="43.58392" lon="2.96947">
        <ele>631.24291992188</ele>
        <time>2012-05-07T06:52:20Z</time>
      </trkpt>
      <trkpt lat="43.58395" lon="2.96943">
        <ele>630.76220703125</ele>
        <time>2012-05-07T06:52:26Z</time>
      </trkpt>
      <trkpt lat="43.58398" lon="2.9694">
        <ele>631.24291992188</ele>
        <time>2012-05-07T06:52:32Z</time>
      </trkpt>
      <trkpt lat="43.584" lon="2.96937">
        <ele>630.28149414062</ele>
        <time>2012-05-07T06:52:37Z</time>
      </trkpt>
      <trkpt lat="43.58407" lon="2.96929">
        <ele>629.32006835938</ele>
        <time>2012-05-07T06:52:52Z</time>
      </trkpt>
      <trkpt lat="43.58408" lon="2.96934">
        <ele>629.32006835938</ele>
        <time>2012-05-07T06:52:56Z</time>
      </trkpt>
      <trkpt lat="43.58411" lon="2.96938">
        <ele>630.28149414062</ele>
        <time>2012-05-07T06:53:01Z</time>
      </trkpt>
      <trkpt lat="43.58411" lon="2.96945">
        <ele>630.28149414062</ele>
        <time>2012-05-07T06:53:06Z</time>
      </trkpt>
      <trkpt lat="43.58411" lon="2.96952">
        <ele>631.72338867188</ele>
        <time>2012-05-07T06:53:12Z</time>
      </trkpt>
      <trkpt lat="43.58411" lon="2.96957">
        <ele>632.2041015625</ele>
        <time>2012-05-07T06:53:16Z</time>
      </trkpt>
      <trkpt lat="43.58409" lon="2.96965">
        <ele>633.64599609375</ele>
        <time>2012-05-07T06:53:21Z</time>
      </trkpt>
      <trkpt lat="43.58407" lon="2.96972">
        <ele>635.56860351562</ele>
        <time>2012-05-07T06:53:27Z</time>
      </trkpt>
      <trkpt lat="43.58406" lon="2.96973">
        <ele>635.08813476562</ele>
        <time>2012-05-07T06:53:28Z</time>
      </trkpt>
      <trkpt lat="43.58402" lon="2.96978">
        <ele>640.37548828125</ele>
        <time>2012-05-07T06:53:34Z</time>
      </trkpt>
      <trkpt lat="43.58403" lon="2.96984">
        <ele>640.85595703125</ele>
        <time>2012-05-07T06:53:40Z</time>
      </trkpt>
      <trkpt lat="43.58401" lon="2.96991">
        <ele>639.4140625</ele>
        <time>2012-05-07T06:53:46Z</time>
      </trkpt>
      <trkpt lat="43.58398" lon="2.96995">
        <ele>639.4140625</ele>
        <time>2012-05-07T06:53:51Z</time>
      </trkpt>
      <trkpt lat="43.58393" lon="2.97">
        <ele>639.89477539062</ele>
        <time>2012-05-07T06:53:57Z</time>
      </trkpt>
      <trkpt lat="43.58393" lon="2.97001">
        <ele>642.29809570312</ele>
        <time>2012-05-07T06:54:02Z</time>
      </trkpt>
      <trkpt lat="43.58396" lon="2.97003">
        <ele>645.18188476562</ele>
        <time>2012-05-07T06:54:07Z</time>
      </trkpt>
      <trkpt lat="43.58397" lon="2.97005">
        <ele>647.58520507812</ele>
        <time>2012-05-07T06:54:12Z</time>
      </trkpt>
      <trkpt lat="43.58395" lon="2.9701">
        <ele>649.5078125</ele>
        <time>2012-05-07T06:54:20Z</time>
      </trkpt>
      <trkpt lat="43.58394" lon="2.97013">
        <ele>653.35327148438</ele>
        <time>2012-05-07T06:54:27Z</time>
      </trkpt>
      <trkpt lat="43.58395" lon="2.97015">
        <ele>654.79516601562</ele>
        <time>2012-05-07T06:54:33Z</time>
      </trkpt>
      <trkpt lat="43.58395" lon="2.97019">
        <ele>655.27587890625</ele>
        <time>2012-05-07T06:54:42Z</time>
      </trkpt>
      <trkpt lat="43.58392" lon="2.97021">
        <ele>657.19848632812</ele>
        <time>2012-05-07T06:54:51Z</time>
      </trkpt>
      <trkpt lat="43.58391" lon="2.97025">
        <ele>656.7177734375</ele>
        <time>2012-05-07T06:54:56Z</time>
      </trkpt>
      <trkpt lat="43.58392" lon="2.97027">
        <ele>659.60180664062</ele>
        <time>2012-05-07T06:55:07Z</time>
      </trkpt>
      <trkpt lat="43.58393" lon="2.9703">
        <ele>659.60180664062</ele>
        <time>2012-05-07T06:55:11Z</time>
      </trkpt>
      <trkpt lat="43.58389" lon="2.97033">
        <ele>659.60180664062</ele>
        <time>2012-05-07T06:55:18Z</time>
      </trkpt>
      <trkpt lat="43.58387" lon="2.97035">
        <ele>661.5244140625</ele>
        <time>2012-05-07T06:55:23Z</time>
      </trkpt>
      <trkpt lat="43.58389" lon="2.97037">
        <ele>663.92749023438</ele>
        <time>2012-05-07T06:55:30Z</time>
      </trkpt>
      <trkpt lat="43.58394" lon="2.97038">
        <ele>663.44702148438</ele>
        <time>2012-05-07T06:55:35Z</time>
      </trkpt>
      <trkpt lat="43.58394" lon="2.97041">
        <ele>662.96630859375</ele>
        <time>2012-05-07T06:55:39Z</time>
      </trkpt>
      <trkpt lat="43.58392" lon="2.97044">
        <ele>662.00512695312</ele>
        <time>2012-05-07T06:55:47Z</time>
      </trkpt>
      <trkpt lat="43.58392" lon="2.97048">
        <ele>663.92749023438</ele>
        <time>2012-05-07T06:55:57Z</time>
      </trkpt>
      <trkpt lat="43.58396" lon="2.97047">
        <ele>667.77270507812</ele>
        <time>2012-05-07T06:56:02Z</time>
      </trkpt>
      <trkpt lat="43.58393" lon="2.97048">
        <ele>671.6181640625</ele>
        <time>2012-05-07T06:56:09Z</time>
      </trkpt>
      <trkpt lat="43.58388" lon="2.9705">
        <ele>669.69580078125</ele>
        <time>2012-05-07T06:56:15Z</time>
      </trkpt>
      <trkpt lat="43.58385" lon="2.97051">
        <ele>667.77270507812</ele>
        <time>2012-05-07T06:56:20Z</time>
      </trkpt>
      <trkpt lat="43.58384" lon="2.97056">
        <ele>668.25366210938</ele>
        <time>2012-05-07T06:56:26Z</time>
      </trkpt>
      <trkpt lat="43.58386" lon="2.97059">
        <ele>668.734375</ele>
        <time>2012-05-07T06:56:31Z</time>
      </trkpt>
      <trkpt lat="43.58388" lon="2.97063">
        <ele>670.65698242188</ele>
        <time>2012-05-07T06:56:38Z</time>
      </trkpt>
      <trkpt lat="43.58388" lon="2.97066">
        <ele>672.57958984375</ele>
        <time>2012-05-07T06:56:43Z</time>
      </trkpt>
      <trkpt lat="43.58385" lon="2.9707">
        <ele>673.541015625</ele>
        <time>2012-05-07T06:56:50Z</time>
      </trkpt>
      <trkpt lat="43.58385" lon="2.97073">
        <ele>674.50219726562</ele>
        <time>2012-05-07T06:56:55Z</time>
      </trkpt>
      <trkpt lat="43.58388" lon="2.97076">
        <ele>675.94409179688</ele>
        <time>2012-05-07T06:57:01Z</time>
      </trkpt>
      <trkpt lat="43.5839" lon="2.97079">
        <ele>676.90551757812</ele>
        <time>2012-05-07T06:57:06Z</time>
      </trkpt>
      <trkpt lat="43.58388" lon="2.97084">
        <ele>675.94409179688</ele>
        <time>2012-05-07T06:57:11Z</time>
      </trkpt>
      <trkpt lat="43.58383" lon="2.97088">
        <ele>674.98291015625</ele>
        <time>2012-05-07T06:57:16Z</time>
      </trkpt>
      <trkpt lat="43.58379" lon="2.9709">
        <ele>674.021484375</ele>
        <time>2012-05-07T06:57:21Z</time>
      </trkpt>
      <trkpt lat="43.58376" lon="2.97092">
        <ele>673.541015625</ele>
        <time>2012-05-07T06:57:24Z</time>
      </trkpt>
      <trkpt lat="43.58376" lon="2.971">
        <ele>672.09887695312</ele>
        <time>2012-05-07T06:57:28Z</time>
      </trkpt>
      <trkpt lat="43.58378" lon="2.97111">
        <ele>671.1376953125</ele>
        <time>2012-05-07T06:57:32Z</time>
      </trkpt>
      <trkpt lat="43.58382" lon="2.97127">
        <ele>671.6181640625</ele>
        <time>2012-05-07T06:57:38Z</time>
      </trkpt>
      <trkpt lat="43.58383" lon="2.97131">
        <ele>672.57958984375</ele>
        <time>2012-05-07T06:57:40Z</time>
      </trkpt>
      <trkpt lat="43.58388" lon="2.9715">
        <ele>673.06030273438</ele>
        <time>2012-05-07T06:57:46Z</time>
      </trkpt>
      <trkpt lat="43.58388" lon="2.97152">
        <ele>673.541015625</ele>
        <time>2012-05-07T06:57:47Z</time>
      </trkpt>
      <trkpt lat="43.58391" lon="2.97168">
        <ele>676.4248046875</ele>
        <time>2012-05-07T06:57:52Z</time>
      </trkpt>
      <trkpt lat="43.58391" lon="2.97171">
        <ele>677.38623046875</ele>
        <time>2012-05-07T06:57:53Z</time>
      </trkpt>
      <trkpt lat="43.58391" lon="2.97185">
        <ele>679.78930664062</ele>
        <time>2012-05-07T06:57:57Z</time>
      </trkpt>
      <trkpt lat="43.58396" lon="2.97208">
        <ele>683.15380859375</ele>
        <time>2012-05-07T06:58:04Z</time>
      </trkpt>
      <trkpt lat="43.58397" lon="2.97213">
        <ele>682.67333984375</ele>
        <time>2012-05-07T06:58:06Z</time>
      </trkpt>
      <trkpt lat="43.58396" lon="2.97224">
        <ele>682.19262695312</ele>
        <time>2012-05-07T06:58:11Z</time>
      </trkpt>
      <trkpt lat="43.58393" lon="2.97235">
        <ele>682.67333984375</ele>
        <time>2012-05-07T06:58:15Z</time>
      </trkpt>
      <trkpt lat="43.58389" lon="2.97246">
        <ele>681.7119140625</ele>
        <time>2012-05-07T06:58:19Z</time>
      </trkpt>
      <trkpt lat="43.58387" lon="2.97258">
        <ele>679.30859375</ele>
        <time>2012-05-07T06:58:24Z</time>
      </trkpt>
      <trkpt lat="43.58387" lon="2.97269">
        <ele>678.34741210938</ele>
        <time>2012-05-07T06:58:28Z</time>
      </trkpt>
      <trkpt lat="43.58385" lon="2.97281">
        <ele>678.34741210938</ele>
        <time>2012-05-07T06:58:34Z</time>
      </trkpt>
      <trkpt lat="43.58386" lon="2.97291">
        <ele>679.78930664062</ele>
        <time>2012-05-07T06:58:37Z</time>
      </trkpt>
      <trkpt lat="43.58383" lon="2.97304">
        <ele>679.30859375</ele>
        <time>2012-05-07T06:58:42Z</time>
      </trkpt>
      <trkpt lat="43.58378" lon="2.97314">
        <ele>682.19262695312</ele>
        <time>2012-05-07T06:58:47Z</time>
      </trkpt>
      <trkpt lat="43.58377" lon="2.97322">
        <ele>685.07690429688</ele>
        <time>2012-05-07T06:58:50Z</time>
      </trkpt>
      <trkpt lat="43.58372" lon="2.97339">
        <ele>685.55737304688</ele>
        <time>2012-05-07T06:58:57Z</time>
      </trkpt>
      <trkpt lat="43.58367" lon="2.97348">
        <ele>687.96069335938</ele>
        <time>2012-05-07T06:59:01Z</time>
      </trkpt>
      <trkpt lat="43.58364" lon="2.97354">
        <ele>687.47998046875</ele>
        <time>2012-05-07T06:59:05Z</time>
      </trkpt>
      <trkpt lat="43.58361" lon="2.97361">
        <ele>686.99926757812</ele>
        <time>2012-05-07T06:59:11Z</time>
      </trkpt>
      <trkpt lat="43.58356" lon="2.97373">
        <ele>690.36401367188</ele>
        <time>2012-05-07T06:59:19Z</time>
      </trkpt>
      <trkpt lat="43.58353" lon="2.97385">
        <ele>688.92211914062</ele>
        <time>2012-05-07T06:59:25Z</time>
      </trkpt>
      <trkpt lat="43.58346" lon="2.97396">
        <ele>687.96069335938</ele>
        <time>2012-05-07T06:59:31Z</time>
      </trkpt>
      <trkpt lat="43.58342" lon="2.97402">
        <ele>687.96069335938</ele>
        <time>2012-05-07T06:59:34Z</time>
      </trkpt>
      <trkpt lat="43.5834" lon="2.97414">
        <ele>688.44140625</ele>
        <time>2012-05-07T06:59:38Z</time>
      </trkpt>
      <trkpt lat="43.58335" lon="2.97428">
        <ele>690.36401367188</ele>
        <time>2012-05-07T06:59:44Z</time>
      </trkpt>
      <trkpt lat="43.58334" lon="2.97432">
        <ele>691.3251953125</ele>
        <time>2012-05-07T06:59:46Z</time>
      </trkpt>
      <trkpt lat="43.58331" lon="2.97441">
        <ele>693.728515625</ele>
        <time>2012-05-07T06:59:51Z</time>
      </trkpt>
      <trkpt lat="43.58328" lon="2.97449">
        <ele>693.728515625</ele>
        <time>2012-05-07T06:59:55Z</time>
      </trkpt>
      <trkpt lat="43.58329" lon="2.97454">
        <ele>693.24780273438</ele>
        <time>2012-05-07T06:59:59Z</time>
      </trkpt>
      <trkpt lat="43.5833" lon="2.97457">
        <ele>693.24780273438</ele>
        <time>2012-05-07T07:00:02Z</time>
      </trkpt>
      <trkpt lat="43.58334" lon="2.97457">
        <ele>694.20922851562</ele>
        <time>2012-05-07T07:00:10Z</time>
      </trkpt>
      <trkpt lat="43.58337" lon="2.97458">
        <ele>694.68969726562</ele>
        <time>2012-05-07T07:00:16Z</time>
      </trkpt>
      <trkpt lat="43.58342" lon="2.97453">
        <ele>695.17041015625</ele>
        <time>2012-05-07T07:00:23Z</time>
      </trkpt>
      <trkpt lat="43.58345" lon="2.9745">
        <ele>695.65112304688</ele>
        <time>2012-05-07T07:00:28Z</time>
      </trkpt>
      <trkpt lat="43.58348" lon="2.97442">
        <ele>697.09301757812</ele>
        <time>2012-05-07T07:00:34Z</time>
      </trkpt>
      <trkpt lat="43.58351" lon="2.97439">
        <ele>697.57373046875</ele>
        <time>2012-05-07T07:00:37Z</time>
      </trkpt>
      <trkpt lat="43.58357" lon="2.97434">
        <ele>699.49633789062</ele>
        <time>2012-05-07T07:00:45Z</time>
      </trkpt>
      <trkpt lat="43.5836" lon="2.97434">
        <ele>701.89990234375</ele>
        <time>2012-05-07T07:00:51Z</time>
      </trkpt>
      <trkpt lat="43.5836" lon="2.9744">
        <ele>703.341796875</ele>
        <time>2012-05-07T07:00:56Z</time>
      </trkpt>
      <trkpt lat="43.5836" lon="2.97446">
        <ele>704.30322265625</ele>
        <time>2012-05-07T07:01:01Z</time>
      </trkpt>
      <trkpt lat="43.58362" lon="2.97452">
        <ele>705.26440429688</ele>
        <time>2012-05-07T07:01:06Z</time>
      </trkpt>
      <trkpt lat="43.58363" lon="2.97461">
        <ele>706.70629882812</ele>
        <time>2012-05-07T07:01:12Z</time>
      </trkpt>
      <trkpt lat="43.58364" lon="2.97464">
        <ele>707.66772460938</ele>
        <time>2012-05-07T07:01:15Z</time>
      </trkpt>
      <trkpt lat="43.58367" lon="2.97472">
        <ele>709.10961914062</ele>
        <time>2012-05-07T07:01:21Z</time>
      </trkpt>
      <trkpt lat="43.58368" lon="2.97473">
        <ele>709.59033203125</ele>
        <time>2012-05-07T07:01:22Z</time>
      </trkpt>
      <trkpt lat="43.58369" lon="2.9748">
        <ele>711.0322265625</ele>
        <time>2012-05-07T07:01:28Z</time>
      </trkpt>
      <trkpt lat="43.58371" lon="2.97487">
        <ele>710.55151367188</ele>
        <time>2012-05-07T07:01:34Z</time>
      </trkpt>
      <trkpt lat="43.58373" lon="2.97484">
        <ele>710.07080078125</ele>
        <time>2012-05-07T07:01:39Z</time>
      </trkpt>
      <trkpt lat="43.58377" lon="2.97478">
        <ele>710.55151367188</ele>
        <time>2012-05-07T07:01:46Z</time>
      </trkpt>
      <trkpt lat="43.58379" lon="2.97473">
        <ele>711.51293945312</ele>
        <time>2012-05-07T07:01:52Z</time>
      </trkpt>
      <trkpt lat="43.58381" lon="2.97469">
        <ele>711.99365234375</ele>
        <time>2012-05-07T07:01:55Z</time>
      </trkpt>
      <trkpt lat="43.58383" lon="2.97463">
        <ele>712.95483398438</ele>
        <time>2012-05-07T07:02:02Z</time>
      </trkpt>
      <trkpt lat="43.58384" lon="2.97461">
        <ele>713.435546875</ele>
        <time>2012-05-07T07:02:03Z</time>
      </trkpt>
      <trkpt lat="43.58388" lon="2.97449">
        <ele>713.916015625</ele>
        <time>2012-05-07T07:02:08Z</time>
      </trkpt>
      <trkpt lat="43.5839" lon="2.97447">
        <ele>714.87744140625</ele>
        <time>2012-05-07T07:02:11Z</time>
      </trkpt>
      <trkpt lat="43.58391" lon="2.9745">
        <ele>715.8388671875</ele>
        <time>2012-05-07T07:02:14Z</time>
      </trkpt>
      <trkpt lat="43.58392" lon="2.97454">
        <ele>716.31958007812</ele>
        <time>2012-05-07T07:02:19Z</time>
      </trkpt>
      <trkpt lat="43.58393" lon="2.97459">
        <ele>716.80029296875</ele>
        <time>2012-05-07T07:02:25Z</time>
      </trkpt>
      <trkpt lat="43.58395" lon="2.97466">
        <ele>717.76147460938</ele>
        <time>2012-05-07T07:02:32Z</time>
      </trkpt>
      <trkpt lat="43.58399" lon="2.97473">
        <ele>719.20361328125</ele>
        <time>2012-05-07T07:02:39Z</time>
      </trkpt>
      <trkpt lat="43.584" lon="2.97482">
        <ele>722.56811523438</ele>
        <time>2012-05-07T07:02:46Z</time>
      </trkpt>
      <trkpt lat="43.58402" lon="2.97482">
        <ele>725.45190429688</ele>
        <time>2012-05-07T07:02:52Z</time>
      </trkpt>
      <trkpt lat="43.58403" lon="2.97479">
        <ele>725.9326171875</ele>
        <time>2012-05-07T07:02:57Z</time>
      </trkpt>
      <trkpt lat="43.58405" lon="2.97471">
        <ele>726.41333007812</ele>
        <time>2012-05-07T07:03:03Z</time>
      </trkpt>
      <trkpt lat="43.58407" lon="2.97465">
        <ele>726.41333007812</ele>
        <time>2012-05-07T07:03:09Z</time>
      </trkpt>
      <trkpt lat="43.58409" lon="2.97458">
        <ele>725.45190429688</ele>
        <time>2012-05-07T07:03:14Z</time>
      </trkpt>
      <trkpt lat="43.58411" lon="2.97445">
        <ele>724.49072265625</ele>
        <time>2012-05-07T07:03:19Z</time>
      </trkpt>
      <trkpt lat="43.58413" lon="2.97437">
        <ele>724.49072265625</ele>
        <time>2012-05-07T07:03:23Z</time>
      </trkpt>
      <trkpt lat="43.58415" lon="2.97429">
        <ele>725.45190429688</ele>
        <time>2012-05-07T07:03:28Z</time>
      </trkpt>
      <trkpt lat="43.58419" lon="2.97425">
        <ele>728.3359375</ele>
        <time>2012-05-07T07:03:36Z</time>
      </trkpt>
      <trkpt lat="43.58422" lon="2.97422">
        <ele>730.25854492188</ele>
        <time>2012-05-07T07:03:42Z</time>
      </trkpt>
      <trkpt lat="43.58425" lon="2.97423">
        <ele>734.58471679688</ele>
        <time>2012-05-07T07:03:48Z</time>
      </trkpt>
      <trkpt lat="43.58427" lon="2.97427">
        <ele>735.0654296875</ele>
        <time>2012-05-07T07:03:54Z</time>
      </trkpt>
      <trkpt lat="43.58428" lon="2.97434">
        <ele>736.02661132812</ele>
        <time>2012-05-07T07:03:59Z</time>
      </trkpt>
      <trkpt lat="43.58429" lon="2.97439">
        <ele>735.5458984375</ele>
        <time>2012-05-07T07:04:03Z</time>
      </trkpt>
      <trkpt lat="43.5843" lon="2.97446">
        <ele>735.0654296875</ele>
        <time>2012-05-07T07:04:07Z</time>
      </trkpt>
      <trkpt lat="43.58432" lon="2.9745">
        <ele>736.98779296875</ele>
        <time>2012-05-07T07:04:10Z</time>
      </trkpt>
      <trkpt lat="43.58434" lon="2.97459">
        <ele>740.3525390625</ele>
        <time>2012-05-07T07:04:16Z</time>
      </trkpt>
      <trkpt lat="43.58435" lon="2.97465">
        <ele>742.27514648438</ele>
        <time>2012-05-07T07:04:21Z</time>
      </trkpt>
      <trkpt lat="43.58438" lon="2.97476">
        <ele>746.12036132812</ele>
        <time>2012-05-07T07:04:28Z</time>
      </trkpt>
      <trkpt lat="43.58439" lon="2.9748">
        <ele>747.56225585938</ele>
        <time>2012-05-07T07:04:31Z</time>
      </trkpt>
      <trkpt lat="43.58442" lon="2.97487">
        <ele>749.48510742188</ele>
        <time>2012-05-07T07:04:37Z</time>
      </trkpt>
      <trkpt lat="43.58444" lon="2.975">
        <ele>750.92700195312</ele>
        <time>2012-05-07T07:04:46Z</time>
      </trkpt>
      <trkpt lat="43.58447" lon="2.97506">
        <ele>751.40771484375</ele>
        <time>2012-05-07T07:04:53Z</time>
      </trkpt>
      <trkpt lat="43.58449" lon="2.97504">
        <ele>751.40771484375</ele>
        <time>2012-05-07T07:04:58Z</time>
      </trkpt>
      <trkpt lat="43.58453" lon="2.97495">
        <ele>751.40771484375</ele>
        <time>2012-05-07T07:05:05Z</time>
      </trkpt>
      <trkpt lat="43.58454" lon="2.97493">
        <ele>751.88842773438</ele>
        <time>2012-05-07T07:05:07Z</time>
      </trkpt>
      <trkpt lat="43.58456" lon="2.97488">
        <ele>751.88842773438</ele>
        <time>2012-05-07T07:05:11Z</time>
      </trkpt>
      <trkpt lat="43.58459" lon="2.97479">
        <ele>752.849609375</ele>
        <time>2012-05-07T07:05:18Z</time>
      </trkpt>
      <trkpt lat="43.58462" lon="2.97472">
        <ele>753.81103515625</ele>
        <time>2012-05-07T07:05:23Z</time>
      </trkpt>
      <trkpt lat="43.58466" lon="2.9746">
        <ele>754.77221679688</ele>
        <time>2012-05-07T07:05:32Z</time>
      </trkpt>
      <trkpt lat="43.58468" lon="2.97454">
        <ele>756.21411132812</ele>
        <time>2012-05-07T07:05:36Z</time>
      </trkpt>
      <trkpt lat="43.58471" lon="2.97444">
        <ele>757.65625</ele>
        <time>2012-05-07T07:05:42Z</time>
      </trkpt>
      <trkpt lat="43.58474" lon="2.97435">
        <ele>759.09814453125</ele>
        <time>2012-05-07T07:05:48Z</time>
      </trkpt>
      <trkpt lat="43.58476" lon="2.97431">
        <ele>760.5400390625</ele>
        <time>2012-05-07T07:05:52Z</time>
      </trkpt>
      <trkpt lat="43.5848" lon="2.97427">
        <ele>762.943359375</ele>
        <time>2012-05-07T07:05:59Z</time>
      </trkpt>
      <trkpt lat="43.58485" lon="2.97423">
        <ele>765.34692382812</ele>
        <time>2012-05-07T07:06:07Z</time>
      </trkpt>
      <trkpt lat="43.58488" lon="2.97424">
        <ele>768.23071289062</ele>
        <time>2012-05-07T07:06:14Z</time>
      </trkpt>
      <trkpt lat="43.58489" lon="2.97426">
        <ele>769.6728515625</ele>
        <time>2012-05-07T07:06:19Z</time>
      </trkpt>
      <trkpt lat="43.58493" lon="2.97432">
        <ele>769.19213867188</ele>
        <time>2012-05-07T07:06:26Z</time>
      </trkpt>
      <trkpt lat="43.58495" lon="2.97438">
        <ele>769.19213867188</ele>
        <time>2012-05-07T07:06:31Z</time>
      </trkpt>
      <trkpt lat="43.58495" lon="2.97443">
        <ele>769.6728515625</ele>
        <time>2012-05-07T07:06:34Z</time>
      </trkpt>
      <trkpt lat="43.58495" lon="2.97453">
        <ele>772.07592773438</ele>
        <time>2012-05-07T07:06:41Z</time>
      </trkpt>
      <trkpt lat="43.58496" lon="2.97452">
        <ele>773.03735351562</ele>
        <time>2012-05-07T07:06:48Z</time>
      </trkpt>
      <trkpt lat="43.58498" lon="2.9745">
        <ele>773.03735351562</ele>
        <time>2012-05-07T07:06:54Z</time>
      </trkpt>
      <trkpt lat="43.585" lon="2.97454">
        <ele>773.03735351562</ele>
        <time>2012-05-07T07:06:58Z</time>
      </trkpt>
      <trkpt lat="43.58497" lon="2.97456">
        <ele>773.51806640625</ele>
        <time>2012-05-07T07:07:02Z</time>
      </trkpt>
      <trkpt lat="43.58498" lon="2.97456">
        <ele>772.556640625</ele>
        <time>2012-05-07T07:07:10Z</time>
      </trkpt>
      <trkpt lat="43.58498" lon="2.97456">
        <ele>774.47924804688</ele>
        <time>2012-05-07T07:07:18Z</time>
      </trkpt>
      <trkpt lat="43.58498" lon="2.97459">
        <ele>775.4404296875</ele>
        <time>2012-05-07T07:07:25Z</time>
      </trkpt>
      <trkpt lat="43.58498" lon="2.97463">
        <ele>775.92114257812</ele>
        <time>2012-05-07T07:07:33Z</time>
      </trkpt>
      <trkpt lat="43.58496" lon="2.97467">
        <ele>774.47924804688</ele>
        <time>2012-05-07T07:07:40Z</time>
      </trkpt>
      <trkpt lat="43.58494" lon="2.97471">
        <ele>771.11474609375</ele>
        <time>2012-05-07T07:07:48Z</time>
      </trkpt>
      <trkpt lat="43.58492" lon="2.97474">
        <ele>770.1533203125</ele>
        <time>2012-05-07T07:07:52Z</time>
      </trkpt>
      <trkpt lat="43.58492" lon="2.97475">
        <ele>768.71142578125</ele>
        <time>2012-05-07T07:08:01Z</time>
      </trkpt>
      <trkpt lat="43.5849" lon="2.97477">
        <ele>766.78881835938</ele>
        <time>2012-05-07T07:08:09Z</time>
      </trkpt>
      <trkpt lat="43.5849" lon="2.97479">
        <ele>766.30810546875</ele>
        <time>2012-05-07T07:08:11Z</time>
      </trkpt>
      <trkpt lat="43.5849" lon="2.97487">
        <ele>768.23071289062</ele>
        <time>2012-05-07T07:08:15Z</time>
      </trkpt>
      <trkpt lat="43.5849" lon="2.97489">
        <ele>769.19213867188</ele>
        <time>2012-05-07T07:08:17Z</time>
      </trkpt>
      <trkpt lat="43.5849" lon="2.97495">
        <ele>770.63403320312</ele>
        <time>2012-05-07T07:08:21Z</time>
      </trkpt>
      <trkpt lat="43.58487" lon="2.97504">
        <ele>773.03735351562</ele>
        <time>2012-05-07T07:08:28Z</time>
      </trkpt>
      <trkpt lat="43.58488" lon="2.97508">
        <ele>772.556640625</ele>
        <time>2012-05-07T07:08:31Z</time>
      </trkpt>
      <trkpt lat="43.58488" lon="2.9751">
        <ele>773.03735351562</ele>
        <time>2012-05-07T07:08:33Z</time>
      </trkpt>
      <trkpt lat="43.58493" lon="2.9751">
        <ele>774.9599609375</ele>
        <time>2012-05-07T07:08:39Z</time>
      </trkpt>
      <trkpt lat="43.58496" lon="2.97506">
        <ele>774.9599609375</ele>
        <time>2012-05-07T07:08:43Z</time>
      </trkpt>
      <trkpt lat="43.58499" lon="2.97502">
        <ele>774.9599609375</ele>
        <time>2012-05-07T07:08:49Z</time>
      </trkpt>
      <trkpt lat="43.58503" lon="2.97495">
        <ele>775.92114257812</ele>
        <time>2012-05-07T07:08:55Z</time>
      </trkpt>
      <trkpt lat="43.58504" lon="2.97493">
        <ele>776.40185546875</ele>
        <time>2012-05-07T07:08:57Z</time>
      </trkpt>
      <trkpt lat="43.58508" lon="2.97487">
        <ele>777.84375</ele>
        <time>2012-05-07T07:09:02Z</time>
      </trkpt>
      <trkpt lat="43.58511" lon="2.97479">
        <ele>778.80517578125</ele>
        <time>2012-05-07T07:09:09Z</time>
      </trkpt>
      <trkpt lat="43.58514" lon="2.97473">
        <ele>779.28564453125</ele>
        <time>2012-05-07T07:09:15Z</time>
      </trkpt>
      <trkpt lat="43.58519" lon="2.97466">
        <ele>780.24731445312</ele>
        <time>2012-05-07T07:09:23Z</time>
      </trkpt>
      <trkpt lat="43.58522" lon="2.97469">
        <ele>780.72802734375</ele>
        <time>2012-05-07T07:09:28Z</time>
      </trkpt>
      <trkpt lat="43.58522" lon="2.97473">
        <ele>782.169921875</ele>
        <time>2012-05-07T07:09:32Z</time>
      </trkpt>
      <trkpt lat="43.58525" lon="2.97478">
        <ele>782.169921875</ele>
        <time>2012-05-07T07:09:38Z</time>
      </trkpt>
      <trkpt lat="43.58526" lon="2.97482">
        <ele>784.09252929688</ele>
        <time>2012-05-07T07:09:43Z</time>
      </trkpt>
      <trkpt lat="43.5853" lon="2.97489">
        <ele>785.53442382812</ele>
        <time>2012-05-07T07:09:49Z</time>
      </trkpt>
      <trkpt lat="43.58531" lon="2.97493">
        <ele>786.97631835938</ele>
        <time>2012-05-07T07:09:53Z</time>
      </trkpt>
      <trkpt lat="43.58532" lon="2.975">
        <ele>788.41845703125</ele>
        <time>2012-05-07T07:09:57Z</time>
      </trkpt>
      <trkpt lat="43.58536" lon="2.97509">
        <ele>791.78295898438</ele>
        <time>2012-05-07T07:10:04Z</time>
      </trkpt>
      <trkpt lat="43.58539" lon="2.97511">
        <ele>794.18627929688</ele>
        <time>2012-05-07T07:10:09Z</time>
      </trkpt>
      <trkpt lat="43.58545" lon="2.97508">
        <ele>794.66674804688</ele>
        <time>2012-05-07T07:10:16Z</time>
      </trkpt>
      <trkpt lat="43.58548" lon="2.97505">
        <ele>794.18627929688</ele>
        <time>2012-05-07T07:10:19Z</time>
      </trkpt>
      <trkpt lat="43.58553" lon="2.97497">
        <ele>793.70556640625</ele>
        <time>2012-05-07T07:10:25Z</time>
      </trkpt>
      <trkpt lat="43.58554" lon="2.97497">
        <ele>793.70556640625</ele>
        <time>2012-05-07T07:10:26Z</time>
      </trkpt>
      <trkpt lat="43.58556" lon="2.97487">
        <ele>793.22485351562</ele>
        <time>2012-05-07T07:10:33Z</time>
      </trkpt>
      <trkpt lat="43.58557" lon="2.97476">
        <ele>794.18627929688</ele>
        <time>2012-05-07T07:10:39Z</time>
      </trkpt>
      <trkpt lat="43.58558" lon="2.97473">
        <ele>794.18627929688</ele>
        <time>2012-05-07T07:10:41Z</time>
      </trkpt>
      <trkpt lat="43.58559" lon="2.97464">
        <ele>795.62817382812</ele>
        <time>2012-05-07T07:10:47Z</time>
      </trkpt>
      <trkpt lat="43.5856" lon="2.97463">
        <ele>796.10913085938</ele>
        <time>2012-05-07T07:10:48Z</time>
      </trkpt>
      <trkpt lat="43.5856" lon="2.97458">
        <ele>796.58984375</ele>
        <time>2012-05-07T07:10:51Z</time>
      </trkpt>
      <trkpt lat="43.58558" lon="2.97448">
        <ele>796.58984375</ele>
        <time>2012-05-07T07:10:55Z</time>
      </trkpt>
      <trkpt lat="43.58562" lon="2.9744">
        <ele>797.0703125</ele>
        <time>2012-05-07T07:11:01Z</time>
      </trkpt>
      <trkpt lat="43.58563" lon="2.97436">
        <ele>798.03173828125</ele>
        <time>2012-05-07T07:11:03Z</time>
      </trkpt>
      <trkpt lat="43.58568" lon="2.97427">
        <ele>799.95434570312</ele>
        <time>2012-05-07T07:11:10Z</time>
      </trkpt>
      <trkpt lat="43.5857" lon="2.97424">
        <ele>800.91552734375</ele>
        <time>2012-05-07T07:11:12Z</time>
      </trkpt>
      <trkpt lat="43.58574" lon="2.97426">
        <ele>803.79956054688</ele>
        <time>2012-05-07T07:11:18Z</time>
      </trkpt>
      <trkpt lat="43.58577" lon="2.97435">
        <ele>805.72216796875</ele>
        <time>2012-05-07T07:11:25Z</time>
      </trkpt>
      <trkpt lat="43.5858" lon="2.97441">
        <ele>806.68334960938</ele>
        <time>2012-05-07T07:11:30Z</time>
      </trkpt>
      <trkpt lat="43.58584" lon="2.97446">
        <ele>809.08666992188</ele>
        <time>2012-05-07T07:11:36Z</time>
      </trkpt>
      <trkpt lat="43.58589" lon="2.97452">
        <ele>811.48999023438</ele>
        <time>2012-05-07T07:11:43Z</time>
      </trkpt>
      <trkpt lat="43.58591" lon="2.97457">
        <ele>812.93212890625</ele>
        <time>2012-05-07T07:11:49Z</time>
      </trkpt>
      <trkpt lat="43.58595" lon="2.97461">
        <ele>813.41284179688</ele>
        <time>2012-05-07T07:11:53Z</time>
      </trkpt>
      <trkpt lat="43.58596" lon="2.97464">
        <ele>813.89331054688</ele>
        <time>2012-05-07T07:11:55Z</time>
      </trkpt>
      <trkpt lat="43.58598" lon="2.97466">
        <ele>814.3740234375</ele>
        <time>2012-05-07T07:11:57Z</time>
      </trkpt>
      <trkpt lat="43.58602" lon="2.9747">
        <ele>813.89331054688</ele>
        <time>2012-05-07T07:12:01Z</time>
      </trkpt>
      <trkpt lat="43.58603" lon="2.97475">
        <ele>813.41284179688</ele>
        <time>2012-05-07T07:12:04Z</time>
      </trkpt>
      <trkpt lat="43.58605" lon="2.9748">
        <ele>813.89331054688</ele>
        <time>2012-05-07T07:12:07Z</time>
      </trkpt>
      <trkpt lat="43.58609" lon="2.97486">
        <ele>815.81616210938</ele>
        <time>2012-05-07T07:12:14Z</time>
      </trkpt>
      <trkpt lat="43.58611" lon="2.9748">
        <ele>817.73852539062</ele>
        <time>2012-05-07T07:12:20Z</time>
      </trkpt>
      <trkpt lat="43.58613" lon="2.97476">
        <ele>818.69995117188</ele>
        <time>2012-05-07T07:12:24Z</time>
      </trkpt>
      <trkpt lat="43.58616" lon="2.97469">
        <ele>818.69995117188</ele>
        <time>2012-05-07T07:12:31Z</time>
      </trkpt>
      <trkpt lat="43.58618" lon="2.97465">
        <ele>818.69995117188</ele>
        <time>2012-05-07T07:12:35Z</time>
      </trkpt>
      <trkpt lat="43.58622" lon="2.97456">
        <ele>820.62255859375</ele>
        <time>2012-05-07T07:12:43Z</time>
      </trkpt>
      <trkpt lat="43.58624" lon="2.97452">
        <ele>821.58374023438</ele>
        <time>2012-05-07T07:12:47Z</time>
      </trkpt>
      <trkpt lat="43.58625" lon="2.97445">
        <ele>822.54516601562</ele>
        <time>2012-05-07T07:12:52Z</time>
      </trkpt>
      <trkpt lat="43.58625" lon="2.97443">
        <ele>822.54516601562</ele>
        <time>2012-05-07T07:12:53Z</time>
      </trkpt>
      <trkpt lat="43.58624" lon="2.97439">
        <ele>823.02587890625</ele>
        <time>2012-05-07T07:12:56Z</time>
      </trkpt>
      <trkpt lat="43.58625" lon="2.97435">
        <ele>823.98706054688</ele>
        <time>2012-05-07T07:12:59Z</time>
      </trkpt>
      <trkpt lat="43.58627" lon="2.97429">
        <ele>825.42895507812</ele>
        <time>2012-05-07T07:13:04Z</time>
      </trkpt>
      <trkpt lat="43.58628" lon="2.97429">
        <ele>825.90966796875</ele>
        <time>2012-05-07T07:13:06Z</time>
      </trkpt>
      <trkpt lat="43.5863" lon="2.97433">
        <ele>828.31323242188</ele>
        <time>2012-05-07T07:13:11Z</time>
      </trkpt>
      <trkpt lat="43.58636" lon="2.97437">
        <ele>830.23583984375</ele>
        <time>2012-05-07T07:13:18Z</time>
      </trkpt>
      <trkpt lat="43.5864" lon="2.9744">
        <ele>833.11962890625</ele>
        <time>2012-05-07T07:13:24Z</time>
      </trkpt>
      <trkpt lat="43.58643" lon="2.97445">
        <ele>833.60034179688</ele>
        <time>2012-05-07T07:13:30Z</time>
      </trkpt>
      <trkpt lat="43.58648" lon="2.97451">
        <ele>834.0810546875</ele>
        <time>2012-05-07T07:13:36Z</time>
      </trkpt>
      <trkpt lat="43.58653" lon="2.97456">
        <ele>836.00366210938</ele>
        <time>2012-05-07T07:13:43Z</time>
      </trkpt>
      <trkpt lat="43.58657" lon="2.97462">
        <ele>835.52294921875</ele>
        <time>2012-05-07T07:13:49Z</time>
      </trkpt>
      <trkpt lat="43.58661" lon="2.97468">
        <ele>835.52294921875</ele>
        <time>2012-05-07T07:13:55Z</time>
      </trkpt>
      <trkpt lat="43.58664" lon="2.97464">
        <ele>836.96484375</ele>
        <time>2012-05-07T07:14:02Z</time>
      </trkpt>
      <trkpt lat="43.58667" lon="2.97459">
        <ele>837.92626953125</ele>
        <time>2012-05-07T07:14:08Z</time>
      </trkpt>
      <trkpt lat="43.58668" lon="2.97454">
        <ele>839.3681640625</ele>
        <time>2012-05-07T07:14:13Z</time>
      </trkpt>
      <trkpt lat="43.5867" lon="2.97449">
        <ele>840.32958984375</ele>
        <time>2012-05-07T07:14:18Z</time>
      </trkpt>
      <trkpt lat="43.58671" lon="2.97441">
        <ele>841.771484375</ele>
        <time>2012-05-07T07:14:25Z</time>
      </trkpt>
      <trkpt lat="43.58673" lon="2.97436">
        <ele>841.771484375</ele>
        <time>2012-05-07T07:14:30Z</time>
      </trkpt>
      <trkpt lat="43.58675" lon="2.97427">
        <ele>843.21337890625</ele>
        <time>2012-05-07T07:14:37Z</time>
      </trkpt>
      <trkpt lat="43.58676" lon="2.9742">
        <ele>845.13623046875</ele>
        <time>2012-05-07T07:14:43Z</time>
      </trkpt>
      <trkpt lat="43.58678" lon="2.97413">
        <ele>846.57836914062</ele>
        <time>2012-05-07T07:14:50Z</time>
      </trkpt>
      <trkpt lat="43.58681" lon="2.97414">
        <ele>847.05883789062</ele>
        <time>2012-05-07T07:14:55Z</time>
      </trkpt>
      <trkpt lat="43.58682" lon="2.97416">
        <ele>849.46215820312</ele>
        <time>2012-05-07T07:15:00Z</time>
      </trkpt>
      <trkpt lat="43.58683" lon="2.97419">
        <ele>849.46215820312</ele>
        <time>2012-05-07T07:15:04Z</time>
      </trkpt>
      <trkpt lat="43.58684" lon="2.97422">
        <ele>851.86547851562</ele>
        <time>2012-05-07T07:15:09Z</time>
      </trkpt>
      <trkpt lat="43.58688" lon="2.97418">
        <ele>851.86547851562</ele>
        <time>2012-05-07T07:15:14Z</time>
      </trkpt>
      <trkpt lat="43.58692" lon="2.97411">
        <ele>852.34594726562</ele>
        <time>2012-05-07T07:15:21Z</time>
      </trkpt>
      <trkpt lat="43.58693" lon="2.97408">
        <ele>851.86547851562</ele>
        <time>2012-05-07T07:15:25Z</time>
      </trkpt>
      <trkpt lat="43.58695" lon="2.97402">
        <ele>853.30737304688</ele>
        <time>2012-05-07T07:15:32Z</time>
      </trkpt>
      <trkpt lat="43.58695" lon="2.97396">
        <ele>855.22998046875</ele>
        <time>2012-05-07T07:15:37Z</time>
      </trkpt>
      <trkpt lat="43.58698" lon="2.97395">
        <ele>857.15258789062</ele>
        <time>2012-05-07T07:15:42Z</time>
      </trkpt>
      <trkpt lat="43.58701" lon="2.97399">
        <ele>859.0751953125</ele>
        <time>2012-05-07T07:15:48Z</time>
      </trkpt>
      <trkpt lat="43.58704" lon="2.97401">
        <ele>861.95947265625</ele>
        <time>2012-05-07T07:15:54Z</time>
      </trkpt>
      <trkpt lat="43.58708" lon="2.97402">
        <ele>863.8818359375</ele>
        <time>2012-05-07T07:15:59Z</time>
      </trkpt>
      <trkpt lat="43.5871" lon="2.97407">
        <ele>864.84326171875</ele>
        <time>2012-05-07T07:16:04Z</time>
      </trkpt>
      <trkpt lat="43.58711" lon="2.97414">
        <ele>863.4013671875</ele>
        <time>2012-05-07T07:16:10Z</time>
      </trkpt>
      <trkpt lat="43.58714" lon="2.9742">
        <ele>864.84326171875</ele>
        <time>2012-05-07T07:16:16Z</time>
      </trkpt>
      <trkpt lat="43.58716" lon="2.97423">
        <ele>866.28515625</ele>
        <time>2012-05-07T07:16:22Z</time>
      </trkpt>
      <trkpt lat="43.58719" lon="2.97429">
        <ele>868.6884765625</ele>
        <time>2012-05-07T07:16:29Z</time>
      </trkpt>
      <trkpt lat="43.58722" lon="2.97431">
        <ele>870.13037109375</ele>
        <time>2012-05-07T07:16:35Z</time>
      </trkpt>
      <trkpt lat="43.58725" lon="2.97428">
        <ele>872.05297851562</ele>
        <time>2012-05-07T07:16:41Z</time>
      </trkpt>
      <trkpt lat="43.58727" lon="2.97422">
        <ele>873.01440429688</ele>
        <time>2012-05-07T07:16:48Z</time>
      </trkpt>
      <trkpt lat="43.5873" lon="2.97416">
        <ele>873.9755859375</ele>
        <time>2012-05-07T07:16:54Z</time>
      </trkpt>
      <trkpt lat="43.58732" lon="2.9741">
        <ele>875.89819335938</ele>
        <time>2012-05-07T07:17:00Z</time>
      </trkpt>
      <trkpt lat="43.58732" lon="2.97406">
        <ele>876.85986328125</ele>
        <time>2012-05-07T07:17:04Z</time>
      </trkpt>
      <trkpt lat="43.58735" lon="2.974">
        <ele>878.78247070312</ele>
        <time>2012-05-07T07:17:09Z</time>
      </trkpt>
      <trkpt lat="43.58738" lon="2.97394">
        <ele>879.26293945312</ele>
        <time>2012-05-07T07:17:14Z</time>
      </trkpt>
      <trkpt lat="43.58742" lon="2.97393">
        <ele>880.705078125</ele>
        <time>2012-05-07T07:17:21Z</time>
      </trkpt>
      <trkpt lat="43.58744" lon="2.97398">
        <ele>882.62768554688</ele>
        <time>2012-05-07T07:17:27Z</time>
      </trkpt>
      <trkpt lat="43.58747" lon="2.97405">
        <ele>884.06958007812</ele>
        <time>2012-05-07T07:17:34Z</time>
      </trkpt>
      <trkpt lat="43.58749" lon="2.97409">
        <ele>885.03100585938</ele>
        <time>2012-05-07T07:17:38Z</time>
      </trkpt>
      <trkpt lat="43.58751" lon="2.97415">
        <ele>886.95336914062</ele>
        <time>2012-05-07T07:17:44Z</time>
      </trkpt>
      <trkpt lat="43.58755" lon="2.97422">
        <ele>888.87622070312</ele>
        <time>2012-05-07T07:17:51Z</time>
      </trkpt>
      <trkpt lat="43.58757" lon="2.97428">
        <ele>889.83740234375</ele>
        <time>2012-05-07T07:17:57Z</time>
      </trkpt>
      <trkpt lat="43.58761" lon="2.97433">
        <ele>891.279296875</ele>
        <time>2012-05-07T07:18:03Z</time>
      </trkpt>
      <trkpt lat="43.58764" lon="2.97435">
        <ele>892.24096679688</ele>
        <time>2012-05-07T07:18:09Z</time>
      </trkpt>
      <trkpt lat="43.58765" lon="2.97432">
        <ele>893.68286132812</ele>
        <time>2012-05-07T07:18:13Z</time>
      </trkpt>
      <trkpt lat="43.58769" lon="2.97432">
        <ele>894.64404296875</ele>
        <time>2012-05-07T07:18:18Z</time>
      </trkpt>
      <trkpt lat="43.58772" lon="2.97435">
        <ele>895.60546875</ele>
        <time>2012-05-07T07:18:22Z</time>
      </trkpt>
      <trkpt lat="43.58775" lon="2.97438">
        <ele>896.56689453125</ele>
        <time>2012-05-07T07:18:27Z</time>
      </trkpt>
      <trkpt lat="43.58781" lon="2.97444">
        <ele>898.96997070312</ele>
        <time>2012-05-07T07:18:35Z</time>
      </trkpt>
      <trkpt lat="43.58786" lon="2.97446">
        <ele>900.892578125</ele>
        <time>2012-05-07T07:18:41Z</time>
      </trkpt>
      <trkpt lat="43.58785" lon="2.97441">
        <ele>901.37329101562</ele>
        <time>2012-05-07T07:18:47Z</time>
      </trkpt>
      <trkpt lat="43.58788" lon="2.97441">
        <ele>902.33447265625</ele>
        <time>2012-05-07T07:18:52Z</time>
      </trkpt>
      <trkpt lat="43.58792" lon="2.97445">
        <ele>903.77661132812</ele>
        <time>2012-05-07T07:18:58Z</time>
      </trkpt>
      <trkpt lat="43.58798" lon="2.97446">
        <ele>906.1796875</ele>
        <time>2012-05-07T07:19:05Z</time>
      </trkpt>
      <trkpt lat="43.58802" lon="2.97447">
        <ele>906.66040039062</ele>
        <time>2012-05-07T07:19:11Z</time>
      </trkpt>
      <trkpt lat="43.58801" lon="2.97446">
        <ele>908.10278320312</ele>
        <time>2012-05-07T07:19:14Z</time>
      </trkpt>
      <trkpt lat="43.58804" lon="2.97445">
        <ele>909.06396484375</ele>
        <time>2012-05-07T07:19:18Z</time>
      </trkpt>
      <trkpt lat="43.58807" lon="2.97448">
        <ele>910.02514648438</ele>
        <time>2012-05-07T07:19:24Z</time>
      </trkpt>
      <trkpt lat="43.58811" lon="2.97448">
        <ele>910.98657226562</ele>
        <time>2012-05-07T07:19:29Z</time>
      </trkpt>
      <trkpt lat="43.58817" lon="2.97452">
        <ele>911.94799804688</ele>
        <time>2012-05-07T07:19:35Z</time>
      </trkpt>
      <trkpt lat="43.58825" lon="2.97458">
        <ele>913.87036132812</ele>
        <time>2012-05-07T07:19:42Z</time>
      </trkpt>
      <trkpt lat="43.5883" lon="2.97463">
        <ele>915.3125</ele>
        <time>2012-05-07T07:19:48Z</time>
      </trkpt>
      <trkpt lat="43.58838" lon="2.97468">
        <ele>917.23510742188</ele>
        <time>2012-05-07T07:19:57Z</time>
      </trkpt>
      <trkpt lat="43.58842" lon="2.97471">
        <ele>916.75439453125</ele>
        <time>2012-05-07T07:20:03Z</time>
      </trkpt>
      <trkpt lat="43.58847" lon="2.97474">
        <ele>915.79321289062</ele>
        <time>2012-05-07T07:20:08Z</time>
      </trkpt>
      <trkpt lat="43.58851" lon="2.97476">
        <ele>916.27368164062</ele>
        <time>2012-05-07T07:20:12Z</time>
      </trkpt>
      <trkpt lat="43.58855" lon="2.97479">
        <ele>916.75439453125</ele>
        <time>2012-05-07T07:20:17Z</time>
      </trkpt>
      <trkpt lat="43.58858" lon="2.97481">
        <ele>917.71557617188</ele>
        <time>2012-05-07T07:20:22Z</time>
      </trkpt>
      <trkpt lat="43.58864" lon="2.97485">
        <ele>918.67700195312</ele>
        <time>2012-05-07T07:20:29Z</time>
      </trkpt>
      <trkpt lat="43.5887" lon="2.97485">
        <ele>920.11889648438</ele>
        <time>2012-05-07T07:20:35Z</time>
      </trkpt>
      <trkpt lat="43.58874" lon="2.97482">
        <ele>920.599609375</ele>
        <time>2012-05-07T07:20:41Z</time>
      </trkpt>
      <trkpt lat="43.58878" lon="2.97481">
        <ele>918.67700195312</ele>
        <time>2012-05-07T07:20:45Z</time>
      </trkpt>
      <trkpt lat="43.58879" lon="2.9748">
        <ele>918.67700195312</ele>
        <time>2012-05-07T07:20:46Z</time>
      </trkpt>
      <trkpt lat="43.58884" lon="2.97479">
        <ele>917.71557617188</ele>
        <time>2012-05-07T07:20:50Z</time>
      </trkpt>
      <trkpt lat="43.58888" lon="2.97478">
        <ele>917.71557617188</ele>
        <time>2012-05-07T07:20:54Z</time>
      </trkpt>
      <trkpt lat="43.58894" lon="2.97479">
        <ele>918.67700195312</ele>
        <time>2012-05-07T07:21:00Z</time>
      </trkpt>
      <trkpt lat="43.58897" lon="2.9748">
        <ele>918.67700195312</ele>
        <time>2012-05-07T07:21:04Z</time>
      </trkpt>
      <trkpt lat="43.58901" lon="2.97481">
        <ele>921.56079101562</ele>
        <time>2012-05-07T07:21:08Z</time>
      </trkpt>
      <trkpt lat="43.58908" lon="2.97479">
        <ele>923.48364257812</ele>
        <time>2012-05-07T07:21:14Z</time>
      </trkpt>
      <trkpt lat="43.58911" lon="2.9748">
        <ele>924.92578125</ele>
        <time>2012-05-07T07:21:18Z</time>
      </trkpt>
      <trkpt lat="43.58917" lon="2.97482">
        <ele>926.84838867188</ele>
        <time>2012-05-07T07:21:23Z</time>
      </trkpt>
      <trkpt lat="43.58922" lon="2.97484">
        <ele>927.8095703125</ele>
        <time>2012-05-07T07:21:28Z</time>
      </trkpt>
      <trkpt lat="43.58928" lon="2.97486">
        <ele>929.25146484375</ele>
        <time>2012-05-07T07:21:33Z</time>
      </trkpt>
      <trkpt lat="43.5893" lon="2.97486">
        <ele>929.73217773438</ele>
        <time>2012-05-07T07:21:36Z</time>
      </trkpt>
      <trkpt lat="43.58936" lon="2.97488">
        <ele>929.73217773438</ele>
        <time>2012-05-07T07:21:41Z</time>
      </trkpt>
      <trkpt lat="43.58938" lon="2.9749">
        <ele>929.25146484375</ele>
        <time>2012-05-07T07:21:43Z</time>
      </trkpt>
      <trkpt lat="43.58945" lon="2.97491">
        <ele>927.3291015625</ele>
        <time>2012-05-07T07:21:50Z</time>
      </trkpt>
      <trkpt lat="43.5895" lon="2.97493">
        <ele>928.29028320312</ele>
        <time>2012-05-07T07:21:56Z</time>
      </trkpt>
      <trkpt lat="43.58953" lon="2.97495">
        <ele>930.212890625</ele>
        <time>2012-05-07T07:21:59Z</time>
      </trkpt>
      <trkpt lat="43.58957" lon="2.97496">
        <ele>932.6162109375</ele>
        <time>2012-05-07T07:22:07Z</time>
      </trkpt>
      <trkpt lat="43.58957" lon="2.97493">
        <ele>933.0966796875</ele>
        <time>2012-05-07T07:22:11Z</time>
      </trkpt>
      <trkpt lat="43.58957" lon="2.97489">
        <ele>933.0966796875</ele>
        <time>2012-05-07T07:22:16Z</time>
      </trkpt>
      <trkpt lat="43.58956" lon="2.97485">
        <ele>933.57739257812</ele>
        <time>2012-05-07T07:22:21Z</time>
      </trkpt>
      <trkpt lat="43.58959" lon="2.97486">
        <ele>934.53881835938</ele>
        <time>2012-05-07T07:22:26Z</time>
      </trkpt>
      <trkpt lat="43.58962" lon="2.97488">
        <ele>935.5</ele>
        <time>2012-05-07T07:22:30Z</time>
      </trkpt>
      <trkpt lat="43.58963" lon="2.97489">
        <ele>938.86474609375</ele>
        <time>2012-05-07T07:22:35Z</time>
      </trkpt>
      <trkpt lat="43.58965" lon="2.97492">
        <ele>940.30688476562</ele>
        <time>2012-05-07T07:22:41Z</time>
      </trkpt>
      <trkpt lat="43.58967" lon="2.97492">
        <ele>941.26806640625</ele>
        <time>2012-05-07T07:22:45Z</time>
      </trkpt>
      <trkpt lat="43.58967" lon="2.97488">
        <ele>943.19067382812</ele>
        <time>2012-05-07T07:22:50Z</time>
      </trkpt>
      <trkpt lat="43.58966" lon="2.97484">
        <ele>944.15209960938</ele>
        <time>2012-05-07T07:22:55Z</time>
      </trkpt>
      <trkpt lat="43.58966" lon="2.9748">
        <ele>946.07470703125</ele>
        <time>2012-05-07T07:23:00Z</time>
      </trkpt>
      <trkpt lat="43.58967" lon="2.97475">
        <ele>946.07470703125</ele>
        <time>2012-05-07T07:23:05Z</time>
      </trkpt>
      <trkpt lat="43.58971" lon="2.97477">
        <ele>946.55541992188</ele>
        <time>2012-05-07T07:23:11Z</time>
      </trkpt>
      <trkpt lat="43.58971" lon="2.97478">
        <ele>946.55541992188</ele>
        <time>2012-05-07T07:23:14Z</time>
      </trkpt>
      <trkpt lat="43.58971" lon="2.97482">
        <ele>948.47778320312</ele>
        <time>2012-05-07T07:23:18Z</time>
      </trkpt>
      <trkpt lat="43.58974" lon="2.97479">
        <ele>947.99731445312</ele>
        <time>2012-05-07T07:23:23Z</time>
      </trkpt>
      <trkpt lat="43.58977" lon="2.97481">
        <ele>947.5166015625</ele>
        <time>2012-05-07T07:23:28Z</time>
      </trkpt>
      <trkpt lat="43.58976" lon="2.97474">
        <ele>950.88110351562</ele>
        <time>2012-05-07T07:23:38Z</time>
      </trkpt>
      <trkpt lat="43.58976" lon="2.9747">
        <ele>952.8037109375</ele>
        <time>2012-05-07T07:23:43Z</time>
      </trkpt>
      <trkpt lat="43.58978" lon="2.97467">
        <ele>955.68774414062</ele>
        <time>2012-05-07T07:23:49Z</time>
      </trkpt>
      <trkpt lat="43.58981" lon="2.97469">
        <ele>960.013671875</ele>
        <time>2012-05-07T07:23:55Z</time>
      </trkpt>
      <trkpt lat="43.58983" lon="2.97471">
        <ele>960.97509765625</ele>
        <time>2012-05-07T07:23:59Z</time>
      </trkpt>
      <trkpt lat="43.58987" lon="2.97472">
        <ele>961.9365234375</ele>
        <time>2012-05-07T07:24:05Z</time>
      </trkpt>
      <trkpt lat="43.58991" lon="2.97471">
        <ele>963.85888671875</ele>
        <time>2012-05-07T07:24:11Z</time>
      </trkpt>
      <trkpt lat="43.58989" lon="2.97465">
        <ele>965.78173828125</ele>
        <time>2012-05-07T07:24:17Z</time>
      </trkpt>
      <trkpt lat="43.58991" lon="2.9746">
        <ele>967.7041015625</ele>
        <time>2012-05-07T07:24:22Z</time>
      </trkpt>
      <trkpt lat="43.58993" lon="2.97461">
        <ele>968.66552734375</ele>
        <time>2012-05-07T07:24:28Z</time>
      </trkpt>
      <trkpt lat="43.58995" lon="2.97458">
        <ele>969.626953125</ele>
        <time>2012-05-07T07:24:33Z</time>
      </trkpt>
      <trkpt lat="43.58993" lon="2.97453">
        <ele>971.06884765625</ele>
        <time>2012-05-07T07:24:39Z</time>
      </trkpt>
      <trkpt lat="43.58993" lon="2.9745">
        <ele>971.54931640625</ele>
        <time>2012-05-07T07:24:45Z</time>
      </trkpt>
      <trkpt lat="43.58996" lon="2.97448">
        <ele>972.99169921875</ele>
        <time>2012-05-07T07:24:53Z</time>
      </trkpt>
      <trkpt lat="43.58994" lon="2.97442">
        <ele>974.91430664062</ele>
        <time>2012-05-07T07:24:59Z</time>
      </trkpt>
      <trkpt lat="43.58994" lon="2.97439">
        <ele>977.31762695312</ele>
        <time>2012-05-07T07:25:04Z</time>
      </trkpt>
      <trkpt lat="43.58997" lon="2.9744">
        <ele>979.720703125</ele>
        <time>2012-05-07T07:25:08Z</time>
      </trkpt>
      <trkpt lat="43.59001" lon="2.97443">
        <ele>981.16284179688</ele>
        <time>2012-05-07T07:25:14Z</time>
      </trkpt>
      <trkpt lat="43.59007" lon="2.97445">
        <ele>981.16284179688</ele>
        <time>2012-05-07T07:25:19Z</time>
      </trkpt>
      <trkpt lat="43.59013" lon="2.9745">
        <ele>982.60473632812</ele>
        <time>2012-05-07T07:25:26Z</time>
      </trkpt>
      <trkpt lat="43.59016" lon="2.9745">
        <ele>984.52734375</ele>
        <time>2012-05-07T07:25:31Z</time>
      </trkpt>
      <trkpt lat="43.59016" lon="2.97446">
        <ele>985.48852539062</ele>
        <time>2012-05-07T07:25:35Z</time>
      </trkpt>
      <trkpt lat="43.59015" lon="2.97439">
        <ele>986.44995117188</ele>
        <time>2012-05-07T07:25:40Z</time>
      </trkpt>
      <trkpt lat="43.59015" lon="2.97434">
        <ele>987.4111328125</ele>
        <time>2012-05-07T07:25:44Z</time>
      </trkpt>
      <trkpt lat="43.59016" lon="2.9743">
        <ele>988.37280273438</ele>
        <time>2012-05-07T07:25:49Z</time>
      </trkpt>
      <trkpt lat="43.59018" lon="2.97424">
        <ele>990.77587890625</ele>
        <time>2012-05-07T07:25:55Z</time>
      </trkpt>
      <trkpt lat="43.5902" lon="2.97422">
        <ele>991.25659179688</ele>
        <time>2012-05-07T07:25:59Z</time>
      </trkpt>
      <trkpt lat="43.59019" lon="2.97418">
        <ele>992.69873046875</ele>
        <time>2012-05-07T07:26:06Z</time>
      </trkpt>
      <trkpt lat="43.59021" lon="2.97417">
        <ele>993.17919921875</ele>
        <time>2012-05-07T07:26:12Z</time>
      </trkpt>
      <trkpt lat="43.59024" lon="2.97414">
        <ele>994.140625</ele>
        <time>2012-05-07T07:26:17Z</time>
      </trkpt>
      <trkpt lat="43.59028" lon="2.97414">
        <ele>995.10180664062</ele>
        <time>2012-05-07T07:26:23Z</time>
      </trkpt>
      <trkpt lat="43.5903" lon="2.97414">
        <ele>996.5439453125</ele>
        <time>2012-05-07T07:26:24Z</time>
      </trkpt>
      <trkpt lat="43.59038" lon="2.97419">
        <ele>1001.3503417969</ele>
        <time>2012-05-07T07:26:31Z</time>
      </trkpt>
      <trkpt lat="43.59039" lon="2.9742">
        <ele>1001.8310546875</ele>
        <time>2012-05-07T07:26:32Z</time>
      </trkpt>
      <trkpt lat="43.59041" lon="2.97423">
        <ele>1002.7922363281</ele>
        <time>2012-05-07T07:26:35Z</time>
      </trkpt>
      <trkpt lat="43.59043" lon="2.97424">
        <ele>1004.2346191406</ele>
        <time>2012-05-07T07:26:38Z</time>
      </trkpt>
      <trkpt lat="43.59048" lon="2.97427">
        <ele>1006.1569824219</ele>
        <time>2012-05-07T07:26:45Z</time>
      </trkpt>
      <trkpt lat="43.59047" lon="2.97432">
        <ele>1005.6765136719</ele>
        <time>2012-05-07T07:26:49Z</time>
      </trkpt>
      <trkpt lat="43.59048" lon="2.97433">
        <ele>1004.7150878906</ele>
        <time>2012-05-07T07:26:55Z</time>
      </trkpt>
      <trkpt lat="43.59052" lon="2.97433">
        <ele>1005.6765136719</ele>
        <time>2012-05-07T07:26:58Z</time>
      </trkpt>
      <trkpt lat="43.59055" lon="2.97437">
        <ele>1004.7150878906</ele>
        <time>2012-05-07T07:27:02Z</time>
      </trkpt>
      <trkpt lat="43.59055" lon="2.97439">
        <ele>1005.1958007812</ele>
        <time>2012-05-07T07:27:04Z</time>
      </trkpt>
      <trkpt lat="43.59056" lon="2.97442">
        <ele>1005.1958007812</ele>
        <time>2012-05-07T07:27:06Z</time>
      </trkpt>
      <trkpt lat="43.59056" lon="2.97451">
        <ele>1006.6376953125</ele>
        <time>2012-05-07T07:27:14Z</time>
      </trkpt>
      <trkpt lat="43.59056" lon="2.97456">
        <ele>1007.1184082031</ele>
        <time>2012-05-07T07:27:20Z</time>
      </trkpt>
      <trkpt lat="43.59056" lon="2.97461">
        <ele>1008.0798339844</ele>
        <time>2012-05-07T07:27:25Z</time>
      </trkpt>
      <trkpt lat="43.59058" lon="2.97464">
        <ele>1009.5217285156</ele>
        <time>2012-05-07T07:27:30Z</time>
      </trkpt>
      <trkpt lat="43.59059" lon="2.9747">
        <ele>1010.9636230469</ele>
        <time>2012-05-07T07:27:35Z</time>
      </trkpt>
      <trkpt lat="43.59063" lon="2.9747">
        <ele>1011.9250488281</ele>
        <time>2012-05-07T07:27:41Z</time>
      </trkpt>
      <trkpt lat="43.59066" lon="2.97465">
        <ele>1012.8862304688</ele>
        <time>2012-05-07T07:27:47Z</time>
      </trkpt>
      <trkpt lat="43.59069" lon="2.97457">
        <ele>1013.3669433594</ele>
        <time>2012-05-07T07:27:54Z</time>
      </trkpt>
      <trkpt lat="43.59071" lon="2.9745">
        <ele>1014.8088378906</ele>
        <time>2012-05-07T07:28:00Z</time>
      </trkpt>
      <trkpt lat="43.59075" lon="2.9745">
        <ele>1016.7314453125</ele>
        <time>2012-05-07T07:28:05Z</time>
      </trkpt>
      <trkpt lat="43.59079" lon="2.97453">
        <ele>1018.6540527344</ele>
        <time>2012-05-07T07:28:10Z</time>
      </trkpt>
      <trkpt lat="43.59086" lon="2.97455">
        <ele>1020.0961914062</ele>
        <time>2012-05-07T07:28:17Z</time>
      </trkpt>
      <trkpt lat="43.59092" lon="2.97456">
        <ele>1021.0576171875</ele>
        <time>2012-05-07T07:28:24Z</time>
      </trkpt>
      <trkpt lat="43.59093" lon="2.97457">
        <ele>1020.5769042969</ele>
        <time>2012-05-07T07:28:29Z</time>
      </trkpt>
      <trkpt lat="43.59094" lon="2.97456">
        <ele>1020.5769042969</ele>
        <time>2012-05-07T07:28:30Z</time>
      </trkpt>
      <trkpt lat="43.59098" lon="2.97455">
        <ele>1019.6154785156</ele>
        <time>2012-05-07T07:28:34Z</time>
      </trkpt>
      <trkpt lat="43.59104" lon="2.97454">
        <ele>1018.6540527344</ele>
        <time>2012-05-07T07:28:38Z</time>
      </trkpt>
      <trkpt lat="43.59106" lon="2.97455">
        <ele>1018.6540527344</ele>
        <time>2012-05-07T07:28:39Z</time>
      </trkpt>
      <trkpt lat="43.59114" lon="2.97457">
        <ele>1017.6926269531</ele>
        <time>2012-05-07T07:28:45Z</time>
      </trkpt>
      <trkpt lat="43.59121" lon="2.97456">
        <ele>1017.2121582031</ele>
        <time>2012-05-07T07:28:50Z</time>
      </trkpt>
      <trkpt lat="43.59124" lon="2.97458">
        <ele>1016.7314453125</ele>
        <time>2012-05-07T07:28:54Z</time>
      </trkpt>
      <trkpt lat="43.59127" lon="2.97467">
        <ele>1016.7314453125</ele>
        <time>2012-05-07T07:29:01Z</time>
      </trkpt>
      <trkpt lat="43.59127" lon="2.97474">
        <ele>1016.2507324219</ele>
        <time>2012-05-07T07:29:08Z</time>
      </trkpt>
      <trkpt lat="43.59127" lon="2.97479">
        <ele>1016.2507324219</ele>
        <time>2012-05-07T07:29:11Z</time>
      </trkpt>
      <trkpt lat="43.59131" lon="2.97486">
        <ele>1015.7702636719</ele>
        <time>2012-05-07T07:29:15Z</time>
      </trkpt>
      <trkpt lat="43.59131" lon="2.97497">
        <ele>1017.2121582031</ele>
        <time>2012-05-07T07:29:20Z</time>
      </trkpt>
      <trkpt lat="43.59132" lon="2.97506">
        <ele>1019.134765625</ele>
        <time>2012-05-07T07:29:27Z</time>
      </trkpt>
      <trkpt lat="43.59135" lon="2.97515">
        <ele>1021.5380859375</ele>
        <time>2012-05-07T07:29:34Z</time>
      </trkpt>
      <trkpt lat="43.59137" lon="2.97519">
        <ele>1023.94140625</ele>
        <time>2012-05-07T07:29:40Z</time>
      </trkpt>
      <trkpt lat="43.59137" lon="2.97523">
        <ele>1025.8640136719</ele>
        <time>2012-05-07T07:29:45Z</time>
      </trkpt>
      <trkpt lat="43.59138" lon="2.9753">
        <ele>1026.8254394531</ele>
        <time>2012-05-07T07:29:51Z</time>
      </trkpt>
      <trkpt lat="43.5914" lon="2.97531">
        <ele>1028.2673339844</ele>
        <time>2012-05-07T07:29:56Z</time>
      </trkpt>
      <trkpt lat="43.59143" lon="2.97531">
        <ele>1028.2673339844</ele>
        <time>2012-05-07T07:30:01Z</time>
      </trkpt>
      <trkpt lat="43.59146" lon="2.97532">
        <ele>1029.7092285156</ele>
        <time>2012-05-07T07:30:07Z</time>
      </trkpt>
      <trkpt lat="43.59146" lon="2.97539">
        <ele>1030.6706542969</ele>
        <time>2012-05-07T07:30:13Z</time>
      </trkpt>
      <trkpt lat="43.59147" lon="2.97546">
        <ele>1031.1513671875</ele>
        <time>2012-05-07T07:30:19Z</time>
      </trkpt>
      <trkpt lat="43.59147" lon="2.97549">
        <ele>1031.6318359375</ele>
        <time>2012-05-07T07:30:21Z</time>
      </trkpt>
      <trkpt lat="43.59142" lon="2.97554">
        <ele>1031.6318359375</ele>
        <time>2012-05-07T07:30:27Z</time>
      </trkpt>
      <trkpt lat="43.59145" lon="2.9756">
        <ele>1033.5544433594</ele>
        <time>2012-05-07T07:30:34Z</time>
      </trkpt>
      <trkpt lat="43.59145" lon="2.97566">
        <ele>1035.4770507812</ele>
        <time>2012-05-07T07:30:41Z</time>
      </trkpt>
      <trkpt lat="43.59147" lon="2.9757">
        <ele>1036.4387207031</ele>
        <time>2012-05-07T07:30:46Z</time>
      </trkpt>
      <trkpt lat="43.59148" lon="2.97576">
        <ele>1037.8806152344</ele>
        <time>2012-05-07T07:30:52Z</time>
      </trkpt>
      <trkpt lat="43.59147" lon="2.97581">
        <ele>1038.361328125</ele>
        <time>2012-05-07T07:30:58Z</time>
      </trkpt>
      <trkpt lat="43.59147" lon="2.97583">
        <ele>1040.2839355469</ele>
        <time>2012-05-07T07:31:04Z</time>
      </trkpt>
      <trkpt lat="43.59148" lon="2.9759">
        <ele>1040.7644042969</ele>
        <time>2012-05-07T07:31:10Z</time>
      </trkpt>
      <trkpt lat="43.59147" lon="2.97597">
        <ele>1040.7644042969</ele>
        <time>2012-05-07T07:31:16Z</time>
      </trkpt>
      <trkpt lat="43.59143" lon="2.97602">
        <ele>1041.7258300781</ele>
        <time>2012-05-07T07:31:22Z</time>
      </trkpt>
      <trkpt lat="43.59144" lon="2.97608">
        <ele>1042.2065429688</ele>
        <time>2012-05-07T07:31:28Z</time>
      </trkpt>
      <trkpt lat="43.5914" lon="2.97612">
        <ele>1044.1291503906</ele>
        <time>2012-05-07T07:31:35Z</time>
      </trkpt>
      <trkpt lat="43.59136" lon="2.97616">
        <ele>1046.0517578125</ele>
        <time>2012-05-07T07:31:41Z</time>
      </trkpt>
      <trkpt lat="43.59134" lon="2.97622">
        <ele>1047.4936523438</ele>
        <time>2012-05-07T07:31:47Z</time>
      </trkpt>
      <trkpt lat="43.59129" lon="2.97625">
        <ele>1047.4936523438</ele>
        <time>2012-05-07T07:31:54Z</time>
      </trkpt>
      <trkpt lat="43.59129" lon="2.97627">
        <ele>1048.4548339844</ele>
        <time>2012-05-07T07:31:58Z</time>
      </trkpt>
      <trkpt lat="43.59128" lon="2.97628">
        <ele>1048.4548339844</ele>
        <time>2012-05-07T07:32:00Z</time>
      </trkpt>
      <trkpt lat="43.59126" lon="2.97637">
        <ele>1048.935546875</ele>
        <time>2012-05-07T07:32:04Z</time>
      </trkpt>
      <trkpt lat="43.59124" lon="2.97645">
        <ele>1048.935546875</ele>
        <time>2012-05-07T07:32:08Z</time>
      </trkpt>
      <trkpt lat="43.59119" lon="2.97648">
        <ele>1047.9743652344</ele>
        <time>2012-05-07T07:32:14Z</time>
      </trkpt>
      <trkpt lat="43.59119" lon="2.97647">
        <ele>1047.4936523438</ele>
        <time>2012-05-07T07:32:19Z</time>
      </trkpt>
      <trkpt lat="43.59121" lon="2.9765">
        <ele>1047.9743652344</ele>
        <time>2012-05-07T07:32:23Z</time>
      </trkpt>
      <trkpt lat="43.59121" lon="2.97655">
        <ele>1048.4548339844</ele>
        <time>2012-05-07T07:32:26Z</time>
      </trkpt>
      <trkpt lat="43.59119" lon="2.97664">
        <ele>1048.935546875</ele>
        <time>2012-05-07T07:32:32Z</time>
      </trkpt>
      <trkpt lat="43.59118" lon="2.97667">
        <ele>1048.935546875</ele>
        <time>2012-05-07T07:32:34Z</time>
      </trkpt>
      <trkpt lat="43.59112" lon="2.97666">
        <ele>1048.4548339844</ele>
        <time>2012-05-07T07:32:40Z</time>
      </trkpt>
      <trkpt lat="43.59106" lon="2.97667">
        <ele>1047.9743652344</ele>
        <time>2012-05-07T07:32:44Z</time>
      </trkpt>
      <trkpt lat="43.59101" lon="2.97668">
        <ele>1048.935546875</ele>
        <time>2012-05-07T07:32:49Z</time>
      </trkpt>
      <trkpt lat="43.591" lon="2.97667">
        <ele>1049.4162597656</ele>
        <time>2012-05-07T07:32:56Z</time>
      </trkpt>
      <trkpt lat="43.591" lon="2.97666">
        <ele>1049.4162597656</ele>
        <time>2012-05-07T07:33:01Z</time>
      </trkpt>
      <trkpt lat="43.59101" lon="2.97665">
        <ele>1048.4548339844</ele>
        <time>2012-05-07T07:33:07Z</time>
      </trkpt>
      <trkpt lat="43.59105" lon="2.97664">
        <ele>1047.9743652344</ele>
        <time>2012-05-07T07:33:11Z</time>
      </trkpt>
      <trkpt lat="43.5911" lon="2.97661">
        <ele>1047.4936523438</ele>
        <time>2012-05-07T07:33:16Z</time>
      </trkpt>
      <trkpt lat="43.59112" lon="2.9766">
        <ele>1047.0129394531</ele>
        <time>2012-05-07T07:33:18Z</time>
      </trkpt>
      <trkpt lat="43.59122" lon="2.97655">
        <ele>1047.0129394531</ele>
        <time>2012-05-07T07:33:28Z</time>
      </trkpt>
      <trkpt lat="43.59132" lon="2.97651">
        <ele>1048.4548339844</ele>
        <time>2012-05-07T07:33:36Z</time>
      </trkpt>
      <trkpt lat="43.59139" lon="2.9765">
        <ele>1048.935546875</ele>
        <time>2012-05-07T07:33:42Z</time>
      </trkpt>
      <trkpt lat="43.5914" lon="2.9765">
        <ele>1049.4162597656</ele>
        <time>2012-05-07T07:33:43Z</time>
      </trkpt>
      <trkpt lat="43.59151" lon="2.97649">
        <ele>1051.3388671875</ele>
        <time>2012-05-07T07:33:48Z</time>
      </trkpt>
      <trkpt lat="43.59153" lon="2.97649">
        <ele>1051.3388671875</ele>
        <time>2012-05-07T07:33:49Z</time>
      </trkpt>
      <trkpt lat="43.5917" lon="2.97642">
        <ele>1049.8969726562</ele>
        <time>2012-05-07T07:33:56Z</time>
      </trkpt>
      <trkpt lat="43.59181" lon="2.9764">
        <ele>1049.4162597656</ele>
        <time>2012-05-07T07:34:01Z</time>
      </trkpt>
      <trkpt lat="43.5919" lon="2.97638">
        <ele>1050.8581542969</ele>
        <time>2012-05-07T07:34:05Z</time>
      </trkpt>
      <trkpt lat="43.59199" lon="2.97633">
        <ele>1052.3002929688</ele>
        <time>2012-05-07T07:34:12Z</time>
      </trkpt>
      <trkpt lat="43.59206" lon="2.97628">
        <ele>1052.3002929688</ele>
        <time>2012-05-07T07:34:18Z</time>
      </trkpt>
      <trkpt lat="43.59209" lon="2.97625">
        <ele>1052.3002929688</ele>
        <time>2012-05-07T07:34:21Z</time>
      </trkpt>
      <trkpt lat="43.59217" lon="2.97617">
        <ele>1052.3002929688</ele>
        <time>2012-05-07T07:34:29Z</time>
      </trkpt>
      <trkpt lat="43.59218" lon="2.97616">
        <ele>1051.8195800781</ele>
        <time>2012-05-07T07:34:30Z</time>
      </trkpt>
      <trkpt lat="43.59228" lon="2.97611">
        <ele>1052.3002929688</ele>
        <time>2012-05-07T07:34:38Z</time>
      </trkpt>
      <trkpt lat="43.59233" lon="2.97608">
        <ele>1051.3388671875</ele>
        <time>2012-05-07T07:34:42Z</time>
      </trkpt>
      <trkpt lat="43.59237" lon="2.97604">
        <ele>1050.8581542969</ele>
        <time>2012-05-07T07:34:44Z</time>
      </trkpt>
      <trkpt lat="43.59247" lon="2.9759">
        <ele>1049.4162597656</ele>
        <time>2012-05-07T07:34:50Z</time>
      </trkpt>
      <trkpt lat="43.59253" lon="2.97578">
        <ele>1049.8969726562</ele>
        <time>2012-05-07T07:34:55Z</time>
      </trkpt>
      <trkpt lat="43.59254" lon="2.97575">
        <ele>1049.8969726562</ele>
        <time>2012-05-07T07:34:56Z</time>
      </trkpt>
      <trkpt lat="43.59255" lon="2.97562">
        <ele>1049.8969726562</ele>
        <time>2012-05-07T07:35:00Z</time>
      </trkpt>
      <trkpt lat="43.59265" lon="2.9755">
        <ele>1049.4162597656</ele>
        <time>2012-05-07T07:35:05Z</time>
      </trkpt>
      <trkpt lat="43.5927" lon="2.97536">
        <ele>1050.3776855469</ele>
        <time>2012-05-07T07:35:10Z</time>
      </trkpt>
      <trkpt lat="43.59273" lon="2.97531">
        <ele>1049.8969726562</ele>
        <time>2012-05-07T07:35:12Z</time>
      </trkpt>
      <trkpt lat="43.59278" lon="2.97516">
        <ele>1049.4162597656</ele>
        <time>2012-05-07T07:35:17Z</time>
      </trkpt>
      <trkpt lat="43.59283" lon="2.97509">
        <ele>1048.935546875</ele>
        <time>2012-05-07T07:35:20Z</time>
      </trkpt>
      <trkpt lat="43.59295" lon="2.97493">
        <ele>1047.4936523438</ele>
        <time>2012-05-07T07:35:27Z</time>
      </trkpt>
      <trkpt lat="43.59304" lon="2.97487">
        <ele>1045.5710449219</ele>
        <time>2012-05-07T07:35:31Z</time>
      </trkpt>
      <trkpt lat="43.59307" lon="2.97486">
        <ele>1045.0903320312</ele>
        <time>2012-05-07T07:35:32Z</time>
      </trkpt>
      <trkpt lat="43.59314" lon="2.97473">
        <ele>1044.1291503906</ele>
        <time>2012-05-07T07:35:38Z</time>
      </trkpt>
      <trkpt lat="43.59315" lon="2.9747">
        <ele>1044.1291503906</ele>
        <time>2012-05-07T07:35:39Z</time>
      </trkpt>
      <trkpt lat="43.59327" lon="2.97454">
        <ele>1043.6484375</ele>
        <time>2012-05-07T07:35:46Z</time>
      </trkpt>
      <trkpt lat="43.59333" lon="2.97451">
        <ele>1045.5710449219</ele>
        <time>2012-05-07T07:35:51Z</time>
      </trkpt>
      <trkpt lat="43.59339" lon="2.97447">
        <ele>1048.935546875</ele>
        <time>2012-05-07T07:35:57Z</time>
      </trkpt>
      <trkpt lat="43.59349" lon="2.97438">
        <ele>1050.8581542969</ele>
        <time>2012-05-07T07:36:02Z</time>
      </trkpt>
      <trkpt lat="43.59356" lon="2.97428">
        <ele>1050.8581542969</ele>
        <time>2012-05-07T07:36:06Z</time>
      </trkpt>
      <trkpt lat="43.59363" lon="2.9742">
        <ele>1052.3002929688</ele>
        <time>2012-05-07T07:36:10Z</time>
      </trkpt>
      <trkpt lat="43.59373" lon="2.97412">
        <ele>1052.7810058594</ele>
        <time>2012-05-07T07:36:15Z</time>
      </trkpt>
      <trkpt lat="43.59381" lon="2.97404">
        <ele>1053.7424316406</ele>
        <time>2012-05-07T07:36:19Z</time>
      </trkpt>
      <trkpt lat="43.5939" lon="2.97402">
        <ele>1053.7424316406</ele>
        <time>2012-05-07T07:36:24Z</time>
      </trkpt>
      <trkpt lat="43.59396" lon="2.97398">
        <ele>1053.7424316406</ele>
        <time>2012-05-07T07:36:29Z</time>
      </trkpt>
      <trkpt lat="43.59399" lon="2.97392">
        <ele>1053.26171875</ele>
        <time>2012-05-07T07:36:33Z</time>
      </trkpt>
      <trkpt lat="43.59405" lon="2.97387">
        <ele>1053.7424316406</ele>
        <time>2012-05-07T07:36:35Z</time>
      </trkpt>
      <trkpt lat="43.59415" lon="2.97372">
        <ele>1052.3002929688</ele>
        <time>2012-05-07T07:36:40Z</time>
      </trkpt>
      <trkpt lat="43.59425" lon="2.97361">
        <ele>1050.8581542969</ele>
        <time>2012-05-07T07:36:45Z</time>
      </trkpt>
      <trkpt lat="43.59431" lon="2.97349">
        <ele>1048.4548339844</ele>
        <time>2012-05-07T07:36:50Z</time>
      </trkpt>
      <trkpt lat="43.5943" lon="2.97341">
        <ele>1046.0517578125</ele>
        <time>2012-05-07T07:36:54Z</time>
      </trkpt>
      <trkpt lat="43.5943" lon="2.97334">
        <ele>1043.6484375</ele>
        <time>2012-05-07T07:36:58Z</time>
      </trkpt>
      <trkpt lat="43.5943" lon="2.97319">
        <ele>1041.7258300781</ele>
        <time>2012-05-07T07:37:07Z</time>
      </trkpt>
      <trkpt lat="43.59435" lon="2.97319">
        <ele>1041.2451171875</ele>
        <time>2012-05-07T07:37:14Z</time>
      </trkpt>
      <trkpt lat="43.59441" lon="2.97322">
        <ele>1044.6096191406</ele>
        <time>2012-05-07T07:37:21Z</time>
      </trkpt>
      <trkpt lat="43.59441" lon="2.97324">
        <ele>1045.5710449219</ele>
        <time>2012-05-07T07:37:22Z</time>
      </trkpt>
      <trkpt lat="43.59441" lon="2.9733">
        <ele>1047.9743652344</ele>
        <time>2012-05-07T07:37:28Z</time>
      </trkpt>
      <trkpt lat="43.59441" lon="2.9733">
        <ele>1050.8581542969</ele>
        <time>2012-05-07T07:37:35Z</time>
      </trkpt>
      <trkpt lat="43.59436" lon="2.97332">
        <ele>1055.6650390625</ele>
        <time>2012-05-07T07:37:47Z</time>
      </trkpt>
      <trkpt lat="43.59439" lon="2.97328">
        <ele>1052.7810058594</ele>
        <time>2012-05-07T07:37:53Z</time>
      </trkpt>
      <trkpt lat="43.59438" lon="2.97329">
        <ele>1052.7810058594</ele>
        <time>2012-05-07T07:37:58Z</time>
      </trkpt>
      <trkpt lat="43.59431" lon="2.97331">
        <ele>1055.1843261719</ele>
        <time>2012-05-07T07:38:07Z</time>
      </trkpt>
      <trkpt lat="43.59425" lon="2.97333">
        <ele>1061.4328613281</ele>
        <time>2012-05-07T07:38:18Z</time>
      </trkpt>
      <trkpt lat="43.59427" lon="2.97335">
        <ele>1058.548828125</ele>
        <time>2012-05-07T07:38:24Z</time>
      </trkpt>
      <trkpt lat="43.59433" lon="2.97338">
        <ele>1057.5876464844</ele>
        <time>2012-05-07T07:38:37Z</time>
      </trkpt>
      <trkpt lat="43.59445" lon="2.97335">
        <ele>1053.7424316406</ele>
        <time>2012-05-07T07:39:06Z</time>
      </trkpt>
      <trkpt lat="43.59445" lon="2.97334">
        <ele>1054.7036132812</ele>
        <time>2012-05-07T07:39:18Z</time>
      </trkpt>
      <trkpt lat="43.59443" lon="2.97334">
        <ele>1053.7424316406</ele>
        <time>2012-05-07T07:39:27Z</time>
      </trkpt>
      <trkpt lat="43.59442" lon="2.97334">
        <ele>1052.7810058594</ele>
        <time>2012-05-07T07:39:36Z</time>
      </trkpt>
      <trkpt lat="43.59443" lon="2.97335">
        <ele>1052.7810058594</ele>
        <time>2012-05-07T07:39:47Z</time>
      </trkpt>
      <trkpt lat="43.59441" lon="2.97335">
        <ele>1055.6650390625</ele>
        <time>2012-05-07T07:39:55Z</time>
      </trkpt>
      <trkpt lat="43.5944" lon="2.97333">
        <ele>1057.1069335938</ele>
        <time>2012-05-07T07:40:06Z</time>
      </trkpt>
      <trkpt lat="43.5944" lon="2.97331">
        <ele>1059.0295410156</ele>
        <time>2012-05-07T07:40:14Z</time>
      </trkpt>
      <trkpt lat="43.59438" lon="2.9732">
        <ele>1057.1069335938</ele>
        <time>2012-05-07T07:40:20Z</time>
      </trkpt>
      <trkpt lat="43.59437" lon="2.97313">
        <ele>1055.6650390625</ele>
        <time>2012-05-07T07:40:23Z</time>
      </trkpt>
      <trkpt lat="43.59435" lon="2.97305">
        <ele>1053.7424316406</ele>
        <time>2012-05-07T07:40:27Z</time>
      </trkpt>
      <trkpt lat="43.59434" lon="2.97299">
        <ele>1053.26171875</ele>
        <time>2012-05-07T07:40:30Z</time>
      </trkpt>
      <trkpt lat="43.59433" lon="2.97288">
        <ele>1053.7424316406</ele>
        <time>2012-05-07T07:40:34Z</time>
      </trkpt>
      <trkpt lat="43.59435" lon="2.97282">
        <ele>1054.7036132812</ele>
        <time>2012-05-07T07:40:36Z</time>
      </trkpt>
      <trkpt lat="43.59444" lon="2.97281">
        <ele>1055.1843261719</ele>
        <time>2012-05-07T07:40:40Z</time>
      </trkpt>
      <trkpt lat="43.59457" lon="2.97278">
        <ele>1054.7036132812</ele>
        <time>2012-05-07T07:40:46Z</time>
      </trkpt>
      <trkpt lat="43.59465" lon="2.97276">
        <ele>1054.7036132812</ele>
        <time>2012-05-07T07:40:50Z</time>
      </trkpt>
      <trkpt lat="43.59475" lon="2.97271">
        <ele>1053.7424316406</ele>
        <time>2012-05-07T07:40:56Z</time>
      </trkpt>
      <trkpt lat="43.59483" lon="2.97266">
        <ele>1053.26171875</ele>
        <time>2012-05-07T07:41:01Z</time>
      </trkpt>
      <trkpt lat="43.59494" lon="2.97266">
        <ele>1053.7424316406</ele>
        <time>2012-05-07T07:41:06Z</time>
      </trkpt>
      <trkpt lat="43.59506" lon="2.97265">
        <ele>1053.26171875</ele>
        <time>2012-05-07T07:41:10Z</time>
      </trkpt>
      <trkpt lat="43.59515" lon="2.97266">
        <ele>1052.7810058594</ele>
        <time>2012-05-07T07:41:13Z</time>
      </trkpt>
      <trkpt lat="43.59531" lon="2.97265">
        <ele>1051.8195800781</ele>
        <time>2012-05-07T07:41:19Z</time>
      </trkpt>
      <trkpt lat="43.59547" lon="2.97261">
        <ele>1050.3776855469</ele>
        <time>2012-05-07T07:41:25Z</time>
      </trkpt>
      <trkpt lat="43.59559" lon="2.97257">
        <ele>1048.935546875</ele>
        <time>2012-05-07T07:41:30Z</time>
      </trkpt>
      <trkpt lat="43.59573" lon="2.97254">
        <ele>1046.0517578125</ele>
        <time>2012-05-07T07:41:35Z</time>
      </trkpt>
      <trkpt lat="43.59583" lon="2.9725">
        <ele>1044.6096191406</ele>
        <time>2012-05-07T07:41:39Z</time>
      </trkpt>
      <trkpt lat="43.59596" lon="2.97248">
        <ele>1042.2065429688</ele>
        <time>2012-05-07T07:41:44Z</time>
      </trkpt>
      <trkpt lat="43.59604" lon="2.97247">
        <ele>1041.2451171875</ele>
        <time>2012-05-07T07:41:47Z</time>
      </trkpt>
      <trkpt lat="43.59622" lon="2.97241">
        <ele>1038.361328125</ele>
        <time>2012-05-07T07:41:54Z</time>
      </trkpt>
      <trkpt lat="43.59637" lon="2.97232">
        <ele>1036.9191894531</ele>
        <time>2012-05-07T07:42:00Z</time>
      </trkpt>
      <trkpt lat="43.5965" lon="2.97233">
        <ele>1037.3999023438</ele>
        <time>2012-05-07T07:42:04Z</time>
      </trkpt>
      <trkpt lat="43.59659" lon="2.97241">
        <ele>1037.3999023438</ele>
        <time>2012-05-07T07:42:08Z</time>
      </trkpt>
      <trkpt lat="43.59669" lon="2.97245">
        <ele>1039.3225097656</ele>
        <time>2012-05-07T07:42:12Z</time>
      </trkpt>
      <trkpt lat="43.59671" lon="2.97246">
        <ele>1038.361328125</ele>
        <time>2012-05-07T07:42:14Z</time>
      </trkpt>
      <trkpt lat="43.59677" lon="2.97254">
        <ele>1038.8420410156</ele>
        <time>2012-05-07T07:42:19Z</time>
      </trkpt>
      <trkpt lat="43.59684" lon="2.97253">
        <ele>1039.8032226562</ele>
        <time>2012-05-07T07:42:23Z</time>
      </trkpt>
      <trkpt lat="43.59693" lon="2.97251">
        <ele>1041.7258300781</ele>
        <time>2012-05-07T07:42:27Z</time>
      </trkpt>
      <trkpt lat="43.59695" lon="2.97252">
        <ele>1042.6872558594</ele>
        <time>2012-05-07T07:42:28Z</time>
      </trkpt>
      <trkpt lat="43.59705" lon="2.97256">
        <ele>1045.0903320312</ele>
        <time>2012-05-07T07:42:32Z</time>
      </trkpt>
      <trkpt lat="43.59717" lon="2.97261">
        <ele>1045.0903320312</ele>
        <time>2012-05-07T07:42:38Z</time>
      </trkpt>
      <trkpt lat="43.59722" lon="2.97263">
        <ele>1046.0517578125</ele>
        <time>2012-05-07T07:42:40Z</time>
      </trkpt>
      <trkpt lat="43.59731" lon="2.97266">
        <ele>1045.0903320312</ele>
        <time>2012-05-07T07:42:44Z</time>
      </trkpt>
      <trkpt lat="43.59737" lon="2.97271">
        <ele>1045.5710449219</ele>
        <time>2012-05-07T07:42:48Z</time>
      </trkpt>
      <trkpt lat="43.59741" lon="2.97272">
        <ele>1047.0129394531</ele>
        <time>2012-05-07T07:42:50Z</time>
      </trkpt>
      <trkpt lat="43.59753" lon="2.97273">
        <ele>1046.0517578125</ele>
        <time>2012-05-07T07:42:55Z</time>
      </trkpt>
      <trkpt lat="43.59764" lon="2.9728">
        <ele>1047.9743652344</ele>
        <time>2012-05-07T07:43:01Z</time>
      </trkpt>
      <trkpt lat="43.59769" lon="2.97282">
        <ele>1048.935546875</ele>
        <time>2012-05-07T07:43:04Z</time>
      </trkpt>
      <trkpt lat="43.59774" lon="2.97285">
        <ele>1049.8969726562</ele>
        <time>2012-05-07T07:43:08Z</time>
      </trkpt>
      <trkpt lat="43.59782" lon="2.97294">
        <ele>1047.9743652344</ele>
        <time>2012-05-07T07:43:14Z</time>
      </trkpt>
      <trkpt lat="43.59786" lon="2.97297">
        <ele>1048.935546875</ele>
        <time>2012-05-07T07:43:16Z</time>
      </trkpt>
      <trkpt lat="43.59793" lon="2.97302">
        <ele>1047.4936523438</ele>
        <time>2012-05-07T07:43:20Z</time>
      </trkpt>
      <trkpt lat="43.59811" lon="2.9731">
        <ele>1050.8581542969</ele>
        <time>2012-05-07T07:43:27Z</time>
      </trkpt>
      <trkpt lat="43.59823" lon="2.97318">
        <ele>1051.8195800781</ele>
        <time>2012-05-07T07:43:32Z</time>
      </trkpt>
      <trkpt lat="43.59832" lon="2.97327">
        <ele>1050.3776855469</ele>
        <time>2012-05-07T07:43:36Z</time>
      </trkpt>
      <trkpt lat="43.59838" lon="2.97333">
        <ele>1049.4162597656</ele>
        <time>2012-05-07T07:43:39Z</time>
      </trkpt>
      <trkpt lat="43.5984" lon="2.97343">
        <ele>1048.935546875</ele>
        <time>2012-05-07T07:43:45Z</time>
      </trkpt>
      <trkpt lat="43.59839" lon="2.97356">
        <ele>1047.4936523438</ele>
        <time>2012-05-07T07:43:50Z</time>
      </trkpt>
      <trkpt lat="43.59838" lon="2.97358">
        <ele>1047.4936523438</ele>
        <time>2012-05-07T07:43:51Z</time>
      </trkpt>
      <trkpt lat="43.59835" lon="2.97366">
        <ele>1046.0517578125</ele>
        <time>2012-05-07T07:43:55Z</time>
      </trkpt>
      <trkpt lat="43.59834" lon="2.97376">
        <ele>1045.5710449219</ele>
        <time>2012-05-07T07:43:59Z</time>
      </trkpt>
      <trkpt lat="43.59833" lon="2.97381">
        <ele>1045.5710449219</ele>
        <time>2012-05-07T07:44:01Z</time>
      </trkpt>
      <trkpt lat="43.59834" lon="2.97394">
        <ele>1047.9743652344</ele>
        <time>2012-05-07T07:44:07Z</time>
      </trkpt>
      <trkpt lat="43.59838" lon="2.97411">
        <ele>1052.3002929688</ele>
        <time>2012-05-07T07:44:14Z</time>
      </trkpt>
      <trkpt lat="43.59842" lon="2.97417">
        <ele>1051.8195800781</ele>
        <time>2012-05-07T07:44:17Z</time>
      </trkpt>
      <trkpt lat="43.59851" lon="2.97423">
        <ele>1052.7810058594</ele>
        <time>2012-05-07T07:44:23Z</time>
      </trkpt>
      <trkpt lat="43.59861" lon="2.97428">
        <ele>1054.2231445312</ele>
        <time>2012-05-07T07:44:27Z</time>
      </trkpt>
      <trkpt lat="43.59867" lon="2.97434">
        <ele>1052.7810058594</ele>
        <time>2012-05-07T07:44:31Z</time>
      </trkpt>
      <trkpt lat="43.59875" lon="2.97433">
        <ele>1051.8195800781</ele>
        <time>2012-05-07T07:44:36Z</time>
      </trkpt>
      <trkpt lat="43.59883" lon="2.97431">
        <ele>1052.7810058594</ele>
        <time>2012-05-07T07:44:40Z</time>
      </trkpt>
      <trkpt lat="43.5989" lon="2.97434">
        <ele>1052.7810058594</ele>
        <time>2012-05-07T07:44:44Z</time>
      </trkpt>
      <trkpt lat="43.59895" lon="2.97434">
        <ele>1052.7810058594</ele>
        <time>2012-05-07T07:44:46Z</time>
      </trkpt>
      <trkpt lat="43.59908" lon="2.97439">
        <ele>1053.7424316406</ele>
        <time>2012-05-07T07:44:51Z</time>
      </trkpt>
      <trkpt lat="43.59914" lon="2.97443">
        <ele>1052.7810058594</ele>
        <time>2012-05-07T07:44:55Z</time>
      </trkpt>
      <trkpt lat="43.59924" lon="2.97451">
        <ele>1053.7424316406</ele>
        <time>2012-05-07T07:45:01Z</time>
      </trkpt>
      <trkpt lat="43.59926" lon="2.97452">
        <ele>1053.7424316406</ele>
        <time>2012-05-07T07:45:02Z</time>
      </trkpt>
      <trkpt lat="43.59938" lon="2.97456">
        <ele>1055.1843261719</ele>
        <time>2012-05-07T07:45:08Z</time>
      </trkpt>
      <trkpt lat="43.59942" lon="2.97457">
        <ele>1055.6650390625</ele>
        <time>2012-05-07T07:45:10Z</time>
      </trkpt>
      <trkpt lat="43.5995" lon="2.97454">
        <ele>1053.7424316406</ele>
        <time>2012-05-07T07:45:15Z</time>
      </trkpt>
      <trkpt lat="43.59952" lon="2.97452">
        <ele>1053.26171875</ele>
        <time>2012-05-07T07:45:16Z</time>
      </trkpt>
      <trkpt lat="43.59962" lon="2.97444">
        <ele>1049.8969726562</ele>
        <time>2012-05-07T07:45:20Z</time>
      </trkpt>
      <trkpt lat="43.59974" lon="2.97439">
        <ele>1048.935546875</ele>
        <time>2012-05-07T07:45:26Z</time>
      </trkpt>
      <trkpt lat="43.59988" lon="2.97436">
        <ele>1049.4162597656</ele>
        <time>2012-05-07T07:45:30Z</time>
      </trkpt>
      <trkpt lat="43.59995" lon="2.97437">
        <ele>1049.8969726562</ele>
        <time>2012-05-07T07:45:33Z</time>
      </trkpt>
      <trkpt lat="43.60005" lon="2.9744">
        <ele>1051.8195800781</ele>
        <time>2012-05-07T07:45:38Z</time>
      </trkpt>
      <trkpt lat="43.60015" lon="2.97429">
        <ele>1053.7424316406</ele>
        <time>2012-05-07T07:45:43Z</time>
      </trkpt>
      <trkpt lat="43.60025" lon="2.97422">
        <ele>1053.26171875</ele>
        <time>2012-05-07T07:45:47Z</time>
      </trkpt>
      <trkpt lat="43.60027" lon="2.97421">
        <ele>1053.26171875</ele>
        <time>2012-05-07T07:45:48Z</time>
      </trkpt>
      <trkpt lat="43.60039" lon="2.97418">
        <ele>1054.2231445312</ele>
        <time>2012-05-07T07:45:53Z</time>
      </trkpt>
      <trkpt lat="43.60048" lon="2.97416">
        <ele>1054.7036132812</ele>
        <time>2012-05-07T07:45:57Z</time>
      </trkpt>
      <trkpt lat="43.6006" lon="2.97414">
        <ele>1056.1455078125</ele>
        <time>2012-05-07T07:46:02Z</time>
      </trkpt>
      <trkpt lat="43.60072" lon="2.97411">
        <ele>1056.1455078125</ele>
        <time>2012-05-07T07:46:07Z</time>
      </trkpt>
      <trkpt lat="43.60084" lon="2.97409">
        <ele>1056.6262207031</ele>
        <time>2012-05-07T07:46:12Z</time>
      </trkpt>
      <trkpt lat="43.60093" lon="2.97409">
        <ele>1057.1069335938</ele>
        <time>2012-05-07T07:46:16Z</time>
      </trkpt>
      <trkpt lat="43.60106" lon="2.97407">
        <ele>1058.548828125</ele>
        <time>2012-05-07T07:46:21Z</time>
      </trkpt>
      <trkpt lat="43.60115" lon="2.97407">
        <ele>1059.9907226562</ele>
        <time>2012-05-07T07:46:25Z</time>
      </trkpt>
      <trkpt lat="43.6013" lon="2.97404">
        <ele>1060.4714355469</ele>
        <time>2012-05-07T07:46:31Z</time>
      </trkpt>
      <trkpt lat="43.6014" lon="2.97401">
        <ele>1060.9521484375</ele>
        <time>2012-05-07T07:46:36Z</time>
      </trkpt>
      <trkpt lat="43.60152" lon="2.974">
        <ele>1060.9521484375</ele>
        <time>2012-05-07T07:46:41Z</time>
      </trkpt>
      <trkpt lat="43.60164" lon="2.97399">
        <ele>1059.9907226562</ele>
        <time>2012-05-07T07:46:45Z</time>
      </trkpt>
      <trkpt lat="43.60176" lon="2.97396">
        <ele>1059.5102539062</ele>
        <time>2012-05-07T07:46:50Z</time>
      </trkpt>
      <trkpt lat="43.60189" lon="2.97393">
        <ele>1058.068359375</ele>
        <time>2012-05-07T07:46:55Z</time>
      </trkpt>
      <trkpt lat="43.60202" lon="2.97389">
        <ele>1055.6650390625</ele>
        <time>2012-05-07T07:47:01Z</time>
      </trkpt>
      <trkpt lat="43.60215" lon="2.97387">
        <ele>1055.1843261719</ele>
        <time>2012-05-07T07:47:06Z</time>
      </trkpt>
      <trkpt lat="43.60225" lon="2.97387">
        <ele>1055.1843261719</ele>
        <time>2012-05-07T07:47:10Z</time>
      </trkpt>
      <trkpt lat="43.60236" lon="2.97387">
        <ele>1054.7036132812</ele>
        <time>2012-05-07T07:47:14Z</time>
      </trkpt>
      <trkpt lat="43.60244" lon="2.97387">
        <ele>1056.1455078125</ele>
        <time>2012-05-07T07:47:18Z</time>
      </trkpt>
      <trkpt lat="43.60251" lon="2.97389">
        <ele>1057.1069335938</ele>
        <time>2012-05-07T07:47:22Z</time>
      </trkpt>
      <trkpt lat="43.60252" lon="2.97389">
        <ele>1057.1069335938</ele>
        <time>2012-05-07T07:47:23Z</time>
      </trkpt>
      <trkpt lat="43.60265" lon="2.97389">
        <ele>1059.0295410156</ele>
        <time>2012-05-07T07:47:28Z</time>
      </trkpt>
      <trkpt lat="43.60271" lon="2.9739">
        <ele>1059.9907226562</ele>
        <time>2012-05-07T07:47:30Z</time>
      </trkpt>
      <trkpt lat="43.60286" lon="2.97389">
        <ele>1060.9521484375</ele>
        <time>2012-05-07T07:47:36Z</time>
      </trkpt>
      <trkpt lat="43.60293" lon="2.97389">
        <ele>1060.9521484375</ele>
        <time>2012-05-07T07:47:39Z</time>
      </trkpt>
      <trkpt lat="43.60305" lon="2.97388">
        <ele>1061.4328613281</ele>
        <time>2012-05-07T07:47:44Z</time>
      </trkpt>
      <trkpt lat="43.60317" lon="2.97388">
        <ele>1062.3940429688</ele>
        <time>2012-05-07T07:47:49Z</time>
      </trkpt>
      <trkpt lat="43.60327" lon="2.97386">
        <ele>1062.3940429688</ele>
        <time>2012-05-07T07:47:54Z</time>
      </trkpt>
      <trkpt lat="43.60335" lon="2.97386">
        <ele>1063.35546875</ele>
        <time>2012-05-07T07:47:57Z</time>
      </trkpt>
      <trkpt lat="43.60355" lon="2.97386">
        <ele>1066.2392578125</ele>
        <time>2012-05-07T07:48:05Z</time>
      </trkpt>
      <trkpt lat="43.60366" lon="2.97387">
        <ele>1067.6811523438</ele>
        <time>2012-05-07T07:48:10Z</time>
      </trkpt>
      <trkpt lat="43.60378" lon="2.9739">
        <ele>1069.1235351562</ele>
        <time>2012-05-07T07:48:15Z</time>
      </trkpt>
      <trkpt lat="43.6039" lon="2.97394">
        <ele>1070.0847167969</ele>
        <time>2012-05-07T07:48:20Z</time>
      </trkpt>
      <trkpt lat="43.60402" lon="2.97396">
        <ele>1070.0847167969</ele>
        <time>2012-05-07T07:48:25Z</time>
      </trkpt>
      <trkpt lat="43.6041" lon="2.97399">
        <ele>1069.6042480469</ele>
        <time>2012-05-07T07:48:29Z</time>
      </trkpt>
      <trkpt lat="43.60418" lon="2.97401">
        <ele>1068.6428222656</ele>
        <time>2012-05-07T07:48:33Z</time>
      </trkpt>
      <trkpt lat="43.6042" lon="2.97403">
        <ele>1067.6811523438</ele>
        <time>2012-05-07T07:48:39Z</time>
      </trkpt>
      <trkpt lat="43.60428" lon="2.97406">
        <ele>1066.2392578125</ele>
        <time>2012-05-07T07:48:43Z</time>
      </trkpt>
      <trkpt lat="43.6044" lon="2.97409">
        <ele>1065.2780761719</ele>
        <time>2012-05-07T07:48:48Z</time>
      </trkpt>
      <trkpt lat="43.60452" lon="2.97409">
        <ele>1063.8359375</ele>
        <time>2012-05-07T07:48:52Z</time>
      </trkpt>
      <trkpt lat="43.60466" lon="2.97406">
        <ele>1061.9135742188</ele>
        <time>2012-05-07T07:48:58Z</time>
      </trkpt>
      <trkpt lat="43.60481" lon="2.97408">
        <ele>1059.9907226562</ele>
        <time>2012-05-07T07:49:04Z</time>
      </trkpt>
      <trkpt lat="43.60497" lon="2.9741">
        <ele>1058.068359375</ele>
        <time>2012-05-07T07:49:10Z</time>
      </trkpt>
      <trkpt lat="43.60509" lon="2.97413">
        <ele>1056.1455078125</ele>
        <time>2012-05-07T07:49:15Z</time>
      </trkpt>
      <trkpt lat="43.60517" lon="2.97417">
        <ele>1054.2231445312</ele>
        <time>2012-05-07T07:49:19Z</time>
      </trkpt>
      <trkpt lat="43.60519" lon="2.97418">
        <ele>1053.26171875</ele>
        <time>2012-05-07T07:49:25Z</time>
      </trkpt>
      <trkpt lat="43.60531" lon="2.97422">
        <ele>1051.8195800781</ele>
        <time>2012-05-07T07:49:31Z</time>
      </trkpt>
      <trkpt lat="43.60533" lon="2.97422">
        <ele>1052.3002929688</ele>
        <time>2012-05-07T07:49:33Z</time>
      </trkpt>
      <trkpt lat="43.60541" lon="2.97424">
        <ele>1049.8969726562</ele>
        <time>2012-05-07T07:49:37Z</time>
      </trkpt>
      <trkpt lat="43.6055" lon="2.97428">
        <ele>1046.5324707031</ele>
        <time>2012-05-07T07:49:42Z</time>
      </trkpt>
      <trkpt lat="43.60552" lon="2.97429">
        <ele>1046.5324707031</ele>
        <time>2012-05-07T07:49:43Z</time>
      </trkpt>
      <trkpt lat="43.60564" lon="2.97432">
        <ele>1044.1291503906</ele>
        <time>2012-05-07T07:49:49Z</time>
      </trkpt>
      <trkpt lat="43.60566" lon="2.97432">
        <ele>1043.6484375</ele>
        <time>2012-05-07T07:49:50Z</time>
      </trkpt>
      <trkpt lat="43.60575" lon="2.97436">
        <ele>1041.7258300781</ele>
        <time>2012-05-07T07:49:56Z</time>
      </trkpt>
      <trkpt lat="43.60582" lon="2.97433">
        <ele>1039.8032226562</ele>
        <time>2012-05-07T07:50:00Z</time>
      </trkpt>
      <trkpt lat="43.60587" lon="2.97432">
        <ele>1037.8806152344</ele>
        <time>2012-05-07T07:50:03Z</time>
      </trkpt>
      <trkpt lat="43.60593" lon="2.97426">
        <ele>1035.4770507812</ele>
        <time>2012-05-07T07:50:08Z</time>
      </trkpt>
      <trkpt lat="43.60598" lon="2.97424">
        <ele>1032.5932617188</ele>
        <time>2012-05-07T07:50:12Z</time>
      </trkpt>
      <trkpt lat="43.60598" lon="2.97425">
        <ele>1032.1125488281</ele>
        <time>2012-05-07T07:50:13Z</time>
      </trkpt>
      <trkpt lat="43.60605" lon="2.97421">
        <ele>1029.7092285156</ele>
        <time>2012-05-07T07:50:19Z</time>
      </trkpt>
      <trkpt lat="43.60612" lon="2.97415">
        <ele>1025.8640136719</ele>
        <time>2012-05-07T07:50:25Z</time>
      </trkpt>
      <trkpt lat="43.60615" lon="2.97413">
        <ele>1024.9028320312</ele>
        <time>2012-05-07T07:50:27Z</time>
      </trkpt>
      <trkpt lat="43.60622" lon="2.97408">
        <ele>1025.3833007812</ele>
        <time>2012-05-07T07:50:31Z</time>
      </trkpt>
      <trkpt lat="43.60632" lon="2.9741">
        <ele>1028.2673339844</ele>
        <time>2012-05-07T07:50:35Z</time>
      </trkpt>
      <trkpt lat="43.60641" lon="2.97411">
        <ele>1026.3447265625</ele>
        <time>2012-05-07T07:50:39Z</time>
      </trkpt>
      <trkpt lat="43.60648" lon="2.97411">
        <ele>1025.8640136719</ele>
        <time>2012-05-07T07:50:43Z</time>
      </trkpt>
      <trkpt lat="43.60653" lon="2.97408">
        <ele>1023.94140625</ele>
        <time>2012-05-07T07:50:45Z</time>
      </trkpt>
      <trkpt lat="43.60662" lon="2.97404">
        <ele>1024.9028320312</ele>
        <time>2012-05-07T07:50:49Z</time>
      </trkpt>
      <trkpt lat="43.60666" lon="2.97402">
        <ele>1022.4995117188</ele>
        <time>2012-05-07T07:50:51Z</time>
      </trkpt>
      <trkpt lat="43.60672" lon="2.974">
        <ele>1018.1733398438</ele>
        <time>2012-05-07T07:50:55Z</time>
      </trkpt>
      <trkpt lat="43.60674" lon="2.97399">
        <ele>1017.2121582031</ele>
        <time>2012-05-07T07:50:56Z</time>
      </trkpt>
      <trkpt lat="43.60676" lon="2.97395">
        <ele>1011.9250488281</ele>
        <time>2012-05-07T07:51:01Z</time>
      </trkpt>
      <trkpt lat="43.6068" lon="2.9739">
        <ele>1007.5991210938</ele>
        <time>2012-05-07T07:51:06Z</time>
      </trkpt>
      <trkpt lat="43.60682" lon="2.97386">
        <ele>1004.7150878906</ele>
        <time>2012-05-07T07:51:09Z</time>
      </trkpt>
      <trkpt lat="43.60684" lon="2.97377">
        <ele>1001.8310546875</ele>
        <time>2012-05-07T07:51:14Z</time>
      </trkpt>
      <trkpt lat="43.60688" lon="2.9737">
        <ele>1001.8310546875</ele>
        <time>2012-05-07T07:51:19Z</time>
      </trkpt>
      <trkpt lat="43.60699" lon="2.97368">
        <ele>1004.7150878906</ele>
        <time>2012-05-07T07:51:26Z</time>
      </trkpt>
      <trkpt lat="43.60703" lon="2.97367">
        <ele>1005.6765136719</ele>
        <time>2012-05-07T07:51:28Z</time>
      </trkpt>
      <trkpt lat="43.6071" lon="2.97362">
        <ele>1005.1958007812</ele>
        <time>2012-05-07T07:51:32Z</time>
      </trkpt>
      <trkpt lat="43.60713" lon="2.97361">
        <ele>1004.7150878906</ele>
        <time>2012-05-07T07:51:34Z</time>
      </trkpt>
      <trkpt lat="43.60718" lon="2.97357">
        <ele>1001.3503417969</ele>
        <time>2012-05-07T07:51:38Z</time>
      </trkpt>
      <trkpt lat="43.60722" lon="2.97357">
        <ele>999.427734375</ele>
        <time>2012-05-07T07:51:40Z</time>
      </trkpt>
      <trkpt lat="43.6073" lon="2.97359">
        <ele>997.50512695312</ele>
        <time>2012-05-07T07:51:43Z</time>
      </trkpt>
      <trkpt lat="43.60739" lon="2.97349">
        <ele>992.69873046875</ele>
        <time>2012-05-07T07:51:48Z</time>
      </trkpt>
      <trkpt lat="43.60739" lon="2.97347">
        <ele>992.21801757812</ele>
        <time>2012-05-07T07:51:49Z</time>
      </trkpt>
      <trkpt lat="43.6074" lon="2.97345">
        <ele>989.81469726562</ele>
        <time>2012-05-07T07:51:51Z</time>
      </trkpt>
      <trkpt lat="43.60741" lon="2.97342">
        <ele>986.93041992188</ele>
        <time>2012-05-07T07:51:57Z</time>
      </trkpt>
      <trkpt lat="43.60741" lon="2.97341">
        <ele>985.96923828125</ele>
        <time>2012-05-07T07:51:58Z</time>
      </trkpt>
      <trkpt lat="43.60754" lon="2.97335">
        <ele>981.16284179688</ele>
        <time>2012-05-07T07:52:05Z</time>
      </trkpt>
      <trkpt lat="43.60767" lon="2.97333">
        <ele>978.75952148438</ele>
        <time>2012-05-07T07:52:11Z</time>
      </trkpt>
      <trkpt lat="43.60772" lon="2.97333">
        <ele>978.75952148438</ele>
        <time>2012-05-07T07:52:13Z</time>
      </trkpt>
      <trkpt lat="43.60777" lon="2.97332">
        <ele>977.31762695312</ele>
        <time>2012-05-07T07:52:15Z</time>
      </trkpt>
      <trkpt lat="43.60786" lon="2.97331">
        <ele>974.91430664062</ele>
        <time>2012-05-07T07:52:20Z</time>
      </trkpt>
      <trkpt lat="43.6079" lon="2.97332">
        <ele>973.47241210938</ele>
        <time>2012-05-07T07:52:23Z</time>
      </trkpt>
      <trkpt lat="43.60798" lon="2.97329">
        <ele>972.0302734375</ele>
        <time>2012-05-07T07:52:28Z</time>
      </trkpt>
      <trkpt lat="43.60806" lon="2.97329">
        <ele>970.58813476562</ele>
        <time>2012-05-07T07:52:32Z</time>
      </trkpt>
      <trkpt lat="43.60809" lon="2.97329">
        <ele>970.58813476562</ele>
        <time>2012-05-07T07:52:33Z</time>
      </trkpt>
      <trkpt lat="43.60818" lon="2.97328">
        <ele>969.626953125</ele>
        <time>2012-05-07T07:52:38Z</time>
      </trkpt>
      <trkpt lat="43.60825" lon="2.97328">
        <ele>968.18481445312</ele>
        <time>2012-05-07T07:52:41Z</time>
      </trkpt>
      <trkpt lat="43.60834" lon="2.9732">
        <ele>962.4169921875</ele>
        <time>2012-05-07T07:52:47Z</time>
      </trkpt>
      <trkpt lat="43.60843" lon="2.97317">
        <ele>958.57177734375</ele>
        <time>2012-05-07T07:52:52Z</time>
      </trkpt>
      <trkpt lat="43.60845" lon="2.97317">
        <ele>958.57177734375</ele>
        <time>2012-05-07T07:52:53Z</time>
      </trkpt>
      <trkpt lat="43.60847" lon="2.97316">
        <ele>957.61059570312</ele>
        <time>2012-05-07T07:52:58Z</time>
      </trkpt>
      <trkpt lat="43.60849" lon="2.97313">
        <ele>956.16845703125</ele>
        <time>2012-05-07T07:53:02Z</time>
      </trkpt>
      <trkpt lat="43.60852" lon="2.97312">
        <ele>954.24584960938</ele>
        <time>2012-05-07T07:53:08Z</time>
      </trkpt>
      <trkpt lat="43.60861" lon="2.97309">
        <ele>949.919921875</ele>
        <time>2012-05-07T07:53:13Z</time>
      </trkpt>
      <trkpt lat="43.60863" lon="2.97308">
        <ele>948.95849609375</ele>
        <time>2012-05-07T07:53:14Z</time>
      </trkpt>
      <trkpt lat="43.60871" lon="2.97307">
        <ele>946.07470703125</ele>
        <time>2012-05-07T07:53:18Z</time>
      </trkpt>
      <trkpt lat="43.60879" lon="2.97305">
        <ele>941.26806640625</ele>
        <time>2012-05-07T07:53:22Z</time>
      </trkpt>
      <trkpt lat="43.60883" lon="2.97304">
        <ele>940.30688476562</ele>
        <time>2012-05-07T07:53:24Z</time>
      </trkpt>
      <trkpt lat="43.60887" lon="2.97305">
        <ele>938.86474609375</ele>
        <time>2012-05-07T07:53:26Z</time>
      </trkpt>
      <trkpt lat="43.60897" lon="2.9731">
        <ele>936.46142578125</ele>
        <time>2012-05-07T07:53:31Z</time>
      </trkpt>
      <trkpt lat="43.60904" lon="2.97307">
        <ele>934.05810546875</ele>
        <time>2012-05-07T07:53:34Z</time>
      </trkpt>
      <trkpt lat="43.60917" lon="2.97305">
        <ele>930.212890625</ele>
        <time>2012-05-07T07:53:39Z</time>
      </trkpt>
      <trkpt lat="43.60929" lon="2.973">
        <ele>926.84838867188</ele>
        <time>2012-05-07T07:53:44Z</time>
      </trkpt>
      <trkpt lat="43.60936" lon="2.97294">
        <ele>924.92578125</ele>
        <time>2012-05-07T07:53:47Z</time>
      </trkpt>
      <trkpt lat="43.60945" lon="2.97287">
        <ele>923.0029296875</ele>
        <time>2012-05-07T07:53:51Z</time>
      </trkpt>
      <trkpt lat="43.60957" lon="2.97284">
        <ele>919.63842773438</ele>
        <time>2012-05-07T07:53:56Z</time>
      </trkpt>
      <trkpt lat="43.60968" lon="2.97278">
        <ele>917.23510742188</ele>
        <time>2012-05-07T07:54:00Z</time>
      </trkpt>
      <trkpt lat="43.60983" lon="2.97276">
        <ele>915.3125</ele>
        <time>2012-05-07T07:54:05Z</time>
      </trkpt>
      <trkpt lat="43.60993" lon="2.97272">
        <ele>913.87036132812</ele>
        <time>2012-05-07T07:54:09Z</time>
      </trkpt>
      <trkpt lat="43.61003" lon="2.97262">
        <ele>913.38989257812</ele>
        <time>2012-05-07T07:54:14Z</time>
      </trkpt>
      <trkpt lat="43.61005" lon="2.97259">
        <ele>913.87036132812</ele>
        <time>2012-05-07T07:54:16Z</time>
      </trkpt>
      <trkpt lat="43.61007" lon="2.97253">
        <ele>916.27368164062</ele>
        <time>2012-05-07T07:54:20Z</time>
      </trkpt>
      <trkpt lat="43.61007" lon="2.97254">
        <ele>916.75439453125</ele>
        <time>2012-05-07T07:54:27Z</time>
      </trkpt>
      <trkpt lat="43.61011" lon="2.97255">
        <ele>916.75439453125</ele>
        <time>2012-05-07T07:54:33Z</time>
      </trkpt>
      <trkpt lat="43.61013" lon="2.97256">
        <ele>916.75439453125</ele>
        <time>2012-05-07T07:54:36Z</time>
      </trkpt>
      <trkpt lat="43.61021" lon="2.9726">
        <ele>915.79321289062</ele>
        <time>2012-05-07T07:54:41Z</time>
      </trkpt>
      <trkpt lat="43.61025" lon="2.97261">
        <ele>916.75439453125</ele>
        <time>2012-05-07T07:54:45Z</time>
      </trkpt>
      <trkpt lat="43.61028" lon="2.97261">
        <ele>919.15771484375</ele>
        <time>2012-05-07T07:54:53Z</time>
      </trkpt>
      <trkpt lat="43.61028" lon="2.97267">
        <ele>920.11889648438</ele>
        <time>2012-05-07T07:55:05Z</time>
      </trkpt>
      <trkpt lat="43.61031" lon="2.97271">
        <ele>916.75439453125</ele>
        <time>2012-05-07T07:55:09Z</time>
      </trkpt>
      <trkpt lat="43.61039" lon="2.97278">
        <ele>911.94799804688</ele>
        <time>2012-05-07T07:55:13Z</time>
      </trkpt>
      <trkpt lat="43.61056" lon="2.97289">
        <ele>909.54467773438</ele>
        <time>2012-05-07T07:55:19Z</time>
      </trkpt>
      <trkpt lat="43.61065" lon="2.97299">
        <ele>908.58325195312</ele>
        <time>2012-05-07T07:55:23Z</time>
      </trkpt>
      <trkpt lat="43.61069" lon="2.97306">
        <ele>908.10278320312</ele>
        <time>2012-05-07T07:55:27Z</time>
      </trkpt>
      <trkpt lat="43.61073" lon="2.97312">
        <ele>908.10278320312</ele>
        <time>2012-05-07T07:55:32Z</time>
      </trkpt>
      <trkpt lat="43.61073" lon="2.97313">
        <ele>908.10278320312</ele>
        <time>2012-05-07T07:55:34Z</time>
      </trkpt>
      <trkpt lat="43.61079" lon="2.97313">
        <ele>908.10278320312</ele>
        <time>2012-05-07T07:55:41Z</time>
      </trkpt>
      <trkpt lat="43.61078" lon="2.97311">
        <ele>907.62182617188</ele>
        <time>2012-05-07T07:55:47Z</time>
      </trkpt>
      <trkpt lat="43.61077" lon="2.97306">
        <ele>907.62182617188</ele>
        <time>2012-05-07T07:55:56Z</time>
      </trkpt>
      <trkpt lat="43.61078" lon="2.97303">
        <ele>907.62182617188</ele>
        <time>2012-05-07T07:56:01Z</time>
      </trkpt>
      <trkpt lat="43.61079" lon="2.97301">
        <ele>908.10278320312</ele>
        <time>2012-05-07T07:56:04Z</time>
      </trkpt>
      <trkpt lat="43.61086" lon="2.97295">
        <ele>909.54467773438</ele>
        <time>2012-05-07T07:56:11Z</time>
      </trkpt>
      <trkpt lat="43.61095" lon="2.97292">
        <ele>910.505859375</ele>
        <time>2012-05-07T07:56:17Z</time>
      </trkpt>
      <trkpt lat="43.61097" lon="2.97292">
        <ele>910.02514648438</ele>
        <time>2012-05-07T07:56:19Z</time>
      </trkpt>
      <trkpt lat="43.61103" lon="2.97298">
        <ele>910.02514648438</ele>
        <time>2012-05-07T07:56:24Z</time>
      </trkpt>
      <trkpt lat="43.61105" lon="2.97312">
        <ele>909.54467773438</ele>
        <time>2012-05-07T07:56:32Z</time>
      </trkpt>
      <trkpt lat="43.61105" lon="2.97314">
        <ele>909.54467773438</ele>
        <time>2012-05-07T07:56:33Z</time>
      </trkpt>
      <trkpt lat="43.61106" lon="2.97328">
        <ele>911.94799804688</ele>
        <time>2012-05-07T07:56:41Z</time>
      </trkpt>
      <trkpt lat="43.6111" lon="2.97339">
        <ele>915.79321289062</ele>
        <time>2012-05-07T07:56:48Z</time>
      </trkpt>
      <trkpt lat="43.61115" lon="2.97347">
        <ele>916.75439453125</ele>
        <time>2012-05-07T07:56:53Z</time>
      </trkpt>
      <trkpt lat="43.61118" lon="2.97352">
        <ele>916.27368164062</ele>
        <time>2012-05-07T07:56:57Z</time>
      </trkpt>
      <trkpt lat="43.61127" lon="2.97352">
        <ele>915.3125</ele>
        <time>2012-05-07T07:57:05Z</time>
      </trkpt>
      <trkpt lat="43.61134" lon="2.97349">
        <ele>914.35107421875</ele>
        <time>2012-05-07T07:57:11Z</time>
      </trkpt>
      <trkpt lat="43.61142" lon="2.97347">
        <ele>914.35107421875</ele>
        <time>2012-05-07T07:57:17Z</time>
      </trkpt>
      <trkpt lat="43.6115" lon="2.97345">
        <ele>914.35107421875</ele>
        <time>2012-05-07T07:57:23Z</time>
      </trkpt>
      <trkpt lat="43.61161" lon="2.9734">
        <ele>915.79321289062</ele>
        <time>2012-05-07T07:57:32Z</time>
      </trkpt>
      <trkpt lat="43.6117" lon="2.97334">
        <ele>917.23510742188</ele>
        <time>2012-05-07T07:57:39Z</time>
      </trkpt>
      <trkpt lat="43.61173" lon="2.97326">
        <ele>918.67700195312</ele>
        <time>2012-05-07T07:57:45Z</time>
      </trkpt>
      <trkpt lat="43.61175" lon="2.97317">
        <ele>917.71557617188</ele>
        <time>2012-05-07T07:57:50Z</time>
      </trkpt>
      <trkpt lat="43.61178" lon="2.97309">
        <ele>917.23510742188</ele>
        <time>2012-05-07T07:57:54Z</time>
      </trkpt>
      <trkpt lat="43.61179" lon="2.97308">
        <ele>917.71557617188</ele>
        <time>2012-05-07T07:57:55Z</time>
      </trkpt>
      <trkpt lat="43.61186" lon="2.973">
        <ele>918.1962890625</ele>
        <time>2012-05-07T07:58:02Z</time>
      </trkpt>
      <trkpt lat="43.61192" lon="2.97294">
        <ele>919.15771484375</ele>
        <time>2012-05-07T07:58:08Z</time>
      </trkpt>
      <trkpt lat="43.612" lon="2.97287">
        <ele>919.15771484375</ele>
        <time>2012-05-07T07:58:15Z</time>
      </trkpt>
      <trkpt lat="43.61208" lon="2.97284">
        <ele>920.11889648438</ele>
        <time>2012-05-07T07:58:21Z</time>
      </trkpt>
      <trkpt lat="43.61215" lon="2.97279">
        <ele>921.56079101562</ele>
        <time>2012-05-07T07:58:28Z</time>
      </trkpt>
      <trkpt lat="43.61215" lon="2.9727">
        <ele>923.48364257812</ele>
        <time>2012-05-07T07:58:33Z</time>
      </trkpt>
      <trkpt lat="43.61214" lon="2.97261">
        <ele>924.44506835938</ele>
        <time>2012-05-07T07:58:38Z</time>
      </trkpt>
      <trkpt lat="43.61211" lon="2.9725">
        <ele>926.36767578125</ele>
        <time>2012-05-07T07:58:43Z</time>
      </trkpt>
      <trkpt lat="43.61208" lon="2.97241">
        <ele>926.84838867188</ele>
        <time>2012-05-07T07:58:47Z</time>
      </trkpt>
      <trkpt lat="43.61205" lon="2.97235">
        <ele>925.88696289062</ele>
        <time>2012-05-07T07:58:53Z</time>
      </trkpt>
      <trkpt lat="43.61206" lon="2.97236">
        <ele>925.40625</ele>
        <time>2012-05-07T07:58:58Z</time>
      </trkpt>
      <trkpt lat="43.61209" lon="2.97243">
        <ele>925.88696289062</ele>
        <time>2012-05-07T07:59:04Z</time>
      </trkpt>
      <trkpt lat="43.61215" lon="2.97257">
        <ele>925.88696289062</ele>
        <time>2012-05-07T07:59:09Z</time>
      </trkpt>
      <trkpt lat="43.61218" lon="2.97265">
        <ele>924.44506835938</ele>
        <time>2012-05-07T07:59:12Z</time>
      </trkpt>
      <trkpt lat="43.61219" lon="2.97272">
        <ele>923.96411132812</ele>
        <time>2012-05-07T07:59:16Z</time>
      </trkpt>
      <trkpt lat="43.6122" lon="2.97278">
        <ele>924.44506835938</ele>
        <time>2012-05-07T07:59:23Z</time>
      </trkpt>
      <trkpt lat="43.61222" lon="2.97273">
        <ele>924.92578125</ele>
        <time>2012-05-07T07:59:30Z</time>
      </trkpt>
      <trkpt lat="43.61222" lon="2.97268">
        <ele>925.40625</ele>
        <time>2012-05-07T07:59:37Z</time>
      </trkpt>
      <trkpt lat="43.61226" lon="2.97262">
        <ele>925.88696289062</ele>
        <time>2012-05-07T07:59:43Z</time>
      </trkpt>
      <trkpt lat="43.61229" lon="2.97257">
        <ele>926.84838867188</ele>
        <time>2012-05-07T07:59:47Z</time>
      </trkpt>
      <trkpt lat="43.61234" lon="2.97253">
        <ele>928.29028320312</ele>
        <time>2012-05-07T07:59:52Z</time>
      </trkpt>
      <trkpt lat="43.61239" lon="2.97244">
        <ele>930.212890625</ele>
        <time>2012-05-07T08:00:00Z</time>
      </trkpt>
      <trkpt lat="43.61243" lon="2.97236">
        <ele>931.17431640625</ele>
        <time>2012-05-07T08:00:06Z</time>
      </trkpt>
      <trkpt lat="43.61248" lon="2.9723">
        <ele>932.6162109375</ele>
        <time>2012-05-07T08:00:13Z</time>
      </trkpt>
      <trkpt lat="43.61253" lon="2.97219">
        <ele>933.0966796875</ele>
        <time>2012-05-07T08:00:21Z</time>
      </trkpt>
      <trkpt lat="43.61256" lon="2.97209">
        <ele>933.0966796875</ele>
        <time>2012-05-07T08:00:28Z</time>
      </trkpt>
      <trkpt lat="43.61261" lon="2.97201">
        <ele>933.57739257812</ele>
        <time>2012-05-07T08:00:36Z</time>
      </trkpt>
      <trkpt lat="43.61261" lon="2.972">
        <ele>934.05810546875</ele>
        <time>2012-05-07T08:00:37Z</time>
      </trkpt>
      <trkpt lat="43.61266" lon="2.97193">
        <ele>935.5</ele>
        <time>2012-05-07T08:00:43Z</time>
      </trkpt>
      <trkpt lat="43.61272" lon="2.97183">
        <ele>938.86474609375</ele>
        <time>2012-05-07T08:00:53Z</time>
      </trkpt>
      <trkpt lat="43.61274" lon="2.97178">
        <ele>940.78735351562</ele>
        <time>2012-05-07T08:00:58Z</time>
      </trkpt>
      <trkpt lat="43.61275" lon="2.97175">
        <ele>941.74877929688</ele>
        <time>2012-05-07T08:01:04Z</time>
      </trkpt>
      <trkpt lat="43.61276" lon="2.97176">
        <ele>941.74877929688</ele>
        <time>2012-05-07T08:01:12Z</time>
      </trkpt>
      <trkpt lat="43.61277" lon="2.97175">
        <ele>941.26806640625</ele>
        <time>2012-05-07T08:01:27Z</time>
      </trkpt>
      <trkpt lat="43.61275" lon="2.97175">
        <ele>941.26806640625</ele>
        <time>2012-05-07T08:01:53Z</time>
      </trkpt>
      <trkpt lat="43.61276" lon="2.97172">
        <ele>941.26806640625</ele>
        <time>2012-05-07T08:02:09Z</time>
      </trkpt>
      <trkpt lat="43.61277" lon="2.97171">
        <ele>941.26806640625</ele>
        <time>2012-05-07T08:02:22Z</time>
      </trkpt>
      <trkpt lat="43.6128" lon="2.97165">
        <ele>940.78735351562</ele>
        <time>2012-05-07T08:02:26Z</time>
      </trkpt>
      <trkpt lat="43.61281" lon="2.97159">
        <ele>939.82592773438</ele>
        <time>2012-05-07T08:02:28Z</time>
      </trkpt>
      <trkpt lat="43.61283" lon="2.97155">
        <ele>940.30688476562</ele>
        <time>2012-05-07T08:02:32Z</time>
      </trkpt>
      <trkpt lat="43.61284" lon="2.97153">
        <ele>940.30688476562</ele>
        <time>2012-05-07T08:02:34Z</time>
      </trkpt>
      <trkpt lat="43.61285" lon="2.97152">
        <ele>940.30688476562</ele>
        <time>2012-05-07T08:02:36Z</time>
      </trkpt>
      <trkpt lat="43.61289" lon="2.97148">
        <ele>941.74877929688</ele>
        <time>2012-05-07T08:02:41Z</time>
      </trkpt>
      <trkpt lat="43.61293" lon="2.97142">
        <ele>943.19067382812</ele>
        <time>2012-05-07T08:02:47Z</time>
      </trkpt>
      <trkpt lat="43.61293" lon="2.9714">
        <ele>943.19067382812</ele>
        <time>2012-05-07T08:02:48Z</time>
      </trkpt>
      <trkpt lat="43.61295" lon="2.9713">
        <ele>945.11328125</ele>
        <time>2012-05-07T08:02:55Z</time>
      </trkpt>
      <trkpt lat="43.61295" lon="2.97126">
        <ele>945.59399414062</ele>
        <time>2012-05-07T08:02:58Z</time>
      </trkpt>
      <trkpt lat="43.61294" lon="2.97115">
        <ele>946.55541992188</ele>
        <time>2012-05-07T08:03:06Z</time>
      </trkpt>
      <trkpt lat="43.61295" lon="2.97106">
        <ele>947.99731445312</ele>
        <time>2012-05-07T08:03:11Z</time>
      </trkpt>
      <trkpt lat="43.61295" lon="2.97099">
        <ele>949.919921875</ele>
        <time>2012-05-07T08:03:16Z</time>
      </trkpt>
      <trkpt lat="43.61295" lon="2.97091">
        <ele>950.88110351562</ele>
        <time>2012-05-07T08:03:22Z</time>
      </trkpt>
      <trkpt lat="43.61295" lon="2.97089">
        <ele>950.88110351562</ele>
        <time>2012-05-07T08:03:23Z</time>
      </trkpt>
      <trkpt lat="43.61295" lon="2.97084">
        <ele>951.36181640625</ele>
        <time>2012-05-07T08:03:27Z</time>
      </trkpt>
      <trkpt lat="43.61298" lon="2.97081">
        <ele>952.8037109375</ele>
        <time>2012-05-07T08:03:31Z</time>
      </trkpt>
      <trkpt lat="43.613" lon="2.97075">
        <ele>954.72631835938</ele>
        <time>2012-05-07T08:03:37Z</time>
      </trkpt>
      <trkpt lat="43.61303" lon="2.97068">
        <ele>956.64916992188</ele>
        <time>2012-05-07T08:03:43Z</time>
      </trkpt>
      <trkpt lat="43.61306" lon="2.97065">
        <ele>958.09130859375</ele>
        <time>2012-05-07T08:03:49Z</time>
      </trkpt>
      <trkpt lat="43.61308" lon="2.97061">
        <ele>958.09130859375</ele>
        <time>2012-05-07T08:03:54Z</time>
      </trkpt>
      <trkpt lat="43.61313" lon="2.97059">
        <ele>959.05249023438</ele>
        <time>2012-05-07T08:04:01Z</time>
      </trkpt>
      <trkpt lat="43.61317" lon="2.97057">
        <ele>960.49438476562</ele>
        <time>2012-05-07T08:04:07Z</time>
      </trkpt>
      <trkpt lat="43.61321" lon="2.97055">
        <ele>961.9365234375</ele>
        <time>2012-05-07T08:04:13Z</time>
      </trkpt>
      <trkpt lat="43.61324" lon="2.97049">
        <ele>963.37841796875</ele>
        <time>2012-05-07T08:04:21Z</time>
      </trkpt>
      <trkpt lat="43.61325" lon="2.97042">
        <ele>965.30102539062</ele>
        <time>2012-05-07T08:04:28Z</time>
      </trkpt>
      <trkpt lat="43.61325" lon="2.97034">
        <ele>968.18481445312</ele>
        <time>2012-05-07T08:04:33Z</time>
      </trkpt>
      <trkpt lat="43.61328" lon="2.97027">
        <ele>969.14624023438</ele>
        <time>2012-05-07T08:04:39Z</time>
      </trkpt>
      <trkpt lat="43.61329" lon="2.97025">
        <ele>969.626953125</ele>
        <time>2012-05-07T08:04:41Z</time>
      </trkpt>
      <trkpt lat="43.6133" lon="2.97017">
        <ele>971.54931640625</ele>
        <time>2012-05-07T08:04:47Z</time>
      </trkpt>
      <trkpt lat="43.6133" lon="2.97009">
        <ele>972.99169921875</ele>
        <time>2012-05-07T08:04:52Z</time>
      </trkpt>
      <trkpt lat="43.61333" lon="2.97001">
        <ele>974.43359375</ele>
        <time>2012-05-07T08:04:59Z</time>
      </trkpt>
      <trkpt lat="43.61332" lon="2.96995">
        <ele>974.91430664062</ele>
        <time>2012-05-07T08:05:04Z</time>
      </trkpt>
      <trkpt lat="43.61331" lon="2.96985">
        <ele>976.35620117188</ele>
        <time>2012-05-07T08:05:10Z</time>
      </trkpt>
      <trkpt lat="43.61332" lon="2.96975">
        <ele>977.79809570312</ele>
        <time>2012-05-07T08:05:17Z</time>
      </trkpt>
      <trkpt lat="43.61332" lon="2.96973">
        <ele>977.79809570312</ele>
        <time>2012-05-07T08:05:18Z</time>
      </trkpt>
      <trkpt lat="43.61332" lon="2.96964">
        <ele>978.75952148438</ele>
        <time>2012-05-07T08:05:23Z</time>
      </trkpt>
      <trkpt lat="43.61334" lon="2.96962">
        <ele>979.23999023438</ele>
        <time>2012-05-07T08:05:26Z</time>
      </trkpt>
      <trkpt lat="43.61334" lon="2.9696">
        <ele>979.23999023438</ele>
        <time>2012-05-07T08:05:28Z</time>
      </trkpt>
      <trkpt lat="43.61338" lon="2.9695">
        <ele>980.68212890625</ele>
        <time>2012-05-07T08:05:36Z</time>
      </trkpt>
      <trkpt lat="43.61342" lon="2.96943">
        <ele>981.64331054688</ele>
        <time>2012-05-07T08:05:43Z</time>
      </trkpt>
      <trkpt lat="43.61345" lon="2.96936">
        <ele>983.08520507812</ele>
        <time>2012-05-07T08:05:49Z</time>
      </trkpt>
      <trkpt lat="43.61348" lon="2.96926">
        <ele>985.00805664062</ele>
        <time>2012-05-07T08:05:56Z</time>
      </trkpt>
      <trkpt lat="43.61352" lon="2.96923">
        <ele>985.48852539062</ele>
        <time>2012-05-07T08:06:02Z</time>
      </trkpt>
      <trkpt lat="43.61356" lon="2.96919">
        <ele>985.96923828125</ele>
        <time>2012-05-07T08:06:07Z</time>
      </trkpt>
      <trkpt lat="43.61359" lon="2.96915">
        <ele>986.44995117188</ele>
        <time>2012-05-07T08:06:11Z</time>
      </trkpt>
      <trkpt lat="43.61363" lon="2.96906">
        <ele>986.93041992188</ele>
        <time>2012-05-07T08:06:19Z</time>
      </trkpt>
      <trkpt lat="43.61364" lon="2.96902">
        <ele>987.4111328125</ele>
        <time>2012-05-07T08:06:24Z</time>
      </trkpt>
      <trkpt lat="43.61362" lon="2.96894">
        <ele>985.48852539062</ele>
        <time>2012-05-07T08:06:31Z</time>
      </trkpt>
      <trkpt lat="43.61364" lon="2.96887">
        <ele>985.96923828125</ele>
        <time>2012-05-07T08:06:35Z</time>
      </trkpt>
      <trkpt lat="43.61368" lon="2.96875">
        <ele>986.93041992188</ele>
        <time>2012-05-07T08:06:43Z</time>
      </trkpt>
      <trkpt lat="43.6137" lon="2.96864">
        <ele>987.89184570312</ele>
        <time>2012-05-07T08:06:49Z</time>
      </trkpt>
      <trkpt lat="43.61373" lon="2.9685">
        <ele>989.81469726562</ele>
        <time>2012-05-07T08:06:57Z</time>
      </trkpt>
      <trkpt lat="43.61377" lon="2.96835">
        <ele>991.7373046875</ele>
        <time>2012-05-07T08:07:06Z</time>
      </trkpt>
      <trkpt lat="43.6138" lon="2.96826">
        <ele>991.7373046875</ele>
        <time>2012-05-07T08:07:12Z</time>
      </trkpt>
      <trkpt lat="43.61382" lon="2.96815">
        <ele>993.65991210938</ele>
        <time>2012-05-07T08:07:18Z</time>
      </trkpt>
      <trkpt lat="43.61382" lon="2.96811">
        <ele>994.140625</ele>
        <time>2012-05-07T08:07:20Z</time>
      </trkpt>
      <trkpt lat="43.61382" lon="2.96797">
        <ele>996.5439453125</ele>
        <time>2012-05-07T08:07:28Z</time>
      </trkpt>
      <trkpt lat="43.61382" lon="2.96791">
        <ele>997.50512695312</ele>
        <time>2012-05-07T08:07:31Z</time>
      </trkpt>
      <trkpt lat="43.61382" lon="2.96784">
        <ele>997.98583984375</ele>
        <time>2012-05-07T08:07:35Z</time>
      </trkpt>
      <trkpt lat="43.61386" lon="2.96763">
        <ele>999.427734375</ele>
        <time>2012-05-07T08:07:41Z</time>
      </trkpt>
      <trkpt lat="43.6139" lon="2.96756">
        <ele>999.90844726562</ele>
        <time>2012-05-07T08:07:45Z</time>
      </trkpt>
      <trkpt lat="43.61393" lon="2.96747">
        <ele>999.90844726562</ele>
        <time>2012-05-07T08:07:50Z</time>
      </trkpt>
      <trkpt lat="43.61399" lon="2.96738">
        <ele>999.90844726562</ele>
        <time>2012-05-07T08:07:57Z</time>
      </trkpt>
      <trkpt lat="43.614" lon="2.96735">
        <ele>999.427734375</ele>
        <time>2012-05-07T08:07:59Z</time>
      </trkpt>
      <trkpt lat="43.61403" lon="2.96727">
        <ele>998.46630859375</ele>
        <time>2012-05-07T08:08:03Z</time>
      </trkpt>
      <trkpt lat="43.61405" lon="2.96723">
        <ele>998.94702148438</ele>
        <time>2012-05-07T08:08:09Z</time>
      </trkpt>
      <trkpt lat="43.61405" lon="2.96715">
        <ele>998.94702148438</ele>
        <time>2012-05-07T08:08:14Z</time>
      </trkpt>
      <trkpt lat="43.61405" lon="2.96714">
        <ele>998.46630859375</ele>
        <time>2012-05-07T08:08:15Z</time>
      </trkpt>
      <trkpt lat="43.61406" lon="2.96707">
        <ele>997.0244140625</ele>
        <time>2012-05-07T08:08:20Z</time>
      </trkpt>
      <trkpt lat="43.6141" lon="2.96704">
        <ele>996.5439453125</ele>
        <time>2012-05-07T08:08:24Z</time>
      </trkpt>
      <trkpt lat="43.6142" lon="2.96703">
        <ele>995.58251953125</ele>
        <time>2012-05-07T08:08:29Z</time>
      </trkpt>
      <trkpt lat="43.61421" lon="2.96703">
        <ele>995.10180664062</ele>
        <time>2012-05-07T08:08:30Z</time>
      </trkpt>
      <trkpt lat="43.61427" lon="2.96698">
        <ele>994.140625</ele>
        <time>2012-05-07T08:08:33Z</time>
      </trkpt>
      <trkpt lat="43.61433" lon="2.96687">
        <ele>993.17919921875</ele>
        <time>2012-05-07T08:08:37Z</time>
      </trkpt>
      <trkpt lat="43.61435" lon="2.96684">
        <ele>992.69873046875</ele>
        <time>2012-05-07T08:08:38Z</time>
      </trkpt>
      <trkpt lat="43.61448" lon="2.96673">
        <ele>990.29541015625</ele>
        <time>2012-05-07T08:08:44Z</time>
      </trkpt>
      <trkpt lat="43.61458" lon="2.96667">
        <ele>987.89184570312</ele>
        <time>2012-05-07T08:08:48Z</time>
      </trkpt>
      <trkpt lat="43.61468" lon="2.96661">
        <ele>985.00805664062</ele>
        <time>2012-05-07T08:08:52Z</time>
      </trkpt>
      <trkpt lat="43.6148" lon="2.96651">
        <ele>981.16284179688</ele>
        <time>2012-05-07T08:08:57Z</time>
      </trkpt>
      <trkpt lat="43.61488" lon="2.96644">
        <ele>978.27880859375</ele>
        <time>2012-05-07T08:09:01Z</time>
      </trkpt>
      <trkpt lat="43.61496" lon="2.96635">
        <ele>975.87548828125</ele>
        <time>2012-05-07T08:09:05Z</time>
      </trkpt>
      <trkpt lat="43.61512" lon="2.96629">
        <ele>972.0302734375</ele>
        <time>2012-05-07T08:09:12Z</time>
      </trkpt>
      <trkpt lat="43.61521" lon="2.96628">
        <ele>971.06884765625</ele>
        <time>2012-05-07T08:09:15Z</time>
      </trkpt>
      <trkpt lat="43.61531" lon="2.96623">
        <ele>970.107421875</ele>
        <time>2012-05-07T08:09:20Z</time>
      </trkpt>
      <trkpt lat="43.61533" lon="2.96622">
        <ele>970.107421875</ele>
        <time>2012-05-07T08:09:23Z</time>
      </trkpt>
      <trkpt lat="43.61535" lon="2.96622">
        <ele>970.107421875</ele>
        <time>2012-05-07T08:09:32Z</time>
      </trkpt>
      <trkpt lat="43.61536" lon="2.96622">
        <ele>970.107421875</ele>
        <time>2012-05-07T08:09:36Z</time>
      </trkpt>
      <trkpt lat="43.61536" lon="2.96622">
        <ele>970.107421875</ele>
        <time>2012-05-07T08:09:41Z</time>
      </trkpt>
      <trkpt lat="43.61539" lon="2.96619">
        <ele>970.58813476562</ele>
        <time>2012-05-07T08:09:47Z</time>
      </trkpt>
      <trkpt lat="43.6154" lon="2.96619">
        <ele>970.58813476562</ele>
        <time>2012-05-07T08:09:52Z</time>
      </trkpt>
      <trkpt lat="43.61539" lon="2.96619">
        <ele>971.54931640625</ele>
        <time>2012-05-07T08:10:03Z</time>
      </trkpt>
      <trkpt lat="43.61544" lon="2.96611">
        <ele>970.58813476562</ele>
        <time>2012-05-07T08:10:06Z</time>
      </trkpt>
      <trkpt lat="43.61551" lon="2.96593">
        <ele>971.06884765625</ele>
        <time>2012-05-07T08:10:11Z</time>
      </trkpt>
      <trkpt lat="43.61556" lon="2.9658">
        <ele>971.06884765625</ele>
        <time>2012-05-07T08:10:15Z</time>
      </trkpt>
      <trkpt lat="43.61562" lon="2.96562">
        <ele>972.51098632812</ele>
        <time>2012-05-07T08:10:20Z</time>
      </trkpt>
      <trkpt lat="43.61564" lon="2.96554">
        <ele>973.95288085938</ele>
        <time>2012-05-07T08:10:24Z</time>
      </trkpt>
      <trkpt lat="43.61567" lon="2.96548">
        <ele>974.91430664062</ele>
        <time>2012-05-07T08:10:29Z</time>
      </trkpt>
      <trkpt lat="43.61571" lon="2.96541">
        <ele>976.8369140625</ele>
        <time>2012-05-07T08:10:35Z</time>
      </trkpt>
      <trkpt lat="43.61574" lon="2.96535">
        <ele>977.79809570312</ele>
        <time>2012-05-07T08:10:40Z</time>
      </trkpt>
      <trkpt lat="43.61578" lon="2.96527">
        <ele>978.75952148438</ele>
        <time>2012-05-07T08:10:47Z</time>
      </trkpt>
      <trkpt lat="43.6158" lon="2.96522">
        <ele>978.75952148438</ele>
        <time>2012-05-07T08:10:51Z</time>
      </trkpt>
      <trkpt lat="43.61584" lon="2.96511">
        <ele>979.720703125</ele>
        <time>2012-05-07T08:11:00Z</time>
      </trkpt>
      <trkpt lat="43.61588" lon="2.96506">
        <ele>981.16284179688</ele>
        <time>2012-05-07T08:11:06Z</time>
      </trkpt>
      <trkpt lat="43.61592" lon="2.96501">
        <ele>982.1240234375</ele>
        <time>2012-05-07T08:11:12Z</time>
      </trkpt>
      <trkpt lat="43.61598" lon="2.96495">
        <ele>983.56591796875</ele>
        <time>2012-05-07T08:11:19Z</time>
      </trkpt>
      <trkpt lat="43.61602" lon="2.9649">
        <ele>984.52734375</ele>
        <time>2012-05-07T08:11:25Z</time>
      </trkpt>
      <trkpt lat="43.61608" lon="2.96484">
        <ele>986.93041992188</ele>
        <time>2012-05-07T08:11:34Z</time>
      </trkpt>
      <trkpt lat="43.61612" lon="2.96481">
        <ele>987.89184570312</ele>
        <time>2012-05-07T08:11:40Z</time>
      </trkpt>
      <trkpt lat="43.61614" lon="2.96476">
        <ele>988.853515625</ele>
        <time>2012-05-07T08:11:47Z</time>
      </trkpt>
      <trkpt lat="43.61619" lon="2.96472">
        <ele>989.81469726562</ele>
        <time>2012-05-07T08:11:54Z</time>
      </trkpt>
      <trkpt lat="43.61626" lon="2.9647">
        <ele>991.7373046875</ele>
        <time>2012-05-07T08:12:03Z</time>
      </trkpt>
      <trkpt lat="43.61632" lon="2.9647">
        <ele>992.69873046875</ele>
        <time>2012-05-07T08:12:10Z</time>
      </trkpt>
      <trkpt lat="43.61637" lon="2.96465">
        <ele>994.140625</ele>
        <time>2012-05-07T08:12:19Z</time>
      </trkpt>
      <trkpt lat="43.61642" lon="2.96459">
        <ele>995.58251953125</ele>
        <time>2012-05-07T08:12:26Z</time>
      </trkpt>
      <trkpt lat="43.61649" lon="2.96455">
        <ele>997.0244140625</ele>
        <time>2012-05-07T08:12:34Z</time>
      </trkpt>
      <trkpt lat="43.61655" lon="2.96455">
        <ele>998.94702148438</ele>
        <time>2012-05-07T08:12:41Z</time>
      </trkpt>
      <trkpt lat="43.61662" lon="2.96455">
        <ele>1000.3891601562</ele>
        <time>2012-05-07T08:12:50Z</time>
      </trkpt>
      <trkpt lat="43.6167" lon="2.96455">
        <ele>1002.3115234375</ele>
        <time>2012-05-07T08:12:59Z</time>
      </trkpt>
      <trkpt lat="43.61677" lon="2.96454">
        <ele>1004.7150878906</ele>
        <time>2012-05-07T08:13:07Z</time>
      </trkpt>
      <trkpt lat="43.61681" lon="2.96452">
        <ele>1005.6765136719</ele>
        <time>2012-05-07T08:13:13Z</time>
      </trkpt>
      <trkpt lat="43.61688" lon="2.96451">
        <ele>1007.5991210938</ele>
        <time>2012-05-07T08:13:20Z</time>
      </trkpt>
      <trkpt lat="43.6169" lon="2.9645">
        <ele>1008.5603027344</ele>
        <time>2012-05-07T08:13:24Z</time>
      </trkpt>
      <trkpt lat="43.61695" lon="2.96452">
        <ele>1009.5217285156</ele>
        <time>2012-05-07T08:13:31Z</time>
      </trkpt>
      <trkpt lat="43.617" lon="2.96449">
        <ele>1011.4443359375</ele>
        <time>2012-05-07T08:13:37Z</time>
      </trkpt>
      <trkpt lat="43.61705" lon="2.96448">
        <ele>1012.4055175781</ele>
        <time>2012-05-07T08:13:43Z</time>
      </trkpt>
      <trkpt lat="43.61711" lon="2.96442">
        <ele>1014.8088378906</ele>
        <time>2012-05-07T08:13:50Z</time>
      </trkpt>
      <trkpt lat="43.61717" lon="2.96439">
        <ele>1016.2507324219</ele>
        <time>2012-05-07T08:13:56Z</time>
      </trkpt>
      <trkpt lat="43.61718" lon="2.96439">
        <ele>1016.2507324219</ele>
        <time>2012-05-07T08:13:57Z</time>
      </trkpt>
      <trkpt lat="43.61722" lon="2.96436">
        <ele>1017.6926269531</ele>
        <time>2012-05-07T08:14:01Z</time>
      </trkpt>
      <trkpt lat="43.61725" lon="2.96434">
        <ele>1018.1733398438</ele>
        <time>2012-05-07T08:14:04Z</time>
      </trkpt>
      <trkpt lat="43.61728" lon="2.9643">
        <ele>1019.6154785156</ele>
        <time>2012-05-07T08:14:08Z</time>
      </trkpt>
      <trkpt lat="43.61737" lon="2.96426">
        <ele>1022.0187988281</ele>
        <time>2012-05-07T08:14:17Z</time>
      </trkpt>
      <trkpt lat="43.61747" lon="2.96422">
        <ele>1024.9028320312</ele>
        <time>2012-05-07T08:14:26Z</time>
      </trkpt>
      <trkpt lat="43.61754" lon="2.96419">
        <ele>1026.3447265625</ele>
        <time>2012-05-07T08:14:33Z</time>
      </trkpt>
      <trkpt lat="43.61758" lon="2.96417">
        <ele>1027.3061523438</ele>
        <time>2012-05-07T08:14:37Z</time>
      </trkpt>
      <trkpt lat="43.61765" lon="2.96412">
        <ele>1028.748046875</ele>
        <time>2012-05-07T08:14:44Z</time>
      </trkpt>
      <trkpt lat="43.61766" lon="2.96411">
        <ele>1028.748046875</ele>
        <time>2012-05-07T08:14:46Z</time>
      </trkpt>
      <trkpt lat="43.61775" lon="2.96408">
        <ele>1030.6706542969</ele>
        <time>2012-05-07T08:14:54Z</time>
      </trkpt>
      <trkpt lat="43.61776" lon="2.96407">
        <ele>1031.1513671875</ele>
        <time>2012-05-07T08:14:55Z</time>
      </trkpt>
      <trkpt lat="43.61781" lon="2.96409">
        <ele>1031.1513671875</ele>
        <time>2012-05-07T08:15:00Z</time>
      </trkpt>
      <trkpt lat="43.61783" lon="2.96407">
        <ele>1032.1125488281</ele>
        <time>2012-05-07T08:15:08Z</time>
      </trkpt>
      <trkpt lat="43.61789" lon="2.96404">
        <ele>1033.0737304688</ele>
        <time>2012-05-07T08:15:14Z</time>
      </trkpt>
      <trkpt lat="43.61798" lon="2.96401">
        <ele>1034.5158691406</ele>
        <time>2012-05-07T08:15:22Z</time>
      </trkpt>
      <trkpt lat="43.61805" lon="2.96396">
        <ele>1036.4387207031</ele>
        <time>2012-05-07T08:15:29Z</time>
      </trkpt>
      <trkpt lat="43.6181" lon="2.96394">
        <ele>1037.8806152344</ele>
        <time>2012-05-07T08:15:36Z</time>
      </trkpt>
      <trkpt lat="43.61818" lon="2.96393">
        <ele>1038.361328125</ele>
        <time>2012-05-07T08:15:43Z</time>
      </trkpt>
      <trkpt lat="43.61824" lon="2.96391">
        <ele>1038.8420410156</ele>
        <time>2012-05-07T08:15:49Z</time>
      </trkpt>
      <trkpt lat="43.61833" lon="2.96388">
        <ele>1039.8032226562</ele>
        <time>2012-05-07T08:15:56Z</time>
      </trkpt>
      <trkpt lat="43.61841" lon="2.96383">
        <ele>1041.2451171875</ele>
        <time>2012-05-07T08:16:03Z</time>
      </trkpt>
      <trkpt lat="43.61852" lon="2.96378">
        <ele>1042.6872558594</ele>
        <time>2012-05-07T08:16:12Z</time>
      </trkpt>
      <trkpt lat="43.61862" lon="2.96371">
        <ele>1043.6484375</ele>
        <time>2012-05-07T08:16:21Z</time>
      </trkpt>
      <trkpt lat="43.61869" lon="2.96368">
        <ele>1044.6096191406</ele>
        <time>2012-05-07T08:16:27Z</time>
      </trkpt>
      <trkpt lat="43.61878" lon="2.96363">
        <ele>1045.0903320312</ele>
        <time>2012-05-07T08:16:35Z</time>
      </trkpt>
      <trkpt lat="43.61889" lon="2.96354">
        <ele>1046.0517578125</ele>
        <time>2012-05-07T08:16:43Z</time>
      </trkpt>
      <trkpt lat="43.61892" lon="2.96352">
        <ele>1046.0517578125</ele>
        <time>2012-05-07T08:16:44Z</time>
      </trkpt>
      <trkpt lat="43.61901" lon="2.96345">
        <ele>1046.5324707031</ele>
        <time>2012-05-07T08:16:48Z</time>
      </trkpt>
      <trkpt lat="43.61916" lon="2.9634">
        <ele>1046.0517578125</ele>
        <time>2012-05-07T08:16:53Z</time>
      </trkpt>
      <trkpt lat="43.6193" lon="2.96336">
        <ele>1044.6096191406</ele>
        <time>2012-05-07T08:16:58Z</time>
      </trkpt>
      <trkpt lat="43.61943" lon="2.9633">
        <ele>1042.6872558594</ele>
        <time>2012-05-07T08:17:03Z</time>
      </trkpt>
      <trkpt lat="43.61962" lon="2.96323">
        <ele>1039.3225097656</ele>
        <time>2012-05-07T08:17:10Z</time>
      </trkpt>
      <trkpt lat="43.61976" lon="2.96319">
        <ele>1036.9191894531</ele>
        <time>2012-05-07T08:17:15Z</time>
      </trkpt>
      <trkpt lat="43.61986" lon="2.96317">
        <ele>1034.9965820312</ele>
        <time>2012-05-07T08:17:19Z</time>
      </trkpt>
      <trkpt lat="43.61999" lon="2.96313">
        <ele>1033.5544433594</ele>
        <time>2012-05-07T08:17:24Z</time>
      </trkpt>
      <trkpt lat="43.62004" lon="2.96312">
        <ele>1032.5932617188</ele>
        <time>2012-05-07T08:17:29Z</time>
      </trkpt>
      <trkpt lat="43.62017" lon="2.96306">
        <ele>1031.1513671875</ele>
        <time>2012-05-07T08:17:34Z</time>
      </trkpt>
      <trkpt lat="43.62028" lon="2.96301">
        <ele>1029.228515625</ele>
        <time>2012-05-07T08:17:38Z</time>
      </trkpt>
      <trkpt lat="43.62042" lon="2.96299">
        <ele>1026.8254394531</ele>
        <time>2012-05-07T08:17:43Z</time>
      </trkpt>
      <trkpt lat="43.62054" lon="2.96297">
        <ele>1024.4221191406</ele>
        <time>2012-05-07T08:17:48Z</time>
      </trkpt>
      <trkpt lat="43.62067" lon="2.9629">
        <ele>1022.0187988281</ele>
        <time>2012-05-07T08:17:53Z</time>
      </trkpt>
      <trkpt lat="43.6207" lon="2.9629">
        <ele>1021.5380859375</ele>
        <time>2012-05-07T08:17:54Z</time>
      </trkpt>
      <trkpt lat="43.62083" lon="2.96283">
        <ele>1020.0961914062</ele>
        <time>2012-05-07T08:17:59Z</time>
      </trkpt>
      <trkpt lat="43.62092" lon="2.96274">
        <ele>1019.6154785156</ele>
        <time>2012-05-07T08:18:04Z</time>
      </trkpt>
      <trkpt lat="43.62098" lon="2.9627">
        <ele>1018.6540527344</ele>
        <time>2012-05-07T08:18:08Z</time>
      </trkpt>
      <trkpt lat="43.62105" lon="2.96264">
        <ele>1019.134765625</ele>
        <time>2012-05-07T08:18:14Z</time>
      </trkpt>
      <trkpt lat="43.62106" lon="2.96264">
        <ele>1019.134765625</ele>
        <time>2012-05-07T08:18:20Z</time>
      </trkpt>
      <trkpt lat="43.62112" lon="2.96262">
        <ele>1019.134765625</ele>
        <time>2012-05-07T08:18:25Z</time>
      </trkpt>
      <trkpt lat="43.62121" lon="2.96261">
        <ele>1018.6540527344</ele>
        <time>2012-05-07T08:18:32Z</time>
      </trkpt>
      <trkpt lat="43.6213" lon="2.96262">
        <ele>1018.6540527344</ele>
        <time>2012-05-07T08:18:39Z</time>
      </trkpt>
      <trkpt lat="43.62138" lon="2.96262">
        <ele>1018.1733398438</ele>
        <time>2012-05-07T08:18:45Z</time>
      </trkpt>
      <trkpt lat="43.62147" lon="2.96265">
        <ele>1019.6154785156</ele>
        <time>2012-05-07T08:18:53Z</time>
      </trkpt>
      <trkpt lat="43.62157" lon="2.96268">
        <ele>1020.5769042969</ele>
        <time>2012-05-07T08:19:01Z</time>
      </trkpt>
      <trkpt lat="43.62167" lon="2.96273">
        <ele>1021.0576171875</ele>
        <time>2012-05-07T08:19:09Z</time>
      </trkpt>
      <trkpt lat="43.62176" lon="2.96277">
        <ele>1022.0187988281</ele>
        <time>2012-05-07T08:19:15Z</time>
      </trkpt>
      <trkpt lat="43.62187" lon="2.96284">
        <ele>1022.4995117188</ele>
        <time>2012-05-07T08:19:20Z</time>
      </trkpt>
      <trkpt lat="43.62198" lon="2.96291">
        <ele>1022.9802246094</ele>
        <time>2012-05-07T08:19:26Z</time>
      </trkpt>
      <trkpt lat="43.62203" lon="2.96296">
        <ele>1022.4995117188</ele>
        <time>2012-05-07T08:19:30Z</time>
      </trkpt>
      <trkpt lat="43.62218" lon="2.96312">
        <ele>1022.4995117188</ele>
        <time>2012-05-07T08:19:38Z</time>
      </trkpt>
      <trkpt lat="43.62231" lon="2.96318">
        <ele>1023.94140625</ele>
        <time>2012-05-07T08:19:44Z</time>
      </trkpt>
      <trkpt lat="43.6224" lon="2.96319">
        <ele>1024.9028320312</ele>
        <time>2012-05-07T08:19:51Z</time>
      </trkpt>
      <trkpt lat="43.62244" lon="2.96322">
        <ele>1025.8640136719</ele>
        <time>2012-05-07T08:19:56Z</time>
      </trkpt>
      <trkpt lat="43.62246" lon="2.96329">
        <ele>1026.3447265625</ele>
        <time>2012-05-07T08:20:01Z</time>
      </trkpt>
      <trkpt lat="43.62249" lon="2.96334">
        <ele>1027.3061523438</ele>
        <time>2012-05-07T08:20:04Z</time>
      </trkpt>
      <trkpt lat="43.6225" lon="2.96336">
        <ele>1027.7866210938</ele>
        <time>2012-05-07T08:20:06Z</time>
      </trkpt>
      <trkpt lat="43.62252" lon="2.96338">
        <ele>1028.2673339844</ele>
        <time>2012-05-07T08:20:08Z</time>
      </trkpt>
      <trkpt lat="43.62255" lon="2.9634">
        <ele>1028.748046875</ele>
        <time>2012-05-07T08:20:12Z</time>
      </trkpt>
      <trkpt lat="43.62264" lon="2.96347">
        <ele>1029.7092285156</ele>
        <time>2012-05-07T08:20:21Z</time>
      </trkpt>
      <trkpt lat="43.62267" lon="2.96351">
        <ele>1030.6706542969</ele>
        <time>2012-05-07T08:20:25Z</time>
      </trkpt>
      <trkpt lat="43.62271" lon="2.96351">
        <ele>1032.1125488281</ele>
        <time>2012-05-07T08:20:31Z</time>
      </trkpt>
      <trkpt lat="43.62277" lon="2.96353">
        <ele>1033.5544433594</ele>
        <time>2012-05-07T08:20:36Z</time>
      </trkpt>
      <trkpt lat="43.62278" lon="2.96356">
        <ele>1033.5544433594</ele>
        <time>2012-05-07T08:20:38Z</time>
      </trkpt>
      <trkpt lat="43.62285" lon="2.96364">
        <ele>1034.9965820312</ele>
        <time>2012-05-07T08:20:46Z</time>
      </trkpt>
      <trkpt lat="43.62289" lon="2.96369">
        <ele>1035.9577636719</ele>
        <time>2012-05-07T08:20:50Z</time>
      </trkpt>
      <trkpt lat="43.62294" lon="2.96383">
        <ele>1036.4387207031</ele>
        <time>2012-05-07T08:20:58Z</time>
      </trkpt>
      <trkpt lat="43.62297" lon="2.96392">
        <ele>1037.8806152344</ele>
        <time>2012-05-07T08:21:05Z</time>
      </trkpt>
      <trkpt lat="43.623" lon="2.96398">
        <ele>1039.8032226562</ele>
        <time>2012-05-07T08:21:11Z</time>
      </trkpt>
      <trkpt lat="43.62305" lon="2.96404">
        <ele>1041.7258300781</ele>
        <time>2012-05-07T08:21:17Z</time>
      </trkpt>
      <trkpt lat="43.62312" lon="2.9641">
        <ele>1042.6872558594</ele>
        <time>2012-05-07T08:21:24Z</time>
      </trkpt>
      <trkpt lat="43.62318" lon="2.96414">
        <ele>1043.6484375</ele>
        <time>2012-05-07T08:21:31Z</time>
      </trkpt>
      <trkpt lat="43.62325" lon="2.96417">
        <ele>1045.0903320312</ele>
        <time>2012-05-07T08:21:39Z</time>
      </trkpt>
      <trkpt lat="43.62331" lon="2.96422">
        <ele>1046.0517578125</ele>
        <time>2012-05-07T08:21:45Z</time>
      </trkpt>
      <trkpt lat="43.62338" lon="2.96423">
        <ele>1047.9743652344</ele>
        <time>2012-05-07T08:21:53Z</time>
      </trkpt>
      <trkpt lat="43.62342" lon="2.96424">
        <ele>1049.8969726562</ele>
        <time>2012-05-07T08:21:59Z</time>
      </trkpt>
      <trkpt lat="43.62345" lon="2.96428">
        <ele>1050.3776855469</ele>
        <time>2012-05-07T08:22:04Z</time>
      </trkpt>
      <trkpt lat="43.62345" lon="2.96431">
        <ele>1051.3388671875</ele>
        <time>2012-05-07T08:22:08Z</time>
      </trkpt>
      <trkpt lat="43.62349" lon="2.96428">
        <ele>1051.8195800781</ele>
        <time>2012-05-07T08:22:12Z</time>
      </trkpt>
      <trkpt lat="43.62354" lon="2.96428">
        <ele>1052.3002929688</ele>
        <time>2012-05-07T08:22:17Z</time>
      </trkpt>
      <trkpt lat="43.62359" lon="2.96431">
        <ele>1052.7810058594</ele>
        <time>2012-05-07T08:22:21Z</time>
      </trkpt>
      <trkpt lat="43.62364" lon="2.96435">
        <ele>1052.7810058594</ele>
        <time>2012-05-07T08:22:25Z</time>
      </trkpt>
      <trkpt lat="43.62373" lon="2.96445">
        <ele>1053.26171875</ele>
        <time>2012-05-07T08:22:29Z</time>
      </trkpt>
      <trkpt lat="43.62383" lon="2.96458">
        <ele>1053.26171875</ele>
        <time>2012-05-07T08:22:34Z</time>
      </trkpt>
      <trkpt lat="43.62391" lon="2.96469">
        <ele>1052.3002929688</ele>
        <time>2012-05-07T08:22:39Z</time>
      </trkpt>
      <trkpt lat="43.62397" lon="2.96475">
        <ele>1052.3002929688</ele>
        <time>2012-05-07T08:22:44Z</time>
      </trkpt>
      <trkpt lat="43.62399" lon="2.96479">
        <ele>1052.3002929688</ele>
        <time>2012-05-07T08:22:47Z</time>
      </trkpt>
      <trkpt lat="43.62402" lon="2.96485">
        <ele>1051.8195800781</ele>
        <time>2012-05-07T08:22:51Z</time>
      </trkpt>
      <trkpt lat="43.62408" lon="2.96497">
        <ele>1051.3388671875</ele>
        <time>2012-05-07T08:23:00Z</time>
      </trkpt>
      <trkpt lat="43.62411" lon="2.96502">
        <ele>1050.8581542969</ele>
        <time>2012-05-07T08:23:03Z</time>
      </trkpt>
      <trkpt lat="43.62412" lon="2.96503">
        <ele>1050.3776855469</ele>
        <time>2012-05-07T08:23:06Z</time>
      </trkpt>
      <trkpt lat="43.62418" lon="2.96511">
        <ele>1048.935546875</ele>
        <time>2012-05-07T08:23:13Z</time>
      </trkpt>
      <trkpt lat="43.62419" lon="2.96512">
        <ele>1048.4548339844</ele>
        <time>2012-05-07T08:23:14Z</time>
      </trkpt>
      <trkpt lat="43.62423" lon="2.9652">
        <ele>1047.0129394531</ele>
        <time>2012-05-07T08:23:21Z</time>
      </trkpt>
      <trkpt lat="43.62428" lon="2.96526">
        <ele>1044.6096191406</ele>
        <time>2012-05-07T08:23:25Z</time>
      </trkpt>
      <trkpt lat="43.62434" lon="2.96536">
        <ele>1041.7258300781</ele>
        <time>2012-05-07T08:23:29Z</time>
      </trkpt>
      <trkpt lat="43.62443" lon="2.96549">
        <ele>1039.8032226562</ele>
        <time>2012-05-07T08:23:34Z</time>
      </trkpt>
      <trkpt lat="43.62451" lon="2.96564">
        <ele>1038.8420410156</ele>
        <time>2012-05-07T08:23:39Z</time>
      </trkpt>
      <trkpt lat="43.62459" lon="2.96575">
        <ele>1037.8806152344</ele>
        <time>2012-05-07T08:23:43Z</time>
      </trkpt>
      <trkpt lat="43.62469" lon="2.96587">
        <ele>1038.361328125</ele>
        <time>2012-05-07T08:23:48Z</time>
      </trkpt>
      <trkpt lat="43.6248" lon="2.96598">
        <ele>1037.8806152344</ele>
        <time>2012-05-07T08:23:54Z</time>
      </trkpt>
      <trkpt lat="43.62492" lon="2.96602">
        <ele>1037.3999023438</ele>
        <time>2012-05-07T08:23:59Z</time>
      </trkpt>
      <trkpt lat="43.62506" lon="2.96602">
        <ele>1036.9191894531</ele>
        <time>2012-05-07T08:24:05Z</time>
      </trkpt>
      <trkpt lat="43.62518" lon="2.96605">
        <ele>1035.9577636719</ele>
        <time>2012-05-07T08:24:10Z</time>
      </trkpt>
      <trkpt lat="43.62531" lon="2.96608">
        <ele>1034.5158691406</ele>
        <time>2012-05-07T08:24:16Z</time>
      </trkpt>
      <trkpt lat="43.62541" lon="2.9661">
        <ele>1033.5544433594</ele>
        <time>2012-05-07T08:24:21Z</time>
      </trkpt>
      <trkpt lat="43.62553" lon="2.9661">
        <ele>1034.03515625</ele>
        <time>2012-05-07T08:24:27Z</time>
      </trkpt>
      <trkpt lat="43.6256" lon="2.96609">
        <ele>1034.9965820312</ele>
        <time>2012-05-07T08:24:32Z</time>
      </trkpt>
      <trkpt lat="43.62564" lon="2.96609">
        <ele>1035.9577636719</ele>
        <time>2012-05-07T08:24:36Z</time>
      </trkpt>
      <trkpt lat="43.62569" lon="2.96609">
        <ele>1036.9191894531</ele>
        <time>2012-05-07T08:24:41Z</time>
      </trkpt>
      <trkpt lat="43.62577" lon="2.9661">
        <ele>1039.3225097656</ele>
        <time>2012-05-07T08:24:48Z</time>
      </trkpt>
      <trkpt lat="43.62588" lon="2.96608">
        <ele>1043.6484375</ele>
        <time>2012-05-07T08:24:57Z</time>
      </trkpt>
      <trkpt lat="43.62597" lon="2.96608">
        <ele>1045.5710449219</ele>
        <time>2012-05-07T08:25:04Z</time>
      </trkpt>
      <trkpt lat="43.62604" lon="2.96613">
        <ele>1047.0129394531</ele>
        <time>2012-05-07T08:25:11Z</time>
      </trkpt>
      <trkpt lat="43.62611" lon="2.96618">
        <ele>1047.9743652344</ele>
        <time>2012-05-07T08:25:18Z</time>
      </trkpt>
      <trkpt lat="43.62624" lon="2.96623">
        <ele>1048.4548339844</ele>
        <time>2012-05-07T08:25:28Z</time>
      </trkpt>
      <trkpt lat="43.62633" lon="2.96626">
        <ele>1047.9743652344</ele>
        <time>2012-05-07T08:25:35Z</time>
      </trkpt>
      <trkpt lat="43.62639" lon="2.96629">
        <ele>1048.935546875</ele>
        <time>2012-05-07T08:25:40Z</time>
      </trkpt>
      <trkpt lat="43.62644" lon="2.96631">
        <ele>1049.8969726562</ele>
        <time>2012-05-07T08:25:44Z</time>
      </trkpt>
      <trkpt lat="43.62659" lon="2.96637">
        <ele>1050.8581542969</ele>
        <time>2012-05-07T08:25:56Z</time>
      </trkpt>
      <trkpt lat="43.62667" lon="2.9664">
        <ele>1051.3388671875</ele>
        <time>2012-05-07T08:26:03Z</time>
      </trkpt>
      <trkpt lat="43.62677" lon="2.96646">
        <ele>1052.3002929688</ele>
        <time>2012-05-07T08:26:12Z</time>
      </trkpt>
      <trkpt lat="43.62688" lon="2.96651">
        <ele>1052.7810058594</ele>
        <time>2012-05-07T08:26:21Z</time>
      </trkpt>
      <trkpt lat="43.62694" lon="2.96655">
        <ele>1053.7424316406</ele>
        <time>2012-05-07T08:26:27Z</time>
      </trkpt>
      <trkpt lat="43.62701" lon="2.96669">
        <ele>1055.6650390625</ele>
        <time>2012-05-07T08:26:37Z</time>
      </trkpt>
      <trkpt lat="43.62705" lon="2.96684">
        <ele>1056.6262207031</ele>
        <time>2012-05-07T08:26:46Z</time>
      </trkpt>
      <trkpt lat="43.62709" lon="2.96699">
        <ele>1057.1069335938</ele>
        <time>2012-05-07T08:26:55Z</time>
      </trkpt>
      <trkpt lat="43.62713" lon="2.96713">
        <ele>1057.1069335938</ele>
        <time>2012-05-07T08:27:03Z</time>
      </trkpt>
      <trkpt lat="43.62716" lon="2.96723">
        <ele>1057.1069335938</ele>
        <time>2012-05-07T08:27:09Z</time>
      </trkpt>
      <trkpt lat="43.62722" lon="2.96738">
        <ele>1058.068359375</ele>
        <time>2012-05-07T08:27:18Z</time>
      </trkpt>
      <trkpt lat="43.62733" lon="2.9675">
        <ele>1059.0295410156</ele>
        <time>2012-05-07T08:27:25Z</time>
      </trkpt>
      <trkpt lat="43.62744" lon="2.9676">
        <ele>1058.548828125</ele>
        <time>2012-05-07T08:27:30Z</time>
      </trkpt>
      <trkpt lat="43.62761" lon="2.96775">
        <ele>1058.548828125</ele>
        <time>2012-05-07T08:27:37Z</time>
      </trkpt>
      <trkpt lat="43.62776" lon="2.96788">
        <ele>1057.5876464844</ele>
        <time>2012-05-07T08:27:43Z</time>
      </trkpt>
      <trkpt lat="43.62788" lon="2.96802">
        <ele>1056.6262207031</ele>
        <time>2012-05-07T08:27:49Z</time>
      </trkpt>
      <trkpt lat="43.62798" lon="2.9681">
        <ele>1056.1455078125</ele>
        <time>2012-05-07T08:27:53Z</time>
      </trkpt>
      <trkpt lat="43.62809" lon="2.96822">
        <ele>1055.1843261719</ele>
        <time>2012-05-07T08:27:58Z</time>
      </trkpt>
      <trkpt lat="43.6282" lon="2.96833">
        <ele>1055.1843261719</ele>
        <time>2012-05-07T08:28:03Z</time>
      </trkpt>
      <trkpt lat="43.6283" lon="2.96841">
        <ele>1055.1843261719</ele>
        <time>2012-05-07T08:28:07Z</time>
      </trkpt>
      <trkpt lat="43.62843" lon="2.96853">
        <ele>1055.6650390625</ele>
        <time>2012-05-07T08:28:13Z</time>
      </trkpt>
      <trkpt lat="43.62853" lon="2.96864">
        <ele>1056.1455078125</ele>
        <time>2012-05-07T08:28:18Z</time>
      </trkpt>
      <trkpt lat="43.62862" lon="2.96872">
        <ele>1056.1455078125</ele>
        <time>2012-05-07T08:28:22Z</time>
      </trkpt>
      <trkpt lat="43.62872" lon="2.96882">
        <ele>1057.1069335938</ele>
        <time>2012-05-07T08:28:27Z</time>
      </trkpt>
      <trkpt lat="43.62883" lon="2.96892">
        <ele>1058.548828125</ele>
        <time>2012-05-07T08:28:32Z</time>
      </trkpt>
      <trkpt lat="43.62891" lon="2.96899">
        <ele>1058.068359375</ele>
        <time>2012-05-07T08:28:36Z</time>
      </trkpt>
      <trkpt lat="43.62905" lon="2.96913">
        <ele>1059.5102539062</ele>
        <time>2012-05-07T08:28:43Z</time>
      </trkpt>
      <trkpt lat="43.62914" lon="2.9692">
        <ele>1059.9907226562</ele>
        <time>2012-05-07T08:28:47Z</time>
      </trkpt>
      <trkpt lat="43.62923" lon="2.96929">
        <ele>1060.9521484375</ele>
        <time>2012-05-07T08:28:52Z</time>
      </trkpt>
      <trkpt lat="43.62937" lon="2.96942">
        <ele>1062.8747558594</ele>
        <time>2012-05-07T08:28:58Z</time>
      </trkpt>
      <trkpt lat="43.62946" lon="2.96951">
        <ele>1063.35546875</ele>
        <time>2012-05-07T08:29:03Z</time>
      </trkpt>
      <trkpt lat="43.62958" lon="2.96963">
        <ele>1063.8359375</ele>
        <time>2012-05-07T08:29:09Z</time>
      </trkpt>
      <trkpt lat="43.62968" lon="2.96972">
        <ele>1064.7973632812</ele>
        <time>2012-05-07T08:29:15Z</time>
      </trkpt>
      <trkpt lat="43.62976" lon="2.9698">
        <ele>1066.2392578125</ele>
        <time>2012-05-07T08:29:20Z</time>
      </trkpt>
      <trkpt lat="43.62985" lon="2.96989">
        <ele>1067.2006835938</ele>
        <time>2012-05-07T08:29:26Z</time>
      </trkpt>
      <trkpt lat="43.62994" lon="2.96997">
        <ele>1069.1235351562</ele>
        <time>2012-05-07T08:29:32Z</time>
      </trkpt>
      <trkpt lat="43.63002" lon="2.97005">
        <ele>1069.1235351562</ele>
        <time>2012-05-07T08:29:37Z</time>
      </trkpt>
      <trkpt lat="43.63011" lon="2.97013">
        <ele>1070.0847167969</ele>
        <time>2012-05-07T08:29:43Z</time>
      </trkpt>
      <trkpt lat="43.63021" lon="2.97022">
        <ele>1071.5266113281</ele>
        <time>2012-05-07T08:29:49Z</time>
      </trkpt>
      <trkpt lat="43.63033" lon="2.97028">
        <ele>1072.0073242188</ele>
        <time>2012-05-07T08:29:56Z</time>
      </trkpt>
      <trkpt lat="43.63044" lon="2.97031">
        <ele>1072.0073242188</ele>
        <time>2012-05-07T08:30:02Z</time>
      </trkpt>
      <trkpt lat="43.63054" lon="2.9703">
        <ele>1071.5266113281</ele>
        <time>2012-05-07T08:30:07Z</time>
      </trkpt>
      <trkpt lat="43.63066" lon="2.97029">
        <ele>1071.5266113281</ele>
        <time>2012-05-07T08:30:12Z</time>
      </trkpt>
      <trkpt lat="43.63078" lon="2.97028">
        <ele>1071.5266113281</ele>
        <time>2012-05-07T08:30:17Z</time>
      </trkpt>
      <trkpt lat="43.6309" lon="2.97027">
        <ele>1071.5266113281</ele>
        <time>2012-05-07T08:30:22Z</time>
      </trkpt>
      <trkpt lat="43.63106" lon="2.97026">
        <ele>1071.0461425781</ele>
        <time>2012-05-07T08:30:28Z</time>
      </trkpt>
      <trkpt lat="43.63119" lon="2.97026">
        <ele>1070.0847167969</ele>
        <time>2012-05-07T08:30:33Z</time>
      </trkpt>
      <trkpt lat="43.63135" lon="2.97023">
        <ele>1067.2006835938</ele>
        <time>2012-05-07T08:30:39Z</time>
      </trkpt>
      <trkpt lat="43.63148" lon="2.97022">
        <ele>1065.2780761719</ele>
        <time>2012-05-07T08:30:43Z</time>
      </trkpt>
      <trkpt lat="43.63158" lon="2.97021">
        <ele>1064.7973632812</ele>
        <time>2012-05-07T08:30:47Z</time>
      </trkpt>
      <trkpt lat="43.63171" lon="2.97021">
        <ele>1065.2780761719</ele>
        <time>2012-05-07T08:30:52Z</time>
      </trkpt>
      <trkpt lat="43.63182" lon="2.9702">
        <ele>1065.7587890625</ele>
        <time>2012-05-07T08:30:57Z</time>
      </trkpt>
      <trkpt lat="43.63193" lon="2.97019">
        <ele>1066.7199707031</ele>
        <time>2012-05-07T08:31:02Z</time>
      </trkpt>
      <trkpt lat="43.63206" lon="2.97017">
        <ele>1067.2006835938</ele>
        <time>2012-05-07T08:31:08Z</time>
      </trkpt>
      <trkpt lat="43.63212" lon="2.97017">
        <ele>1068.162109375</ele>
        <time>2012-05-07T08:31:11Z</time>
      </trkpt>
      <trkpt lat="43.63224" lon="2.97012">
        <ele>1068.6428222656</ele>
        <time>2012-05-07T08:31:17Z</time>
      </trkpt>
      <trkpt lat="43.63228" lon="2.97012">
        <ele>1068.6428222656</ele>
        <time>2012-05-07T08:31:19Z</time>
      </trkpt>
      <trkpt lat="43.6324" lon="2.97007">
        <ele>1069.1235351562</ele>
        <time>2012-05-07T08:31:25Z</time>
      </trkpt>
      <trkpt lat="43.63253" lon="2.97004">
        <ele>1070.0847167969</ele>
        <time>2012-05-07T08:31:31Z</time>
      </trkpt>
      <trkpt lat="43.63266" lon="2.97002">
        <ele>1070.0847167969</ele>
        <time>2012-05-07T08:31:37Z</time>
      </trkpt>
      <trkpt lat="43.63276" lon="2.97">
        <ele>1070.0847167969</ele>
        <time>2012-05-07T08:31:41Z</time>
      </trkpt>
      <trkpt lat="43.63293" lon="2.96999">
        <ele>1070.5654296875</ele>
        <time>2012-05-07T08:31:48Z</time>
      </trkpt>
      <trkpt lat="43.63308" lon="2.96997">
        <ele>1071.0461425781</ele>
        <time>2012-05-07T08:31:54Z</time>
      </trkpt>
      <trkpt lat="43.63316" lon="2.96997">
        <ele>1071.0461425781</ele>
        <time>2012-05-07T08:31:58Z</time>
      </trkpt>
      <trkpt lat="43.63318" lon="2.96997">
        <ele>1071.0461425781</ele>
        <time>2012-05-07T08:31:59Z</time>
      </trkpt>
      <trkpt lat="43.63326" lon="2.96994">
        <ele>1072.4880371094</ele>
        <time>2012-05-07T08:32:03Z</time>
      </trkpt>
      <trkpt lat="43.63338" lon="2.96993">
        <ele>1072.96875</ele>
        <time>2012-05-07T08:32:08Z</time>
      </trkpt>
      <trkpt lat="43.6335" lon="2.96995">
        <ele>1073.9299316406</ele>
        <time>2012-05-07T08:32:13Z</time>
      </trkpt>
      <trkpt lat="43.63363" lon="2.97002">
        <ele>1073.9299316406</ele>
        <time>2012-05-07T08:32:19Z</time>
      </trkpt>
      <trkpt lat="43.63379" lon="2.97012">
        <ele>1072.96875</ele>
        <time>2012-05-07T08:32:26Z</time>
      </trkpt>
      <trkpt lat="43.63391" lon="2.97018">
        <ele>1073.4494628906</ele>
        <time>2012-05-07T08:32:31Z</time>
      </trkpt>
      <trkpt lat="43.63405" lon="2.97026">
        <ele>1073.4494628906</ele>
        <time>2012-05-07T08:32:37Z</time>
      </trkpt>
      <trkpt lat="43.63411" lon="2.9703">
        <ele>1072.4880371094</ele>
        <time>2012-05-07T08:32:42Z</time>
      </trkpt>
      <trkpt lat="43.63416" lon="2.97033">
        <ele>1072.96875</ele>
        <time>2012-05-07T08:32:47Z</time>
      </trkpt>
      <trkpt lat="43.63425" lon="2.97038">
        <ele>1072.96875</ele>
        <time>2012-05-07T08:32:55Z</time>
      </trkpt>
      <trkpt lat="43.63429" lon="2.97041">
        <ele>1072.96875</ele>
        <time>2012-05-07T08:32:58Z</time>
      </trkpt>
      <trkpt lat="43.63432" lon="2.97048">
        <ele>1073.4494628906</ele>
        <time>2012-05-07T08:33:03Z</time>
      </trkpt>
      <trkpt lat="43.63435" lon="2.97051">
        <ele>1073.4494628906</ele>
        <time>2012-05-07T08:33:05Z</time>
      </trkpt>
      <trkpt lat="43.63438" lon="2.9706">
        <ele>1072.96875</ele>
        <time>2012-05-07T08:33:12Z</time>
      </trkpt>
      <trkpt lat="43.63438" lon="2.97057">
        <ele>1073.4494628906</ele>
        <time>2012-05-07T08:33:18Z</time>
      </trkpt>
      <trkpt lat="43.6344" lon="2.9705">
        <ele>1073.4494628906</ele>
        <time>2012-05-07T08:33:24Z</time>
      </trkpt>
      <trkpt lat="43.63442" lon="2.97047">
        <ele>1073.4494628906</ele>
        <time>2012-05-07T08:33:29Z</time>
      </trkpt>
      <trkpt lat="43.63444" lon="2.97047">
        <ele>1073.9299316406</ele>
        <time>2012-05-07T08:33:36Z</time>
      </trkpt>
      <trkpt lat="43.63445" lon="2.97047">
        <ele>1075.8525390625</ele>
        <time>2012-05-07T08:33:48Z</time>
      </trkpt>
      <trkpt lat="43.63445" lon="2.97048">
        <ele>1075.8525390625</ele>
        <time>2012-05-07T08:33:56Z</time>
      </trkpt>
      <trkpt lat="43.63445" lon="2.97049">
        <ele>1075.3718261719</ele>
        <time>2012-05-07T08:34:06Z</time>
      </trkpt>
      <trkpt lat="43.63445" lon="2.97049">
        <ele>1073.9299316406</ele>
        <time>2012-05-07T08:34:22Z</time>
      </trkpt>
      <trkpt lat="43.63447" lon="2.97047">
        <ele>1072.96875</ele>
        <time>2012-05-07T08:34:35Z</time>
      </trkpt>
      <trkpt lat="43.63451" lon="2.97046">
        <ele>1072.4880371094</ele>
        <time>2012-05-07T08:34:40Z</time>
      </trkpt>
      <trkpt lat="43.63452" lon="2.97045">
        <ele>1072.4880371094</ele>
        <time>2012-05-07T08:34:41Z</time>
      </trkpt>
      <trkpt lat="43.63461" lon="2.97045">
        <ele>1072.96875</ele>
        <time>2012-05-07T08:34:49Z</time>
      </trkpt>
      <trkpt lat="43.63467" lon="2.97046">
        <ele>1073.9299316406</ele>
        <time>2012-05-07T08:34:54Z</time>
      </trkpt>
      <trkpt lat="43.63472" lon="2.97047">
        <ele>1074.4106445312</ele>
        <time>2012-05-07T08:34:58Z</time>
      </trkpt>
      <trkpt lat="43.6348" lon="2.97049">
        <ele>1075.3718261719</ele>
        <time>2012-05-07T08:35:05Z</time>
      </trkpt>
      <trkpt lat="43.63491" lon="2.97051">
        <ele>1075.3718261719</ele>
        <time>2012-05-07T08:35:15Z</time>
      </trkpt>
      <trkpt lat="43.635" lon="2.97049">
        <ele>1075.3718261719</ele>
        <time>2012-05-07T08:35:22Z</time>
      </trkpt>
      <trkpt lat="43.63509" lon="2.97049">
        <ele>1075.8525390625</ele>
        <time>2012-05-07T08:35:28Z</time>
      </trkpt>
      <trkpt lat="43.63516" lon="2.97048">
        <ele>1076.8139648438</ele>
        <time>2012-05-07T08:35:34Z</time>
      </trkpt>
      <trkpt lat="43.63521" lon="2.97045">
        <ele>1077.2946777344</ele>
        <time>2012-05-07T08:35:39Z</time>
      </trkpt>
      <trkpt lat="43.63534" lon="2.97041">
        <ele>1076.8139648438</ele>
        <time>2012-05-07T08:35:48Z</time>
      </trkpt>
      <trkpt lat="43.63543" lon="2.9704">
        <ele>1078.255859375</ele>
        <time>2012-05-07T08:35:55Z</time>
      </trkpt>
      <trkpt lat="43.63546" lon="2.97041">
        <ele>1078.255859375</ele>
        <time>2012-05-07T08:35:58Z</time>
      </trkpt>
      <trkpt lat="43.6355" lon="2.97041">
        <ele>1078.7365722656</ele>
        <time>2012-05-07T08:36:04Z</time>
      </trkpt>
      <trkpt lat="43.63553" lon="2.97043">
        <ele>1078.255859375</ele>
        <time>2012-05-07T08:36:08Z</time>
      </trkpt>
      <trkpt lat="43.63561" lon="2.97049">
        <ele>1077.7751464844</ele>
        <time>2012-05-07T08:36:15Z</time>
      </trkpt>
      <trkpt lat="43.6357" lon="2.97055">
        <ele>1077.7751464844</ele>
        <time>2012-05-07T08:36:22Z</time>
      </trkpt>
      <trkpt lat="43.63574" lon="2.97056">
        <ele>1077.7751464844</ele>
        <time>2012-05-07T08:36:25Z</time>
      </trkpt>
      <trkpt lat="43.63584" lon="2.97059">
        <ele>1077.7751464844</ele>
        <time>2012-05-07T08:36:33Z</time>
      </trkpt>
      <trkpt lat="43.63585" lon="2.9706">
        <ele>1077.7751464844</ele>
        <time>2012-05-07T08:36:34Z</time>
      </trkpt>
      <trkpt lat="43.63595" lon="2.97059">
        <ele>1078.7365722656</ele>
        <time>2012-05-07T08:36:42Z</time>
      </trkpt>
      <trkpt lat="43.63598" lon="2.97055">
        <ele>1078.7365722656</ele>
        <time>2012-05-07T08:36:45Z</time>
      </trkpt>
      <trkpt lat="43.63604" lon="2.9705">
        <ele>1079.2170410156</ele>
        <time>2012-05-07T08:36:50Z</time>
      </trkpt>
      <trkpt lat="43.63606" lon="2.97049">
        <ele>1079.2170410156</ele>
        <time>2012-05-07T08:36:51Z</time>
      </trkpt>
      <trkpt lat="43.63619" lon="2.97045">
        <ele>1077.7751464844</ele>
        <time>2012-05-07T08:36:57Z</time>
      </trkpt>
      <trkpt lat="43.63622" lon="2.97044">
        <ele>1076.3332519531</ele>
        <time>2012-05-07T08:36:59Z</time>
      </trkpt>
      <trkpt lat="43.6363" lon="2.97038">
        <ele>1074.8913574219</ele>
        <time>2012-05-07T08:37:04Z</time>
      </trkpt>
      <trkpt lat="43.63631" lon="2.97037">
        <ele>1074.4106445312</ele>
        <time>2012-05-07T08:37:05Z</time>
      </trkpt>
      <trkpt lat="43.63641" lon="2.97033">
        <ele>1072.4880371094</ele>
        <time>2012-05-07T08:37:11Z</time>
      </trkpt>
      <trkpt lat="43.63642" lon="2.97032">
        <ele>1072.4880371094</ele>
        <time>2012-05-07T08:37:12Z</time>
      </trkpt>
      <trkpt lat="43.63643" lon="2.97032">
        <ele>1072.0073242188</ele>
        <time>2012-05-07T08:37:17Z</time>
      </trkpt>
      <trkpt lat="43.63652" lon="2.97028">
        <ele>1070.5654296875</ele>
        <time>2012-05-07T08:37:21Z</time>
      </trkpt>
      <trkpt lat="43.63662" lon="2.97024">
        <ele>1070.5654296875</ele>
        <time>2012-05-07T08:37:26Z</time>
      </trkpt>
      <trkpt lat="43.63664" lon="2.97017">
        <ele>1069.6042480469</ele>
        <time>2012-05-07T08:37:30Z</time>
      </trkpt>
      <trkpt lat="43.63666" lon="2.97015">
        <ele>1069.1235351562</ele>
        <time>2012-05-07T08:37:31Z</time>
      </trkpt>
      <trkpt lat="43.63681" lon="2.97009">
        <ele>1066.7199707031</ele>
        <time>2012-05-07T08:37:38Z</time>
      </trkpt>
      <trkpt lat="43.63692" lon="2.97011">
        <ele>1064.7973632812</ele>
        <time>2012-05-07T08:37:43Z</time>
      </trkpt>
      <trkpt lat="43.63694" lon="2.97011">
        <ele>1064.3166503906</ele>
        <time>2012-05-07T08:37:44Z</time>
      </trkpt>
      <trkpt lat="43.63704" lon="2.97007">
        <ele>1062.8747558594</ele>
        <time>2012-05-07T08:37:49Z</time>
      </trkpt>
      <trkpt lat="43.6371" lon="2.97004">
        <ele>1061.9135742188</ele>
        <time>2012-05-07T08:37:54Z</time>
      </trkpt>
      <trkpt lat="43.63717" lon="2.97004">
        <ele>1059.5102539062</ele>
        <time>2012-05-07T08:37:59Z</time>
      </trkpt>
      <trkpt lat="43.63723" lon="2.97005">
        <ele>1057.1069335938</ele>
        <time>2012-05-07T08:38:03Z</time>
      </trkpt>
      <trkpt lat="43.63731" lon="2.97006">
        <ele>1055.1843261719</ele>
        <time>2012-05-07T08:38:08Z</time>
      </trkpt>
      <trkpt lat="43.63737" lon="2.97005">
        <ele>1052.7810058594</ele>
        <time>2012-05-07T08:38:13Z</time>
      </trkpt>
      <trkpt lat="43.63745" lon="2.97007">
        <ele>1051.3388671875</ele>
        <time>2012-05-07T08:38:17Z</time>
      </trkpt>
      <trkpt lat="43.6375" lon="2.97007">
        <ele>1050.3776855469</ele>
        <time>2012-05-07T08:38:20Z</time>
      </trkpt>
      <trkpt lat="43.63758" lon="2.97005">
        <ele>1048.4548339844</ele>
        <time>2012-05-07T08:38:25Z</time>
      </trkpt>
      <trkpt lat="43.63762" lon="2.97007">
        <ele>1046.0517578125</ele>
        <time>2012-05-07T08:38:28Z</time>
      </trkpt>
      <trkpt lat="43.63775" lon="2.97003">
        <ele>1044.1291503906</ele>
        <time>2012-05-07T08:38:34Z</time>
      </trkpt>
      <trkpt lat="43.63779" lon="2.96999">
        <ele>1044.1291503906</ele>
        <time>2012-05-07T08:38:36Z</time>
      </trkpt>
      <trkpt lat="43.63788" lon="2.96989">
        <ele>1044.1291503906</ele>
        <time>2012-05-07T08:38:42Z</time>
      </trkpt>
      <trkpt lat="43.63789" lon="2.96985">
        <ele>1044.1291503906</ele>
        <time>2012-05-07T08:38:48Z</time>
      </trkpt>
      <trkpt lat="43.63795" lon="2.96976">
        <ele>1043.1677246094</ele>
        <time>2012-05-07T08:38:53Z</time>
      </trkpt>
      <trkpt lat="43.63803" lon="2.9697">
        <ele>1040.7644042969</ele>
        <time>2012-05-07T08:38:59Z</time>
      </trkpt>
      <trkpt lat="43.63806" lon="2.96968">
        <ele>1039.8032226562</ele>
        <time>2012-05-07T08:39:01Z</time>
      </trkpt>
      <trkpt lat="43.63812" lon="2.96963">
        <ele>1038.361328125</ele>
        <time>2012-05-07T08:39:05Z</time>
      </trkpt>
      <trkpt lat="43.63815" lon="2.96961">
        <ele>1037.8806152344</ele>
        <time>2012-05-07T08:39:07Z</time>
      </trkpt>
      <trkpt lat="43.63818" lon="2.96956">
        <ele>1035.9577636719</ele>
        <time>2012-05-07T08:39:11Z</time>
      </trkpt>
      <trkpt lat="43.63819" lon="2.96955">
        <ele>1034.9965820312</ele>
        <time>2012-05-07T08:39:12Z</time>
      </trkpt>
      <trkpt lat="43.63821" lon="2.96953">
        <ele>1034.03515625</ele>
        <time>2012-05-07T08:39:14Z</time>
      </trkpt>
      <trkpt lat="43.63829" lon="2.96953">
        <ele>1031.1513671875</ele>
        <time>2012-05-07T08:39:19Z</time>
      </trkpt>
      <trkpt lat="43.63834" lon="2.96948">
        <ele>1030.1899414062</ele>
        <time>2012-05-07T08:39:23Z</time>
      </trkpt>
      <trkpt lat="43.63837" lon="2.96948">
        <ele>1029.7092285156</ele>
        <time>2012-05-07T08:39:24Z</time>
      </trkpt>
      <trkpt lat="43.63842" lon="2.96948">
        <ele>1029.7092285156</ele>
        <time>2012-05-07T08:39:26Z</time>
      </trkpt>
      <trkpt lat="43.6385" lon="2.96949">
        <ele>1028.748046875</ele>
        <time>2012-05-07T08:39:31Z</time>
      </trkpt>
      <trkpt lat="43.63858" lon="2.96946">
        <ele>1028.748046875</ele>
        <time>2012-05-07T08:39:37Z</time>
      </trkpt>
      <trkpt lat="43.63864" lon="2.96943">
        <ele>1028.748046875</ele>
        <time>2012-05-07T08:39:42Z</time>
      </trkpt>
      <trkpt lat="43.63866" lon="2.96943">
        <ele>1029.228515625</ele>
        <time>2012-05-07T08:39:44Z</time>
      </trkpt>
      <trkpt lat="43.63871" lon="2.96941">
        <ele>1028.2673339844</ele>
        <time>2012-05-07T08:39:49Z</time>
      </trkpt>
      <trkpt lat="43.63874" lon="2.96942">
        <ele>1028.748046875</ele>
        <time>2012-05-07T08:39:54Z</time>
      </trkpt>
      <trkpt lat="43.63876" lon="2.96944">
        <ele>1029.228515625</ele>
        <time>2012-05-07T08:39:59Z</time>
      </trkpt>
      <trkpt lat="43.63881" lon="2.96946">
        <ele>1028.748046875</ele>
        <time>2012-05-07T08:40:06Z</time>
      </trkpt>
      <trkpt lat="43.63884" lon="2.96942">
        <ele>1028.748046875</ele>
        <time>2012-05-07T08:40:12Z</time>
      </trkpt>
      <trkpt lat="43.63885" lon="2.96943">
        <ele>1027.3061523438</ele>
        <time>2012-05-07T08:40:17Z</time>
      </trkpt>
      <trkpt lat="43.6389" lon="2.96941">
        <ele>1024.4221191406</ele>
        <time>2012-05-07T08:40:25Z</time>
      </trkpt>
      <trkpt lat="43.63892" lon="2.96939">
        <ele>1022.9802246094</ele>
        <time>2012-05-07T08:40:30Z</time>
      </trkpt>
      <trkpt lat="43.63896" lon="2.96938">
        <ele>1020.5769042969</ele>
        <time>2012-05-07T08:40:36Z</time>
      </trkpt>
      <trkpt lat="43.63902" lon="2.96937">
        <ele>1019.134765625</ele>
        <time>2012-05-07T08:40:43Z</time>
      </trkpt>
      <trkpt lat="43.63906" lon="2.96938">
        <ele>1017.6926269531</ele>
        <time>2012-05-07T08:40:48Z</time>
      </trkpt>
      <trkpt lat="43.63911" lon="2.96935">
        <ele>1017.2121582031</ele>
        <time>2012-05-07T08:40:52Z</time>
      </trkpt>
      <trkpt lat="43.63913" lon="2.96934">
        <ele>1017.2121582031</ele>
        <time>2012-05-07T08:40:54Z</time>
      </trkpt>
      <trkpt lat="43.6392" lon="2.96932">
        <ele>1018.1733398438</ele>
        <time>2012-05-07T08:41:01Z</time>
      </trkpt>
      <trkpt lat="43.63924" lon="2.96931">
        <ele>1017.6926269531</ele>
        <time>2012-05-07T08:41:07Z</time>
      </trkpt>
      <trkpt lat="43.63928" lon="2.96927">
        <ele>1017.6926269531</ele>
        <time>2012-05-07T08:41:13Z</time>
      </trkpt>
      <trkpt lat="43.63932" lon="2.96927">
        <ele>1017.2121582031</ele>
        <time>2012-05-07T08:41:20Z</time>
      </trkpt>
      <trkpt lat="43.63936" lon="2.96928">
        <ele>1015.7702636719</ele>
        <time>2012-05-07T08:41:26Z</time>
      </trkpt>
      <trkpt lat="43.6394" lon="2.9693">
        <ele>1014.328125</ele>
        <time>2012-05-07T08:41:32Z</time>
      </trkpt>
      <trkpt lat="43.63942" lon="2.96927">
        <ele>1014.328125</ele>
        <time>2012-05-07T08:41:39Z</time>
      </trkpt>
      <trkpt lat="43.63944" lon="2.96922">
        <ele>1012.8862304688</ele>
        <time>2012-05-07T08:41:45Z</time>
      </trkpt>
      <trkpt lat="43.63947" lon="2.9692">
        <ele>1011.4443359375</ele>
        <time>2012-05-07T08:41:50Z</time>
      </trkpt>
      <trkpt lat="43.6395" lon="2.9692">
        <ele>1010.0021972656</ele>
        <time>2012-05-07T08:41:54Z</time>
      </trkpt>
      <trkpt lat="43.6395" lon="2.96916">
        <ele>1006.6376953125</ele>
        <time>2012-05-07T08:42:00Z</time>
      </trkpt>
      <trkpt lat="43.63952" lon="2.96913">
        <ele>1005.1958007812</ele>
        <time>2012-05-07T08:42:04Z</time>
      </trkpt>
      <trkpt lat="43.63955" lon="2.96915">
        <ele>1004.7150878906</ele>
        <time>2012-05-07T08:42:08Z</time>
      </trkpt>
      <trkpt lat="43.63956" lon="2.96917">
        <ele>1002.7922363281</ele>
        <time>2012-05-07T08:42:13Z</time>
      </trkpt>
      <trkpt lat="43.6396" lon="2.96919">
        <ele>999.427734375</ele>
        <time>2012-05-07T08:42:19Z</time>
      </trkpt>
      <trkpt lat="43.63964" lon="2.96918">
        <ele>996.5439453125</ele>
        <time>2012-05-07T08:42:25Z</time>
      </trkpt>
      <trkpt lat="43.63968" lon="2.96915">
        <ele>995.10180664062</ele>
        <time>2012-05-07T08:42:32Z</time>
      </trkpt>
      <trkpt lat="43.6397" lon="2.96912">
        <ele>994.140625</ele>
        <time>2012-05-07T08:42:36Z</time>
      </trkpt>
      <trkpt lat="43.63972" lon="2.96908">
        <ele>992.21801757812</ele>
        <time>2012-05-07T08:42:42Z</time>
      </trkpt>
      <trkpt lat="43.63977" lon="2.9691">
        <ele>990.77587890625</ele>
        <time>2012-05-07T08:42:48Z</time>
      </trkpt>
      <trkpt lat="43.63978" lon="2.96912">
        <ele>991.25659179688</ele>
        <time>2012-05-07T08:42:54Z</time>
      </trkpt>
      <trkpt lat="43.63978" lon="2.96908">
        <ele>995.10180664062</ele>
        <time>2012-05-07T08:43:07Z</time>
      </trkpt>
      <trkpt lat="43.63978" lon="2.96905">
        <ele>994.140625</ele>
        <time>2012-05-07T08:43:14Z</time>
      </trkpt>
      <trkpt lat="43.63979" lon="2.96905">
        <ele>994.140625</ele>
        <time>2012-05-07T08:43:28Z</time>
      </trkpt>
      <trkpt lat="43.63978" lon="2.96904">
        <ele>998.94702148438</ele>
        <time>2012-05-07T08:43:38Z</time>
      </trkpt>
      <trkpt lat="43.63979" lon="2.96906">
        <ele>997.0244140625</ele>
        <time>2012-05-07T08:43:58Z</time>
      </trkpt>
      <trkpt lat="43.63979" lon="2.96912">
        <ele>996.5439453125</ele>
        <time>2012-05-07T08:44:04Z</time>
      </trkpt>
      <trkpt lat="43.6398" lon="2.96912">
        <ele>997.50512695312</ele>
        <time>2012-05-07T08:44:12Z</time>
      </trkpt>
      <trkpt lat="43.6398" lon="2.96912">
        <ele>996.5439453125</ele>
        <time>2012-05-07T08:44:21Z</time>
      </trkpt>
      <trkpt lat="43.63979" lon="2.96912">
        <ele>995.58251953125</ele>
        <time>2012-05-07T08:44:28Z</time>
      </trkpt>
      <trkpt lat="43.63981" lon="2.96914">
        <ele>997.98583984375</ele>
        <time>2012-05-07T08:44:47Z</time>
      </trkpt>
      <trkpt lat="43.63981" lon="2.96914">
        <ele>996.5439453125</ele>
        <time>2012-05-07T08:45:04Z</time>
      </trkpt>
      <trkpt lat="43.6398" lon="2.96913">
        <ele>995.58251953125</ele>
        <time>2012-05-07T08:45:17Z</time>
      </trkpt>
      <trkpt lat="43.63979" lon="2.96911">
        <ele>994.62109375</ele>
        <time>2012-05-07T08:45:29Z</time>
      </trkpt>
      <trkpt lat="43.63977" lon="2.96909">
        <ele>988.37280273438</ele>
        <time>2012-05-07T08:46:45Z</time>
      </trkpt>
      <trkpt lat="43.63978" lon="2.96912">
        <ele>992.21801757812</ele>
        <time>2012-05-07T08:47:15Z</time>
      </trkpt>
      <trkpt lat="43.6398" lon="2.96909">
        <ele>995.10180664062</ele>
        <time>2012-05-07T08:47:22Z</time>
      </trkpt>
      <trkpt lat="43.63983" lon="2.96912">
        <ele>997.50512695312</ele>
        <time>2012-05-07T08:47:29Z</time>
      </trkpt>
      <trkpt lat="43.63984" lon="2.96916">
        <ele>998.46630859375</ele>
        <time>2012-05-07T08:47:34Z</time>
      </trkpt>
      <trkpt lat="43.63983" lon="2.96916">
        <ele>1001.8310546875</ele>
        <time>2012-05-07T08:47:47Z</time>
      </trkpt>
      <trkpt lat="43.63982" lon="2.96914">
        <ele>1001.3503417969</ele>
        <time>2012-05-07T08:47:54Z</time>
      </trkpt>
      <trkpt lat="43.63981" lon="2.96913">
        <ele>1001.8310546875</ele>
        <time>2012-05-07T08:48:02Z</time>
      </trkpt>
      <trkpt lat="43.6398" lon="2.96911">
        <ele>999.427734375</ele>
        <time>2012-05-07T08:48:29Z</time>
      </trkpt>
      <trkpt lat="43.63979" lon="2.96905">
        <ele>998.94702148438</ele>
        <time>2012-05-07T08:48:36Z</time>
      </trkpt>
      <trkpt lat="43.63976" lon="2.96901">
        <ele>997.98583984375</ele>
        <time>2012-05-07T08:48:43Z</time>
      </trkpt>
      <trkpt lat="43.63976" lon="2.96896">
        <ele>998.46630859375</ele>
        <time>2012-05-07T08:48:48Z</time>
      </trkpt>
      <trkpt lat="43.63975" lon="2.9689">
        <ele>997.50512695312</ele>
        <time>2012-05-07T08:48:53Z</time>
      </trkpt>
      <trkpt lat="43.63971" lon="2.96883">
        <ele>995.10180664062</ele>
        <time>2012-05-07T08:48:59Z</time>
      </trkpt>
      <trkpt lat="43.6397" lon="2.96882">
        <ele>994.62109375</ele>
        <time>2012-05-07T08:49:00Z</time>
      </trkpt>
      <trkpt lat="43.63969" lon="2.96876">
        <ele>994.62109375</ele>
        <time>2012-05-07T08:49:05Z</time>
      </trkpt>
      <trkpt lat="43.63971" lon="2.96873">
        <ele>992.21801757812</ele>
        <time>2012-05-07T08:49:08Z</time>
      </trkpt>
      <trkpt lat="43.63974" lon="2.96872">
        <ele>990.77587890625</ele>
        <time>2012-05-07T08:49:10Z</time>
      </trkpt>
      <trkpt lat="43.6398" lon="2.96871">
        <ele>988.37280273438</ele>
        <time>2012-05-07T08:49:15Z</time>
      </trkpt>
      <trkpt lat="43.63988" lon="2.96866">
        <ele>985.00805664062</ele>
        <time>2012-05-07T08:49:21Z</time>
      </trkpt>
      <trkpt lat="43.63992" lon="2.96865">
        <ele>984.52734375</ele>
        <time>2012-05-07T08:49:24Z</time>
      </trkpt>
      <trkpt lat="43.64001" lon="2.96858">
        <ele>982.1240234375</ele>
        <time>2012-05-07T08:49:31Z</time>
      </trkpt>
      <trkpt lat="43.64014" lon="2.96847">
        <ele>980.68212890625</ele>
        <time>2012-05-07T08:49:36Z</time>
      </trkpt>
      <trkpt lat="43.64023" lon="2.9684">
        <ele>982.1240234375</ele>
        <time>2012-05-07T08:49:40Z</time>
      </trkpt>
      <trkpt lat="43.64032" lon="2.96829">
        <ele>984.04663085938</ele>
        <time>2012-05-07T08:49:45Z</time>
      </trkpt>
      <trkpt lat="43.64039" lon="2.96818">
        <ele>982.1240234375</ele>
        <time>2012-05-07T08:49:49Z</time>
      </trkpt>
      <trkpt lat="43.64043" lon="2.96814">
        <ele>981.16284179688</ele>
        <time>2012-05-07T08:49:51Z</time>
      </trkpt>
      <trkpt lat="43.64053" lon="2.968">
        <ele>978.27880859375</ele>
        <time>2012-05-07T08:49:57Z</time>
      </trkpt>
      <trkpt lat="43.64061" lon="2.96788">
        <ele>974.91430664062</ele>
        <time>2012-05-07T08:50:03Z</time>
      </trkpt>
      <trkpt lat="43.64062" lon="2.96787">
        <ele>975.39477539062</ele>
        <time>2012-05-07T08:50:05Z</time>
      </trkpt>
      <trkpt lat="43.64069" lon="2.9678">
        <ele>973.47241210938</ele>
        <time>2012-05-07T08:50:10Z</time>
      </trkpt>
      <trkpt lat="43.64078" lon="2.96771">
        <ele>970.107421875</ele>
        <time>2012-05-07T08:50:14Z</time>
      </trkpt>
      <trkpt lat="43.64078" lon="2.96769">
        <ele>969.14624023438</ele>
        <time>2012-05-07T08:50:16Z</time>
      </trkpt>
      <trkpt lat="43.64069" lon="2.96766">
        <ele>965.30102539062</ele>
        <time>2012-05-07T08:50:21Z</time>
      </trkpt>
      <trkpt lat="43.64063" lon="2.96769">
        <ele>960.49438476562</ele>
        <time>2012-05-07T08:50:25Z</time>
      </trkpt>
      <trkpt lat="43.6406" lon="2.96772">
        <ele>957.61059570312</ele>
        <time>2012-05-07T08:50:27Z</time>
      </trkpt>
      <trkpt lat="43.64056" lon="2.96775">
        <ele>954.24584960938</ele>
        <time>2012-05-07T08:50:29Z</time>
      </trkpt>
      <trkpt lat="43.64047" lon="2.96782">
        <ele>949.919921875</ele>
        <time>2012-05-07T08:50:35Z</time>
      </trkpt>
      <trkpt lat="43.64046" lon="2.96783">
        <ele>948.95849609375</ele>
        <time>2012-05-07T08:50:36Z</time>
      </trkpt>
      <trkpt lat="43.64033" lon="2.96785">
        <ele>943.67138671875</ele>
        <time>2012-05-07T08:50:42Z</time>
      </trkpt>
      <trkpt lat="43.64026" lon="2.96786">
        <ele>944.63256835938</ele>
        <time>2012-05-07T08:50:46Z</time>
      </trkpt>
      <trkpt lat="43.64014" lon="2.96785">
        <ele>943.19067382812</ele>
        <time>2012-05-07T08:50:52Z</time>
      </trkpt>
      <trkpt lat="43.64009" lon="2.96783">
        <ele>941.74877929688</ele>
        <time>2012-05-07T08:50:54Z</time>
      </trkpt>
      <trkpt lat="43.64003" lon="2.96781">
        <ele>941.74877929688</ele>
        <time>2012-05-07T08:50:56Z</time>
      </trkpt>
      <trkpt lat="43.63991" lon="2.96777">
        <ele>944.15209960938</ele>
        <time>2012-05-07T08:51:01Z</time>
      </trkpt>
      <trkpt lat="43.63976" lon="2.96774">
        <ele>943.19067382812</ele>
        <time>2012-05-07T08:51:06Z</time>
      </trkpt>
      <trkpt lat="43.63966" lon="2.9677">
        <ele>944.15209960938</ele>
        <time>2012-05-07T08:51:10Z</time>
      </trkpt>
      <trkpt lat="43.63956" lon="2.9676">
        <ele>942.71020507812</ele>
        <time>2012-05-07T08:51:16Z</time>
      </trkpt>
      <trkpt lat="43.63951" lon="2.96756">
        <ele>943.67138671875</ele>
        <time>2012-05-07T08:51:19Z</time>
      </trkpt>
      <trkpt lat="43.63946" lon="2.96749">
        <ele>943.67138671875</ele>
        <time>2012-05-07T08:51:25Z</time>
      </trkpt>
      <trkpt lat="43.63942" lon="2.96744">
        <ele>940.78735351562</ele>
        <time>2012-05-07T08:51:30Z</time>
      </trkpt>
      <trkpt lat="43.63932" lon="2.96737">
        <ele>936.94189453125</ele>
        <time>2012-05-07T08:51:36Z</time>
      </trkpt>
      <trkpt lat="43.6393" lon="2.96736">
        <ele>936.46142578125</ele>
        <time>2012-05-07T08:51:37Z</time>
      </trkpt>
      <trkpt lat="43.63924" lon="2.96733">
        <ele>934.05810546875</ele>
        <time>2012-05-07T08:51:41Z</time>
      </trkpt>
      <trkpt lat="43.63934" lon="2.96725">
        <ele>930.212890625</ele>
        <time>2012-05-07T08:51:47Z</time>
      </trkpt>
      <trkpt lat="43.6394" lon="2.96722">
        <ele>925.88696289062</ele>
        <time>2012-05-07T08:51:52Z</time>
      </trkpt>
      <trkpt lat="43.63941" lon="2.96722">
        <ele>924.44506835938</ele>
        <time>2012-05-07T08:51:53Z</time>
      </trkpt>
      <trkpt lat="43.63945" lon="2.96717">
        <ele>918.67700195312</ele>
        <time>2012-05-07T08:51:58Z</time>
      </trkpt>
      <trkpt lat="43.63952" lon="2.96714">
        <ele>918.1962890625</ele>
        <time>2012-05-07T08:52:02Z</time>
      </trkpt>
      <trkpt lat="43.63955" lon="2.96712">
        <ele>919.15771484375</ele>
        <time>2012-05-07T08:52:04Z</time>
      </trkpt>
      <trkpt lat="43.63953" lon="2.9671">
        <ele>919.63842773438</ele>
        <time>2012-05-07T08:52:06Z</time>
      </trkpt>
      <trkpt lat="43.63942" lon="2.967">
        <ele>918.1962890625</ele>
        <time>2012-05-07T08:52:12Z</time>
      </trkpt>
      <trkpt lat="43.63934" lon="2.96692">
        <ele>915.3125</ele>
        <time>2012-05-07T08:52:17Z</time>
      </trkpt>
      <trkpt lat="43.63933" lon="2.96691">
        <ele>914.83178710938</ele>
        <time>2012-05-07T08:52:18Z</time>
      </trkpt>
      <trkpt lat="43.63929" lon="2.96689">
        <ele>914.83178710938</ele>
        <time>2012-05-07T08:52:20Z</time>
      </trkpt>
      <trkpt lat="43.63922" lon="2.96683">
        <ele>912.9091796875</ele>
        <time>2012-05-07T08:52:26Z</time>
      </trkpt>
      <trkpt lat="43.63916" lon="2.96683">
        <ele>910.505859375</ele>
        <time>2012-05-07T08:52:30Z</time>
      </trkpt>
      <trkpt lat="43.63917" lon="2.96675">
        <ele>907.62182617188</ele>
        <time>2012-05-07T08:52:35Z</time>
      </trkpt>
      <trkpt lat="43.63919" lon="2.96674">
        <ele>907.62182617188</ele>
        <time>2012-05-07T08:52:36Z</time>
      </trkpt>
      <trkpt lat="43.63929" lon="2.96664">
        <ele>905.69921875</ele>
        <time>2012-05-07T08:52:42Z</time>
      </trkpt>
      <trkpt lat="43.63933" lon="2.96664">
        <ele>904.73779296875</ele>
        <time>2012-05-07T08:52:44Z</time>
      </trkpt>
      <trkpt lat="43.6394" lon="2.96658">
        <ele>900.412109375</ele>
        <time>2012-05-07T08:52:50Z</time>
      </trkpt>
      <trkpt lat="43.63946" lon="2.96654">
        <ele>897.04736328125</ele>
        <time>2012-05-07T08:52:54Z</time>
      </trkpt>
      <trkpt lat="43.63954" lon="2.96648">
        <ele>895.60546875</ele>
        <time>2012-05-07T08:52:58Z</time>
      </trkpt>
      <trkpt lat="43.63958" lon="2.96645">
        <ele>895.60546875</ele>
        <time>2012-05-07T08:53:02Z</time>
      </trkpt>
      <trkpt lat="43.63952" lon="2.96642">
        <ele>894.64404296875</ele>
        <time>2012-05-07T08:53:06Z</time>
      </trkpt>
      <trkpt lat="43.63946" lon="2.96639">
        <ele>893.68286132812</ele>
        <time>2012-05-07T08:53:09Z</time>
      </trkpt>
      <trkpt lat="43.63932" lon="2.96634">
        <ele>888.3955078125</ele>
        <time>2012-05-07T08:53:15Z</time>
      </trkpt>
      <trkpt lat="43.63922" lon="2.96633">
        <ele>883.10815429688</ele>
        <time>2012-05-07T08:53:20Z</time>
      </trkpt>
      <trkpt lat="43.63912" lon="2.96631">
        <ele>881.66625976562</ele>
        <time>2012-05-07T08:53:24Z</time>
      </trkpt>
      <trkpt lat="43.63905" lon="2.9663">
        <ele>878.3017578125</ele>
        <time>2012-05-07T08:53:27Z</time>
      </trkpt>
      <trkpt lat="43.63896" lon="2.96622">
        <ele>876.85986328125</ele>
        <time>2012-05-07T08:53:32Z</time>
      </trkpt>
      <trkpt lat="43.63895" lon="2.9662">
        <ele>877.34057617188</ele>
        <time>2012-05-07T08:53:33Z</time>
      </trkpt>
      <trkpt lat="43.63885" lon="2.96612">
        <ele>876.85986328125</ele>
        <time>2012-05-07T08:53:38Z</time>
      </trkpt>
      <trkpt lat="43.63869" lon="2.96609">
        <ele>880.705078125</ele>
        <time>2012-05-07T08:53:44Z</time>
      </trkpt>
      <trkpt lat="43.63857" lon="2.96607">
        <ele>879.26293945312</ele>
        <time>2012-05-07T08:53:49Z</time>
      </trkpt>
      <trkpt lat="43.63848" lon="2.96611">
        <ele>879.74365234375</ele>
        <time>2012-05-07T08:53:53Z</time>
      </trkpt>
      <trkpt lat="43.63836" lon="2.9661">
        <ele>877.82104492188</ele>
        <time>2012-05-07T08:53:58Z</time>
      </trkpt>
      <trkpt lat="43.63831" lon="2.96609">
        <ele>876.37915039062</ele>
        <time>2012-05-07T08:54:01Z</time>
      </trkpt>
      <trkpt lat="43.63827" lon="2.96611">
        <ele>873.9755859375</ele>
        <time>2012-05-07T08:54:03Z</time>
      </trkpt>
      <trkpt lat="43.63815" lon="2.96611">
        <ele>873.01440429688</ele>
        <time>2012-05-07T08:54:08Z</time>
      </trkpt>
      <trkpt lat="43.63812" lon="2.96612">
        <ele>873.01440429688</ele>
        <time>2012-05-07T08:54:09Z</time>
      </trkpt>
      <trkpt lat="43.63804" lon="2.96614">
        <ele>873.9755859375</ele>
        <time>2012-05-07T08:54:12Z</time>
      </trkpt>
      <trkpt lat="43.63795" lon="2.96615">
        <ele>876.37915039062</ele>
        <time>2012-05-07T08:54:16Z</time>
      </trkpt>
      <trkpt lat="43.63781" lon="2.96617">
        <ele>875.89819335938</ele>
        <time>2012-05-07T08:54:22Z</time>
      </trkpt>
      <trkpt lat="43.63775" lon="2.96617">
        <ele>875.89819335938</ele>
        <time>2012-05-07T08:54:24Z</time>
      </trkpt>
      <trkpt lat="43.63767" lon="2.96611">
        <ele>873.9755859375</ele>
        <time>2012-05-07T08:54:28Z</time>
      </trkpt>
      <trkpt lat="43.63755" lon="2.96612">
        <ele>867.24658203125</ele>
        <time>2012-05-07T08:54:34Z</time>
      </trkpt>
      <trkpt lat="43.63742" lon="2.96607">
        <ele>864.84326171875</ele>
        <time>2012-05-07T08:54:39Z</time>
      </trkpt>
      <trkpt lat="43.63735" lon="2.96608">
        <ele>860.51733398438</ele>
        <time>2012-05-07T08:54:43Z</time>
      </trkpt>
      <trkpt lat="43.63722" lon="2.96607">
        <ele>860.51733398438</ele>
        <time>2012-05-07T08:54:48Z</time>
      </trkpt>
      <trkpt lat="43.6372" lon="2.96606">
        <ele>859.55590820312</ele>
        <time>2012-05-07T08:54:49Z</time>
      </trkpt>
      <trkpt lat="43.63713" lon="2.96603">
        <ele>859.55590820312</ele>
        <time>2012-05-07T08:54:52Z</time>
      </trkpt>
      <trkpt lat="43.6371" lon="2.96596">
        <ele>861.95947265625</ele>
        <time>2012-05-07T08:54:55Z</time>
      </trkpt>
      <trkpt lat="43.63706" lon="2.96598">
        <ele>859.0751953125</ele>
        <time>2012-05-07T08:55:00Z</time>
      </trkpt>
      <trkpt lat="43.637" lon="2.96602">
        <ele>856.671875</ele>
        <time>2012-05-07T08:55:03Z</time>
      </trkpt>
      <trkpt lat="43.63688" lon="2.96592">
        <ele>854.26879882812</ele>
        <time>2012-05-07T08:55:10Z</time>
      </trkpt>
      <trkpt lat="43.63686" lon="2.96591">
        <ele>852.34594726562</ele>
        <time>2012-05-07T08:55:11Z</time>
      </trkpt>
      <trkpt lat="43.63677" lon="2.96578">
        <ele>852.34594726562</ele>
        <time>2012-05-07T08:55:17Z</time>
      </trkpt>
      <trkpt lat="43.63671" lon="2.96572">
        <ele>849.94287109375</ele>
        <time>2012-05-07T08:55:21Z</time>
      </trkpt>
      <trkpt lat="43.63664" lon="2.96566">
        <ele>848.02026367188</ele>
        <time>2012-05-07T08:55:26Z</time>
      </trkpt>
      <trkpt lat="43.6365" lon="2.96567">
        <ele>844.17504882812</ele>
        <time>2012-05-07T08:55:33Z</time>
      </trkpt>
      <trkpt lat="43.63645" lon="2.96567">
        <ele>843.21337890625</ele>
        <time>2012-05-07T08:55:35Z</time>
      </trkpt>
      <trkpt lat="43.63641" lon="2.96556">
        <ele>841.29077148438</ele>
        <time>2012-05-07T08:55:39Z</time>
      </trkpt>
      <trkpt lat="43.63638" lon="2.96549">
        <ele>841.29077148438</ele>
        <time>2012-05-07T08:55:42Z</time>
      </trkpt>
      <trkpt lat="43.63629" lon="2.9654">
        <ele>841.771484375</ele>
        <time>2012-05-07T08:55:47Z</time>
      </trkpt>
      <trkpt lat="43.63624" lon="2.96536">
        <ele>843.69409179688</ele>
        <time>2012-05-07T08:55:51Z</time>
      </trkpt>
      <trkpt lat="43.6362" lon="2.96527">
        <ele>845.61694335938</ele>
        <time>2012-05-07T08:55:56Z</time>
      </trkpt>
      <trkpt lat="43.6362" lon="2.96525">
        <ele>846.09765625</ele>
        <time>2012-05-07T08:55:57Z</time>
      </trkpt>
      <trkpt lat="43.63617" lon="2.96517">
        <ele>848.02026367188</ele>
        <time>2012-05-07T08:56:02Z</time>
      </trkpt>
      <trkpt lat="43.63614" lon="2.96507">
        <ele>851.384765625</ele>
        <time>2012-05-07T08:56:06Z</time>
      </trkpt>
      <trkpt lat="43.63608" lon="2.96492">
        <ele>850.90405273438</ele>
        <time>2012-05-07T08:56:12Z</time>
      </trkpt>
      <trkpt lat="43.63604" lon="2.96488">
        <ele>850.90405273438</ele>
        <time>2012-05-07T08:56:14Z</time>
      </trkpt>
      <trkpt lat="43.63594" lon="2.96475">
        <ele>849.94287109375</ele>
        <time>2012-05-07T08:56:20Z</time>
      </trkpt>
      <trkpt lat="43.63588" lon="2.96472">
        <ele>849.94287109375</ele>
        <time>2012-05-07T08:56:23Z</time>
      </trkpt>
      <trkpt lat="43.63584" lon="2.9647">
        <ele>848.9814453125</ele>
        <time>2012-05-07T08:56:25Z</time>
      </trkpt>
      <trkpt lat="43.63575" lon="2.9646">
        <ele>846.57836914062</ele>
        <time>2012-05-07T08:56:30Z</time>
      </trkpt>
      <trkpt lat="43.63564" lon="2.96449">
        <ele>843.21337890625</ele>
        <time>2012-05-07T08:56:36Z</time>
      </trkpt>
      <trkpt lat="43.63561" lon="2.96448">
        <ele>842.73291015625</ele>
        <time>2012-05-07T08:56:37Z</time>
      </trkpt>
      <trkpt lat="43.63556" lon="2.96443">
        <ele>838.8876953125</ele>
        <time>2012-05-07T08:56:41Z</time>
      </trkpt>
      <trkpt lat="43.63554" lon="2.96442">
        <ele>838.40698242188</ele>
        <time>2012-05-07T08:56:42Z</time>
      </trkpt>
      <trkpt lat="43.63551" lon="2.96439">
        <ele>836.96484375</ele>
        <time>2012-05-07T08:56:44Z</time>
      </trkpt>
      <trkpt lat="43.63543" lon="2.96431">
        <ele>834.0810546875</ele>
        <time>2012-05-07T08:56:50Z</time>
      </trkpt>
      <trkpt lat="43.63536" lon="2.9643">
        <ele>832.15844726562</ele>
        <time>2012-05-07T08:56:53Z</time>
      </trkpt>
      <trkpt lat="43.63527" lon="2.9642">
        <ele>828.7939453125</ele>
        <time>2012-05-07T08:56:58Z</time>
      </trkpt>
      <trkpt lat="43.63524" lon="2.96418">
        <ele>828.31323242188</ele>
        <time>2012-05-07T08:57:00Z</time>
      </trkpt>
      <trkpt lat="43.63518" lon="2.96405">
        <ele>828.31323242188</ele>
        <time>2012-05-07T08:57:06Z</time>
      </trkpt>
      <trkpt lat="43.63506" lon="2.96388">
        <ele>830.71655273438</ele>
        <time>2012-05-07T08:57:12Z</time>
      </trkpt>
      <trkpt lat="43.63493" lon="2.96377">
        <ele>830.71655273438</ele>
        <time>2012-05-07T08:57:18Z</time>
      </trkpt>
      <trkpt lat="43.63488" lon="2.96374">
        <ele>826.39038085938</ele>
        <time>2012-05-07T08:57:21Z</time>
      </trkpt>
      <trkpt lat="43.6348" lon="2.96375">
        <ele>821.10327148438</ele>
        <time>2012-05-07T08:57:27Z</time>
      </trkpt>
      <trkpt lat="43.6348" lon="2.96375">
        <ele>820.62255859375</ele>
        <time>2012-05-07T08:57:28Z</time>
      </trkpt>
      <trkpt lat="43.63478" lon="2.96374">
        <ele>819.66137695312</ele>
        <time>2012-05-07T08:57:30Z</time>
      </trkpt>
      <trkpt lat="43.63479" lon="2.96373">
        <ele>822.54516601562</ele>
        <time>2012-05-07T08:57:37Z</time>
      </trkpt>
      <trkpt lat="43.6348" lon="2.9637">
        <ele>823.50659179688</ele>
        <time>2012-05-07T08:57:43Z</time>
      </trkpt>
      <trkpt lat="43.63483" lon="2.96366">
        <ele>825.42895507812</ele>
        <time>2012-05-07T08:57:49Z</time>
      </trkpt>
      <trkpt lat="43.63485" lon="2.96362">
        <ele>824.4677734375</ele>
        <time>2012-05-07T08:57:55Z</time>
      </trkpt>
      <trkpt lat="43.63486" lon="2.96356">
        <ele>823.98706054688</ele>
        <time>2012-05-07T08:58:00Z</time>
      </trkpt>
      <trkpt lat="43.63488" lon="2.96352">
        <ele>823.50659179688</ele>
        <time>2012-05-07T08:58:03Z</time>
      </trkpt>
      <trkpt lat="43.63492" lon="2.96344">
        <ele>819.1806640625</ele>
        <time>2012-05-07T08:58:09Z</time>
      </trkpt>
      <trkpt lat="43.63498" lon="2.96341">
        <ele>817.25805664062</ele>
        <time>2012-05-07T08:58:14Z</time>
      </trkpt>
      <trkpt lat="43.63504" lon="2.96342">
        <ele>814.3740234375</ele>
        <time>2012-05-07T08:58:21Z</time>
      </trkpt>
      <trkpt lat="43.63511" lon="2.96344">
        <ele>811.00927734375</ele>
        <time>2012-05-07T08:58:26Z</time>
      </trkpt>
      <trkpt lat="43.63512" lon="2.96344">
        <ele>810.0478515625</ele>
        <time>2012-05-07T08:58:27Z</time>
      </trkpt>
      <trkpt lat="43.6352" lon="2.96341">
        <ele>805.72216796875</ele>
        <time>2012-05-07T08:58:33Z</time>
      </trkpt>
      <trkpt lat="43.6352" lon="2.96341">
        <ele>805.24145507812</ele>
        <time>2012-05-07T08:58:34Z</time>
      </trkpt>
      <trkpt lat="43.63523" lon="2.96338">
        <ele>805.24145507812</ele>
        <time>2012-05-07T08:58:37Z</time>
      </trkpt>
      <trkpt lat="43.63525" lon="2.96335">
        <ele>810.0478515625</ele>
        <time>2012-05-07T08:58:46Z</time>
      </trkpt>
      <trkpt lat="43.63525" lon="2.96334">
        <ele>811.00927734375</ele>
        <time>2012-05-07T08:58:55Z</time>
      </trkpt>
      <trkpt lat="43.63522" lon="2.96332">
        <ele>811.48999023438</ele>
        <time>2012-05-07T08:59:03Z</time>
      </trkpt>
      <trkpt lat="43.63519" lon="2.96329">
        <ele>815.81616210938</ele>
        <time>2012-05-07T08:59:10Z</time>
      </trkpt>
      <trkpt lat="43.63513" lon="2.96328">
        <ele>819.1806640625</ele>
        <time>2012-05-07T08:59:15Z</time>
      </trkpt>
      <trkpt lat="43.6351" lon="2.96327">
        <ele>820.62255859375</ele>
        <time>2012-05-07T08:59:20Z</time>
      </trkpt>
      <trkpt lat="43.63508" lon="2.96322">
        <ele>822.064453125</ele>
        <time>2012-05-07T08:59:26Z</time>
      </trkpt>
      <trkpt lat="43.63509" lon="2.96317">
        <ele>825.42895507812</ele>
        <time>2012-05-07T08:59:38Z</time>
      </trkpt>
      <trkpt lat="43.63506" lon="2.96316">
        <ele>822.064453125</ele>
        <time>2012-05-07T08:59:43Z</time>
      </trkpt>
      <trkpt lat="43.63496" lon="2.96318">
        <ele>818.21923828125</ele>
        <time>2012-05-07T08:59:47Z</time>
      </trkpt>
      <trkpt lat="43.63488" lon="2.96317">
        <ele>814.3740234375</ele>
        <time>2012-05-07T08:59:51Z</time>
      </trkpt>
      <trkpt lat="43.6348" lon="2.96316">
        <ele>811.00927734375</ele>
        <time>2012-05-07T08:59:55Z</time>
      </trkpt>
      <trkpt lat="43.63475" lon="2.96316">
        <ele>809.08666992188</ele>
        <time>2012-05-07T08:59:58Z</time>
      </trkpt>
      <trkpt lat="43.63463" lon="2.96313">
        <ele>803.31884765625</ele>
        <time>2012-05-07T09:00:03Z</time>
      </trkpt>
      <trkpt lat="43.63461" lon="2.96311">
        <ele>803.79956054688</ele>
        <time>2012-05-07T09:00:04Z</time>
      </trkpt>
      <trkpt lat="43.63454" lon="2.96302">
        <ele>805.24145507812</ele>
        <time>2012-05-07T09:00:09Z</time>
      </trkpt>
      <trkpt lat="43.63441" lon="2.96297">
        <ele>801.876953125</ele>
        <time>2012-05-07T09:00:14Z</time>
      </trkpt>
      <trkpt lat="43.63429" lon="2.96288">
        <ele>798.03173828125</ele>
        <time>2012-05-07T09:00:19Z</time>
      </trkpt>
      <trkpt lat="43.63419" lon="2.96282">
        <ele>796.10913085938</ele>
        <time>2012-05-07T09:00:23Z</time>
      </trkpt>
      <trkpt lat="43.63412" lon="2.96279">
        <ele>796.10913085938</ele>
        <time>2012-05-07T09:00:26Z</time>
      </trkpt>
      <trkpt lat="43.63401" lon="2.96273">
        <ele>798.99291992188</ele>
        <time>2012-05-07T09:00:31Z</time>
      </trkpt>
      <trkpt lat="43.63395" lon="2.96265">
        <ele>798.51220703125</ele>
        <time>2012-05-07T09:00:34Z</time>
      </trkpt>
      <trkpt lat="43.63379" lon="2.96251">
        <ele>800.43505859375</ele>
        <time>2012-05-07T09:00:40Z</time>
      </trkpt>
      <trkpt lat="43.6337" lon="2.96241">
        <ele>798.99291992188</ele>
        <time>2012-05-07T09:00:44Z</time>
      </trkpt>
      <trkpt lat="43.63364" lon="2.96236">
        <ele>798.99291992188</ele>
        <time>2012-05-07T09:00:47Z</time>
      </trkpt>
      <trkpt lat="43.63351" lon="2.96223">
        <ele>798.51220703125</ele>
        <time>2012-05-07T09:00:53Z</time>
      </trkpt>
      <trkpt lat="43.63343" lon="2.96215">
        <ele>797.55102539062</ele>
        <time>2012-05-07T09:00:56Z</time>
      </trkpt>
      <trkpt lat="43.63331" lon="2.9621">
        <ele>796.10913085938</ele>
        <time>2012-05-07T09:01:01Z</time>
      </trkpt>
      <trkpt lat="43.63318" lon="2.96203">
        <ele>790.34106445312</ele>
        <time>2012-05-07T09:01:07Z</time>
      </trkpt>
      <trkpt lat="43.63314" lon="2.96202">
        <ele>789.8603515625</ele>
        <time>2012-05-07T09:01:09Z</time>
      </trkpt>
      <trkpt lat="43.63304" lon="2.962">
        <ele>787.45703125</ele>
        <time>2012-05-07T09:01:14Z</time>
      </trkpt>
      <trkpt lat="43.633" lon="2.96205">
        <ele>784.09252929688</ele>
        <time>2012-05-07T09:01:16Z</time>
      </trkpt>
      <trkpt lat="43.63293" lon="2.96215">
        <ele>782.65063476562</ele>
        <time>2012-05-07T09:01:20Z</time>
      </trkpt>
      <trkpt lat="43.63289" lon="2.96216">
        <ele>782.65063476562</ele>
        <time>2012-05-07T09:01:22Z</time>
      </trkpt>
      <trkpt lat="43.6328" lon="2.96206">
        <ele>779.28564453125</ele>
        <time>2012-05-07T09:01:28Z</time>
      </trkpt>
      <trkpt lat="43.63274" lon="2.96202">
        <ele>778.32446289062</ele>
        <time>2012-05-07T09:01:33Z</time>
      </trkpt>
      <trkpt lat="43.63273" lon="2.96202">
        <ele>778.80517578125</ele>
        <time>2012-05-07T09:01:34Z</time>
      </trkpt>
      <trkpt lat="43.63265" lon="2.96207">
        <ele>785.53442382812</ele>
        <time>2012-05-07T09:01:40Z</time>
      </trkpt>
      <trkpt lat="43.63258" lon="2.96211">
        <ele>790.82153320312</ele>
        <time>2012-05-07T09:01:45Z</time>
      </trkpt>
      <trkpt lat="43.63252" lon="2.96215">
        <ele>793.70556640625</ele>
        <time>2012-05-07T09:01:49Z</time>
      </trkpt>
      <trkpt lat="43.63244" lon="2.96221">
        <ele>798.99291992188</ele>
        <time>2012-05-07T09:01:53Z</time>
      </trkpt>
      <trkpt lat="43.63237" lon="2.96221">
        <ele>803.31884765625</ele>
        <time>2012-05-07T09:01:59Z</time>
      </trkpt>
      <trkpt lat="43.63229" lon="2.96225">
        <ele>806.20263671875</ele>
        <time>2012-05-07T09:02:06Z</time>
      </trkpt>
      <trkpt lat="43.63221" lon="2.96228">
        <ele>806.68334960938</ele>
        <time>2012-05-07T09:02:13Z</time>
      </trkpt>
      <trkpt lat="43.63219" lon="2.96229">
        <ele>806.68334960938</ele>
        <time>2012-05-07T09:02:14Z</time>
      </trkpt>
      <trkpt lat="43.63207" lon="2.96231">
        <ele>805.24145507812</ele>
        <time>2012-05-07T09:02:21Z</time>
      </trkpt>
      <trkpt lat="43.63202" lon="2.96228">
        <ele>804.2802734375</ele>
        <time>2012-05-07T09:02:24Z</time>
      </trkpt>
      <trkpt lat="43.63198" lon="2.96226">
        <ele>804.2802734375</ele>
        <time>2012-05-07T09:02:29Z</time>
      </trkpt>
      <trkpt lat="43.6319" lon="2.96221">
        <ele>805.24145507812</ele>
        <time>2012-05-07T09:02:32Z</time>
      </trkpt>
      <trkpt lat="43.63184" lon="2.96211">
        <ele>804.7607421875</ele>
        <time>2012-05-07T09:02:36Z</time>
      </trkpt>
      <trkpt lat="43.63179" lon="2.96202">
        <ele>802.83813476562</ele>
        <time>2012-05-07T09:02:41Z</time>
      </trkpt>
      <trkpt lat="43.63172" lon="2.96191">
        <ele>799.95434570312</ele>
        <time>2012-05-07T09:02:46Z</time>
      </trkpt>
      <trkpt lat="43.63162" lon="2.96184">
        <ele>797.0703125</ele>
        <time>2012-05-07T09:02:50Z</time>
      </trkpt>
      <trkpt lat="43.6315" lon="2.96184">
        <ele>792.74438476562</ele>
        <time>2012-05-07T09:02:54Z</time>
      </trkpt>
      <trkpt lat="43.63139" lon="2.96183">
        <ele>789.37963867188</ele>
        <time>2012-05-07T09:02:58Z</time>
      </trkpt>
      <trkpt lat="43.6313" lon="2.96177">
        <ele>786.01513671875</ele>
        <time>2012-05-07T09:03:02Z</time>
      </trkpt>
      <trkpt lat="43.63128" lon="2.96175">
        <ele>785.05395507812</ele>
        <time>2012-05-07T09:03:03Z</time>
      </trkpt>
      <trkpt lat="43.6312" lon="2.9617">
        <ele>783.61181640625</ele>
        <time>2012-05-07T09:03:07Z</time>
      </trkpt>
      <trkpt lat="43.63112" lon="2.96166">
        <ele>782.169921875</ele>
        <time>2012-05-07T09:03:10Z</time>
      </trkpt>
      <trkpt lat="43.63101" lon="2.96169">
        <ele>780.72802734375</ele>
        <time>2012-05-07T09:03:14Z</time>
      </trkpt>
      <trkpt lat="43.63087" lon="2.96167">
        <ele>780.24731445312</ele>
        <time>2012-05-07T09:03:19Z</time>
      </trkpt>
      <trkpt lat="43.63079" lon="2.96164">
        <ele>779.76635742188</ele>
        <time>2012-05-07T09:03:23Z</time>
      </trkpt>
      <trkpt lat="43.63078" lon="2.96164">
        <ele>780.24731445312</ele>
        <time>2012-05-07T09:03:24Z</time>
      </trkpt>
      <trkpt lat="43.63069" lon="2.96166">
        <ele>778.32446289062</ele>
        <time>2012-05-07T09:03:29Z</time>
      </trkpt>
      <trkpt lat="43.63059" lon="2.96165">
        <ele>777.36328125</ele>
        <time>2012-05-07T09:03:34Z</time>
      </trkpt>
      <trkpt lat="43.63046" lon="2.96157">
        <ele>774.47924804688</ele>
        <time>2012-05-07T09:03:40Z</time>
      </trkpt>
      <trkpt lat="43.63032" lon="2.96144">
        <ele>778.80517578125</ele>
        <time>2012-05-07T09:03:46Z</time>
      </trkpt>
      <trkpt lat="43.63018" lon="2.96125">
        <ele>784.5732421875</ele>
        <time>2012-05-07T09:03:52Z</time>
      </trkpt>
      <trkpt lat="43.63009" lon="2.96113">
        <ele>789.8603515625</ele>
        <time>2012-05-07T09:03:56Z</time>
      </trkpt>
      <trkpt lat="43.63004" lon="2.96099">
        <ele>792.74438476562</ele>
        <time>2012-05-07T09:04:01Z</time>
      </trkpt>
      <trkpt lat="43.63002" lon="2.96099">
        <ele>795.1474609375</ele>
        <time>2012-05-07T09:04:03Z</time>
      </trkpt>
      <trkpt lat="43.62992" lon="2.96102">
        <ele>798.03173828125</ele>
        <time>2012-05-07T09:04:07Z</time>
      </trkpt>
      <trkpt lat="43.62978" lon="2.96097">
        <ele>792.74438476562</ele>
        <time>2012-05-07T09:04:13Z</time>
      </trkpt>
      <trkpt lat="43.6297" lon="2.96096">
        <ele>786.97631835938</ele>
        <time>2012-05-07T09:04:18Z</time>
      </trkpt>
      <trkpt lat="43.62968" lon="2.96096">
        <ele>787.45703125</ele>
        <time>2012-05-07T09:04:19Z</time>
      </trkpt>
      <trkpt lat="43.62955" lon="2.96093">
        <ele>783.61181640625</ele>
        <time>2012-05-07T09:04:25Z</time>
      </trkpt>
      <trkpt lat="43.6294" lon="2.96084">
        <ele>779.28564453125</ele>
        <time>2012-05-07T09:04:31Z</time>
      </trkpt>
      <trkpt lat="43.62936" lon="2.96081">
        <ele>778.32446289062</ele>
        <time>2012-05-07T09:04:33Z</time>
      </trkpt>
      <trkpt lat="43.62928" lon="2.96073">
        <ele>777.36328125</ele>
        <time>2012-05-07T09:04:37Z</time>
      </trkpt>
      <trkpt lat="43.62919" lon="2.96067">
        <ele>776.88256835938</ele>
        <time>2012-05-07T09:04:42Z</time>
      </trkpt>
      <trkpt lat="43.62917" lon="2.96066">
        <ele>775.92114257812</ele>
        <time>2012-05-07T09:04:43Z</time>
      </trkpt>
      <trkpt lat="43.62905" lon="2.96052">
        <ele>777.84375</ele>
        <time>2012-05-07T09:04:49Z</time>
      </trkpt>
      <trkpt lat="43.62898" lon="2.9604">
        <ele>783.61181640625</ele>
        <time>2012-05-07T09:04:53Z</time>
      </trkpt>
      <trkpt lat="43.62883" lon="2.96027">
        <ele>786.97631835938</ele>
        <time>2012-05-07T09:05:00Z</time>
      </trkpt>
      <trkpt lat="43.62875" lon="2.96017">
        <ele>789.8603515625</ele>
        <time>2012-05-07T09:05:04Z</time>
      </trkpt>
      <trkpt lat="43.62873" lon="2.96015">
        <ele>791.30224609375</ele>
        <time>2012-05-07T09:05:05Z</time>
      </trkpt>
      <trkpt lat="43.62861" lon="2.96007">
        <ele>793.22485351562</ele>
        <time>2012-05-07T09:05:11Z</time>
      </trkpt>
      <trkpt lat="43.62856" lon="2.96005">
        <ele>792.263671875</ele>
        <time>2012-05-07T09:05:14Z</time>
      </trkpt>
      <trkpt lat="43.62845" lon="2.96005">
        <ele>790.82153320312</ele>
        <time>2012-05-07T09:05:19Z</time>
      </trkpt>
      <trkpt lat="43.62842" lon="2.96004">
        <ele>789.37963867188</ele>
        <time>2012-05-07T09:05:21Z</time>
      </trkpt>
      <trkpt lat="43.62833" lon="2.96006">
        <ele>785.05395507812</ele>
        <time>2012-05-07T09:05:27Z</time>
      </trkpt>
      <trkpt lat="43.62831" lon="2.96009">
        <ele>783.61181640625</ele>
        <time>2012-05-07T09:05:29Z</time>
      </trkpt>
      <trkpt lat="43.62816" lon="2.96007">
        <ele>781.68920898438</ele>
        <time>2012-05-07T09:05:35Z</time>
      </trkpt>
      <trkpt lat="43.62809" lon="2.96003">
        <ele>784.5732421875</ele>
        <time>2012-05-07T09:05:38Z</time>
      </trkpt>
      <trkpt lat="43.62798" lon="2.95997">
        <ele>785.53442382812</ele>
        <time>2012-05-07T09:05:43Z</time>
      </trkpt>
      <trkpt lat="43.6279" lon="2.95996">
        <ele>785.05395507812</ele>
        <time>2012-05-07T09:05:47Z</time>
      </trkpt>
      <trkpt lat="43.62779" lon="2.95991">
        <ele>782.169921875</ele>
        <time>2012-05-07T09:05:53Z</time>
      </trkpt>
      <trkpt lat="43.62771" lon="2.95996">
        <ele>781.68920898438</ele>
        <time>2012-05-07T09:05:57Z</time>
      </trkpt>
      <trkpt lat="43.62761" lon="2.95989">
        <ele>781.20874023438</ele>
        <time>2012-05-07T09:06:02Z</time>
      </trkpt>
      <trkpt lat="43.62757" lon="2.95988">
        <ele>780.24731445312</ele>
        <time>2012-05-07T09:06:04Z</time>
      </trkpt>
      <trkpt lat="43.62745" lon="2.95986">
        <ele>780.24731445312</ele>
        <time>2012-05-07T09:06:09Z</time>
      </trkpt>
      <trkpt lat="43.62735" lon="2.95984">
        <ele>779.28564453125</ele>
        <time>2012-05-07T09:06:13Z</time>
      </trkpt>
      <trkpt lat="43.62725" lon="2.95984">
        <ele>777.36328125</ele>
        <time>2012-05-07T09:06:18Z</time>
      </trkpt>
      <trkpt lat="43.62716" lon="2.95986">
        <ele>780.24731445312</ele>
        <time>2012-05-07T09:06:23Z</time>
      </trkpt>
      <trkpt lat="43.62708" lon="2.95981">
        <ele>782.65063476562</ele>
        <time>2012-05-07T09:06:27Z</time>
      </trkpt>
      <trkpt lat="43.62698" lon="2.95986">
        <ele>783.13110351562</ele>
        <time>2012-05-07T09:06:32Z</time>
      </trkpt>
      <trkpt lat="43.62686" lon="2.9599">
        <ele>786.49584960938</ele>
        <time>2012-05-07T09:06:37Z</time>
      </trkpt>
      <trkpt lat="43.6268" lon="2.95994">
        <ele>786.49584960938</ele>
        <time>2012-05-07T09:06:39Z</time>
      </trkpt>
      <trkpt lat="43.62664" lon="2.95999">
        <ele>786.01513671875</ele>
        <time>2012-05-07T09:06:45Z</time>
      </trkpt>
      <trkpt lat="43.62659" lon="2.95996">
        <ele>787.45703125</ele>
        <time>2012-05-07T09:06:49Z</time>
      </trkpt>
      <trkpt lat="43.62658" lon="2.95996">
        <ele>787.45703125</ele>
        <time>2012-05-07T09:06:50Z</time>
      </trkpt>
      <trkpt lat="43.62657" lon="2.95988">
        <ele>789.37963867188</ele>
        <time>2012-05-07T09:06:54Z</time>
      </trkpt>
      <trkpt lat="43.62656" lon="2.95985">
        <ele>790.82153320312</ele>
        <time>2012-05-07T09:06:56Z</time>
      </trkpt>
      <trkpt lat="43.62655" lon="2.95976">
        <ele>792.263671875</ele>
        <time>2012-05-07T09:07:02Z</time>
      </trkpt>
      <trkpt lat="43.62652" lon="2.95972">
        <ele>792.74438476562</ele>
        <time>2012-05-07T09:07:07Z</time>
      </trkpt>
      <trkpt lat="43.62649" lon="2.95967">
        <ele>792.74438476562</ele>
        <time>2012-05-07T09:07:11Z</time>
      </trkpt>
      <trkpt lat="43.62646" lon="2.95956">
        <ele>797.55102539062</ele>
        <time>2012-05-07T09:07:17Z</time>
      </trkpt>
      <trkpt lat="43.62645" lon="2.95954">
        <ele>798.03173828125</ele>
        <time>2012-05-07T09:07:19Z</time>
      </trkpt>
      <trkpt lat="43.6264" lon="2.95947">
        <ele>796.10913085938</ele>
        <time>2012-05-07T09:07:25Z</time>
      </trkpt>
      <trkpt lat="43.62635" lon="2.95942">
        <ele>797.55102539062</ele>
        <time>2012-05-07T09:07:29Z</time>
      </trkpt>
      <trkpt lat="43.62633" lon="2.95941">
        <ele>798.03173828125</ele>
        <time>2012-05-07T09:07:31Z</time>
      </trkpt>
      <trkpt lat="43.62629" lon="2.9593">
        <ele>802.83813476562</ele>
        <time>2012-05-07T09:07:37Z</time>
      </trkpt>
      <trkpt lat="43.62621" lon="2.95913">
        <ele>802.83813476562</ele>
        <time>2012-05-07T09:07:43Z</time>
      </trkpt>
      <trkpt lat="43.62614" lon="2.95897">
        <ele>801.39624023438</ele>
        <time>2012-05-07T09:07:49Z</time>
      </trkpt>
      <trkpt lat="43.62608" lon="2.95886">
        <ele>799.95434570312</ele>
        <time>2012-05-07T09:07:54Z</time>
      </trkpt>
      <trkpt lat="43.62602" lon="2.95875">
        <ele>800.43505859375</ele>
        <time>2012-05-07T09:07:58Z</time>
      </trkpt>
      <trkpt lat="43.62591" lon="2.95872">
        <ele>801.39624023438</ele>
        <time>2012-05-07T09:08:03Z</time>
      </trkpt>
      <trkpt lat="43.62586" lon="2.95872">
        <ele>799.95434570312</ele>
        <time>2012-05-07T09:08:05Z</time>
      </trkpt>
      <trkpt lat="43.6258" lon="2.95871">
        <ele>798.51220703125</ele>
        <time>2012-05-07T09:08:09Z</time>
      </trkpt>
      <trkpt lat="43.62578" lon="2.95869">
        <ele>798.99291992188</ele>
        <time>2012-05-07T09:08:11Z</time>
      </trkpt>
      <trkpt lat="43.6257" lon="2.95865">
        <ele>800.43505859375</ele>
        <time>2012-05-07T09:08:18Z</time>
      </trkpt>
      <trkpt lat="43.62569" lon="2.95865">
        <ele>800.43505859375</ele>
        <time>2012-05-07T09:08:19Z</time>
      </trkpt>
      <trkpt lat="43.62566" lon="2.95864">
        <ele>800.43505859375</ele>
        <time>2012-05-07T09:08:23Z</time>
      </trkpt>
      <trkpt lat="43.6256" lon="2.95865">
        <ele>799.95434570312</ele>
        <time>2012-05-07T09:08:27Z</time>
      </trkpt>
      <trkpt lat="43.62556" lon="2.95865">
        <ele>799.95434570312</ele>
        <time>2012-05-07T09:08:30Z</time>
      </trkpt>
      <trkpt lat="43.62547" lon="2.95864">
        <ele>800.43505859375</ele>
        <time>2012-05-07T09:08:38Z</time>
      </trkpt>
      <trkpt lat="43.62543" lon="2.95865">
        <ele>799.4736328125</ele>
        <time>2012-05-07T09:08:42Z</time>
      </trkpt>
      <trkpt lat="43.6253" lon="2.95858">
        <ele>799.4736328125</ele>
        <time>2012-05-07T09:08:48Z</time>
      </trkpt>
      <trkpt lat="43.62527" lon="2.95857">
        <ele>798.99291992188</ele>
        <time>2012-05-07T09:08:49Z</time>
      </trkpt>
      <trkpt lat="43.62512" lon="2.95859">
        <ele>798.03173828125</ele>
        <time>2012-05-07T09:08:54Z</time>
      </trkpt>
      <trkpt lat="43.62507" lon="2.95858">
        <ele>798.03173828125</ele>
        <time>2012-05-07T09:08:58Z</time>
      </trkpt>
      <trkpt lat="43.62507" lon="2.95853">
        <ele>799.95434570312</ele>
        <time>2012-05-07T09:09:03Z</time>
      </trkpt>
      <trkpt lat="43.62508" lon="2.95846">
        <ele>797.55102539062</ele>
        <time>2012-05-07T09:09:07Z</time>
      </trkpt>
      <trkpt lat="43.62503" lon="2.9584">
        <ele>802.83813476562</ele>
        <time>2012-05-07T09:09:13Z</time>
      </trkpt>
      <trkpt lat="43.62502" lon="2.95837">
        <ele>803.31884765625</ele>
        <time>2012-05-07T09:09:15Z</time>
      </trkpt>
      <trkpt lat="43.62494" lon="2.9583">
        <ele>806.68334960938</ele>
        <time>2012-05-07T09:09:22Z</time>
      </trkpt>
      <trkpt lat="43.62491" lon="2.95829">
        <ele>806.68334960938</ele>
        <time>2012-05-07T09:09:25Z</time>
      </trkpt>
      <trkpt lat="43.62488" lon="2.95822">
        <ele>809.08666992188</ele>
        <time>2012-05-07T09:09:30Z</time>
      </trkpt>
      <trkpt lat="43.62482" lon="2.95819">
        <ele>809.5673828125</ele>
        <time>2012-05-07T09:09:36Z</time>
      </trkpt>
      <trkpt lat="43.6248" lon="2.95819">
        <ele>809.08666992188</ele>
        <time>2012-05-07T09:09:38Z</time>
      </trkpt>
      <trkpt lat="43.62474" lon="2.95818">
        <ele>808.12548828125</ele>
        <time>2012-05-07T09:09:44Z</time>
      </trkpt>
      <trkpt lat="43.62467" lon="2.95818">
        <ele>809.5673828125</ele>
        <time>2012-05-07T09:09:48Z</time>
      </trkpt>
      <trkpt lat="43.62464" lon="2.95816">
        <ele>808.60595703125</ele>
        <time>2012-05-07T09:09:51Z</time>
      </trkpt>
      <trkpt lat="43.62457" lon="2.9581">
        <ele>808.12548828125</ele>
        <time>2012-05-07T09:09:58Z</time>
      </trkpt>
      <trkpt lat="43.62451" lon="2.95804">
        <ele>807.64477539062</ele>
        <time>2012-05-07T09:10:04Z</time>
      </trkpt>
      <trkpt lat="43.6245" lon="2.95803">
        <ele>807.1640625</ele>
        <time>2012-05-07T09:10:05Z</time>
      </trkpt>
      <trkpt lat="43.62448" lon="2.95799">
        <ele>807.64477539062</ele>
        <time>2012-05-07T09:10:08Z</time>
      </trkpt>
      <trkpt lat="43.62446" lon="2.9579">
        <ele>806.20263671875</ele>
        <time>2012-05-07T09:10:16Z</time>
      </trkpt>
      <trkpt lat="43.62443" lon="2.95783">
        <ele>807.64477539062</ele>
        <time>2012-05-07T09:10:22Z</time>
      </trkpt>
      <trkpt lat="43.62442" lon="2.9578">
        <ele>809.08666992188</ele>
        <time>2012-05-07T09:10:24Z</time>
      </trkpt>
      <trkpt lat="43.62438" lon="2.95769">
        <ele>814.85473632812</ele>
        <time>2012-05-07T09:10:31Z</time>
      </trkpt>
      <trkpt lat="43.62435" lon="2.95766">
        <ele>819.1806640625</ele>
        <time>2012-05-07T09:10:36Z</time>
      </trkpt>
      <trkpt lat="43.62432" lon="2.95762">
        <ele>820.62255859375</ele>
        <time>2012-05-07T09:10:41Z</time>
      </trkpt>
      <trkpt lat="43.62426" lon="2.95759">
        <ele>823.02587890625</ele>
        <time>2012-05-07T09:10:47Z</time>
      </trkpt>
      <trkpt lat="43.62422" lon="2.9576">
        <ele>824.4677734375</ele>
        <time>2012-05-07T09:10:51Z</time>
      </trkpt>
      <trkpt lat="43.62416" lon="2.95765">
        <ele>826.39038085938</ele>
        <time>2012-05-07T09:10:57Z</time>
      </trkpt>
      <trkpt lat="43.62407" lon="2.95768">
        <ele>829.2744140625</ele>
        <time>2012-05-07T09:11:06Z</time>
      </trkpt>
      <trkpt lat="43.62405" lon="2.95771">
        <ele>830.71655273438</ele>
        <time>2012-05-07T09:11:11Z</time>
      </trkpt>
      <trkpt lat="43.62402" lon="2.95771">
        <ele>831.197265625</ele>
        <time>2012-05-07T09:11:22Z</time>
      </trkpt>
      <trkpt lat="43.62396" lon="2.9577">
        <ele>831.197265625</ele>
        <time>2012-05-07T09:11:28Z</time>
      </trkpt>
      <trkpt lat="43.62392" lon="2.95771">
        <ele>831.677734375</ele>
        <time>2012-05-07T09:11:32Z</time>
      </trkpt>
      <trkpt lat="43.62387" lon="2.95772">
        <ele>831.677734375</ele>
        <time>2012-05-07T09:11:40Z</time>
      </trkpt>
      <trkpt lat="43.62386" lon="2.95771">
        <ele>832.15844726562</ele>
        <time>2012-05-07T09:11:48Z</time>
      </trkpt>
      <trkpt lat="43.62386" lon="2.95771">
        <ele>830.71655273438</ele>
        <time>2012-05-07T09:12:04Z</time>
      </trkpt>
      <trkpt lat="43.62386" lon="2.95771">
        <ele>829.75512695312</ele>
        <time>2012-05-07T09:12:13Z</time>
      </trkpt>
      <trkpt lat="43.62385" lon="2.95773">
        <ele>828.31323242188</ele>
        <time>2012-05-07T09:12:49Z</time>
      </trkpt>
      <trkpt lat="43.62386" lon="2.9577">
        <ele>827.35180664062</ele>
        <time>2012-05-07T09:13:56Z</time>
      </trkpt>
      <trkpt lat="43.62384" lon="2.9577">
        <ele>832.63916015625</ele>
        <time>2012-05-07T09:14:14Z</time>
      </trkpt>
      <trkpt lat="43.62384" lon="2.95772">
        <ele>831.677734375</ele>
        <time>2012-05-07T09:14:48Z</time>
      </trkpt>
      <trkpt lat="43.62381" lon="2.95771">
        <ele>831.677734375</ele>
        <time>2012-05-07T09:14:51Z</time>
      </trkpt>
      <trkpt lat="43.62369" lon="2.95767">
        <ele>829.75512695312</ele>
        <time>2012-05-07T09:14:57Z</time>
      </trkpt>
      <trkpt lat="43.62361" lon="2.95763">
        <ele>829.75512695312</ele>
        <time>2012-05-07T09:15:01Z</time>
      </trkpt>
      <trkpt lat="43.62352" lon="2.9576">
        <ele>827.35180664062</ele>
        <time>2012-05-07T09:15:05Z</time>
      </trkpt>
      <trkpt lat="43.62343" lon="2.95758">
        <ele>825.42895507812</ele>
        <time>2012-05-07T09:15:09Z</time>
      </trkpt>
      <trkpt lat="43.6234" lon="2.95759">
        <ele>824.94848632812</ele>
        <time>2012-05-07T09:15:10Z</time>
      </trkpt>
      <trkpt lat="43.62336" lon="2.9576">
        <ele>824.4677734375</ele>
        <time>2012-05-07T09:15:12Z</time>
      </trkpt>
      <trkpt lat="43.62326" lon="2.95761">
        <ele>823.02587890625</ele>
        <time>2012-05-07T09:15:17Z</time>
      </trkpt>
      <trkpt lat="43.62317" lon="2.95759">
        <ele>822.064453125</ele>
        <time>2012-05-07T09:15:21Z</time>
      </trkpt>
      <trkpt lat="43.62305" lon="2.95758">
        <ele>821.58374023438</ele>
        <time>2012-05-07T09:15:26Z</time>
      </trkpt>
      <trkpt lat="43.62304" lon="2.95758">
        <ele>822.064453125</ele>
        <time>2012-05-07T09:15:27Z</time>
      </trkpt>
      <trkpt lat="43.62294" lon="2.95754">
        <ele>823.02587890625</ele>
        <time>2012-05-07T09:15:32Z</time>
      </trkpt>
      <trkpt lat="43.62289" lon="2.95751">
        <ele>823.02587890625</ele>
        <time>2012-05-07T09:15:35Z</time>
      </trkpt>
      <trkpt lat="43.62279" lon="2.95745">
        <ele>823.50659179688</ele>
        <time>2012-05-07T09:15:40Z</time>
      </trkpt>
      <trkpt lat="43.62277" lon="2.95743">
        <ele>823.98706054688</ele>
        <time>2012-05-07T09:15:41Z</time>
      </trkpt>
      <trkpt lat="43.62266" lon="2.95729">
        <ele>824.4677734375</ele>
        <time>2012-05-07T09:15:47Z</time>
      </trkpt>
      <trkpt lat="43.62258" lon="2.95723">
        <ele>823.50659179688</ele>
        <time>2012-05-07T09:15:51Z</time>
      </trkpt>
      <trkpt lat="43.62252" lon="2.95722">
        <ele>821.58374023438</ele>
        <time>2012-05-07T09:15:54Z</time>
      </trkpt>
      <trkpt lat="43.62244" lon="2.95718">
        <ele>820.14184570312</ele>
        <time>2012-05-07T09:15:58Z</time>
      </trkpt>
      <trkpt lat="43.62236" lon="2.9571">
        <ele>818.69995117188</ele>
        <time>2012-05-07T09:16:02Z</time>
      </trkpt>
      <trkpt lat="43.62233" lon="2.95702">
        <ele>818.69995117188</ele>
        <time>2012-05-07T09:16:04Z</time>
      </trkpt>
      <trkpt lat="43.62223" lon="2.95692">
        <ele>816.77734375</ele>
        <time>2012-05-07T09:16:09Z</time>
      </trkpt>
      <trkpt lat="43.62214" lon="2.95689">
        <ele>815.81616210938</ele>
        <time>2012-05-07T09:16:13Z</time>
      </trkpt>
      <trkpt lat="43.62206" lon="2.95684">
        <ele>815.33544921875</ele>
        <time>2012-05-07T09:16:17Z</time>
      </trkpt>
      <trkpt lat="43.62199" lon="2.95681">
        <ele>815.81616210938</ele>
        <time>2012-05-07T09:16:20Z</time>
      </trkpt>
      <trkpt lat="43.62185" lon="2.95671">
        <ele>817.73852539062</ele>
        <time>2012-05-07T09:16:27Z</time>
      </trkpt>
      <trkpt lat="43.62178" lon="2.95665">
        <ele>818.21923828125</ele>
        <time>2012-05-07T09:16:31Z</time>
      </trkpt>
      <trkpt lat="43.62169" lon="2.95656">
        <ele>818.21923828125</ele>
        <time>2012-05-07T09:16:36Z</time>
      </trkpt>
      <trkpt lat="43.62167" lon="2.95654">
        <ele>818.69995117188</ele>
        <time>2012-05-07T09:16:37Z</time>
      </trkpt>
      <trkpt lat="43.62154" lon="2.95641">
        <ele>819.66137695312</ele>
        <time>2012-05-07T09:16:45Z</time>
      </trkpt>
      <trkpt lat="43.62148" lon="2.95633">
        <ele>820.62255859375</ele>
        <time>2012-05-07T09:16:49Z</time>
      </trkpt>
      <trkpt lat="43.62143" lon="2.95624">
        <ele>821.10327148438</ele>
        <time>2012-05-07T09:16:53Z</time>
      </trkpt>
      <trkpt lat="43.6214" lon="2.95617">
        <ele>821.58374023438</ele>
        <time>2012-05-07T09:16:56Z</time>
      </trkpt>
      <trkpt lat="43.62131" lon="2.95603">
        <ele>822.54516601562</ele>
        <time>2012-05-07T09:17:03Z</time>
      </trkpt>
      <trkpt lat="43.62123" lon="2.95595">
        <ele>823.50659179688</ele>
        <time>2012-05-07T09:17:10Z</time>
      </trkpt>
      <trkpt lat="43.62118" lon="2.95593">
        <ele>823.98706054688</ele>
        <time>2012-05-07T09:17:14Z</time>
      </trkpt>
      <trkpt lat="43.62114" lon="2.95593">
        <ele>825.42895507812</ele>
        <time>2012-05-07T09:17:17Z</time>
      </trkpt>
      <trkpt lat="43.62112" lon="2.95592">
        <ele>824.94848632812</ele>
        <time>2012-05-07T09:17:19Z</time>
      </trkpt>
      <trkpt lat="43.62106" lon="2.95592">
        <ele>826.39038085938</ele>
        <time>2012-05-07T09:17:25Z</time>
      </trkpt>
      <trkpt lat="43.62104" lon="2.95592">
        <ele>826.87109375</ele>
        <time>2012-05-07T09:17:26Z</time>
      </trkpt>
      <trkpt lat="43.62098" lon="2.95592">
        <ele>828.31323242188</ele>
        <time>2012-05-07T09:17:32Z</time>
      </trkpt>
      <trkpt lat="43.62096" lon="2.95591">
        <ele>828.31323242188</ele>
        <time>2012-05-07T09:17:34Z</time>
      </trkpt>
      <trkpt lat="43.62086" lon="2.95585">
        <ele>825.90966796875</ele>
        <time>2012-05-07T09:17:39Z</time>
      </trkpt>
      <trkpt lat="43.62083" lon="2.95584">
        <ele>825.42895507812</ele>
        <time>2012-05-07T09:17:42Z</time>
      </trkpt>
      <trkpt lat="43.62075" lon="2.95582">
        <ele>822.54516601562</ele>
        <time>2012-05-07T09:17:47Z</time>
      </trkpt>
      <trkpt lat="43.62069" lon="2.9558">
        <ele>819.1806640625</ele>
        <time>2012-05-07T09:17:50Z</time>
      </trkpt>
      <trkpt lat="43.62061" lon="2.95579">
        <ele>815.81616210938</ele>
        <time>2012-05-07T09:17:54Z</time>
      </trkpt>
      <trkpt lat="43.62057" lon="2.95579">
        <ele>813.89331054688</ele>
        <time>2012-05-07T09:17:56Z</time>
      </trkpt>
      <trkpt lat="43.62051" lon="2.95582">
        <ele>813.41284179688</ele>
        <time>2012-05-07T09:17:59Z</time>
      </trkpt>
      <trkpt lat="43.62047" lon="2.95582">
        <ele>811.48999023438</ele>
        <time>2012-05-07T09:18:03Z</time>
      </trkpt>
      <trkpt lat="43.6204" lon="2.95587">
        <ele>808.12548828125</ele>
        <time>2012-05-07T09:18:08Z</time>
      </trkpt>
      <trkpt lat="43.62033" lon="2.95591">
        <ele>804.7607421875</ele>
        <time>2012-05-07T09:18:13Z</time>
      </trkpt>
      <trkpt lat="43.62028" lon="2.95597">
        <ele>804.7607421875</ele>
        <time>2012-05-07T09:18:16Z</time>
      </trkpt>
      <trkpt lat="43.62022" lon="2.956">
        <ele>804.2802734375</ele>
        <time>2012-05-07T09:18:20Z</time>
      </trkpt>
      <trkpt lat="43.62019" lon="2.95603">
        <ele>804.7607421875</ele>
        <time>2012-05-07T09:18:23Z</time>
      </trkpt>
      <trkpt lat="43.62012" lon="2.95606">
        <ele>804.7607421875</ele>
        <time>2012-05-07T09:18:28Z</time>
      </trkpt>
      <trkpt lat="43.62005" lon="2.95611">
        <ele>802.83813476562</ele>
        <time>2012-05-07T09:18:33Z</time>
      </trkpt>
      <trkpt lat="43.62001" lon="2.95612">
        <ele>800.91552734375</ele>
        <time>2012-05-07T09:18:36Z</time>
      </trkpt>
      <trkpt lat="43.61992" lon="2.9561">
        <ele>798.03173828125</ele>
        <time>2012-05-07T09:18:42Z</time>
      </trkpt>
      <trkpt lat="43.61988" lon="2.9561">
        <ele>797.0703125</ele>
        <time>2012-05-07T09:18:44Z</time>
      </trkpt>
      <trkpt lat="43.61982" lon="2.95611">
        <ele>797.0703125</ele>
        <time>2012-05-07T09:18:47Z</time>
      </trkpt>
      <trkpt lat="43.61976" lon="2.95605">
        <ele>796.10913085938</ele>
        <time>2012-05-07T09:18:52Z</time>
      </trkpt>
      <trkpt lat="43.6197" lon="2.95603">
        <ele>795.62817382812</ele>
        <time>2012-05-07T09:18:55Z</time>
      </trkpt>
      <trkpt lat="43.61965" lon="2.95599">
        <ele>794.66674804688</ele>
        <time>2012-05-07T09:18:58Z</time>
      </trkpt>
      <trkpt lat="43.61954" lon="2.95597">
        <ele>792.263671875</ele>
        <time>2012-05-07T09:19:04Z</time>
      </trkpt>
      <trkpt lat="43.61953" lon="2.95596">
        <ele>791.30224609375</ele>
        <time>2012-05-07T09:19:05Z</time>
      </trkpt>
      <trkpt lat="43.61944" lon="2.95596">
        <ele>789.37963867188</ele>
        <time>2012-05-07T09:19:10Z</time>
      </trkpt>
      <trkpt lat="43.61941" lon="2.95597">
        <ele>789.37963867188</ele>
        <time>2012-05-07T09:19:12Z</time>
      </trkpt>
      <trkpt lat="43.61933" lon="2.95597">
        <ele>788.41845703125</ele>
        <time>2012-05-07T09:19:17Z</time>
      </trkpt>
      <trkpt lat="43.6193" lon="2.95596">
        <ele>786.97631835938</ele>
        <time>2012-05-07T09:19:19Z</time>
      </trkpt>
      <trkpt lat="43.61928" lon="2.95598">
        <ele>786.01513671875</ele>
        <time>2012-05-07T09:19:21Z</time>
      </trkpt>
      <trkpt lat="43.61922" lon="2.95601">
        <ele>784.5732421875</ele>
        <time>2012-05-07T09:19:25Z</time>
      </trkpt>
      <trkpt lat="43.61919" lon="2.95604">
        <ele>781.20874023438</ele>
        <time>2012-05-07T09:19:30Z</time>
      </trkpt>
      <trkpt lat="43.61917" lon="2.95604">
        <ele>778.80517578125</ele>
        <time>2012-05-07T09:19:32Z</time>
      </trkpt>
      <trkpt lat="43.6191" lon="2.95608">
        <ele>775.92114257812</ele>
        <time>2012-05-07T09:19:36Z</time>
      </trkpt>
      <trkpt lat="43.61908" lon="2.95609">
        <ele>774.9599609375</ele>
        <time>2012-05-07T09:19:38Z</time>
      </trkpt>
      <trkpt lat="43.61906" lon="2.95608">
        <ele>774.47924804688</ele>
        <time>2012-05-07T09:19:40Z</time>
      </trkpt>
      <trkpt lat="43.619" lon="2.95604">
        <ele>776.40185546875</ele>
        <time>2012-05-07T09:19:46Z</time>
      </trkpt>
      <trkpt lat="43.61896" lon="2.956">
        <ele>776.88256835938</ele>
        <time>2012-05-07T09:19:50Z</time>
      </trkpt>
      <trkpt lat="43.61893" lon="2.95595">
        <ele>777.84375</ele>
        <time>2012-05-07T09:19:54Z</time>
      </trkpt>
      <trkpt lat="43.61887" lon="2.95582">
        <ele>780.72802734375</ele>
        <time>2012-05-07T09:19:59Z</time>
      </trkpt>
      <trkpt lat="43.61882" lon="2.95569">
        <ele>780.72802734375</ele>
        <time>2012-05-07T09:20:04Z</time>
      </trkpt>
      <trkpt lat="43.61872" lon="2.95561">
        <ele>779.28564453125</ele>
        <time>2012-05-07T09:20:10Z</time>
      </trkpt>
      <trkpt lat="43.61866" lon="2.95554">
        <ele>782.65063476562</ele>
        <time>2012-05-07T09:20:14Z</time>
      </trkpt>
      <trkpt lat="43.61858" lon="2.95542">
        <ele>783.61181640625</ele>
        <time>2012-05-07T09:20:19Z</time>
      </trkpt>
      <trkpt lat="43.61852" lon="2.95531">
        <ele>783.13110351562</ele>
        <time>2012-05-07T09:20:23Z</time>
      </trkpt>
      <trkpt lat="43.61836" lon="2.9552">
        <ele>780.72802734375</ele>
        <time>2012-05-07T09:20:29Z</time>
      </trkpt>
      <trkpt lat="43.61834" lon="2.95518">
        <ele>779.76635742188</ele>
        <time>2012-05-07T09:20:30Z</time>
      </trkpt>
      <trkpt lat="43.61821" lon="2.95508">
        <ele>776.88256835938</ele>
        <time>2012-05-07T09:20:35Z</time>
      </trkpt>
      <trkpt lat="43.61817" lon="2.95503">
        <ele>775.4404296875</ele>
        <time>2012-05-07T09:20:37Z</time>
      </trkpt>
      <trkpt lat="43.61806" lon="2.95495">
        <ele>771.11474609375</ele>
        <time>2012-05-07T09:20:42Z</time>
      </trkpt>
      <trkpt lat="43.61798" lon="2.95484">
        <ele>766.30810546875</ele>
        <time>2012-05-07T09:20:47Z</time>
      </trkpt>
      <trkpt lat="43.61796" lon="2.95481">
        <ele>765.82763671875</ele>
        <time>2012-05-07T09:20:48Z</time>
      </trkpt>
      <trkpt lat="43.61782" lon="2.95471">
        <ele>763.42407226562</ele>
        <time>2012-05-07T09:20:54Z</time>
      </trkpt>
      <trkpt lat="43.61776" lon="2.9547">
        <ele>762.46264648438</ele>
        <time>2012-05-07T09:20:56Z</time>
      </trkpt>
      <trkpt lat="43.61768" lon="2.9546">
        <ele>761.02075195312</ele>
        <time>2012-05-07T09:21:01Z</time>
      </trkpt>
      <trkpt lat="43.61763" lon="2.95454">
        <ele>760.05932617188</ele>
        <time>2012-05-07T09:21:03Z</time>
      </trkpt>
      <trkpt lat="43.6175" lon="2.95445">
        <ele>759.09814453125</ele>
        <time>2012-05-07T09:21:08Z</time>
      </trkpt>
      <trkpt lat="43.61737" lon="2.95435">
        <ele>758.13696289062</ele>
        <time>2012-05-07T09:21:13Z</time>
      </trkpt>
      <trkpt lat="43.61726" lon="2.95425">
        <ele>757.17553710938</ele>
        <time>2012-05-07T09:21:18Z</time>
      </trkpt>
      <trkpt lat="43.61716" lon="2.95419">
        <ele>756.69482421875</ele>
        <time>2012-05-07T09:21:22Z</time>
      </trkpt>
      <trkpt lat="43.61707" lon="2.9541">
        <ele>755.2529296875</ele>
        <time>2012-05-07T09:21:27Z</time>
      </trkpt>
      <trkpt lat="43.61701" lon="2.95406">
        <ele>754.29174804688</ele>
        <time>2012-05-07T09:21:32Z</time>
      </trkpt>
      <trkpt lat="43.617" lon="2.95405">
        <ele>754.29174804688</ele>
        <time>2012-05-07T09:21:33Z</time>
      </trkpt>
      <trkpt lat="43.61698" lon="2.95404">
        <ele>754.29174804688</ele>
        <time>2012-05-07T09:21:40Z</time>
      </trkpt>
      <trkpt lat="43.61696" lon="2.95403">
        <ele>753.81103515625</ele>
        <time>2012-05-07T09:21:46Z</time>
      </trkpt>
      <trkpt lat="43.61694" lon="2.95401">
        <ele>754.77221679688</ele>
        <time>2012-05-07T09:21:53Z</time>
      </trkpt>
      <trkpt lat="43.61695" lon="2.95404">
        <ele>752.36889648438</ele>
        <time>2012-05-07T09:22:11Z</time>
      </trkpt>
      <trkpt lat="43.61695" lon="2.95404">
        <ele>755.73364257812</ele>
        <time>2012-05-07T09:23:16Z</time>
      </trkpt>
      <trkpt lat="43.61694" lon="2.95402">
        <ele>756.69482421875</ele>
        <time>2012-05-07T09:23:37Z</time>
      </trkpt>
      <trkpt lat="43.61692" lon="2.95401">
        <ele>757.65625</ele>
        <time>2012-05-07T09:23:58Z</time>
      </trkpt>
      <trkpt lat="43.61691" lon="2.954">
        <ele>757.17553710938</ele>
        <time>2012-05-07T09:24:00Z</time>
      </trkpt>
      <trkpt lat="43.61684" lon="2.95394">
        <ele>757.17553710938</ele>
        <time>2012-05-07T09:24:05Z</time>
      </trkpt>
      <trkpt lat="43.61679" lon="2.9539">
        <ele>756.21411132812</ele>
        <time>2012-05-07T09:24:08Z</time>
      </trkpt>
      <trkpt lat="43.61673" lon="2.95385">
        <ele>754.29174804688</ele>
        <time>2012-05-07T09:24:12Z</time>
      </trkpt>
      <trkpt lat="43.61666" lon="2.95384">
        <ele>751.88842773438</ele>
        <time>2012-05-07T09:24:18Z</time>
      </trkpt>
      <trkpt lat="43.61663" lon="2.95385">
        <ele>749.9658203125</ele>
        <time>2012-05-07T09:24:20Z</time>
      </trkpt>
      <trkpt lat="43.61655" lon="2.95389">
        <ele>744.67822265625</ele>
        <time>2012-05-07T09:24:25Z</time>
      </trkpt>
      <trkpt lat="43.61644" lon="2.95401">
        <ele>739.87182617188</ele>
        <time>2012-05-07T09:24:30Z</time>
      </trkpt>
      <trkpt lat="43.61634" lon="2.95411">
        <ele>736.50732421875</ele>
        <time>2012-05-07T09:24:35Z</time>
      </trkpt>
      <trkpt lat="43.61621" lon="2.95419">
        <ele>734.10400390625</ele>
        <time>2012-05-07T09:24:41Z</time>
      </trkpt>
      <trkpt lat="43.61607" lon="2.95425">
        <ele>733.62329101562</ele>
        <time>2012-05-07T09:24:46Z</time>
      </trkpt>
      <trkpt lat="43.61595" lon="2.95432">
        <ele>732.662109375</ele>
        <time>2012-05-07T09:24:50Z</time>
      </trkpt>
      <trkpt lat="43.6159" lon="2.95435">
        <ele>731.70043945312</ele>
        <time>2012-05-07T09:24:52Z</time>
      </trkpt>
      <trkpt lat="43.61581" lon="2.95435">
        <ele>730.7392578125</ele>
        <time>2012-05-07T09:24:57Z</time>
      </trkpt>
      <trkpt lat="43.61572" lon="2.95436">
        <ele>729.77783203125</ele>
        <time>2012-05-07T09:25:01Z</time>
      </trkpt>
      <trkpt lat="43.61568" lon="2.95427">
        <ele>727.85522460938</ele>
        <time>2012-05-07T09:25:05Z</time>
      </trkpt>
      <trkpt lat="43.61566" lon="2.95427">
        <ele>726.89404296875</ele>
        <time>2012-05-07T09:25:06Z</time>
      </trkpt>
      <trkpt lat="43.61559" lon="2.95435">
        <ele>726.89404296875</ele>
        <time>2012-05-07T09:25:12Z</time>
      </trkpt>
      <trkpt lat="43.61551" lon="2.95443">
        <ele>717.28100585938</ele>
        <time>2012-05-07T09:25:20Z</time>
      </trkpt>
      <trkpt lat="43.61544" lon="2.95443">
        <ele>716.31958007812</ele>
        <time>2012-05-07T09:25:25Z</time>
      </trkpt>
      <trkpt lat="43.61544" lon="2.95441">
        <ele>715.35815429688</ele>
        <time>2012-05-07T09:25:29Z</time>
      </trkpt>
      <trkpt lat="43.61541" lon="2.95441">
        <ele>716.31958007812</ele>
        <time>2012-05-07T09:25:34Z</time>
      </trkpt>
      <trkpt lat="43.61541" lon="2.95439">
        <ele>715.35815429688</ele>
        <time>2012-05-07T09:25:35Z</time>
      </trkpt>
      <trkpt lat="43.61536" lon="2.95432">
        <ele>711.0322265625</ele>
        <time>2012-05-07T09:25:40Z</time>
      </trkpt>
      <trkpt lat="43.61531" lon="2.9542">
        <ele>706.2255859375</ele>
        <time>2012-05-07T09:25:45Z</time>
      </trkpt>
      <trkpt lat="43.6153" lon="2.95409">
        <ele>705.26440429688</ele>
        <time>2012-05-07T09:25:49Z</time>
      </trkpt>
      <trkpt lat="43.61525" lon="2.95398">
        <ele>704.30322265625</ele>
        <time>2012-05-07T09:25:53Z</time>
      </trkpt>
      <trkpt lat="43.61516" lon="2.95388">
        <ele>708.1484375</ele>
        <time>2012-05-07T09:25:57Z</time>
      </trkpt>
      <trkpt lat="43.61512" lon="2.9538">
        <ele>709.59033203125</ele>
        <time>2012-05-07T09:26:00Z</time>
      </trkpt>
      <trkpt lat="43.61507" lon="2.95365">
        <ele>714.87744140625</ele>
        <time>2012-05-07T09:26:06Z</time>
      </trkpt>
      <trkpt lat="43.61504" lon="2.95358">
        <ele>716.31958007812</ele>
        <time>2012-05-07T09:26:09Z</time>
      </trkpt>
      <trkpt lat="43.61494" lon="2.95348">
        <ele>717.28100585938</ele>
        <time>2012-05-07T09:26:15Z</time>
      </trkpt>
      <trkpt lat="43.61484" lon="2.95338">
        <ele>717.28100585938</ele>
        <time>2012-05-07T09:26:20Z</time>
      </trkpt>
      <trkpt lat="43.61471" lon="2.95328">
        <ele>717.28100585938</ele>
        <time>2012-05-07T09:26:25Z</time>
      </trkpt>
      <trkpt lat="43.61457" lon="2.95317">
        <ele>716.80029296875</ele>
        <time>2012-05-07T09:26:31Z</time>
      </trkpt>
      <trkpt lat="43.61448" lon="2.95313">
        <ele>717.28100585938</ele>
        <time>2012-05-07T09:26:35Z</time>
      </trkpt>
      <trkpt lat="43.61434" lon="2.95302">
        <ele>714.87744140625</ele>
        <time>2012-05-07T09:26:42Z</time>
      </trkpt>
      <trkpt lat="43.61424" lon="2.95296">
        <ele>715.8388671875</ele>
        <time>2012-05-07T09:26:47Z</time>
      </trkpt>
      <trkpt lat="43.61411" lon="2.95291">
        <ele>716.80029296875</ele>
        <time>2012-05-07T09:26:51Z</time>
      </trkpt>
      <trkpt lat="43.61404" lon="2.95286">
        <ele>716.31958007812</ele>
        <time>2012-05-07T09:26:54Z</time>
      </trkpt>
      <trkpt lat="43.61396" lon="2.95283">
        <ele>715.8388671875</ele>
        <time>2012-05-07T09:26:58Z</time>
      </trkpt>
      <trkpt lat="43.61385" lon="2.95284">
        <ele>713.916015625</ele>
        <time>2012-05-07T09:27:03Z</time>
      </trkpt>
      <trkpt lat="43.61375" lon="2.95276">
        <ele>715.35815429688</ele>
        <time>2012-05-07T09:27:08Z</time>
      </trkpt>
      <trkpt lat="43.61364" lon="2.9527">
        <ele>714.39672851562</ele>
        <time>2012-05-07T09:27:13Z</time>
      </trkpt>
      <trkpt lat="43.61362" lon="2.9527">
        <ele>713.916015625</ele>
        <time>2012-05-07T09:27:14Z</time>
      </trkpt>
      <trkpt lat="43.6135" lon="2.95265">
        <ele>712.95483398438</ele>
        <time>2012-05-07T09:27:19Z</time>
      </trkpt>
      <trkpt lat="43.61348" lon="2.95265">
        <ele>711.99365234375</ele>
        <time>2012-05-07T09:27:20Z</time>
      </trkpt>
      <trkpt lat="43.61331" lon="2.95263">
        <ele>709.10961914062</ele>
        <time>2012-05-07T09:27:27Z</time>
      </trkpt>
      <trkpt lat="43.61323" lon="2.95261">
        <ele>708.1484375</ele>
        <time>2012-05-07T09:27:30Z</time>
      </trkpt>
      <trkpt lat="43.61317" lon="2.95253">
        <ele>709.10961914062</ele>
        <time>2012-05-07T09:27:34Z</time>
      </trkpt>
      <trkpt lat="43.61313" lon="2.9524">
        <ele>706.70629882812</ele>
        <time>2012-05-07T09:27:40Z</time>
      </trkpt>
      <trkpt lat="43.61312" lon="2.95238">
        <ele>705.7451171875</ele>
        <time>2012-05-07T09:27:42Z</time>
      </trkpt>
      <trkpt lat="43.61309" lon="2.95234">
        <ele>706.70629882812</ele>
        <time>2012-05-07T09:27:44Z</time>
      </trkpt>
      <trkpt lat="43.61296" lon="2.9522">
        <ele>708.62890625</ele>
        <time>2012-05-07T09:27:50Z</time>
      </trkpt>
      <trkpt lat="43.61291" lon="2.95213">
        <ele>709.10961914062</ele>
        <time>2012-05-07T09:27:53Z</time>
      </trkpt>
      <trkpt lat="43.61282" lon="2.95208">
        <ele>708.62890625</ele>
        <time>2012-05-07T09:27:57Z</time>
      </trkpt>
      <trkpt lat="43.61277" lon="2.95206">
        <ele>708.62890625</ele>
        <time>2012-05-07T09:27:59Z</time>
      </trkpt>
      <trkpt lat="43.61269" lon="2.95198">
        <ele>708.62890625</ele>
        <time>2012-05-07T09:28:04Z</time>
      </trkpt>
      <trkpt lat="43.61266" lon="2.95197">
        <ele>708.62890625</ele>
        <time>2012-05-07T09:28:05Z</time>
      </trkpt>
      <trkpt lat="43.61257" lon="2.95201">
        <ele>706.70629882812</ele>
        <time>2012-05-07T09:28:10Z</time>
      </trkpt>
      <trkpt lat="43.61251" lon="2.95204">
        <ele>704.78369140625</ele>
        <time>2012-05-07T09:28:15Z</time>
      </trkpt>
      <trkpt lat="43.61249" lon="2.95205">
        <ele>704.30322265625</ele>
        <time>2012-05-07T09:28:16Z</time>
      </trkpt>
      <trkpt lat="43.61242" lon="2.95209">
        <ele>702.38037109375</ele>
        <time>2012-05-07T09:28:21Z</time>
      </trkpt>
      <trkpt lat="43.6124" lon="2.9521">
        <ele>702.38037109375</ele>
        <time>2012-05-07T09:28:22Z</time>
      </trkpt>
      <trkpt lat="43.61232" lon="2.95212">
        <ele>702.86108398438</ele>
        <time>2012-05-07T09:28:26Z</time>
      </trkpt>
      <trkpt lat="43.61224" lon="2.95212">
        <ele>701.41918945312</ele>
        <time>2012-05-07T09:28:30Z</time>
      </trkpt>
      <trkpt lat="43.61214" lon="2.95218">
        <ele>700.4580078125</ele>
        <time>2012-05-07T09:28:35Z</time>
      </trkpt>
      <trkpt lat="43.61205" lon="2.95219">
        <ele>700.9384765625</ele>
        <time>2012-05-07T09:28:40Z</time>
      </trkpt>
      <trkpt lat="43.61193" lon="2.95224">
        <ele>700.9384765625</ele>
        <time>2012-05-07T09:28:45Z</time>
      </trkpt>
      <trkpt lat="43.61187" lon="2.95224">
        <ele>699.015625</ele>
        <time>2012-05-07T09:28:49Z</time>
      </trkpt>
      <trkpt lat="43.61181" lon="2.95227">
        <ele>699.97705078125</ele>
        <time>2012-05-07T09:28:53Z</time>
      </trkpt>
      <trkpt lat="43.61176" lon="2.95229">
        <ele>702.38037109375</ele>
        <time>2012-05-07T09:28:58Z</time>
      </trkpt>
      <trkpt lat="43.61172" lon="2.95233">
        <ele>702.86108398438</ele>
        <time>2012-05-07T09:29:02Z</time>
      </trkpt>
      <trkpt lat="43.61169" lon="2.95236">
        <ele>701.89990234375</ele>
        <time>2012-05-07T09:29:05Z</time>
      </trkpt>
      <trkpt lat="43.61164" lon="2.95239">
        <ele>700.4580078125</ele>
        <time>2012-05-07T09:29:07Z</time>
      </trkpt>
      <trkpt lat="43.61158" lon="2.95242">
        <ele>697.09301757812</ele>
        <time>2012-05-07T09:29:11Z</time>
      </trkpt>
      <trkpt lat="43.61156" lon="2.95246">
        <ele>697.57373046875</ele>
        <time>2012-05-07T09:29:14Z</time>
      </trkpt>
      <trkpt lat="43.61156" lon="2.95251">
        <ele>698.05444335938</ele>
        <time>2012-05-07T09:29:17Z</time>
      </trkpt>
      <trkpt lat="43.61148" lon="2.95259">
        <ele>696.1318359375</ele>
        <time>2012-05-07T09:29:22Z</time>
      </trkpt>
      <trkpt lat="43.61145" lon="2.95262">
        <ele>694.68969726562</ele>
        <time>2012-05-07T09:29:24Z</time>
      </trkpt>
      <trkpt lat="43.61143" lon="2.95262">
        <ele>693.728515625</ele>
        <time>2012-05-07T09:29:26Z</time>
      </trkpt>
      <trkpt lat="43.61139" lon="2.95265">
        <ele>688.92211914062</ele>
        <time>2012-05-07T09:29:31Z</time>
      </trkpt>
      <trkpt lat="43.61135" lon="2.9527">
        <ele>685.07690429688</ele>
        <time>2012-05-07T09:29:35Z</time>
      </trkpt>
      <trkpt lat="43.61129" lon="2.9527">
        <ele>681.2314453125</ele>
        <time>2012-05-07T09:29:40Z</time>
      </trkpt>
      <trkpt lat="43.61123" lon="2.95275">
        <ele>678.828125</ele>
        <time>2012-05-07T09:29:45Z</time>
      </trkpt>
      <trkpt lat="43.61118" lon="2.95278">
        <ele>675.94409179688</ele>
        <time>2012-05-07T09:29:48Z</time>
      </trkpt>
      <trkpt lat="43.61109" lon="2.95282">
        <ele>672.09887695312</ele>
        <time>2012-05-07T09:29:53Z</time>
      </trkpt>
      <trkpt lat="43.61104" lon="2.95284">
        <ele>671.6181640625</ele>
        <time>2012-05-07T09:29:56Z</time>
      </trkpt>
      <trkpt lat="43.61103" lon="2.95284">
        <ele>670.65698242188</ele>
        <time>2012-05-07T09:29:57Z</time>
      </trkpt>
      <trkpt lat="43.61099" lon="2.95285">
        <ele>668.25366210938</ele>
        <time>2012-05-07T09:30:01Z</time>
      </trkpt>
      <trkpt lat="43.61092" lon="2.95285">
        <ele>666.33081054688</ele>
        <time>2012-05-07T09:30:07Z</time>
      </trkpt>
      <trkpt lat="43.61089" lon="2.95287">
        <ele>666.33081054688</ele>
        <time>2012-05-07T09:30:10Z</time>
      </trkpt>
      <trkpt lat="43.61087" lon="2.95287">
        <ele>666.8115234375</ele>
        <time>2012-05-07T09:30:12Z</time>
      </trkpt>
      <trkpt lat="43.61082" lon="2.95283">
        <ele>665.85034179688</ele>
        <time>2012-05-07T09:30:17Z</time>
      </trkpt>
      <trkpt lat="43.61081" lon="2.95283">
        <ele>665.36962890625</ele>
        <time>2012-05-07T09:30:18Z</time>
      </trkpt>
      <trkpt lat="43.61071" lon="2.95285">
        <ele>663.92749023438</ele>
        <time>2012-05-07T09:30:25Z</time>
      </trkpt>
      <trkpt lat="43.61068" lon="2.95284">
        <ele>664.88891601562</ele>
        <time>2012-05-07T09:30:28Z</time>
      </trkpt>
      <trkpt lat="43.61064" lon="2.95285">
        <ele>666.33081054688</ele>
        <time>2012-05-07T09:30:33Z</time>
      </trkpt>
      <trkpt lat="43.61061" lon="2.95282">
        <ele>671.1376953125</ele>
        <time>2012-05-07T09:30:41Z</time>
      </trkpt>
      <trkpt lat="43.6106" lon="2.9528">
        <ele>671.6181640625</ele>
        <time>2012-05-07T09:30:47Z</time>
      </trkpt>
      <trkpt lat="43.61058" lon="2.95278">
        <ele>672.57958984375</ele>
        <time>2012-05-07T09:30:54Z</time>
      </trkpt>
      <trkpt lat="43.61057" lon="2.95278">
        <ele>672.57958984375</ele>
        <time>2012-05-07T09:31:00Z</time>
      </trkpt>
      <trkpt lat="43.61057" lon="2.95278">
        <ele>673.06030273438</ele>
        <time>2012-05-07T09:31:04Z</time>
      </trkpt>
      <trkpt lat="43.61055" lon="2.95274">
        <ele>675.46337890625</ele>
        <time>2012-05-07T09:31:08Z</time>
      </trkpt>
      <trkpt lat="43.61053" lon="2.95274">
        <ele>677.86669921875</ele>
        <time>2012-05-07T09:31:16Z</time>
      </trkpt>
      <trkpt lat="43.6105" lon="2.95276">
        <ele>675.94409179688</ele>
        <time>2012-05-07T09:31:22Z</time>
      </trkpt>
      <trkpt lat="43.61047" lon="2.9528">
        <ele>674.50219726562</ele>
        <time>2012-05-07T09:31:28Z</time>
      </trkpt>
      <trkpt lat="43.61043" lon="2.95279">
        <ele>672.09887695312</ele>
        <time>2012-05-07T09:31:36Z</time>
      </trkpt>
      <trkpt lat="43.61042" lon="2.9528">
        <ele>672.57958984375</ele>
        <time>2012-05-07T09:31:41Z</time>
      </trkpt>
      <trkpt lat="43.61042" lon="2.95286">
        <ele>673.541015625</ele>
        <time>2012-05-07T09:31:49Z</time>
      </trkpt>
      <trkpt lat="43.61038" lon="2.95288">
        <ele>670.65698242188</ele>
        <time>2012-05-07T09:31:59Z</time>
      </trkpt>
      <trkpt lat="43.61036" lon="2.95284">
        <ele>669.21508789062</ele>
        <time>2012-05-07T09:32:03Z</time>
      </trkpt>
      <trkpt lat="43.61034" lon="2.95277">
        <ele>666.33081054688</ele>
        <time>2012-05-07T09:32:08Z</time>
      </trkpt>
      <trkpt lat="43.61033" lon="2.95276">
        <ele>664.408203125</ele>
        <time>2012-05-07T09:32:10Z</time>
      </trkpt>
      <trkpt lat="43.61032" lon="2.95289">
        <ele>660.08227539062</ele>
        <time>2012-05-07T09:32:16Z</time>
      </trkpt>
      <trkpt lat="43.6103" lon="2.95291">
        <ele>656.7177734375</ele>
        <time>2012-05-07T09:32:22Z</time>
      </trkpt>
      <trkpt lat="43.6103" lon="2.95285">
        <ele>655.75659179688</ele>
        <time>2012-05-07T09:32:28Z</time>
      </trkpt>
      <trkpt lat="43.61028" lon="2.95286">
        <ele>655.27587890625</ele>
        <time>2012-05-07T09:32:32Z</time>
      </trkpt>
      <trkpt lat="43.61026" lon="2.95289">
        <ele>653.35327148438</ele>
        <time>2012-05-07T09:32:36Z</time>
      </trkpt>
      <trkpt lat="43.61024" lon="2.95291">
        <ele>652.87255859375</ele>
        <time>2012-05-07T09:32:38Z</time>
      </trkpt>
      <trkpt lat="43.61016" lon="2.95296">
        <ele>652.87255859375</ele>
        <time>2012-05-07T09:32:43Z</time>
      </trkpt>
      <trkpt lat="43.6101" lon="2.95296">
        <ele>651.43041992188</ele>
        <time>2012-05-07T09:32:46Z</time>
      </trkpt>
      <trkpt lat="43.61006" lon="2.953">
        <ele>650.46923828125</ele>
        <time>2012-05-07T09:32:49Z</time>
      </trkpt>
      <trkpt lat="43.61002" lon="2.95301">
        <ele>645.66259765625</ele>
        <time>2012-05-07T09:32:54Z</time>
      </trkpt>
      <trkpt lat="43.61001" lon="2.95302">
        <ele>645.66259765625</ele>
        <time>2012-05-07T09:32:55Z</time>
      </trkpt>
      <trkpt lat="43.60997" lon="2.95314">
        <ele>645.66259765625</ele>
        <time>2012-05-07T09:33:00Z</time>
      </trkpt>
      <trkpt lat="43.60997" lon="2.95322">
        <ele>644.701171875</ele>
        <time>2012-05-07T09:33:04Z</time>
      </trkpt>
      <trkpt lat="43.60992" lon="2.95329">
        <ele>642.29809570312</ele>
        <time>2012-05-07T09:33:09Z</time>
      </trkpt>
      <trkpt lat="43.60989" lon="2.9533">
        <ele>641.33666992188</ele>
        <time>2012-05-07T09:33:11Z</time>
      </trkpt>
      <trkpt lat="43.60983" lon="2.95333">
        <ele>638.93359375</ele>
        <time>2012-05-07T09:33:16Z</time>
      </trkpt>
      <trkpt lat="43.60978" lon="2.95338">
        <ele>634.607421875</ele>
        <time>2012-05-07T09:33:20Z</time>
      </trkpt>
      <trkpt lat="43.60969" lon="2.95332">
        <ele>633.16528320312</ele>
        <time>2012-05-07T09:33:26Z</time>
      </trkpt>
      <trkpt lat="43.60964" lon="2.95326">
        <ele>633.16528320312</ele>
        <time>2012-05-07T09:33:32Z</time>
      </trkpt>
      <trkpt lat="43.60963" lon="2.95325">
        <ele>633.16528320312</ele>
        <time>2012-05-07T09:33:33Z</time>
      </trkpt>
      <trkpt lat="43.60962" lon="2.95323">
        <ele>633.16528320312</ele>
        <time>2012-05-07T09:33:35Z</time>
      </trkpt>
      <trkpt lat="43.60958" lon="2.95319">
        <ele>635.56860351562</ele>
        <time>2012-05-07T09:33:38Z</time>
      </trkpt>
      <trkpt lat="43.60957" lon="2.95315">
        <ele>636.5302734375</ele>
        <time>2012-05-07T09:33:41Z</time>
      </trkpt>
      <trkpt lat="43.60952" lon="2.95309">
        <ele>635.08813476562</ele>
        <time>2012-05-07T09:33:46Z</time>
      </trkpt>
      <trkpt lat="43.60946" lon="2.953">
        <ele>632.68481445312</ele>
        <time>2012-05-07T09:33:51Z</time>
      </trkpt>
      <trkpt lat="43.60941" lon="2.95287">
        <ele>633.64599609375</ele>
        <time>2012-05-07T09:33:56Z</time>
      </trkpt>
      <trkpt lat="43.60939" lon="2.95274">
        <ele>634.607421875</ele>
        <time>2012-05-07T09:34:00Z</time>
      </trkpt>
      <trkpt lat="43.60934" lon="2.95265">
        <ele>635.56860351562</ele>
        <time>2012-05-07T09:34:04Z</time>
      </trkpt>
      <trkpt lat="43.60927" lon="2.95259">
        <ele>633.64599609375</ele>
        <time>2012-05-07T09:34:09Z</time>
      </trkpt>
      <trkpt lat="43.60922" lon="2.95252">
        <ele>633.16528320312</ele>
        <time>2012-05-07T09:34:14Z</time>
      </trkpt>
      <trkpt lat="43.60921" lon="2.9525">
        <ele>632.68481445312</ele>
        <time>2012-05-07T09:34:16Z</time>
      </trkpt>
      <trkpt lat="43.60917" lon="2.95244">
        <ele>630.76220703125</ele>
        <time>2012-05-07T09:34:21Z</time>
      </trkpt>
      <trkpt lat="43.60916" lon="2.95241">
        <ele>630.28149414062</ele>
        <time>2012-05-07T09:34:24Z</time>
      </trkpt>
      <trkpt lat="43.60913" lon="2.95231">
        <ele>628.83959960938</ele>
        <time>2012-05-07T09:34:29Z</time>
      </trkpt>
      <trkpt lat="43.60906" lon="2.95222">
        <ele>628.83959960938</ele>
        <time>2012-05-07T09:34:33Z</time>
      </trkpt>
      <trkpt lat="43.60898" lon="2.95212">
        <ele>627.39770507812</ele>
        <time>2012-05-07T09:34:37Z</time>
      </trkpt>
      <trkpt lat="43.60896" lon="2.95209">
        <ele>627.39770507812</ele>
        <time>2012-05-07T09:34:38Z</time>
      </trkpt>
      <trkpt lat="43.60885" lon="2.95199">
        <ele>628.35888671875</ele>
        <time>2012-05-07T09:34:43Z</time>
      </trkpt>
      <trkpt lat="43.60874" lon="2.95194">
        <ele>627.39770507812</ele>
        <time>2012-05-07T09:34:47Z</time>
      </trkpt>
      <trkpt lat="43.60866" lon="2.95189">
        <ele>624.99438476562</ele>
        <time>2012-05-07T09:34:51Z</time>
      </trkpt>
      <trkpt lat="43.60864" lon="2.95187">
        <ele>624.99438476562</ele>
        <time>2012-05-07T09:34:52Z</time>
      </trkpt>
      <trkpt lat="43.60848" lon="2.95188">
        <ele>622.59106445312</ele>
        <time>2012-05-07T09:34:59Z</time>
      </trkpt>
      <trkpt lat="43.60838" lon="2.95191">
        <ele>621.14916992188</ele>
        <time>2012-05-07T09:35:04Z</time>
      </trkpt>
      <trkpt lat="43.60823" lon="2.9519">
        <ele>619.22631835938</ele>
        <time>2012-05-07T09:35:10Z</time>
      </trkpt>
      <trkpt lat="43.60812" lon="2.95197">
        <ele>619.22631835938</ele>
        <time>2012-05-07T09:35:15Z</time>
      </trkpt>
      <trkpt lat="43.60801" lon="2.95205">
        <ele>618.74560546875</ele>
        <time>2012-05-07T09:35:20Z</time>
      </trkpt>
      <trkpt lat="43.60799" lon="2.95206">
        <ele>618.26489257812</ele>
        <time>2012-05-07T09:35:21Z</time>
      </trkpt>
      <trkpt lat="43.60785" lon="2.95212">
        <ele>617.7841796875</ele>
        <time>2012-05-07T09:35:27Z</time>
      </trkpt>
      <trkpt lat="43.60773" lon="2.95213">
        <ele>614.900390625</ele>
        <time>2012-05-07T09:35:32Z</time>
      </trkpt>
      <trkpt lat="43.60762" lon="2.95213">
        <ele>614.900390625</ele>
        <time>2012-05-07T09:35:36Z</time>
      </trkpt>
      <trkpt lat="43.60757" lon="2.95214">
        <ele>613.93896484375</ele>
        <time>2012-05-07T09:35:39Z</time>
      </trkpt>
      <trkpt lat="43.60753" lon="2.95213">
        <ele>612.97778320312</ele>
        <time>2012-05-07T09:35:44Z</time>
      </trkpt>
      <trkpt lat="43.60746" lon="2.95206">
        <ele>623.07177734375</ele>
        <time>2012-05-07T09:35:50Z</time>
      </trkpt>
      <trkpt lat="43.60741" lon="2.95211">
        <ele>622.59106445312</ele>
        <time>2012-05-07T09:35:54Z</time>
      </trkpt>
      <trkpt lat="43.60736" lon="2.95211">
        <ele>621.62963867188</ele>
        <time>2012-05-07T09:35:57Z</time>
      </trkpt>
      <trkpt lat="43.60731" lon="2.95214">
        <ele>620.18774414062</ele>
        <time>2012-05-07T09:36:02Z</time>
      </trkpt>
      <trkpt lat="43.6073" lon="2.95214">
        <ele>620.18774414062</ele>
        <time>2012-05-07T09:36:03Z</time>
      </trkpt>
      <trkpt lat="43.60723" lon="2.95216">
        <ele>617.7841796875</ele>
        <time>2012-05-07T09:36:09Z</time>
      </trkpt>
      <trkpt lat="43.60717" lon="2.95217">
        <ele>616.34228515625</ele>
        <time>2012-05-07T09:36:14Z</time>
      </trkpt>
      <trkpt lat="43.60704" lon="2.95221">
        <ele>614.900390625</ele>
        <time>2012-05-07T09:36:20Z</time>
      </trkpt>
      <trkpt lat="43.60693" lon="2.95219">
        <ele>614.41967773438</ele>
        <time>2012-05-07T09:36:24Z</time>
      </trkpt>
      <trkpt lat="43.60683" lon="2.95214">
        <ele>613.93896484375</ele>
        <time>2012-05-07T09:36:29Z</time>
      </trkpt>
      <trkpt lat="43.60679" lon="2.9521">
        <ele>612.97778320312</ele>
        <time>2012-05-07T09:36:32Z</time>
      </trkpt>
      <trkpt lat="43.60667" lon="2.95208">
        <ele>611.53588867188</ele>
        <time>2012-05-07T09:36:38Z</time>
      </trkpt>
      <trkpt lat="43.60661" lon="2.95209">
        <ele>612.4970703125</ele>
        <time>2012-05-07T09:36:41Z</time>
      </trkpt>
      <trkpt lat="43.60656" lon="2.95211">
        <ele>614.900390625</ele>
        <time>2012-05-07T09:36:46Z</time>
      </trkpt>
      <trkpt lat="43.60654" lon="2.95211">
        <ele>614.900390625</ele>
        <time>2012-05-07T09:36:48Z</time>
      </trkpt>
      <trkpt lat="43.6065" lon="2.95213">
        <ele>616.82299804688</ele>
        <time>2012-05-07T09:36:52Z</time>
      </trkpt>
      <trkpt lat="43.60648" lon="2.95222">
        <ele>617.3037109375</ele>
        <time>2012-05-07T09:36:57Z</time>
      </trkpt>
      <trkpt lat="43.60643" lon="2.95228">
        <ele>616.34228515625</ele>
        <time>2012-05-07T09:37:03Z</time>
      </trkpt>
      <trkpt lat="43.60642" lon="2.95231">
        <ele>614.900390625</ele>
        <time>2012-05-07T09:37:07Z</time>
      </trkpt>
      <trkpt lat="43.60641" lon="2.95232">
        <ele>614.900390625</ele>
        <time>2012-05-07T09:37:08Z</time>
      </trkpt>
      <trkpt lat="43.60635" lon="2.95234">
        <ele>613.93896484375</ele>
        <time>2012-05-07T09:37:12Z</time>
      </trkpt>
      <trkpt lat="43.60635" lon="2.95235">
        <ele>613.93896484375</ele>
        <time>2012-05-07T09:37:13Z</time>
      </trkpt>
      <trkpt lat="43.60631" lon="2.95236">
        <ele>612.97778320312</ele>
        <time>2012-05-07T09:37:18Z</time>
      </trkpt>
      <trkpt lat="43.6063" lon="2.95236">
        <ele>612.4970703125</ele>
        <time>2012-05-07T09:37:19Z</time>
      </trkpt>
      <trkpt lat="43.60625" lon="2.95237">
        <ele>610.09375</ele>
        <time>2012-05-07T09:37:26Z</time>
      </trkpt>
      <trkpt lat="43.60622" lon="2.9524">
        <ele>608.65185546875</ele>
        <time>2012-05-07T09:37:29Z</time>
      </trkpt>
      <trkpt lat="43.60613" lon="2.95241">
        <ele>604.806640625</ele>
        <time>2012-05-07T09:37:35Z</time>
      </trkpt>
      <trkpt lat="43.60608" lon="2.95245">
        <ele>602.8837890625</ele>
        <time>2012-05-07T09:37:38Z</time>
      </trkpt>
      <trkpt lat="43.60601" lon="2.95249">
        <ele>600.48071289062</ele>
        <time>2012-05-07T09:37:43Z</time>
      </trkpt>
      <trkpt lat="43.60587" lon="2.9526">
        <ele>597.5966796875</ele>
        <time>2012-05-07T09:37:50Z</time>
      </trkpt>
      <trkpt lat="43.60579" lon="2.95265">
        <ele>593.75146484375</ele>
        <time>2012-05-07T09:37:56Z</time>
      </trkpt>
      <trkpt lat="43.60571" lon="2.95273">
        <ele>588.94506835938</ele>
        <time>2012-05-07T09:38:02Z</time>
      </trkpt>
      <trkpt lat="43.60566" lon="2.95276">
        <ele>587.02197265625</ele>
        <time>2012-05-07T09:38:04Z</time>
      </trkpt>
      <trkpt lat="43.60561" lon="2.95288">
        <ele>582.6962890625</ele>
        <time>2012-05-07T09:38:09Z</time>
      </trkpt>
      <trkpt lat="43.60556" lon="2.95299">
        <ele>584.61889648438</ele>
        <time>2012-05-07T09:38:13Z</time>
      </trkpt>
      <trkpt lat="43.60551" lon="2.9531">
        <ele>584.13818359375</ele>
        <time>2012-05-07T09:38:17Z</time>
      </trkpt>
      <trkpt lat="43.60549" lon="2.95313">
        <ele>584.61889648438</ele>
        <time>2012-05-07T09:38:18Z</time>
      </trkpt>
      <trkpt lat="43.60545" lon="2.95318">
        <ele>585.099609375</ele>
        <time>2012-05-07T09:38:24Z</time>
      </trkpt>
      <trkpt lat="43.60535" lon="2.9532">
        <ele>584.13818359375</ele>
        <time>2012-05-07T09:38:30Z</time>
      </trkpt>
      <trkpt lat="43.60533" lon="2.95316">
        <ele>586.54150390625</ele>
        <time>2012-05-07T09:38:33Z</time>
      </trkpt>
      <trkpt lat="43.60534" lon="2.95317">
        <ele>584.61889648438</ele>
        <time>2012-05-07T09:38:39Z</time>
      </trkpt>
      <trkpt lat="43.6053" lon="2.95315">
        <ele>583.1767578125</ele>
        <time>2012-05-07T09:38:51Z</time>
      </trkpt>
      <trkpt lat="43.60524" lon="2.95312">
        <ele>583.1767578125</ele>
        <time>2012-05-07T09:38:57Z</time>
      </trkpt>
      <trkpt lat="43.60521" lon="2.9531">
        <ele>582.21557617188</ele>
        <time>2012-05-07T09:39:00Z</time>
      </trkpt>
      <trkpt lat="43.60518" lon="2.95306">
        <ele>581.25439453125</ele>
        <time>2012-05-07T09:39:04Z</time>
      </trkpt>
      <trkpt lat="43.60503" lon="2.95297">
        <ele>581.25439453125</ele>
        <time>2012-05-07T09:39:11Z</time>
      </trkpt>
      <trkpt lat="43.60497" lon="2.95292">
        <ele>580.77368164062</ele>
        <time>2012-05-07T09:39:15Z</time>
      </trkpt>
      <trkpt lat="43.60497" lon="2.95291">
        <ele>580.29296875</ele>
        <time>2012-05-07T09:39:16Z</time>
      </trkpt>
      <trkpt lat="43.60494" lon="2.95287">
        <ele>580.29296875</ele>
        <time>2012-05-07T09:39:18Z</time>
      </trkpt>
      <trkpt lat="43.60486" lon="2.95276">
        <ele>583.1767578125</ele>
        <time>2012-05-07T09:39:23Z</time>
      </trkpt>
      <trkpt lat="43.60475" lon="2.95266">
        <ele>583.1767578125</ele>
        <time>2012-05-07T09:39:28Z</time>
      </trkpt>
      <trkpt lat="43.60469" lon="2.95254">
        <ele>583.65747070312</ele>
        <time>2012-05-07T09:39:32Z</time>
      </trkpt>
      <trkpt lat="43.60459" lon="2.95245">
        <ele>583.1767578125</ele>
        <time>2012-05-07T09:39:37Z</time>
      </trkpt>
      <trkpt lat="43.60453" lon="2.95237">
        <ele>582.6962890625</ele>
        <time>2012-05-07T09:39:41Z</time>
      </trkpt>
      <trkpt lat="43.60442" lon="2.95228">
        <ele>580.77368164062</ele>
        <time>2012-05-07T09:39:46Z</time>
      </trkpt>
      <trkpt lat="43.60435" lon="2.9522">
        <ele>578.37036132812</ele>
        <time>2012-05-07T09:39:50Z</time>
      </trkpt>
      <trkpt lat="43.60432" lon="2.95218">
        <ele>576.92846679688</ele>
        <time>2012-05-07T09:39:52Z</time>
      </trkpt>
      <trkpt lat="43.6042" lon="2.95225">
        <ele>572.12182617188</ele>
        <time>2012-05-07T09:39:59Z</time>
      </trkpt>
      <trkpt lat="43.60412" lon="2.95233">
        <ele>569.23779296875</ele>
        <time>2012-05-07T09:40:03Z</time>
      </trkpt>
      <trkpt lat="43.60399" lon="2.95243">
        <ele>564.91186523438</ele>
        <time>2012-05-07T09:40:08Z</time>
      </trkpt>
      <trkpt lat="43.60389" lon="2.95252">
        <ele>563.46997070312</ele>
        <time>2012-05-07T09:40:12Z</time>
      </trkpt>
      <trkpt lat="43.60387" lon="2.95254">
        <ele>563.46997070312</ele>
        <time>2012-05-07T09:40:13Z</time>
      </trkpt>
      <trkpt lat="43.60381" lon="2.95258">
        <ele>562.02807617188</ele>
        <time>2012-05-07T09:40:16Z</time>
      </trkpt>
      <trkpt lat="43.60378" lon="2.95262">
        <ele>560.5859375</ele>
        <time>2012-05-07T09:40:19Z</time>
      </trkpt>
      <trkpt lat="43.6037" lon="2.95266">
        <ele>559.14404296875</ele>
        <time>2012-05-07T09:40:24Z</time>
      </trkpt>
      <trkpt lat="43.60362" lon="2.95269">
        <ele>559.62475585938</ele>
        <time>2012-05-07T09:40:28Z</time>
      </trkpt>
      <trkpt lat="43.60356" lon="2.95274">
        <ele>560.5859375</ele>
        <time>2012-05-07T09:40:32Z</time>
      </trkpt>
      <trkpt lat="43.60349" lon="2.95274">
        <ele>558.18286132812</ele>
        <time>2012-05-07T09:40:36Z</time>
      </trkpt>
      <trkpt lat="43.60345" lon="2.95271">
        <ele>558.18286132812</ele>
        <time>2012-05-07T09:40:39Z</time>
      </trkpt>
      <trkpt lat="43.60336" lon="2.9527">
        <ele>554.81787109375</ele>
        <time>2012-05-07T09:40:44Z</time>
      </trkpt>
      <trkpt lat="43.6033" lon="2.95271">
        <ele>552.41455078125</ele>
        <time>2012-05-07T09:40:47Z</time>
      </trkpt>
      <trkpt lat="43.60323" lon="2.95272">
        <ele>553.85668945312</ele>
        <time>2012-05-07T09:40:50Z</time>
      </trkpt>
      <trkpt lat="43.60321" lon="2.95274">
        <ele>554.33740234375</ele>
        <time>2012-05-07T09:40:51Z</time>
      </trkpt>
      <trkpt lat="43.60319" lon="2.95275">
        <ele>554.33740234375</ele>
        <time>2012-05-07T09:40:53Z</time>
      </trkpt>
      <trkpt lat="43.60312" lon="2.95278">
        <ele>553.85668945312</ele>
        <time>2012-05-07T09:40:58Z</time>
      </trkpt>
      <trkpt lat="43.60303" lon="2.95282">
        <ele>552.89526367188</ele>
        <time>2012-05-07T09:41:02Z</time>
      </trkpt>
      <trkpt lat="43.60293" lon="2.95286">
        <ele>551.93408203125</ele>
        <time>2012-05-07T09:41:07Z</time>
      </trkpt>
      <trkpt lat="43.60285" lon="2.95285">
        <ele>551.45336914062</ele>
        <time>2012-05-07T09:41:11Z</time>
      </trkpt>
      <trkpt lat="43.60278" lon="2.95285">
        <ele>551.45336914062</ele>
        <time>2012-05-07T09:41:14Z</time>
      </trkpt>
      <trkpt lat="43.6027" lon="2.95282">
        <ele>553.85668945312</ele>
        <time>2012-05-07T09:41:19Z</time>
      </trkpt>
      <trkpt lat="43.60266" lon="2.95282">
        <ele>554.81787109375</ele>
        <time>2012-05-07T09:41:21Z</time>
      </trkpt>
      <trkpt lat="43.60262" lon="2.95283">
        <ele>556.74072265625</ele>
        <time>2012-05-07T09:41:24Z</time>
      </trkpt>
      <trkpt lat="43.60257" lon="2.95284">
        <ele>557.22143554688</ele>
        <time>2012-05-07T09:41:28Z</time>
      </trkpt>
      <trkpt lat="43.60252" lon="2.95283">
        <ele>560.5859375</ele>
        <time>2012-05-07T09:41:33Z</time>
      </trkpt>
      <trkpt lat="43.60246" lon="2.95283">
        <ele>561.54736328125</ele>
        <time>2012-05-07T09:41:39Z</time>
      </trkpt>
      <trkpt lat="43.60241" lon="2.95283">
        <ele>561.54736328125</ele>
        <time>2012-05-07T09:41:44Z</time>
      </trkpt>
      <trkpt lat="43.60231" lon="2.95275">
        <ele>569.23779296875</ele>
        <time>2012-05-07T09:41:51Z</time>
      </trkpt>
      <trkpt lat="43.60229" lon="2.95272">
        <ele>569.71850585938</ele>
        <time>2012-05-07T09:41:53Z</time>
      </trkpt>
      <trkpt lat="43.60225" lon="2.95269">
        <ele>570.19897460938</ele>
        <time>2012-05-07T09:41:57Z</time>
      </trkpt>
      <trkpt lat="43.60218" lon="2.95264">
        <ele>570.19897460938</ele>
        <time>2012-05-07T09:42:03Z</time>
      </trkpt>
      <trkpt lat="43.60216" lon="2.95261">
        <ele>571.16040039062</ele>
        <time>2012-05-07T09:42:05Z</time>
      </trkpt>
      <trkpt lat="43.60209" lon="2.95255">
        <ele>575.96704101562</ele>
        <time>2012-05-07T09:42:12Z</time>
      </trkpt>
      <trkpt lat="43.60202" lon="2.9525">
        <ele>576.92846679688</ele>
        <time>2012-05-07T09:42:17Z</time>
      </trkpt>
      <trkpt lat="43.602" lon="2.95246">
        <ele>576.92846679688</ele>
        <time>2012-05-07T09:42:20Z</time>
      </trkpt>
      <trkpt lat="43.60192" lon="2.95244">
        <ele>577.4091796875</ele>
        <time>2012-05-07T09:42:25Z</time>
      </trkpt>
      <trkpt lat="43.60188" lon="2.95243">
        <ele>576.92846679688</ele>
        <time>2012-05-07T09:42:28Z</time>
      </trkpt>
      <trkpt lat="43.60183" lon="2.95245">
        <ele>577.4091796875</ele>
        <time>2012-05-07T09:42:32Z</time>
      </trkpt>
      <trkpt lat="43.60181" lon="2.95246">
        <ele>576.92846679688</ele>
        <time>2012-05-07T09:42:34Z</time>
      </trkpt>
      <trkpt lat="43.60174" lon="2.95244">
        <ele>578.37036132812</ele>
        <time>2012-05-07T09:42:40Z</time>
      </trkpt>
      <trkpt lat="43.6017" lon="2.95243">
        <ele>578.37036132812</ele>
        <time>2012-05-07T09:42:42Z</time>
      </trkpt>
      <trkpt lat="43.60162" lon="2.95246">
        <ele>577.4091796875</ele>
        <time>2012-05-07T09:42:47Z</time>
      </trkpt>
      <trkpt lat="43.60147" lon="2.95245">
        <ele>578.37036132812</ele>
        <time>2012-05-07T09:42:53Z</time>
      </trkpt>
      <trkpt lat="43.6014" lon="2.95245">
        <ele>578.37036132812</ele>
        <time>2012-05-07T09:42:57Z</time>
      </trkpt>
      <trkpt lat="43.60126" lon="2.95242">
        <ele>578.37036132812</ele>
        <time>2012-05-07T09:43:03Z</time>
      </trkpt>
      <trkpt lat="43.60119" lon="2.95241">
        <ele>578.85107421875</ele>
        <time>2012-05-07T09:43:06Z</time>
      </trkpt>
      <trkpt lat="43.60106" lon="2.95238">
        <ele>578.85107421875</ele>
        <time>2012-05-07T09:43:12Z</time>
      </trkpt>
      <trkpt lat="43.60099" lon="2.95236">
        <ele>579.33154296875</ele>
        <time>2012-05-07T09:43:15Z</time>
      </trkpt>
      <trkpt lat="43.60096" lon="2.95238">
        <ele>579.33154296875</ele>
        <time>2012-05-07T09:43:17Z</time>
      </trkpt>
      <trkpt lat="43.60085" lon="2.95243">
        <ele>577.8896484375</ele>
        <time>2012-05-07T09:43:23Z</time>
      </trkpt>
      <trkpt lat="43.60082" lon="2.95247">
        <ele>577.4091796875</ele>
        <time>2012-05-07T09:43:25Z</time>
      </trkpt>
      <trkpt lat="43.60083" lon="2.95257">
        <ele>575.005859375</ele>
        <time>2012-05-07T09:43:30Z</time>
      </trkpt>
      <trkpt lat="43.60083" lon="2.9526">
        <ele>573.56396484375</ele>
        <time>2012-05-07T09:43:31Z</time>
      </trkpt>
      <trkpt lat="43.60084" lon="2.95269">
        <ele>572.12182617188</ele>
        <time>2012-05-07T09:43:37Z</time>
      </trkpt>
      <trkpt lat="43.60084" lon="2.95271">
        <ele>571.16040039062</ele>
        <time>2012-05-07T09:43:38Z</time>
      </trkpt>
      <trkpt lat="43.60083" lon="2.95279">
        <ele>568.75708007812</ele>
        <time>2012-05-07T09:43:43Z</time>
      </trkpt>
      <trkpt lat="43.60082" lon="2.95285">
        <ele>567.31518554688</ele>
        <time>2012-05-07T09:43:47Z</time>
      </trkpt>
      <trkpt lat="43.60081" lon="2.95287">
        <ele>566.83447265625</ele>
        <time>2012-05-07T09:43:49Z</time>
      </trkpt>
      <trkpt lat="43.60076" lon="2.95296">
        <ele>563.95043945312</ele>
        <time>2012-05-07T09:43:53Z</time>
      </trkpt>
      <trkpt lat="43.60072" lon="2.95308">
        <ele>561.06665039062</ele>
        <time>2012-05-07T09:43:58Z</time>
      </trkpt>
      <trkpt lat="43.60071" lon="2.95317">
        <ele>557.7021484375</ele>
        <time>2012-05-07T09:44:02Z</time>
      </trkpt>
      <trkpt lat="43.60062" lon="2.95335">
        <ele>555.29858398438</ele>
        <time>2012-05-07T09:44:09Z</time>
      </trkpt>
      <trkpt lat="43.60058" lon="2.95347">
        <ele>553.3759765625</ele>
        <time>2012-05-07T09:44:14Z</time>
      </trkpt>
      <trkpt lat="43.60056" lon="2.95356">
        <ele>551.93408203125</ele>
        <time>2012-05-07T09:44:17Z</time>
      </trkpt>
      <trkpt lat="43.60052" lon="2.95369">
        <ele>548.5693359375</ele>
        <time>2012-05-07T09:44:22Z</time>
      </trkpt>
      <trkpt lat="43.60044" lon="2.95379">
        <ele>542.32092285156</ele>
        <time>2012-05-07T09:44:29Z</time>
      </trkpt>
      <trkpt lat="43.60042" lon="2.95381">
        <ele>541.84020996094</ele>
        <time>2012-05-07T09:44:30Z</time>
      </trkpt>
      <trkpt lat="43.60036" lon="2.95392">
        <ele>535.11096191406</ele>
        <time>2012-05-07T09:44:36Z</time>
      </trkpt>
      <trkpt lat="43.60035" lon="2.95394">
        <ele>534.63037109375</ele>
        <time>2012-05-07T09:44:37Z</time>
      </trkpt>
      <trkpt lat="43.60029" lon="2.95399">
        <ele>534.63037109375</ele>
        <time>2012-05-07T09:44:42Z</time>
      </trkpt>
      <trkpt lat="43.60026" lon="2.95407">
        <ele>533.18835449219</ele>
        <time>2012-05-07T09:44:47Z</time>
      </trkpt>
      <trkpt lat="43.60019" lon="2.95417">
        <ele>533.6689453125</ele>
        <time>2012-05-07T09:44:51Z</time>
      </trkpt>
      <trkpt lat="43.60018" lon="2.9542">
        <ele>534.14965820312</ele>
        <time>2012-05-07T09:44:52Z</time>
      </trkpt>
      <trkpt lat="43.60014" lon="2.95427">
        <ele>534.63037109375</ele>
        <time>2012-05-07T09:44:55Z</time>
      </trkpt>
      <trkpt lat="43.60014" lon="2.9544">
        <ele>534.14965820312</ele>
        <time>2012-05-07T09:45:00Z</time>
      </trkpt>
      <trkpt lat="43.60012" lon="2.95447">
        <ele>532.22705078125</ele>
        <time>2012-05-07T09:45:04Z</time>
      </trkpt>
      <trkpt lat="43.60011" lon="2.9545">
        <ele>531.26574707031</ele>
        <time>2012-05-07T09:45:05Z</time>
      </trkpt>
      <trkpt lat="43.60008" lon="2.95463">
        <ele>532.22705078125</ele>
        <time>2012-05-07T09:45:10Z</time>
      </trkpt>
      <trkpt lat="43.60011" lon="2.95475">
        <ele>532.70776367188</ele>
        <time>2012-05-07T09:45:16Z</time>
      </trkpt>
      <trkpt lat="43.60012" lon="2.95482">
        <ele>529.34313964844</ele>
        <time>2012-05-07T09:45:21Z</time>
      </trkpt>
      <trkpt lat="43.60012" lon="2.95486">
        <ele>527.90100097656</ele>
        <time>2012-05-07T09:45:25Z</time>
      </trkpt>
      <trkpt lat="43.60008" lon="2.95492">
        <ele>526.45910644531</ele>
        <time>2012-05-07T09:45:29Z</time>
      </trkpt>
      <trkpt lat="43.60003" lon="2.95499">
        <ele>522.13317871094</ele>
        <time>2012-05-07T09:45:35Z</time>
      </trkpt>
      <trkpt lat="43.60003" lon="2.95501">
        <ele>522.13317871094</ele>
        <time>2012-05-07T09:45:38Z</time>
      </trkpt>
      <trkpt lat="43.59997" lon="2.95507">
        <ele>518.7685546875</ele>
        <time>2012-05-07T09:45:43Z</time>
      </trkpt>
      <trkpt lat="43.59993" lon="2.95512">
        <ele>517.32666015625</ele>
        <time>2012-05-07T09:45:46Z</time>
      </trkpt>
      <trkpt lat="43.59986" lon="2.9552">
        <ele>514.92333984375</ele>
        <time>2012-05-07T09:45:54Z</time>
      </trkpt>
      <trkpt lat="43.59985" lon="2.95521">
        <ele>514.92333984375</ele>
        <time>2012-05-07T09:45:55Z</time>
      </trkpt>
      <trkpt lat="43.59979" lon="2.95526">
        <ele>513.00073242188</ele>
        <time>2012-05-07T09:46:00Z</time>
      </trkpt>
      <trkpt lat="43.59975" lon="2.95529">
        <ele>513.96203613281</ele>
        <time>2012-05-07T09:46:07Z</time>
      </trkpt>
      <trkpt lat="43.59974" lon="2.95529">
        <ele>513.96203613281</ele>
        <time>2012-05-07T09:46:09Z</time>
      </trkpt>
      <trkpt lat="43.59968" lon="2.95536">
        <ele>512.52001953125</ele>
        <time>2012-05-07T09:46:16Z</time>
      </trkpt>
      <trkpt lat="43.59967" lon="2.95536">
        <ele>512.52001953125</ele>
        <time>2012-05-07T09:46:17Z</time>
      </trkpt>
      <trkpt lat="43.59964" lon="2.95537">
        <ele>511.55871582031</ele>
        <time>2012-05-07T09:46:19Z</time>
      </trkpt>
      <trkpt lat="43.59962" lon="2.95539">
        <ele>510.11669921875</ele>
        <time>2012-05-07T09:46:22Z</time>
      </trkpt>
      <trkpt lat="43.59957" lon="2.9554">
        <ele>509.15539550781</ele>
        <time>2012-05-07T09:46:27Z</time>
      </trkpt>
      <trkpt lat="43.59955" lon="2.95538">
        <ele>508.67468261719</ele>
        <time>2012-05-07T09:46:35Z</time>
      </trkpt>
      <trkpt lat="43.59954" lon="2.9553">
        <ele>510.11669921875</ele>
        <time>2012-05-07T09:46:41Z</time>
      </trkpt>
      <trkpt lat="43.59954" lon="2.95529">
        <ele>510.59729003906</ele>
        <time>2012-05-07T09:46:48Z</time>
      </trkpt>
      <trkpt lat="43.59954" lon="2.95524">
        <ele>512.52001953125</ele>
        <time>2012-05-07T09:46:53Z</time>
      </trkpt>
      <trkpt lat="43.59953" lon="2.95514">
        <ele>513.00073242188</ele>
        <time>2012-05-07T09:47:02Z</time>
      </trkpt>
      <trkpt lat="43.59951" lon="2.95508">
        <ele>511.55871582031</ele>
        <time>2012-05-07T09:47:08Z</time>
      </trkpt>
      <trkpt lat="43.59949" lon="2.95502">
        <ele>510.11669921875</ele>
        <time>2012-05-07T09:47:14Z</time>
      </trkpt>
      <trkpt lat="43.59947" lon="2.95496">
        <ele>510.11669921875</ele>
        <time>2012-05-07T09:47:19Z</time>
      </trkpt>
      <trkpt lat="43.59946" lon="2.95493">
        <ele>509.63610839844</ele>
        <time>2012-05-07T09:47:25Z</time>
      </trkpt>
      <trkpt lat="43.59946" lon="2.95491">
        <ele>516.365234375</ele>
        <time>2012-05-07T09:48:44Z</time>
      </trkpt>
      <trkpt lat="43.59947" lon="2.95492">
        <ele>514.44262695312</ele>
        <time>2012-05-07T09:48:49Z</time>
      </trkpt>
      <trkpt lat="43.59947" lon="2.955">
        <ele>494.25500488281</ele>
        <time>2012-05-07T09:50:30Z</time>
      </trkpt>
      <trkpt lat="43.59947" lon="2.95494">
        <ele>504.82946777344</ele>
        <time>2012-05-07T09:51:03Z</time>
      </trkpt>
      <trkpt lat="43.59947" lon="2.95497">
        <ele>499.0615234375</ele>
        <time>2012-05-07T09:51:26Z</time>
      </trkpt>
      <trkpt lat="43.59948" lon="2.95497">
        <ele>495.69689941406</ele>
        <time>2012-05-07T09:51:45Z</time>
      </trkpt>
      <trkpt lat="43.59946" lon="2.95493">
        <ele>495.69689941406</ele>
        <time>2012-05-07T09:51:48Z</time>
      </trkpt>
      <trkpt lat="43.59944" lon="2.95482">
        <ele>499.54223632812</ele>
        <time>2012-05-07T09:51:53Z</time>
      </trkpt>
      <trkpt lat="43.59942" lon="2.95477">
        <ele>503.8681640625</ele>
        <time>2012-05-07T09:51:55Z</time>
      </trkpt>
      <trkpt lat="43.59942" lon="2.95465">
        <ele>505.31018066406</ele>
        <time>2012-05-07T09:52:00Z</time>
      </trkpt>
      <trkpt lat="43.59941" lon="2.95463">
        <ele>504.82946777344</ele>
        <time>2012-05-07T09:52:01Z</time>
      </trkpt>
      <trkpt lat="43.59943" lon="2.95452">
        <ele>503.38745117188</ele>
        <time>2012-05-07T09:52:06Z</time>
      </trkpt>
      <trkpt lat="43.59945" lon="2.9544">
        <ele>502.42614746094</ele>
        <time>2012-05-07T09:52:11Z</time>
      </trkpt>
      <trkpt lat="43.59945" lon="2.95422">
        <ele>500.98413085938</ele>
        <time>2012-05-07T09:52:17Z</time>
      </trkpt>
      <trkpt lat="43.59945" lon="2.95404">
        <ele>500.50354003906</ele>
        <time>2012-05-07T09:52:23Z</time>
      </trkpt>
      <trkpt lat="43.59945" lon="2.954">
        <ele>500.02294921875</ele>
        <time>2012-05-07T09:52:25Z</time>
      </trkpt>
      <trkpt lat="43.59946" lon="2.95388">
        <ele>498.58093261719</ele>
        <time>2012-05-07T09:52:30Z</time>
      </trkpt>
      <trkpt lat="43.59948" lon="2.9538">
        <ele>497.61962890625</ele>
        <time>2012-05-07T09:52:32Z</time>
      </trkpt>
      <trkpt lat="43.5995" lon="2.95358">
        <ele>497.13891601562</ele>
        <time>2012-05-07T09:52:38Z</time>
      </trkpt>
      <trkpt lat="43.5995" lon="2.95345">
        <ele>497.61962890625</ele>
        <time>2012-05-07T09:52:42Z</time>
      </trkpt>
      <trkpt lat="43.5995" lon="2.95342">
        <ele>497.13891601562</ele>
        <time>2012-05-07T09:52:43Z</time>
      </trkpt>
      <trkpt lat="43.59944" lon="2.95333">
        <ele>494.73559570312</ele>
        <time>2012-05-07T09:52:49Z</time>
      </trkpt>
      <trkpt lat="43.59943" lon="2.95331">
        <ele>494.25500488281</ele>
        <time>2012-05-07T09:52:50Z</time>
      </trkpt>
      <trkpt lat="43.5994" lon="2.95318">
        <ele>493.29357910156</ele>
        <time>2012-05-07T09:52:55Z</time>
      </trkpt>
      <trkpt lat="43.5994" lon="2.95312">
        <ele>491.85168457031</ele>
        <time>2012-05-07T09:52:57Z</time>
      </trkpt>
      <trkpt lat="43.59934" lon="2.953">
        <ele>487.52563476562</ele>
        <time>2012-05-07T09:53:03Z</time>
      </trkpt>
      <trkpt lat="43.5993" lon="2.95294">
        <ele>485.60302734375</ele>
        <time>2012-05-07T09:53:07Z</time>
      </trkpt>
      <trkpt lat="43.59924" lon="2.95285">
        <ele>486.08374023438</ele>
        <time>2012-05-07T09:53:11Z</time>
      </trkpt>
      <trkpt lat="43.59922" lon="2.95285">
        <ele>482.71923828125</ele>
        <time>2012-05-07T09:53:15Z</time>
      </trkpt>
      <trkpt lat="43.59922" lon="2.95286">
        <ele>481.27722167969</ele>
        <time>2012-05-07T09:53:18Z</time>
      </trkpt>
      <trkpt lat="43.59922" lon="2.95275">
        <ele>477.91247558594</ele>
        <time>2012-05-07T09:53:23Z</time>
      </trkpt>
      <trkpt lat="43.59922" lon="2.95274">
        <ele>476.95129394531</ele>
        <time>2012-05-07T09:53:24Z</time>
      </trkpt>
      <trkpt lat="43.59921" lon="2.95267">
        <ele>474.54797363281</ele>
        <time>2012-05-07T09:53:29Z</time>
      </trkpt>
      <trkpt lat="43.59919" lon="2.9526">
        <ele>472.14465332031</ele>
        <time>2012-05-07T09:53:34Z</time>
      </trkpt>
      <trkpt lat="43.59918" lon="2.9526">
        <ele>474.54797363281</ele>
        <time>2012-05-07T09:53:37Z</time>
      </trkpt>
      <trkpt lat="43.59915" lon="2.95267">
        <ele>472.14465332031</ele>
        <time>2012-05-07T09:53:41Z</time>
      </trkpt>
      <trkpt lat="43.59908" lon="2.95261">
        <ele>471.18334960938</ele>
        <time>2012-05-07T09:53:45Z</time>
      </trkpt>
      <trkpt lat="43.59907" lon="2.95256">
        <ele>469.2607421875</ele>
        <time>2012-05-07T09:53:49Z</time>
      </trkpt>
      <trkpt lat="43.59905" lon="2.95251">
        <ele>466.37670898438</ele>
        <time>2012-05-07T09:53:55Z</time>
      </trkpt>
      <trkpt lat="43.599" lon="2.9524">
        <ele>467.81872558594</ele>
        <time>2012-05-07T09:53:59Z</time>
      </trkpt>
      <trkpt lat="43.59897" lon="2.95226">
        <ele>471.18334960938</ele>
        <time>2012-05-07T09:54:04Z</time>
      </trkpt>
      <trkpt lat="43.59893" lon="2.95218">
        <ele>473.10607910156</ele>
        <time>2012-05-07T09:54:09Z</time>
      </trkpt>
      <trkpt lat="43.59893" lon="2.95218">
        <ele>466.857421875</ele>
        <time>2012-05-07T09:54:14Z</time>
      </trkpt>
      <trkpt lat="43.59892" lon="2.95216">
        <ele>462.53137207031</ele>
        <time>2012-05-07T09:54:20Z</time>
      </trkpt>
      <trkpt lat="43.59889" lon="2.95212">
        <ele>462.05078125</ele>
        <time>2012-05-07T09:54:25Z</time>
      </trkpt>
      <trkpt lat="43.59887" lon="2.9521">
        <ele>462.53137207031</ele>
        <time>2012-05-07T09:54:32Z</time>
      </trkpt>
      <trkpt lat="43.59888" lon="2.95205">
        <ele>468.29931640625</ele>
        <time>2012-05-07T09:54:45Z</time>
      </trkpt>
      <trkpt lat="43.59892" lon="2.95208">
        <ele>465.89611816406</ele>
        <time>2012-05-07T09:54:53Z</time>
      </trkpt>
      <trkpt lat="43.59893" lon="2.95215">
        <ele>463.01208496094</ele>
        <time>2012-05-07T09:54:59Z</time>
      </trkpt>
      <trkpt lat="43.59889" lon="2.95224">
        <ele>461.08947753906</ele>
        <time>2012-05-07T09:55:07Z</time>
      </trkpt>
      <trkpt lat="43.59888" lon="2.95225">
        <ele>462.53137207031</ele>
        <time>2012-05-07T09:55:17Z</time>
      </trkpt>
      <trkpt lat="43.59886" lon="2.95224">
        <ele>461.08947753906</ele>
        <time>2012-05-07T09:55:22Z</time>
      </trkpt>
      <trkpt lat="43.59887" lon="2.95224">
        <ele>460.60876464844</ele>
        <time>2012-05-07T09:55:37Z</time>
      </trkpt>
      <trkpt lat="43.59889" lon="2.95223">
        <ele>458.68615722656</ele>
        <time>2012-05-07T09:55:52Z</time>
      </trkpt>
      <trkpt lat="43.59891" lon="2.95224">
        <ele>459.16687011719</ele>
        <time>2012-05-07T09:56:00Z</time>
      </trkpt>
      <trkpt lat="43.59893" lon="2.95227">
        <ele>457.72497558594</ele>
        <time>2012-05-07T09:56:06Z</time>
      </trkpt>
      <trkpt lat="43.59896" lon="2.95224">
        <ele>465.41552734375</ele>
        <time>2012-05-07T09:56:16Z</time>
      </trkpt>
      <trkpt lat="43.59897" lon="2.95222">
        <ele>464.4541015625</ele>
        <time>2012-05-07T09:56:23Z</time>
      </trkpt>
      <trkpt lat="43.59893" lon="2.95225">
        <ele>463.97338867188</ele>
        <time>2012-05-07T09:56:32Z</time>
      </trkpt>
      <trkpt lat="43.59895" lon="2.95225">
        <ele>463.97338867188</ele>
        <time>2012-05-07T09:56:41Z</time>
      </trkpt>
      <trkpt lat="43.59896" lon="2.95222">
        <ele>467.81872558594</ele>
        <time>2012-05-07T09:56:57Z</time>
      </trkpt>
      <trkpt lat="43.59893" lon="2.95219">
        <ele>455.32153320312</ele>
        <time>2012-05-07T09:57:32Z</time>
      </trkpt>
      <trkpt lat="43.59893" lon="2.9522">
        <ele>459.16687011719</ele>
        <time>2012-05-07T09:57:44Z</time>
      </trkpt>
      <trkpt lat="43.59893" lon="2.95224">
        <ele>457.72497558594</ele>
        <time>2012-05-07T09:57:59Z</time>
      </trkpt>
      <trkpt lat="43.59895" lon="2.95228">
        <ele>451.95703125</ele>
        <time>2012-05-07T09:58:18Z</time>
      </trkpt>
      <trkpt lat="43.59895" lon="2.95226">
        <ele>447.63098144531</ele>
        <time>2012-05-07T09:58:41Z</time>
      </trkpt>
      <trkpt lat="43.59893" lon="2.95225">
        <ele>462.05078125</ele>
        <time>2012-05-07T09:59:24Z</time>
      </trkpt>
      <trkpt lat="43.59895" lon="2.95224">
        <ele>463.01208496094</ele>
        <time>2012-05-07T09:59:39Z</time>
      </trkpt>
      <trkpt lat="43.59896" lon="2.95223">
        <ele>468.29931640625</ele>
        <time>2012-05-07T10:00:04Z</time>
      </trkpt>
      <trkpt lat="43.59895" lon="2.95221">
        <ele>466.37670898438</ele>
        <time>2012-05-07T10:00:21Z</time>
      </trkpt>
      <trkpt lat="43.59894" lon="2.95219">
        <ele>469.2607421875</ele>
        <time>2012-05-07T10:00:47Z</time>
      </trkpt>
      <trkpt lat="43.59895" lon="2.95222">
        <ele>456.76354980469</ele>
        <time>2012-05-07T10:01:35Z</time>
      </trkpt>
      <trkpt lat="43.59895" lon="2.95223">
        <ele>456.76354980469</ele>
        <time>2012-05-07T10:02:00Z</time>
      </trkpt>
      <trkpt lat="43.59893" lon="2.95223">
        <ele>459.64758300781</ele>
        <time>2012-05-07T10:02:13Z</time>
      </trkpt>
      <trkpt lat="43.59894" lon="2.95222">
        <ele>461.57019042969</ele>
        <time>2012-05-07T10:02:22Z</time>
      </trkpt>
      <trkpt lat="43.59897" lon="2.95218">
        <ele>466.857421875</ele>
        <time>2012-05-07T10:02:48Z</time>
      </trkpt>
      <trkpt lat="43.59895" lon="2.95221">
        <ele>468.29931640625</ele>
        <time>2012-05-07T10:03:01Z</time>
      </trkpt>
      <trkpt lat="43.59895" lon="2.95224">
        <ele>466.857421875</ele>
        <time>2012-05-07T10:03:49Z</time>
      </trkpt>
      <trkpt lat="43.59895" lon="2.95228">
        <ele>452.91821289062</ele>
        <time>2012-05-07T10:04:12Z</time>
      </trkpt>
      <trkpt lat="43.59895" lon="2.95229">
        <ele>447.63098144531</ele>
        <time>2012-05-07T10:04:49Z</time>
      </trkpt>
      <trkpt lat="43.59899" lon="2.95226">
        <ele>453.87963867188</ele>
        <time>2012-05-07T10:06:26Z</time>
      </trkpt>
      <trkpt lat="43.59896" lon="2.95225">
        <ele>455.32153320312</ele>
        <time>2012-05-07T10:06:39Z</time>
      </trkpt>
      <trkpt lat="43.59895" lon="2.95219">
        <ele>465.41552734375</ele>
        <time>2012-05-07T10:07:06Z</time>
      </trkpt>
      <trkpt lat="43.59898" lon="2.95222">
        <ele>473.10607910156</ele>
        <time>2012-05-07T10:07:20Z</time>
      </trkpt>
      <trkpt lat="43.59896" lon="2.95224">
        <ele>473.10607910156</ele>
        <time>2012-05-07T10:07:35Z</time>
      </trkpt>
      <trkpt lat="43.59894" lon="2.9522">
        <ele>441.38244628906</ele>
        <time>2012-05-07T10:08:47Z</time>
      </trkpt>
      <trkpt lat="43.59895" lon="2.9522">
        <ele>450.51501464844</ele>
        <time>2012-05-07T10:09:12Z</time>
      </trkpt>
      <trkpt lat="43.59893" lon="2.95219">
        <ele>459.64758300781</ele>
        <time>2012-05-07T10:09:25Z</time>
      </trkpt>
      <trkpt lat="43.59895" lon="2.95219">
        <ele>460.12817382812</ele>
        <time>2012-05-07T10:09:36Z</time>
      </trkpt>
      <trkpt lat="43.59898" lon="2.95221">
        <ele>458.20556640625</ele>
        <time>2012-05-07T10:10:21Z</time>
      </trkpt>
      <trkpt lat="43.59896" lon="2.9522">
        <ele>457.72497558594</ele>
        <time>2012-05-07T10:10:39Z</time>
      </trkpt>
      <trkpt lat="43.59896" lon="2.95219">
        <ele>456.28295898438</ele>
        <time>2012-05-07T10:10:52Z</time>
      </trkpt>
      <trkpt lat="43.59894" lon="2.95222">
        <ele>461.57019042969</ele>
        <time>2012-05-07T10:11:13Z</time>
      </trkpt>
      <trkpt lat="43.59892" lon="2.95224">
        <ele>459.64758300781</ele>
        <time>2012-05-07T10:11:25Z</time>
      </trkpt>
      <trkpt lat="43.59891" lon="2.95222">
        <ele>457.72497558594</ele>
        <time>2012-05-07T10:11:31Z</time>
      </trkpt>
      <trkpt lat="43.59893" lon="2.95223">
        <ele>458.68615722656</ele>
        <time>2012-05-07T10:11:39Z</time>
      </trkpt>
      <trkpt lat="43.59893" lon="2.95219">
        <ele>460.12817382812</ele>
        <time>2012-05-07T10:11:45Z</time>
      </trkpt>
      <trkpt lat="43.59892" lon="2.95215">
        <ele>460.12817382812</ele>
        <time>2012-05-07T10:11:50Z</time>
      </trkpt>
      <trkpt lat="43.59888" lon="2.95212">
        <ele>459.16687011719</ele>
        <time>2012-05-07T10:11:54Z</time>
      </trkpt>
      <trkpt lat="43.59885" lon="2.95208">
        <ele>457.24426269531</ele>
        <time>2012-05-07T10:11:57Z</time>
      </trkpt>
      <trkpt lat="43.59883" lon="2.95196">
        <ele>454.8408203125</ele>
        <time>2012-05-07T10:12:03Z</time>
      </trkpt>
      <trkpt lat="43.5988" lon="2.95189">
        <ele>454.8408203125</ele>
        <time>2012-05-07T10:12:08Z</time>
      </trkpt>
      <trkpt lat="43.59879" lon="2.95184">
        <ele>455.32153320312</ele>
        <time>2012-05-07T10:12:11Z</time>
      </trkpt>
      <trkpt lat="43.59878" lon="2.95173">
        <ele>457.24426269531</ele>
        <time>2012-05-07T10:12:18Z</time>
      </trkpt>
      <trkpt lat="43.59876" lon="2.95165">
        <ele>459.64758300781</ele>
        <time>2012-05-07T10:12:24Z</time>
      </trkpt>
      <trkpt lat="43.59871" lon="2.95159">
        <ele>460.60876464844</ele>
        <time>2012-05-07T10:12:31Z</time>
      </trkpt>
      <trkpt lat="43.59869" lon="2.95154">
        <ele>460.60876464844</ele>
        <time>2012-05-07T10:12:35Z</time>
      </trkpt>
      <trkpt lat="43.59868" lon="2.95144">
        <ele>463.01208496094</ele>
        <time>2012-05-07T10:12:42Z</time>
      </trkpt>
      <trkpt lat="43.59869" lon="2.95143">
        <ele>463.01208496094</ele>
        <time>2012-05-07T10:12:43Z</time>
      </trkpt>
      <trkpt lat="43.59874" lon="2.95134">
        <ele>463.49279785156</ele>
        <time>2012-05-07T10:12:50Z</time>
      </trkpt>
      <trkpt lat="43.59874" lon="2.95127">
        <ele>461.08947753906</ele>
        <time>2012-05-07T10:12:56Z</time>
      </trkpt>
      <trkpt lat="43.59874" lon="2.95119">
        <ele>460.60876464844</ele>
        <time>2012-05-07T10:13:00Z</time>
      </trkpt>
      <trkpt lat="43.59875" lon="2.95116">
        <ele>460.12817382812</ele>
        <time>2012-05-07T10:13:02Z</time>
      </trkpt>
      <trkpt lat="43.59877" lon="2.95113">
        <ele>460.12817382812</ele>
        <time>2012-05-07T10:13:05Z</time>
      </trkpt>
      <trkpt lat="43.59878" lon="2.95112">
        <ele>459.16687011719</ele>
        <time>2012-05-07T10:13:07Z</time>
      </trkpt>
      <trkpt lat="43.5988" lon="2.9511">
        <ele>458.20556640625</ele>
        <time>2012-05-07T10:13:09Z</time>
      </trkpt>
      <trkpt lat="43.59882" lon="2.9511">
        <ele>456.76354980469</ele>
        <time>2012-05-07T10:13:11Z</time>
      </trkpt>
      <trkpt lat="43.59888" lon="2.95106">
        <ele>455.32153320312</ele>
        <time>2012-05-07T10:13:15Z</time>
      </trkpt>
      <trkpt lat="43.59892" lon="2.95101">
        <ele>454.8408203125</ele>
        <time>2012-05-07T10:13:20Z</time>
      </trkpt>
      <trkpt lat="43.59887" lon="2.95099">
        <ele>452.91821289062</ele>
        <time>2012-05-07T10:13:25Z</time>
      </trkpt>
      <trkpt lat="43.5988" lon="2.95094">
        <ele>449.5537109375</ele>
        <time>2012-05-07T10:13:33Z</time>
      </trkpt>
      <trkpt lat="43.59885" lon="2.95093">
        <ele>447.15026855469</ele>
        <time>2012-05-07T10:13:38Z</time>
      </trkpt>
      <trkpt lat="43.59888" lon="2.95089">
        <ele>443.78576660156</ele>
        <time>2012-05-07T10:13:43Z</time>
      </trkpt>
      <trkpt lat="43.59886" lon="2.95088">
        <ele>440.42126464844</ele>
        <time>2012-05-07T10:13:47Z</time>
      </trkpt>
      <trkpt lat="43.59885" lon="2.95085">
        <ele>437.537109375</ele>
        <time>2012-05-07T10:13:53Z</time>
      </trkpt>
      <trkpt lat="43.59889" lon="2.9508">
        <ele>435.13391113281</ele>
        <time>2012-05-07T10:14:03Z</time>
      </trkpt>
      <trkpt lat="43.59888" lon="2.95079">
        <ele>435.13391113281</ele>
        <time>2012-05-07T10:14:04Z</time>
      </trkpt>
      <trkpt lat="43.59882" lon="2.9507">
        <ele>435.13391113281</ele>
        <time>2012-05-07T10:14:08Z</time>
      </trkpt>
      <trkpt lat="43.59882" lon="2.95067">
        <ele>434.6533203125</ele>
        <time>2012-05-07T10:14:10Z</time>
      </trkpt>
      <trkpt lat="43.59881" lon="2.95062">
        <ele>435.13391113281</ele>
        <time>2012-05-07T10:14:13Z</time>
      </trkpt>
      <trkpt lat="43.59883" lon="2.95052">
        <ele>438.97912597656</ele>
        <time>2012-05-07T10:14:19Z</time>
      </trkpt>
      <trkpt lat="43.59887" lon="2.95048">
        <ele>440.42126464844</ele>
        <time>2012-05-07T10:14:21Z</time>
      </trkpt>
      <trkpt lat="43.5989" lon="2.95046">
        <ele>441.38244628906</ele>
        <time>2012-05-07T10:14:24Z</time>
      </trkpt>
      <trkpt lat="43.59885" lon="2.95047">
        <ele>444.26647949219</ele>
        <time>2012-05-07T10:14:29Z</time>
      </trkpt>
      <trkpt lat="43.59883" lon="2.95047">
        <ele>450.51501464844</ele>
        <time>2012-05-07T10:14:32Z</time>
      </trkpt>
      <trkpt lat="43.59878" lon="2.95048">
        <ele>459.16687011719</ele>
        <time>2012-05-07T10:14:38Z</time>
      </trkpt>
      <trkpt lat="43.59875" lon="2.9505">
        <ele>463.01208496094</ele>
        <time>2012-05-07T10:14:43Z</time>
      </trkpt>
      <trkpt lat="43.59871" lon="2.95051">
        <ele>467.33813476562</ele>
        <time>2012-05-07T10:14:52Z</time>
      </trkpt>
      <trkpt lat="43.59867" lon="2.95051">
        <ele>467.81872558594</ele>
        <time>2012-05-07T10:14:57Z</time>
      </trkpt>
      <trkpt lat="43.5986" lon="2.95047">
        <ele>461.08947753906</ele>
        <time>2012-05-07T10:15:02Z</time>
      </trkpt>
      <trkpt lat="43.59859" lon="2.95046">
        <ele>461.08947753906</ele>
        <time>2012-05-07T10:15:03Z</time>
      </trkpt>
      <trkpt lat="43.59856" lon="2.95046">
        <ele>462.53137207031</ele>
        <time>2012-05-07T10:15:07Z</time>
      </trkpt>
      <trkpt lat="43.59848" lon="2.9504">
        <ele>456.28295898438</ele>
        <time>2012-05-07T10:15:13Z</time>
      </trkpt>
      <trkpt lat="43.59842" lon="2.95037">
        <ele>456.28295898438</ele>
        <time>2012-05-07T10:15:18Z</time>
      </trkpt>
      <trkpt lat="43.59834" lon="2.9503">
        <ele>455.32153320312</ele>
        <time>2012-05-07T10:15:24Z</time>
      </trkpt>
      <trkpt lat="43.59827" lon="2.95025">
        <ele>454.36022949219</ele>
        <time>2012-05-07T10:15:29Z</time>
      </trkpt>
      <trkpt lat="43.59825" lon="2.95023">
        <ele>453.87963867188</ele>
        <time>2012-05-07T10:15:31Z</time>
      </trkpt>
      <trkpt lat="43.59821" lon="2.95016">
        <ele>453.39892578125</ele>
        <time>2012-05-07T10:15:37Z</time>
      </trkpt>
      <trkpt lat="43.59821" lon="2.95015">
        <ele>452.91821289062</ele>
        <time>2012-05-07T10:15:38Z</time>
      </trkpt>
      <trkpt lat="43.59814" lon="2.9501">
        <ele>453.39892578125</ele>
        <time>2012-05-07T10:15:44Z</time>
      </trkpt>
      <trkpt lat="43.59813" lon="2.95008">
        <ele>454.36022949219</ele>
        <time>2012-05-07T10:15:46Z</time>
      </trkpt>
      <trkpt lat="43.5981" lon="2.95001">
        <ele>455.80224609375</ele>
        <time>2012-05-07T10:15:51Z</time>
      </trkpt>
      <trkpt lat="43.59809" lon="2.95">
        <ele>455.80224609375</ele>
        <time>2012-05-07T10:15:52Z</time>
      </trkpt>
      <trkpt lat="43.59807" lon="2.94992">
        <ele>457.72497558594</ele>
        <time>2012-05-07T10:15:57Z</time>
      </trkpt>
      <trkpt lat="43.598" lon="2.94983">
        <ele>460.12817382812</ele>
        <time>2012-05-07T10:16:05Z</time>
      </trkpt>
      <trkpt lat="43.59795" lon="2.94975">
        <ele>460.12817382812</ele>
        <time>2012-05-07T10:16:11Z</time>
      </trkpt>
      <trkpt lat="43.59793" lon="2.94967">
        <ele>461.08947753906</ele>
        <time>2012-05-07T10:16:17Z</time>
      </trkpt>
      <trkpt lat="43.59791" lon="2.9496">
        <ele>463.49279785156</ele>
        <time>2012-05-07T10:16:21Z</time>
      </trkpt>
      <trkpt lat="43.59788" lon="2.94956">
        <ele>463.97338867188</ele>
        <time>2012-05-07T10:16:25Z</time>
      </trkpt>
      <trkpt lat="43.59787" lon="2.94953">
        <ele>463.97338867188</ele>
        <time>2012-05-07T10:16:27Z</time>
      </trkpt>
      <trkpt lat="43.59782" lon="2.94946">
        <ele>464.4541015625</ele>
        <time>2012-05-07T10:16:33Z</time>
      </trkpt>
      <trkpt lat="43.59777" lon="2.94941">
        <ele>463.97338867188</ele>
        <time>2012-05-07T10:16:40Z</time>
      </trkpt>
      <trkpt lat="43.59774" lon="2.94937">
        <ele>463.97338867188</ele>
        <time>2012-05-07T10:16:43Z</time>
      </trkpt>
      <trkpt lat="43.59769" lon="2.94929">
        <ele>466.857421875</ele>
        <time>2012-05-07T10:16:48Z</time>
      </trkpt>
      <trkpt lat="43.59768" lon="2.94926">
        <ele>467.81872558594</ele>
        <time>2012-05-07T10:16:50Z</time>
      </trkpt>
      <trkpt lat="43.59764" lon="2.94922">
        <ele>467.81872558594</ele>
        <time>2012-05-07T10:16:54Z</time>
      </trkpt>
      <trkpt lat="43.59761" lon="2.94918">
        <ele>466.857421875</ele>
        <time>2012-05-07T10:16:58Z</time>
      </trkpt>
      <trkpt lat="43.59759" lon="2.94916">
        <ele>466.37670898438</ele>
        <time>2012-05-07T10:17:00Z</time>
      </trkpt>
      <trkpt lat="43.59755" lon="2.9491">
        <ele>467.81872558594</ele>
        <time>2012-05-07T10:17:06Z</time>
      </trkpt>
      <trkpt lat="43.59751" lon="2.94904">
        <ele>468.78002929688</ele>
        <time>2012-05-07T10:17:12Z</time>
      </trkpt>
      <trkpt lat="43.59748" lon="2.949">
        <ele>470.22192382812</ele>
        <time>2012-05-07T10:17:17Z</time>
      </trkpt>
      <trkpt lat="43.59746" lon="2.94895">
        <ele>470.70263671875</ele>
        <time>2012-05-07T10:17:22Z</time>
      </trkpt>
      <trkpt lat="43.59743" lon="2.94888">
        <ele>472.14465332031</ele>
        <time>2012-05-07T10:17:28Z</time>
      </trkpt>
      <trkpt lat="43.59741" lon="2.9488">
        <ele>475.02868652344</ele>
        <time>2012-05-07T10:17:34Z</time>
      </trkpt>
      <trkpt lat="43.59738" lon="2.94874">
        <ele>477.43188476562</ele>
        <time>2012-05-07T10:17:40Z</time>
      </trkpt>
      <trkpt lat="43.59737" lon="2.9487">
        <ele>479.3544921875</ele>
        <time>2012-05-07T10:17:43Z</time>
      </trkpt>
      <trkpt lat="43.59735" lon="2.94862">
        <ele>482.23852539062</ele>
        <time>2012-05-07T10:17:50Z</time>
      </trkpt>
      <trkpt lat="43.59735" lon="2.94861">
        <ele>482.23852539062</ele>
        <time>2012-05-07T10:17:51Z</time>
      </trkpt>
      <trkpt lat="43.59732" lon="2.94853">
        <ele>484.64184570312</ele>
        <time>2012-05-07T10:17:58Z</time>
      </trkpt>
      <trkpt lat="43.59731" lon="2.94847">
        <ele>485.60302734375</ele>
        <time>2012-05-07T10:18:03Z</time>
      </trkpt>
      <trkpt lat="43.59729" lon="2.94842">
        <ele>487.52563476562</ele>
        <time>2012-05-07T10:18:08Z</time>
      </trkpt>
      <trkpt lat="43.59727" lon="2.94837">
        <ele>488.00646972656</ele>
        <time>2012-05-07T10:18:11Z</time>
      </trkpt>
      <trkpt lat="43.59723" lon="2.94829">
        <ele>490.89038085938</ele>
        <time>2012-05-07T10:18:17Z</time>
      </trkpt>
      <trkpt lat="43.59721" lon="2.94826">
        <ele>491.85168457031</ele>
        <time>2012-05-07T10:18:20Z</time>
      </trkpt>
      <trkpt lat="43.59719" lon="2.94825">
        <ele>492.33239746094</ele>
        <time>2012-05-07T10:18:22Z</time>
      </trkpt>
      <trkpt lat="43.59719" lon="2.94823">
        <ele>492.81298828125</ele>
        <time>2012-05-07T10:18:24Z</time>
      </trkpt>
      <trkpt lat="43.59717" lon="2.9482">
        <ele>494.25500488281</ele>
        <time>2012-05-07T10:18:26Z</time>
      </trkpt>
      <trkpt lat="43.59713" lon="2.94815">
        <ele>493.77429199219</ele>
        <time>2012-05-07T10:18:32Z</time>
      </trkpt>
      <trkpt lat="43.59713" lon="2.94814">
        <ele>494.25500488281</ele>
        <time>2012-05-07T10:18:33Z</time>
      </trkpt>
      <trkpt lat="43.59711" lon="2.9481">
        <ele>496.177734375</ele>
        <time>2012-05-07T10:18:37Z</time>
      </trkpt>
      <trkpt lat="43.59709" lon="2.94803">
        <ele>497.61962890625</ele>
        <time>2012-05-07T10:18:42Z</time>
      </trkpt>
      <trkpt lat="43.59708" lon="2.94797">
        <ele>500.50354003906</ele>
        <time>2012-05-07T10:18:48Z</time>
      </trkpt>
      <trkpt lat="43.59707" lon="2.94791">
        <ele>502.90673828125</ele>
        <time>2012-05-07T10:18:52Z</time>
      </trkpt>
      <trkpt lat="43.59708" lon="2.94785">
        <ele>504.34887695312</ele>
        <time>2012-05-07T10:18:57Z</time>
      </trkpt>
      <trkpt lat="43.5971" lon="2.94779">
        <ele>504.82946777344</ele>
        <time>2012-05-07T10:19:03Z</time>
      </trkpt>
      <trkpt lat="43.59708" lon="2.94774">
        <ele>503.8681640625</ele>
        <time>2012-05-07T10:19:09Z</time>
      </trkpt>
      <trkpt lat="43.59707" lon="2.9477">
        <ele>505.79089355469</ele>
        <time>2012-05-07T10:19:14Z</time>
      </trkpt>
      <trkpt lat="43.59708" lon="2.94763">
        <ele>505.79089355469</ele>
        <time>2012-05-07T10:19:19Z</time>
      </trkpt>
      <trkpt lat="43.59706" lon="2.94759">
        <ele>506.75207519531</ele>
        <time>2012-05-07T10:19:23Z</time>
      </trkpt>
      <trkpt lat="43.59705" lon="2.94756">
        <ele>506.75207519531</ele>
        <time>2012-05-07T10:19:25Z</time>
      </trkpt>
      <trkpt lat="43.59704" lon="2.94749">
        <ele>507.23278808594</ele>
        <time>2012-05-07T10:19:31Z</time>
      </trkpt>
      <trkpt lat="43.59704" lon="2.94742">
        <ele>508.19409179688</ele>
        <time>2012-05-07T10:19:37Z</time>
      </trkpt>
      <trkpt lat="43.59705" lon="2.94735">
        <ele>515.40405273438</ele>
        <time>2012-05-07T10:19:41Z</time>
      </trkpt>
      <trkpt lat="43.59707" lon="2.94728">
        <ele>516.84594726562</ele>
        <time>2012-05-07T10:19:48Z</time>
      </trkpt>
      <trkpt lat="43.59705" lon="2.94716">
        <ele>522.13317871094</ele>
        <time>2012-05-07T10:19:57Z</time>
      </trkpt>
      <trkpt lat="43.59705" lon="2.94707">
        <ele>529.34313964844</ele>
        <time>2012-05-07T10:20:02Z</time>
      </trkpt>
      <trkpt lat="43.59704" lon="2.94699">
        <ele>530.78515625</ele>
        <time>2012-05-07T10:20:08Z</time>
      </trkpt>
      <trkpt lat="43.59702" lon="2.94694">
        <ele>531.74633789062</ele>
        <time>2012-05-07T10:20:13Z</time>
      </trkpt>
      <trkpt lat="43.59696" lon="2.94693">
        <ele>535.59155273438</ele>
        <time>2012-05-07T10:20:21Z</time>
      </trkpt>
      <trkpt lat="43.59693" lon="2.94691">
        <ele>537.51428222656</ele>
        <time>2012-05-07T10:20:26Z</time>
      </trkpt>
      <trkpt lat="43.59688" lon="2.94691">
        <ele>543.28210449219</ele>
        <time>2012-05-07T10:20:33Z</time>
      </trkpt>
      <trkpt lat="43.59689" lon="2.94685">
        <ele>544.72424316406</ele>
        <time>2012-05-07T10:20:39Z</time>
      </trkpt>
      <trkpt lat="43.5969" lon="2.94678">
        <ele>546.64685058594</ele>
        <time>2012-05-07T10:20:47Z</time>
      </trkpt>
      <trkpt lat="43.59688" lon="2.94674">
        <ele>541.35949707031</ele>
        <time>2012-05-07T10:20:52Z</time>
      </trkpt>
      <trkpt lat="43.59689" lon="2.94674">
        <ele>540.39831542969</ele>
        <time>2012-05-07T10:20:53Z</time>
      </trkpt>
      <trkpt lat="43.59684" lon="2.94672">
        <ele>537.99499511719</ele>
        <time>2012-05-07T10:20:59Z</time>
      </trkpt>
      <trkpt lat="43.5968" lon="2.94673">
        <ele>537.51428222656</ele>
        <time>2012-05-07T10:21:04Z</time>
      </trkpt>
      <trkpt lat="43.59683" lon="2.94665">
        <ele>537.03369140625</ele>
        <time>2012-05-07T10:21:11Z</time>
      </trkpt>
      <trkpt lat="43.5969" lon="2.9466">
        <ele>535.11096191406</ele>
        <time>2012-05-07T10:21:17Z</time>
      </trkpt>
      <trkpt lat="43.59694" lon="2.94658">
        <ele>535.11096191406</ele>
        <time>2012-05-07T10:21:21Z</time>
      </trkpt>
      <trkpt lat="43.59694" lon="2.94655">
        <ele>534.63037109375</ele>
        <time>2012-05-07T10:21:27Z</time>
      </trkpt>
      <trkpt lat="43.59691" lon="2.9465">
        <ele>537.51428222656</ele>
        <time>2012-05-07T10:21:34Z</time>
      </trkpt>
      <trkpt lat="43.59694" lon="2.94647">
        <ele>539.91760253906</ele>
        <time>2012-05-07T10:21:39Z</time>
      </trkpt>
      <trkpt lat="43.59691" lon="2.94646">
        <ele>544.24365234375</ele>
        <time>2012-05-07T10:21:48Z</time>
      </trkpt>
      <trkpt lat="43.59694" lon="2.94644">
        <ele>545.20483398438</ele>
        <time>2012-05-07T10:21:53Z</time>
      </trkpt>
      <trkpt lat="43.59693" lon="2.94643">
        <ele>549.05004882812</ele>
        <time>2012-05-07T10:21:59Z</time>
      </trkpt>
      <trkpt lat="43.59689" lon="2.94643">
        <ele>550.01147460938</ele>
        <time>2012-05-07T10:22:03Z</time>
      </trkpt>
      <trkpt lat="43.59687" lon="2.94644">
        <ele>551.45336914062</ele>
        <time>2012-05-07T10:22:05Z</time>
      </trkpt>
      <trkpt lat="43.59685" lon="2.94645">
        <ele>553.3759765625</ele>
        <time>2012-05-07T10:22:07Z</time>
      </trkpt>
      <trkpt lat="43.59681" lon="2.94646">
        <ele>555.779296875</ele>
        <time>2012-05-07T10:22:11Z</time>
      </trkpt>
      <trkpt lat="43.59677" lon="2.94646">
        <ele>560.5859375</ele>
        <time>2012-05-07T10:22:18Z</time>
      </trkpt>
      <trkpt lat="43.59673" lon="2.94639">
        <ele>559.14404296875</ele>
        <time>2012-05-07T10:22:23Z</time>
      </trkpt>
      <trkpt lat="43.59667" lon="2.94638">
        <ele>560.10522460938</ele>
        <time>2012-05-07T10:22:30Z</time>
      </trkpt>
      <trkpt lat="43.59665" lon="2.94637">
        <ele>562.50854492188</ele>
        <time>2012-05-07T10:22:34Z</time>
      </trkpt>
      <trkpt lat="43.59661" lon="2.94638">
        <ele>564.43115234375</ele>
        <time>2012-05-07T10:22:40Z</time>
      </trkpt>
      <trkpt lat="43.59657" lon="2.94636">
        <ele>564.91186523438</ele>
        <time>2012-05-07T10:22:46Z</time>
      </trkpt>
      <trkpt lat="43.59659" lon="2.94628">
        <ele>567.31518554688</ele>
        <time>2012-05-07T10:22:53Z</time>
      </trkpt>
      <trkpt lat="43.59655" lon="2.94631">
        <ele>568.2763671875</ele>
        <time>2012-05-07T10:22:59Z</time>
      </trkpt>
      <trkpt lat="43.59653" lon="2.94631">
        <ele>567.79565429688</ele>
        <time>2012-05-07T10:23:04Z</time>
      </trkpt>
      <trkpt lat="43.59649" lon="2.94627">
        <ele>574.04443359375</ele>
        <time>2012-05-07T10:23:18Z</time>
      </trkpt>
      <trkpt lat="43.59647" lon="2.94624">
        <ele>578.37036132812</ele>
        <time>2012-05-07T10:23:26Z</time>
      </trkpt>
      <trkpt lat="43.59643" lon="2.94623">
        <ele>577.4091796875</ele>
        <time>2012-05-07T10:23:30Z</time>
      </trkpt>
      <trkpt lat="43.59641" lon="2.94619">
        <ele>575.005859375</ele>
        <time>2012-05-07T10:23:37Z</time>
      </trkpt>
      <trkpt lat="43.59642" lon="2.94611">
        <ele>572.12182617188</ele>
        <time>2012-05-07T10:23:44Z</time>
      </trkpt>
      <trkpt lat="43.59644" lon="2.946">
        <ele>574.52514648438</ele>
        <time>2012-05-07T10:24:01Z</time>
      </trkpt>
      <trkpt lat="43.59639" lon="2.94601">
        <ele>577.4091796875</ele>
        <time>2012-05-07T10:24:11Z</time>
      </trkpt>
      <trkpt lat="43.59635" lon="2.94599">
        <ele>578.85107421875</ele>
        <time>2012-05-07T10:24:28Z</time>
      </trkpt>
      <trkpt lat="43.59626" lon="2.94599">
        <ele>580.29296875</ele>
        <time>2012-05-07T10:24:37Z</time>
      </trkpt>
      <trkpt lat="43.59623" lon="2.94599">
        <ele>580.29296875</ele>
        <time>2012-05-07T10:24:41Z</time>
      </trkpt>
      <trkpt lat="43.59616" lon="2.94601">
        <ele>581.25439453125</ele>
        <time>2012-05-07T10:24:50Z</time>
      </trkpt>
      <trkpt lat="43.59613" lon="2.94604">
        <ele>582.21557617188</ele>
        <time>2012-05-07T10:24:55Z</time>
      </trkpt>
      <trkpt lat="43.5961" lon="2.94607">
        <ele>583.65747070312</ele>
        <time>2012-05-07T10:25:02Z</time>
      </trkpt>
      <trkpt lat="43.59607" lon="2.94596">
        <ele>585.580078125</ele>
        <time>2012-05-07T10:25:15Z</time>
      </trkpt>
      <trkpt lat="43.59609" lon="2.94591">
        <ele>587.9833984375</ele>
        <time>2012-05-07T10:25:20Z</time>
      </trkpt>
      <trkpt lat="43.59615" lon="2.94582">
        <ele>592.3095703125</ele>
        <time>2012-05-07T10:25:29Z</time>
      </trkpt>
      <trkpt lat="43.5962" lon="2.94578">
        <ele>596.15478515625</ele>
        <time>2012-05-07T10:25:35Z</time>
      </trkpt>
      <trkpt lat="43.59624" lon="2.94572">
        <ele>598.55786132812</ele>
        <time>2012-05-07T10:25:40Z</time>
      </trkpt>
      <trkpt lat="43.59623" lon="2.94566">
        <ele>603.36450195312</ele>
        <time>2012-05-07T10:25:46Z</time>
      </trkpt>
      <trkpt lat="43.59616" lon="2.94569">
        <ele>606.24853515625</ele>
        <time>2012-05-07T10:25:52Z</time>
      </trkpt>
      <trkpt lat="43.59615" lon="2.94567">
        <ele>607.69067382812</ele>
        <time>2012-05-07T10:25:58Z</time>
      </trkpt>
      <trkpt lat="43.59618" lon="2.94559">
        <ele>608.17138671875</ele>
        <time>2012-05-07T10:26:05Z</time>
      </trkpt>
      <trkpt lat="43.59618" lon="2.94549">
        <ele>608.17138671875</ele>
        <time>2012-05-07T10:26:14Z</time>
      </trkpt>
      <trkpt lat="43.59618" lon="2.94543">
        <ele>607.2099609375</ele>
        <time>2012-05-07T10:26:20Z</time>
      </trkpt>
      <trkpt lat="43.5962" lon="2.94527">
        <ele>607.2099609375</ele>
        <time>2012-05-07T10:26:35Z</time>
      </trkpt>
      <trkpt lat="43.59623" lon="2.94522">
        <ele>609.13256835938</ele>
        <time>2012-05-07T10:26:43Z</time>
      </trkpt>
      <trkpt lat="43.59626" lon="2.94515">
        <ele>610.57446289062</ele>
        <time>2012-05-07T10:26:50Z</time>
      </trkpt>
      <trkpt lat="43.59626" lon="2.94511">
        <ele>610.09375</ele>
        <time>2012-05-07T10:26:54Z</time>
      </trkpt>
      <trkpt lat="43.59628" lon="2.94505">
        <ele>611.05517578125</ele>
        <time>2012-05-07T10:27:00Z</time>
      </trkpt>
      <trkpt lat="43.59631" lon="2.94499">
        <ele>612.97778320312</ele>
        <time>2012-05-07T10:27:05Z</time>
      </trkpt>
      <trkpt lat="43.59634" lon="2.94495">
        <ele>613.93896484375</ele>
        <time>2012-05-07T10:27:10Z</time>
      </trkpt>
      <trkpt lat="43.59632" lon="2.9449">
        <ele>618.74560546875</ele>
        <time>2012-05-07T10:27:20Z</time>
      </trkpt>
      <trkpt lat="43.59628" lon="2.9449">
        <ele>621.62963867188</ele>
        <time>2012-05-07T10:27:25Z</time>
      </trkpt>
      <trkpt lat="43.59623" lon="2.94491">
        <ele>624.03295898438</ele>
        <time>2012-05-07T10:27:31Z</time>
      </trkpt>
      <trkpt lat="43.59616" lon="2.94494">
        <ele>625.95556640625</ele>
        <time>2012-05-07T10:27:38Z</time>
      </trkpt>
      <trkpt lat="43.59615" lon="2.94496">
        <ele>625.95556640625</ele>
        <time>2012-05-07T10:27:40Z</time>
      </trkpt>
      <trkpt lat="43.5961" lon="2.94499">
        <ele>626.43627929688</ele>
        <time>2012-05-07T10:27:46Z</time>
      </trkpt>
      <trkpt lat="43.59611" lon="2.9449">
        <ele>623.55249023438</ele>
        <time>2012-05-07T10:27:53Z</time>
      </trkpt>
      <trkpt lat="43.59613" lon="2.94473">
        <ele>624.513671875</ele>
        <time>2012-05-07T10:28:07Z</time>
      </trkpt>
      <trkpt lat="43.59612" lon="2.9447">
        <ele>627.39770507812</ele>
        <time>2012-05-07T10:28:12Z</time>
      </trkpt>
      <trkpt lat="43.59608" lon="2.94473">
        <ele>626.9169921875</ele>
        <time>2012-05-07T10:28:20Z</time>
      </trkpt>
      <trkpt lat="43.59605" lon="2.94477">
        <ele>627.87817382812</ele>
        <time>2012-05-07T10:28:26Z</time>
      </trkpt>
      <trkpt lat="43.59605" lon="2.94476">
        <ele>627.39770507812</ele>
        <time>2012-05-07T10:28:31Z</time>
      </trkpt>
      <trkpt lat="43.59604" lon="2.94471">
        <ele>627.39770507812</ele>
        <time>2012-05-07T10:28:35Z</time>
      </trkpt>
      <trkpt lat="43.59606" lon="2.94463">
        <ele>624.513671875</ele>
        <time>2012-05-07T10:28:41Z</time>
      </trkpt>
      <trkpt lat="43.59607" lon="2.94456">
        <ele>625.47485351562</ele>
        <time>2012-05-07T10:28:47Z</time>
      </trkpt>
      <trkpt lat="43.59608" lon="2.94452">
        <ele>624.513671875</ele>
        <time>2012-05-07T10:28:50Z</time>
      </trkpt>
      <trkpt lat="43.59608" lon="2.94443">
        <ele>628.35888671875</ele>
        <time>2012-05-07T10:28:57Z</time>
      </trkpt>
      <trkpt lat="43.59608" lon="2.94438">
        <ele>629.80078125</ele>
        <time>2012-05-07T10:29:02Z</time>
      </trkpt>
      <trkpt lat="43.5961" lon="2.9443">
        <ele>632.2041015625</ele>
        <time>2012-05-07T10:29:08Z</time>
      </trkpt>
      <trkpt lat="43.59611" lon="2.94423">
        <ele>635.08813476562</ele>
        <time>2012-05-07T10:29:14Z</time>
      </trkpt>
      <trkpt lat="43.59611" lon="2.94421">
        <ele>634.607421875</ele>
        <time>2012-05-07T10:29:15Z</time>
      </trkpt>
      <trkpt lat="43.59612" lon="2.94416">
        <ele>635.56860351562</ele>
        <time>2012-05-07T10:29:19Z</time>
      </trkpt>
      <trkpt lat="43.59612" lon="2.94409">
        <ele>640.37548828125</ele>
        <time>2012-05-07T10:29:24Z</time>
      </trkpt>
      <trkpt lat="43.59611" lon="2.94403">
        <ele>643.25927734375</ele>
        <time>2012-05-07T10:29:30Z</time>
      </trkpt>
      <trkpt lat="43.5961" lon="2.94398">
        <ele>644.220703125</ele>
        <time>2012-05-07T10:29:35Z</time>
      </trkpt>
      <trkpt lat="43.59608" lon="2.94393">
        <ele>643.25927734375</ele>
        <time>2012-05-07T10:29:41Z</time>
      </trkpt>
      <trkpt lat="43.59607" lon="2.94389">
        <ele>644.220703125</ele>
        <time>2012-05-07T10:29:47Z</time>
      </trkpt>
      <trkpt lat="43.59605" lon="2.94386">
        <ele>645.18188476562</ele>
        <time>2012-05-07T10:29:58Z</time>
      </trkpt>
      <trkpt lat="43.59608" lon="2.94387">
        <ele>648.06591796875</ele>
        <time>2012-05-07T10:30:06Z</time>
      </trkpt>
      <trkpt lat="43.59609" lon="2.9439">
        <ele>648.06591796875</ele>
        <time>2012-05-07T10:30:13Z</time>
      </trkpt>
      <trkpt lat="43.59608" lon="2.9439">
        <ele>644.701171875</ele>
        <time>2012-05-07T10:30:25Z</time>
      </trkpt>
      <trkpt lat="43.59608" lon="2.94389">
        <ele>643.73999023438</ele>
        <time>2012-05-07T10:30:42Z</time>
      </trkpt>
      <trkpt lat="43.59604" lon="2.94387">
        <ele>648.54638671875</ele>
        <time>2012-05-07T10:30:54Z</time>
      </trkpt>
      <trkpt lat="43.59607" lon="2.94384">
        <ele>650.94970703125</ele>
        <time>2012-05-07T10:31:03Z</time>
      </trkpt>
      <trkpt lat="43.59609" lon="2.94382">
        <ele>648.54638671875</ele>
        <time>2012-05-07T10:31:16Z</time>
      </trkpt>
      <trkpt lat="43.5961" lon="2.94375">
        <ele>647.58520507812</ele>
        <time>2012-05-07T10:31:24Z</time>
      </trkpt>
      <trkpt lat="43.59612" lon="2.94367">
        <ele>648.54638671875</ele>
        <time>2012-05-07T10:31:30Z</time>
      </trkpt>
      <trkpt lat="43.59615" lon="2.94365">
        <ele>647.58520507812</ele>
        <time>2012-05-07T10:31:32Z</time>
      </trkpt>
      <trkpt lat="43.59617" lon="2.94361">
        <ele>648.06591796875</ele>
        <time>2012-05-07T10:31:36Z</time>
      </trkpt>
      <trkpt lat="43.59623" lon="2.9436">
        <ele>646.6240234375</ele>
        <time>2012-05-07T10:31:43Z</time>
      </trkpt>
      <trkpt lat="43.59627" lon="2.94359">
        <ele>645.66259765625</ele>
        <time>2012-05-07T10:31:48Z</time>
      </trkpt>
      <trkpt lat="43.59631" lon="2.94359">
        <ele>644.701171875</ele>
        <time>2012-05-07T10:31:53Z</time>
      </trkpt>
      <trkpt lat="43.59637" lon="2.94358">
        <ele>643.25927734375</ele>
        <time>2012-05-07T10:31:58Z</time>
      </trkpt>
      <trkpt lat="43.59642" lon="2.94357">
        <ele>643.73999023438</ele>
        <time>2012-05-07T10:32:04Z</time>
      </trkpt>
      <trkpt lat="43.59643" lon="2.94357">
        <ele>643.73999023438</ele>
        <time>2012-05-07T10:32:05Z</time>
      </trkpt>
      <trkpt lat="43.59648" lon="2.94361">
        <ele>645.66259765625</ele>
        <time>2012-05-07T10:32:11Z</time>
      </trkpt>
      <trkpt lat="43.59651" lon="2.94364">
        <ele>645.66259765625</ele>
        <time>2012-05-07T10:32:15Z</time>
      </trkpt>
      <trkpt lat="43.59656" lon="2.94365">
        <ele>645.18188476562</ele>
        <time>2012-05-07T10:32:20Z</time>
      </trkpt>
      <trkpt lat="43.59661" lon="2.94366">
        <ele>646.6240234375</ele>
        <time>2012-05-07T10:32:27Z</time>
      </trkpt>
      <trkpt lat="43.59664" lon="2.94368">
        <ele>646.14331054688</ele>
        <time>2012-05-07T10:32:32Z</time>
      </trkpt>
      <trkpt lat="43.59667" lon="2.9437">
        <ele>648.54638671875</ele>
        <time>2012-05-07T10:32:37Z</time>
      </trkpt>
      <trkpt lat="43.59671" lon="2.94376">
        <ele>651.43041992188</ele>
        <time>2012-05-07T10:32:44Z</time>
      </trkpt>
      <trkpt lat="43.59676" lon="2.9438">
        <ele>651.9111328125</ele>
        <time>2012-05-07T10:32:50Z</time>
      </trkpt>
      <trkpt lat="43.59681" lon="2.94382">
        <ele>652.39184570312</ele>
        <time>2012-05-07T10:32:56Z</time>
      </trkpt>
      <trkpt lat="43.59686" lon="2.94383">
        <ele>654.79516601562</ele>
        <time>2012-05-07T10:33:02Z</time>
      </trkpt>
      <trkpt lat="43.59687" lon="2.9438">
        <ele>655.75659179688</ele>
        <time>2012-05-07T10:33:07Z</time>
      </trkpt>
      <trkpt lat="43.59686" lon="2.94376">
        <ele>656.23706054688</ele>
        <time>2012-05-07T10:33:12Z</time>
      </trkpt>
      <trkpt lat="43.59689" lon="2.94376">
        <ele>658.15991210938</ele>
        <time>2012-05-07T10:33:17Z</time>
      </trkpt>
      <trkpt lat="43.59691" lon="2.94377">
        <ele>658.15991210938</ele>
        <time>2012-05-07T10:33:21Z</time>
      </trkpt>
      <trkpt lat="43.59694" lon="2.94379">
        <ele>658.64038085938</ele>
        <time>2012-05-07T10:33:27Z</time>
      </trkpt>
      <trkpt lat="43.59695" lon="2.94377">
        <ele>660.08227539062</ele>
        <time>2012-05-07T10:33:34Z</time>
      </trkpt>
      <trkpt lat="43.59693" lon="2.94374">
        <ele>661.5244140625</ele>
        <time>2012-05-07T10:33:40Z</time>
      </trkpt>
      <trkpt lat="43.59688" lon="2.94367">
        <ele>662.48559570312</ele>
        <time>2012-05-07T10:33:48Z</time>
      </trkpt>
      <trkpt lat="43.59685" lon="2.94363">
        <ele>663.92749023438</ele>
        <time>2012-05-07T10:33:53Z</time>
      </trkpt>
      <trkpt lat="43.59682" lon="2.94353">
        <ele>665.85034179688</ele>
        <time>2012-05-07T10:34:01Z</time>
      </trkpt>
      <trkpt lat="43.59682" lon="2.94346">
        <ele>667.29223632812</ele>
        <time>2012-05-07T10:34:07Z</time>
      </trkpt>
      <trkpt lat="43.59688" lon="2.94347">
        <ele>669.21508789062</ele>
        <time>2012-05-07T10:34:14Z</time>
      </trkpt>
      <trkpt lat="43.59695" lon="2.94349">
        <ele>670.17626953125</ele>
        <time>2012-05-07T10:34:21Z</time>
      </trkpt>
      <trkpt lat="43.597" lon="2.94349">
        <ele>671.1376953125</ele>
        <time>2012-05-07T10:34:27Z</time>
      </trkpt>
      <trkpt lat="43.59705" lon="2.94349">
        <ele>672.09887695312</ele>
        <time>2012-05-07T10:34:33Z</time>
      </trkpt>
      <trkpt lat="43.5971" lon="2.94349">
        <ele>673.541015625</ele>
        <time>2012-05-07T10:34:40Z</time>
      </trkpt>
      <trkpt lat="43.59715" lon="2.94346">
        <ele>674.50219726562</ele>
        <time>2012-05-07T10:34:46Z</time>
      </trkpt>
      <trkpt lat="43.5972" lon="2.94344">
        <ele>675.46337890625</ele>
        <time>2012-05-07T10:34:52Z</time>
      </trkpt>
      <trkpt lat="43.59726" lon="2.94342">
        <ele>675.46337890625</ele>
        <time>2012-05-07T10:34:58Z</time>
      </trkpt>
      <trkpt lat="43.59731" lon="2.94341">
        <ele>675.46337890625</ele>
        <time>2012-05-07T10:35:03Z</time>
      </trkpt>
      <trkpt lat="43.59732" lon="2.94341">
        <ele>675.46337890625</ele>
        <time>2012-05-07T10:35:04Z</time>
      </trkpt>
      <trkpt lat="43.5974" lon="2.94336">
        <ele>676.4248046875</ele>
        <time>2012-05-07T10:35:13Z</time>
      </trkpt>
      <trkpt lat="43.59745" lon="2.94333">
        <ele>675.94409179688</ele>
        <time>2012-05-07T10:35:20Z</time>
      </trkpt>
      <trkpt lat="43.59748" lon="2.94331">
        <ele>675.94409179688</ele>
        <time>2012-05-07T10:35:24Z</time>
      </trkpt>
      <trkpt lat="43.59752" lon="2.94329">
        <ele>677.86669921875</ele>
        <time>2012-05-07T10:35:29Z</time>
      </trkpt>
      <trkpt lat="43.59758" lon="2.94325">
        <ele>678.828125</ele>
        <time>2012-05-07T10:35:35Z</time>
      </trkpt>
      <trkpt lat="43.59758" lon="2.94323">
        <ele>678.828125</ele>
        <time>2012-05-07T10:35:36Z</time>
      </trkpt>
      <trkpt lat="43.59761" lon="2.94319">
        <ele>680.75073242188</ele>
        <time>2012-05-07T10:35:41Z</time>
      </trkpt>
      <trkpt lat="43.59768" lon="2.9432">
        <ele>681.2314453125</ele>
        <time>2012-05-07T10:35:47Z</time>
      </trkpt>
      <trkpt lat="43.59767" lon="2.94326">
        <ele>681.2314453125</ele>
        <time>2012-05-07T10:35:52Z</time>
      </trkpt>
      <trkpt lat="43.59769" lon="2.94328">
        <ele>681.7119140625</ele>
        <time>2012-05-07T10:35:55Z</time>
      </trkpt>
      <trkpt lat="43.5977" lon="2.94332">
        <ele>682.67333984375</ele>
        <time>2012-05-07T10:35:59Z</time>
      </trkpt>
      <trkpt lat="43.59771" lon="2.94341">
        <ele>685.07690429688</ele>
        <time>2012-05-07T10:36:07Z</time>
      </trkpt>
      <trkpt lat="43.59772" lon="2.9435">
        <ele>686.99926757812</ele>
        <time>2012-05-07T10:36:14Z</time>
      </trkpt>
      <trkpt lat="43.59776" lon="2.94355">
        <ele>688.44140625</ele>
        <time>2012-05-07T10:36:21Z</time>
      </trkpt>
      <trkpt lat="43.5978" lon="2.94355">
        <ele>690.36401367188</ele>
        <time>2012-05-07T10:36:26Z</time>
      </trkpt>
      <trkpt lat="43.59784" lon="2.94355">
        <ele>691.80590820312</ele>
        <time>2012-05-07T10:36:32Z</time>
      </trkpt>
      <trkpt lat="43.59789" lon="2.94357">
        <ele>693.24780273438</ele>
        <time>2012-05-07T10:36:38Z</time>
      </trkpt>
      <trkpt lat="43.59796" lon="2.94358">
        <ele>696.1318359375</ele>
        <time>2012-05-07T10:36:46Z</time>
      </trkpt>
      <trkpt lat="43.59801" lon="2.9436">
        <ele>697.09301757812</ele>
        <time>2012-05-07T10:36:51Z</time>
      </trkpt>
      <trkpt lat="43.59804" lon="2.94355">
        <ele>698.05444335938</ele>
        <time>2012-05-07T10:36:58Z</time>
      </trkpt>
      <trkpt lat="43.598" lon="2.94351">
        <ele>699.015625</ele>
        <time>2012-05-07T10:37:04Z</time>
      </trkpt>
      <trkpt lat="43.598" lon="2.94344">
        <ele>699.49633789062</ele>
        <time>2012-05-07T10:37:10Z</time>
      </trkpt>
      <trkpt lat="43.59801" lon="2.94341">
        <ele>699.49633789062</ele>
        <time>2012-05-07T10:37:16Z</time>
      </trkpt>
      <trkpt lat="43.59801" lon="2.94346">
        <ele>698.53491210938</ele>
        <time>2012-05-07T10:37:22Z</time>
      </trkpt>
      <trkpt lat="43.598" lon="2.94348">
        <ele>698.53491210938</ele>
        <time>2012-05-07T10:37:27Z</time>
      </trkpt>
      <trkpt lat="43.598" lon="2.94349">
        <ele>697.57373046875</ele>
        <time>2012-05-07T10:37:33Z</time>
      </trkpt>
      <trkpt lat="43.598" lon="2.94349">
        <ele>697.09301757812</ele>
        <time>2012-05-07T10:37:44Z</time>
      </trkpt>
      <trkpt lat="43.598" lon="2.94348">
        <ele>698.05444335938</ele>
        <time>2012-05-07T10:37:56Z</time>
      </trkpt>
      <trkpt lat="43.598" lon="2.94344">
        <ele>697.57373046875</ele>
        <time>2012-05-07T10:38:03Z</time>
      </trkpt>
      <trkpt lat="43.59801" lon="2.94342">
        <ele>696.1318359375</ele>
        <time>2012-05-07T10:38:16Z</time>
      </trkpt>
      <trkpt lat="43.59803" lon="2.94337">
        <ele>696.61254882812</ele>
        <time>2012-05-07T10:38:22Z</time>
      </trkpt>
      <trkpt lat="43.59805" lon="2.94332">
        <ele>698.05444335938</ele>
        <time>2012-05-07T10:38:28Z</time>
      </trkpt>
      <trkpt lat="43.59808" lon="2.94337">
        <ele>700.4580078125</ele>
        <time>2012-05-07T10:38:34Z</time>
      </trkpt>
      <trkpt lat="43.59811" lon="2.94339">
        <ele>701.89990234375</ele>
        <time>2012-05-07T10:38:40Z</time>
      </trkpt>
      <trkpt lat="43.59812" lon="2.94333">
        <ele>702.86108398438</ele>
        <time>2012-05-07T10:38:46Z</time>
      </trkpt>
      <trkpt lat="43.59811" lon="2.94325">
        <ele>703.82250976562</ele>
        <time>2012-05-07T10:38:53Z</time>
      </trkpt>
      <trkpt lat="43.5981" lon="2.94317">
        <ele>704.30322265625</ele>
        <time>2012-05-07T10:39:00Z</time>
      </trkpt>
      <trkpt lat="43.59811" lon="2.94311">
        <ele>704.30322265625</ele>
        <time>2012-05-07T10:39:06Z</time>
      </trkpt>
      <trkpt lat="43.59808" lon="2.94307">
        <ele>704.78369140625</ele>
        <time>2012-05-07T10:39:12Z</time>
      </trkpt>
      <trkpt lat="43.59806" lon="2.94304">
        <ele>706.70629882812</ele>
        <time>2012-05-07T10:39:20Z</time>
      </trkpt>
      <trkpt lat="43.59804" lon="2.94303">
        <ele>711.51293945312</ele>
        <time>2012-05-07T10:39:31Z</time>
      </trkpt>
      <trkpt lat="43.59806" lon="2.94302">
        <ele>710.07080078125</ele>
        <time>2012-05-07T10:39:43Z</time>
      </trkpt>
      <trkpt lat="43.59805" lon="2.94302">
        <ele>710.55151367188</ele>
        <time>2012-05-07T10:39:54Z</time>
      </trkpt>
      <trkpt lat="43.59806" lon="2.94301">
        <ele>709.59033203125</ele>
        <time>2012-05-07T10:40:04Z</time>
      </trkpt>
      <trkpt lat="43.59809" lon="2.94298">
        <ele>709.10961914062</ele>
        <time>2012-05-07T10:40:09Z</time>
      </trkpt>
      <trkpt lat="43.59811" lon="2.94298">
        <ele>706.70629882812</ele>
        <time>2012-05-07T10:40:15Z</time>
      </trkpt>
      <trkpt lat="43.59811" lon="2.94297">
        <ele>708.1484375</ele>
        <time>2012-05-07T10:40:22Z</time>
      </trkpt>
      <trkpt lat="43.5981" lon="2.94295">
        <ele>709.10961914062</ele>
        <time>2012-05-07T10:40:33Z</time>
      </trkpt>
      <trkpt lat="43.59814" lon="2.94287">
        <ele>709.59033203125</ele>
        <time>2012-05-07T10:40:40Z</time>
      </trkpt>
      <trkpt lat="43.59818" lon="2.94279">
        <ele>708.62890625</ele>
        <time>2012-05-07T10:40:47Z</time>
      </trkpt>
      <trkpt lat="43.59822" lon="2.94272">
        <ele>708.62890625</ele>
        <time>2012-05-07T10:40:54Z</time>
      </trkpt>
      <trkpt lat="43.59825" lon="2.94268">
        <ele>710.07080078125</ele>
        <time>2012-05-07T10:41:01Z</time>
      </trkpt>
      <trkpt lat="43.59828" lon="2.94264">
        <ele>711.51293945312</ele>
        <time>2012-05-07T10:41:06Z</time>
      </trkpt>
      <trkpt lat="43.5983" lon="2.94256">
        <ele>712.47412109375</ele>
        <time>2012-05-07T10:41:13Z</time>
      </trkpt>
      <trkpt lat="43.59832" lon="2.9425">
        <ele>713.435546875</ele>
        <time>2012-05-07T10:41:19Z</time>
      </trkpt>
      <trkpt lat="43.59834" lon="2.94246">
        <ele>715.8388671875</ele>
        <time>2012-05-07T10:41:25Z</time>
      </trkpt>
      <trkpt lat="43.59838" lon="2.94253">
        <ele>716.80029296875</ele>
        <time>2012-05-07T10:41:31Z</time>
      </trkpt>
      <trkpt lat="43.5984" lon="2.94259">
        <ele>718.2421875</ele>
        <time>2012-05-07T10:41:37Z</time>
      </trkpt>
      <trkpt lat="43.59843" lon="2.94268">
        <ele>719.20361328125</ele>
        <time>2012-05-07T10:41:45Z</time>
      </trkpt>
      <trkpt lat="43.59845" lon="2.94276">
        <ele>720.6455078125</ele>
        <time>2012-05-07T10:41:53Z</time>
      </trkpt>
      <trkpt lat="43.59847" lon="2.94285">
        <ele>721.12622070312</ele>
        <time>2012-05-07T10:42:02Z</time>
      </trkpt>
      <trkpt lat="43.59849" lon="2.94292">
        <ele>723.048828125</ele>
        <time>2012-05-07T10:42:08Z</time>
      </trkpt>
      <trkpt lat="43.59852" lon="2.94296">
        <ele>724.97143554688</ele>
        <time>2012-05-07T10:42:14Z</time>
      </trkpt>
      <trkpt lat="43.59856" lon="2.94292">
        <ele>726.89404296875</ele>
        <time>2012-05-07T10:42:20Z</time>
      </trkpt>
      <trkpt lat="43.59856" lon="2.94287">
        <ele>727.37475585938</ele>
        <time>2012-05-07T10:42:26Z</time>
      </trkpt>
      <trkpt lat="43.59856" lon="2.94279">
        <ele>727.37475585938</ele>
        <time>2012-05-07T10:42:32Z</time>
      </trkpt>
      <trkpt lat="43.59859" lon="2.94273">
        <ele>727.85522460938</ele>
        <time>2012-05-07T10:42:38Z</time>
      </trkpt>
      <trkpt lat="43.59863" lon="2.94266">
        <ele>726.89404296875</ele>
        <time>2012-05-07T10:42:46Z</time>
      </trkpt>
      <trkpt lat="43.59866" lon="2.94257">
        <ele>725.9326171875</ele>
        <time>2012-05-07T10:42:53Z</time>
      </trkpt>
      <trkpt lat="43.59868" lon="2.94252">
        <ele>725.9326171875</ele>
        <time>2012-05-07T10:42:57Z</time>
      </trkpt>
      <trkpt lat="43.59871" lon="2.94243">
        <ele>727.37475585938</ele>
        <time>2012-05-07T10:43:04Z</time>
      </trkpt>
      <trkpt lat="43.5987" lon="2.94234">
        <ele>731.21997070312</ele>
        <time>2012-05-07T10:43:09Z</time>
      </trkpt>
      <trkpt lat="43.59871" lon="2.94228">
        <ele>732.662109375</ele>
        <time>2012-05-07T10:43:13Z</time>
      </trkpt>
      <trkpt lat="43.59874" lon="2.94225">
        <ele>734.10400390625</ele>
        <time>2012-05-07T10:43:17Z</time>
      </trkpt>
      <trkpt lat="43.59879" lon="2.94218">
        <ele>737.46850585938</ele>
        <time>2012-05-07T10:43:26Z</time>
      </trkpt>
      <trkpt lat="43.59882" lon="2.94213">
        <ele>737.46850585938</ele>
        <time>2012-05-07T10:43:30Z</time>
      </trkpt>
      <trkpt lat="43.59888" lon="2.94208">
        <ele>737.94921875</ele>
        <time>2012-05-07T10:43:36Z</time>
      </trkpt>
      <trkpt lat="43.59892" lon="2.94204">
        <ele>737.46850585938</ele>
        <time>2012-05-07T10:43:40Z</time>
      </trkpt>
      <trkpt lat="43.59899" lon="2.94195">
        <ele>736.98779296875</ele>
        <time>2012-05-07T10:43:48Z</time>
      </trkpt>
      <trkpt lat="43.599" lon="2.94191">
        <ele>737.46850585938</ele>
        <time>2012-05-07T10:43:51Z</time>
      </trkpt>
      <trkpt lat="43.59902" lon="2.94183">
        <ele>737.94921875</ele>
        <time>2012-05-07T10:43:57Z</time>
      </trkpt>
      <trkpt lat="43.59903" lon="2.94179">
        <ele>738.42993164062</ele>
        <time>2012-05-07T10:43:59Z</time>
      </trkpt>
      <trkpt lat="43.59905" lon="2.94172">
        <ele>738.42993164062</ele>
        <time>2012-05-07T10:44:04Z</time>
      </trkpt>
      <trkpt lat="43.59906" lon="2.94166">
        <ele>738.42993164062</ele>
        <time>2012-05-07T10:44:08Z</time>
      </trkpt>
      <trkpt lat="43.59908" lon="2.94157">
        <ele>738.42993164062</ele>
        <time>2012-05-07T10:44:14Z</time>
      </trkpt>
      <trkpt lat="43.59909" lon="2.94156">
        <ele>738.42993164062</ele>
        <time>2012-05-07T10:44:15Z</time>
      </trkpt>
      <trkpt lat="43.59914" lon="2.94143">
        <ele>736.98779296875</ele>
        <time>2012-05-07T10:44:23Z</time>
      </trkpt>
      <trkpt lat="43.59916" lon="2.94133">
        <ele>737.94921875</ele>
        <time>2012-05-07T10:44:29Z</time>
      </trkpt>
      <trkpt lat="43.59916" lon="2.94124">
        <ele>738.91064453125</ele>
        <time>2012-05-07T10:44:35Z</time>
      </trkpt>
      <trkpt lat="43.59917" lon="2.94116">
        <ele>739.87182617188</ele>
        <time>2012-05-07T10:44:40Z</time>
      </trkpt>
      <trkpt lat="43.59917" lon="2.94108">
        <ele>742.755859375</ele>
        <time>2012-05-07T10:44:45Z</time>
      </trkpt>
      <trkpt lat="43.59916" lon="2.94102">
        <ele>744.67822265625</ele>
        <time>2012-05-07T10:44:49Z</time>
      </trkpt>
      <trkpt lat="43.59913" lon="2.94092">
        <ele>744.67822265625</ele>
        <time>2012-05-07T10:44:54Z</time>
      </trkpt>
      <trkpt lat="43.59911" lon="2.94084">
        <ele>745.6396484375</ele>
        <time>2012-05-07T10:44:58Z</time>
      </trkpt>
      <trkpt lat="43.59909" lon="2.94077">
        <ele>746.60107421875</ele>
        <time>2012-05-07T10:45:02Z</time>
      </trkpt>
      <trkpt lat="43.59908" lon="2.94067">
        <ele>747.08154296875</ele>
        <time>2012-05-07T10:45:07Z</time>
      </trkpt>
      <trkpt lat="43.59911" lon="2.94057">
        <ele>747.56225585938</ele>
        <time>2012-05-07T10:45:12Z</time>
      </trkpt>
      <trkpt lat="43.59913" lon="2.9405">
        <ele>747.56225585938</ele>
        <time>2012-05-07T10:45:15Z</time>
      </trkpt>
      <trkpt lat="43.59919" lon="2.94041">
        <ele>748.52368164062</ele>
        <time>2012-05-07T10:45:19Z</time>
      </trkpt>
      <trkpt lat="43.59926" lon="2.94031">
        <ele>750.44653320312</ele>
        <time>2012-05-07T10:45:24Z</time>
      </trkpt>
      <trkpt lat="43.5993" lon="2.94028">
        <ele>751.40771484375</ele>
        <time>2012-05-07T10:45:26Z</time>
      </trkpt>
      <trkpt lat="43.59937" lon="2.94022">
        <ele>750.92700195312</ele>
        <time>2012-05-07T10:45:31Z</time>
      </trkpt>
      <trkpt lat="43.59938" lon="2.94021">
        <ele>751.40771484375</ele>
        <time>2012-05-07T10:45:32Z</time>
      </trkpt>
      <trkpt lat="43.59945" lon="2.94012">
        <ele>753.33032226562</ele>
        <time>2012-05-07T10:45:37Z</time>
      </trkpt>
      <trkpt lat="43.59954" lon="2.94003">
        <ele>752.36889648438</ele>
        <time>2012-05-07T10:45:43Z</time>
      </trkpt>
      <trkpt lat="43.59958" lon="2.94003">
        <ele>751.40771484375</ele>
        <time>2012-05-07T10:45:46Z</time>
      </trkpt>
      <trkpt lat="43.59962" lon="2.94003">
        <ele>752.36889648438</ele>
        <time>2012-05-07T10:45:50Z</time>
      </trkpt>
      <trkpt lat="43.59967" lon="2.94001">
        <ele>755.2529296875</ele>
        <time>2012-05-07T10:45:57Z</time>
      </trkpt>
      <trkpt lat="43.59971" lon="2.94">
        <ele>756.21411132812</ele>
        <time>2012-05-07T10:46:03Z</time>
      </trkpt>
      <trkpt lat="43.59976" lon="2.93996">
        <ele>758.13696289062</ele>
        <time>2012-05-07T10:46:08Z</time>
      </trkpt>
      <trkpt lat="43.59978" lon="2.93993">
        <ele>759.09814453125</ele>
        <time>2012-05-07T10:46:10Z</time>
      </trkpt>
      <trkpt lat="43.59983" lon="2.93987">
        <ele>761.02075195312</ele>
        <time>2012-05-07T10:46:16Z</time>
      </trkpt>
      <trkpt lat="43.59986" lon="2.93986">
        <ele>762.943359375</ele>
        <time>2012-05-07T10:46:20Z</time>
      </trkpt>
      <trkpt lat="43.59992" lon="2.93985">
        <ele>765.82763671875</ele>
        <time>2012-05-07T10:46:27Z</time>
      </trkpt>
      <trkpt lat="43.59997" lon="2.93983">
        <ele>766.78881835938</ele>
        <time>2012-05-07T10:46:32Z</time>
      </trkpt>
      <trkpt lat="43.60001" lon="2.93982">
        <ele>767.75</ele>
        <time>2012-05-07T10:46:36Z</time>
      </trkpt>
      <trkpt lat="43.60004" lon="2.93981">
        <ele>769.19213867188</ele>
        <time>2012-05-07T10:46:41Z</time>
      </trkpt>
      <trkpt lat="43.60009" lon="2.9398">
        <ele>767.75</ele>
        <time>2012-05-07T10:46:46Z</time>
      </trkpt>
      <trkpt lat="43.60015" lon="2.93979">
        <ele>767.26953125</ele>
        <time>2012-05-07T10:46:51Z</time>
      </trkpt>
      <trkpt lat="43.60017" lon="2.93979">
        <ele>770.1533203125</ele>
        <time>2012-05-07T10:46:56Z</time>
      </trkpt>
      <trkpt lat="43.60019" lon="2.93979">
        <ele>770.1533203125</ele>
        <time>2012-05-07T10:46:57Z</time>
      </trkpt>
      <trkpt lat="43.60027" lon="2.93979">
        <ele>769.6728515625</ele>
        <time>2012-05-07T10:47:04Z</time>
      </trkpt>
      <trkpt lat="43.6003" lon="2.93977">
        <ele>771.11474609375</ele>
        <time>2012-05-07T10:47:07Z</time>
      </trkpt>
      <trkpt lat="43.60037" lon="2.93973">
        <ele>770.63403320312</ele>
        <time>2012-05-07T10:47:12Z</time>
      </trkpt>
      <trkpt lat="43.60043" lon="2.93969">
        <ele>772.07592773438</ele>
        <time>2012-05-07T10:47:18Z</time>
      </trkpt>
      <trkpt lat="43.60045" lon="2.93964">
        <ele>773.99853515625</ele>
        <time>2012-05-07T10:47:22Z</time>
      </trkpt>
      <trkpt lat="43.60051" lon="2.93958">
        <ele>774.9599609375</ele>
        <time>2012-05-07T10:47:30Z</time>
      </trkpt>
      <trkpt lat="43.60056" lon="2.93955">
        <ele>775.92114257812</ele>
        <time>2012-05-07T10:47:35Z</time>
      </trkpt>
      <trkpt lat="43.60059" lon="2.93956">
        <ele>777.36328125</ele>
        <time>2012-05-07T10:47:40Z</time>
      </trkpt>
      <trkpt lat="43.60064" lon="2.93958">
        <ele>779.76635742188</ele>
        <time>2012-05-07T10:47:47Z</time>
      </trkpt>
      <trkpt lat="43.60069" lon="2.93957">
        <ele>780.72802734375</ele>
        <time>2012-05-07T10:47:52Z</time>
      </trkpt>
      <trkpt lat="43.60074" lon="2.93956">
        <ele>784.09252929688</ele>
        <time>2012-05-07T10:47:57Z</time>
      </trkpt>
      <trkpt lat="43.6008" lon="2.93961">
        <ele>785.53442382812</ele>
        <time>2012-05-07T10:48:05Z</time>
      </trkpt>
      <trkpt lat="43.60083" lon="2.93963">
        <ele>786.01513671875</ele>
        <time>2012-05-07T10:48:09Z</time>
      </trkpt>
      <trkpt lat="43.60083" lon="2.93967">
        <ele>784.5732421875</ele>
        <time>2012-05-07T10:48:13Z</time>
      </trkpt>
      <trkpt lat="43.60078" lon="2.93972">
        <ele>786.01513671875</ele>
        <time>2012-05-07T10:48:19Z</time>
      </trkpt>
      <trkpt lat="43.60075" lon="2.93975">
        <ele>785.53442382812</ele>
        <time>2012-05-07T10:48:23Z</time>
      </trkpt>
      <trkpt lat="43.6007" lon="2.93982">
        <ele>786.49584960938</ele>
        <time>2012-05-07T10:48:30Z</time>
      </trkpt>
      <trkpt lat="43.60069" lon="2.93985">
        <ele>787.45703125</ele>
        <time>2012-05-07T10:48:32Z</time>
      </trkpt>
      <trkpt lat="43.60069" lon="2.93993">
        <ele>789.8603515625</ele>
        <time>2012-05-07T10:48:38Z</time>
      </trkpt>
      <trkpt lat="43.60067" lon="2.94005">
        <ele>792.263671875</ele>
        <time>2012-05-07T10:48:45Z</time>
      </trkpt>
      <trkpt lat="43.60062" lon="2.94013">
        <ele>791.78295898438</ele>
        <time>2012-05-07T10:48:53Z</time>
      </trkpt>
      <trkpt lat="43.60059" lon="2.94017">
        <ele>792.263671875</ele>
        <time>2012-05-07T10:48:58Z</time>
      </trkpt>
      <trkpt lat="43.60055" lon="2.94022">
        <ele>793.22485351562</ele>
        <time>2012-05-07T10:49:03Z</time>
      </trkpt>
      <trkpt lat="43.60049" lon="2.94029">
        <ele>793.70556640625</ele>
        <time>2012-05-07T10:49:09Z</time>
      </trkpt>
      <trkpt lat="43.60045" lon="2.94034">
        <ele>794.66674804688</ele>
        <time>2012-05-07T10:49:14Z</time>
      </trkpt>
      <trkpt lat="43.60039" lon="2.94041">
        <ele>795.62817382812</ele>
        <time>2012-05-07T10:49:21Z</time>
      </trkpt>
      <trkpt lat="43.60036" lon="2.94047">
        <ele>796.58984375</ele>
        <time>2012-05-07T10:49:26Z</time>
      </trkpt>
      <trkpt lat="43.60029" lon="2.94053">
        <ele>797.0703125</ele>
        <time>2012-05-07T10:49:32Z</time>
      </trkpt>
      <trkpt lat="43.60026" lon="2.94058">
        <ele>796.58984375</ele>
        <time>2012-05-07T10:49:34Z</time>
      </trkpt>
      <trkpt lat="43.60023" lon="2.94066">
        <ele>797.0703125</ele>
        <time>2012-05-07T10:49:38Z</time>
      </trkpt>
      <trkpt lat="43.60015" lon="2.94078">
        <ele>797.55102539062</ele>
        <time>2012-05-07T10:49:45Z</time>
      </trkpt>
      <trkpt lat="43.60017" lon="2.94086">
        <ele>798.99291992188</ele>
        <time>2012-05-07T10:49:50Z</time>
      </trkpt>
      <trkpt lat="43.60018" lon="2.94089">
        <ele>799.95434570312</ele>
        <time>2012-05-07T10:49:52Z</time>
      </trkpt>
      <trkpt lat="43.60021" lon="2.94096">
        <ele>800.91552734375</ele>
        <time>2012-05-07T10:49:57Z</time>
      </trkpt>
      <trkpt lat="43.60024" lon="2.94104">
        <ele>802.357421875</ele>
        <time>2012-05-07T10:50:03Z</time>
      </trkpt>
      <trkpt lat="43.60024" lon="2.94105">
        <ele>802.83813476562</ele>
        <time>2012-05-07T10:50:04Z</time>
      </trkpt>
      <trkpt lat="43.60025" lon="2.9411">
        <ele>803.31884765625</ele>
        <time>2012-05-07T10:50:08Z</time>
      </trkpt>
      <trkpt lat="43.60027" lon="2.94118">
        <ele>804.7607421875</ele>
        <time>2012-05-07T10:50:15Z</time>
      </trkpt>
      <trkpt lat="43.60029" lon="2.94123">
        <ele>805.72216796875</ele>
        <time>2012-05-07T10:50:20Z</time>
      </trkpt>
      <trkpt lat="43.60032" lon="2.94125">
        <ele>806.20263671875</ele>
        <time>2012-05-07T10:50:26Z</time>
      </trkpt>
      <trkpt lat="43.60035" lon="2.94127">
        <ele>806.68334960938</ele>
        <time>2012-05-07T10:50:30Z</time>
      </trkpt>
      <trkpt lat="43.60038" lon="2.94135">
        <ele>808.60595703125</ele>
        <time>2012-05-07T10:50:37Z</time>
      </trkpt>
      <trkpt lat="43.6004" lon="2.94139">
        <ele>809.5673828125</ele>
        <time>2012-05-07T10:50:41Z</time>
      </trkpt>
      <trkpt lat="43.60044" lon="2.94142">
        <ele>811.00927734375</ele>
        <time>2012-05-07T10:50:45Z</time>
      </trkpt>
      <trkpt lat="43.6005" lon="2.94144">
        <ele>812.45141601562</ele>
        <time>2012-05-07T10:50:52Z</time>
      </trkpt>
      <trkpt lat="43.60053" lon="2.94144">
        <ele>814.3740234375</ele>
        <time>2012-05-07T10:50:56Z</time>
      </trkpt>
      <trkpt lat="43.60058" lon="2.9414">
        <ele>815.81616210938</ele>
        <time>2012-05-07T10:51:02Z</time>
      </trkpt>
      <trkpt lat="43.60059" lon="2.94134">
        <ele>817.25805664062</ele>
        <time>2012-05-07T10:51:08Z</time>
      </trkpt>
      <trkpt lat="43.6006" lon="2.94125">
        <ele>818.21923828125</ele>
        <time>2012-05-07T10:51:15Z</time>
      </trkpt>
      <trkpt lat="43.60061" lon="2.94118">
        <ele>818.69995117188</ele>
        <time>2012-05-07T10:51:20Z</time>
      </trkpt>
      <trkpt lat="43.60064" lon="2.94112">
        <ele>818.69995117188</ele>
        <time>2012-05-07T10:51:26Z</time>
      </trkpt>
      <trkpt lat="43.60066" lon="2.94107">
        <ele>819.1806640625</ele>
        <time>2012-05-07T10:51:30Z</time>
      </trkpt>
      <trkpt lat="43.6007" lon="2.94097">
        <ele>818.21923828125</ele>
        <time>2012-05-07T10:51:37Z</time>
      </trkpt>
      <trkpt lat="43.60073" lon="2.94092">
        <ele>819.66137695312</ele>
        <time>2012-05-07T10:51:41Z</time>
      </trkpt>
      <trkpt lat="43.60076" lon="2.9409">
        <ele>821.10327148438</ele>
        <time>2012-05-07T10:51:45Z</time>
      </trkpt>
      <trkpt lat="43.60078" lon="2.94088">
        <ele>821.10327148438</ele>
        <time>2012-05-07T10:51:47Z</time>
      </trkpt>
      <trkpt lat="43.60084" lon="2.94084">
        <ele>822.064453125</ele>
        <time>2012-05-07T10:51:53Z</time>
      </trkpt>
      <trkpt lat="43.60087" lon="2.94081">
        <ele>823.50659179688</ele>
        <time>2012-05-07T10:51:57Z</time>
      </trkpt>
      <trkpt lat="43.60091" lon="2.94074">
        <ele>824.94848632812</ele>
        <time>2012-05-07T10:52:04Z</time>
      </trkpt>
      <trkpt lat="43.60095" lon="2.94076">
        <ele>825.90966796875</ele>
        <time>2012-05-07T10:52:09Z</time>
      </trkpt>
      <trkpt lat="43.60094" lon="2.94083">
        <ele>826.39038085938</ele>
        <time>2012-05-07T10:52:14Z</time>
      </trkpt>
      <trkpt lat="43.60091" lon="2.94089">
        <ele>827.35180664062</ele>
        <time>2012-05-07T10:52:20Z</time>
      </trkpt>
      <trkpt lat="43.60093" lon="2.94098">
        <ele>827.83227539062</ele>
        <time>2012-05-07T10:52:28Z</time>
      </trkpt>
      <trkpt lat="43.60097" lon="2.941">
        <ele>829.2744140625</ele>
        <time>2012-05-07T10:52:33Z</time>
      </trkpt>
      <trkpt lat="43.60098" lon="2.94106">
        <ele>830.71655273438</ele>
        <time>2012-05-07T10:52:38Z</time>
      </trkpt>
      <trkpt lat="43.60101" lon="2.94113">
        <ele>831.677734375</ele>
        <time>2012-05-07T10:52:44Z</time>
      </trkpt>
      <trkpt lat="43.60103" lon="2.94118">
        <ele>832.15844726562</ele>
        <time>2012-05-07T10:52:48Z</time>
      </trkpt>
      <trkpt lat="43.60107" lon="2.9412">
        <ele>834.0810546875</ele>
        <time>2012-05-07T10:52:55Z</time>
      </trkpt>
      <trkpt lat="43.60113" lon="2.94117">
        <ele>836.96484375</ele>
        <time>2012-05-07T10:53:02Z</time>
      </trkpt>
      <trkpt lat="43.60118" lon="2.94113">
        <ele>838.40698242188</ele>
        <time>2012-05-07T10:53:08Z</time>
      </trkpt>
      <trkpt lat="43.60121" lon="2.9411">
        <ele>838.8876953125</ele>
        <time>2012-05-07T10:53:11Z</time>
      </trkpt>
      <trkpt lat="43.60127" lon="2.94103">
        <ele>840.32958984375</ele>
        <time>2012-05-07T10:53:18Z</time>
      </trkpt>
      <trkpt lat="43.60128" lon="2.94102">
        <ele>840.32958984375</ele>
        <time>2012-05-07T10:53:19Z</time>
      </trkpt>
      <trkpt lat="43.60133" lon="2.94094">
        <ele>841.29077148438</ele>
        <time>2012-05-07T10:53:27Z</time>
      </trkpt>
      <trkpt lat="43.60136" lon="2.94094">
        <ele>842.25219726562</ele>
        <time>2012-05-07T10:53:32Z</time>
      </trkpt>
      <trkpt lat="43.60141" lon="2.94091">
        <ele>843.69409179688</ele>
        <time>2012-05-07T10:53:39Z</time>
      </trkpt>
      <trkpt lat="43.60147" lon="2.94088">
        <ele>845.13623046875</ele>
        <time>2012-05-07T10:53:45Z</time>
      </trkpt>
      <trkpt lat="43.60149" lon="2.94086">
        <ele>845.61694335938</ele>
        <time>2012-05-07T10:53:47Z</time>
      </trkpt>
      <trkpt lat="43.60151" lon="2.94085">
        <ele>846.09765625</ele>
        <time>2012-05-07T10:53:49Z</time>
      </trkpt>
      <trkpt lat="43.60156" lon="2.94081">
        <ele>848.02026367188</ele>
        <time>2012-05-07T10:53:55Z</time>
      </trkpt>
      <trkpt lat="43.60162" lon="2.94079">
        <ele>848.50073242188</ele>
        <time>2012-05-07T10:54:01Z</time>
      </trkpt>
      <trkpt lat="43.60165" lon="2.94075">
        <ele>849.46215820312</ele>
        <time>2012-05-07T10:54:05Z</time>
      </trkpt>
      <trkpt lat="43.60171" lon="2.9407">
        <ele>850.90405273438</ele>
        <time>2012-05-07T10:54:12Z</time>
      </trkpt>
      <trkpt lat="43.60173" lon="2.9407">
        <ele>850.90405273438</ele>
        <time>2012-05-07T10:54:14Z</time>
      </trkpt>
      <trkpt lat="43.60181" lon="2.94066">
        <ele>851.86547851562</ele>
        <time>2012-05-07T10:54:20Z</time>
      </trkpt>
      <trkpt lat="43.60183" lon="2.94064">
        <ele>851.86547851562</ele>
        <time>2012-05-07T10:54:22Z</time>
      </trkpt>
      <trkpt lat="43.60194" lon="2.94057">
        <ele>850.90405273438</ele>
        <time>2012-05-07T10:54:31Z</time>
      </trkpt>
      <trkpt lat="43.60201" lon="2.94055">
        <ele>848.9814453125</ele>
        <time>2012-05-07T10:54:37Z</time>
      </trkpt>
      <trkpt lat="43.60204" lon="2.94053">
        <ele>849.46215820312</ele>
        <time>2012-05-07T10:54:41Z</time>
      </trkpt>
      <trkpt lat="43.6021" lon="2.94044">
        <ele>849.46215820312</ele>
        <time>2012-05-07T10:54:48Z</time>
      </trkpt>
      <trkpt lat="43.60213" lon="2.9404">
        <ele>849.94287109375</ele>
        <time>2012-05-07T10:54:53Z</time>
      </trkpt>
      <trkpt lat="43.60216" lon="2.94035">
        <ele>848.50073242188</ele>
        <time>2012-05-07T10:54:57Z</time>
      </trkpt>
      <trkpt lat="43.60218" lon="2.94033">
        <ele>848.9814453125</ele>
        <time>2012-05-07T10:54:59Z</time>
      </trkpt>
      <trkpt lat="43.60226" lon="2.94026">
        <ele>848.9814453125</ele>
        <time>2012-05-07T10:55:05Z</time>
      </trkpt>
      <trkpt lat="43.60232" lon="2.94022">
        <ele>848.50073242188</ele>
        <time>2012-05-07T10:55:10Z</time>
      </trkpt>
      <trkpt lat="43.60238" lon="2.94018">
        <ele>848.9814453125</ele>
        <time>2012-05-07T10:55:15Z</time>
      </trkpt>
      <trkpt lat="43.60241" lon="2.94017">
        <ele>849.46215820312</ele>
        <time>2012-05-07T10:55:17Z</time>
      </trkpt>
      <trkpt lat="43.60248" lon="2.94009">
        <ele>852.82666015625</ele>
        <time>2012-05-07T10:55:26Z</time>
      </trkpt>
      <trkpt lat="43.60257" lon="2.94006">
        <ele>853.30737304688</ele>
        <time>2012-05-07T10:55:34Z</time>
      </trkpt>
      <trkpt lat="43.60262" lon="2.93999">
        <ele>855.71069335938</ele>
        <time>2012-05-07T10:55:40Z</time>
      </trkpt>
      <trkpt lat="43.60266" lon="2.93993">
        <ele>856.671875</ele>
        <time>2012-05-07T10:55:45Z</time>
      </trkpt>
      <trkpt lat="43.60267" lon="2.93992">
        <ele>856.19116210938</ele>
        <time>2012-05-07T10:55:46Z</time>
      </trkpt>
      <trkpt lat="43.60273" lon="2.93985">
        <ele>859.0751953125</ele>
        <time>2012-05-07T10:55:53Z</time>
      </trkpt>
      <trkpt lat="43.60276" lon="2.93978">
        <ele>860.998046875</ele>
        <time>2012-05-07T10:55:59Z</time>
      </trkpt>
      <trkpt lat="43.6028" lon="2.93976">
        <ele>862.43994140625</ele>
        <time>2012-05-07T10:56:05Z</time>
      </trkpt>
      <trkpt lat="43.60286" lon="2.93975">
        <ele>861.95947265625</ele>
        <time>2012-05-07T10:56:11Z</time>
      </trkpt>
      <trkpt lat="43.6029" lon="2.93975">
        <ele>861.47875976562</ele>
        <time>2012-05-07T10:56:16Z</time>
      </trkpt>
      <trkpt lat="43.6029" lon="2.93978">
        <ele>861.95947265625</ele>
        <time>2012-05-07T10:56:18Z</time>
      </trkpt>
      <trkpt lat="43.60289" lon="2.93981">
        <ele>861.47875976562</ele>
        <time>2012-05-07T10:56:20Z</time>
      </trkpt>
      <trkpt lat="43.60286" lon="2.93995">
        <ele>862.43994140625</ele>
        <time>2012-05-07T10:56:29Z</time>
      </trkpt>
      <trkpt lat="43.60286" lon="2.94002">
        <ele>863.4013671875</ele>
        <time>2012-05-07T10:56:35Z</time>
      </trkpt>
      <trkpt lat="43.60285" lon="2.94009">
        <ele>865.32397460938</ele>
        <time>2012-05-07T10:56:40Z</time>
      </trkpt>
      <trkpt lat="43.60284" lon="2.94012">
        <ele>865.32397460938</ele>
        <time>2012-05-07T10:56:42Z</time>
      </trkpt>
      <trkpt lat="43.60281" lon="2.94018">
        <ele>865.8046875</ele>
        <time>2012-05-07T10:56:46Z</time>
      </trkpt>
      <trkpt lat="43.60281" lon="2.94021">
        <ele>867.24658203125</ele>
        <time>2012-05-07T10:56:50Z</time>
      </trkpt>
      <trkpt lat="43.60281" lon="2.94023">
        <ele>867.72705078125</ele>
        <time>2012-05-07T10:56:51Z</time>
      </trkpt>
      <trkpt lat="43.60281" lon="2.94027">
        <ele>867.24658203125</ele>
        <time>2012-05-07T10:56:54Z</time>
      </trkpt>
      <trkpt lat="43.60284" lon="2.94031">
        <ele>869.16918945312</ele>
        <time>2012-05-07T10:57:01Z</time>
      </trkpt>
      <trkpt lat="43.60289" lon="2.94031">
        <ele>871.091796875</ele>
        <time>2012-05-07T10:57:07Z</time>
      </trkpt>
      <trkpt lat="43.60294" lon="2.94028">
        <ele>871.572265625</ele>
        <time>2012-05-07T10:57:13Z</time>
      </trkpt>
      <trkpt lat="43.60297" lon="2.94025">
        <ele>873.01440429688</ele>
        <time>2012-05-07T10:57:16Z</time>
      </trkpt>
      <trkpt lat="43.60306" lon="2.94017">
        <ele>875.41748046875</ele>
        <time>2012-05-07T10:57:26Z</time>
      </trkpt>
      <trkpt lat="43.60308" lon="2.94016">
        <ele>875.89819335938</ele>
        <time>2012-05-07T10:57:28Z</time>
      </trkpt>
      <trkpt lat="43.60311" lon="2.9402">
        <ele>876.85986328125</ele>
        <time>2012-05-07T10:57:33Z</time>
      </trkpt>
      <trkpt lat="43.60311" lon="2.94028">
        <ele>877.82104492188</ele>
        <time>2012-05-07T10:57:39Z</time>
      </trkpt>
      <trkpt lat="43.60309" lon="2.94037">
        <ele>878.78247070312</ele>
        <time>2012-05-07T10:57:47Z</time>
      </trkpt>
      <trkpt lat="43.60308" lon="2.94045">
        <ele>878.3017578125</ele>
        <time>2012-05-07T10:57:52Z</time>
      </trkpt>
      <trkpt lat="43.60305" lon="2.94048">
        <ele>878.3017578125</ele>
        <time>2012-05-07T10:57:56Z</time>
      </trkpt>
      <trkpt lat="43.60301" lon="2.94054">
        <ele>879.74365234375</ele>
        <time>2012-05-07T10:58:02Z</time>
      </trkpt>
      <trkpt lat="43.60302" lon="2.9406">
        <ele>879.74365234375</ele>
        <time>2012-05-07T10:58:08Z</time>
      </trkpt>
      <trkpt lat="43.60301" lon="2.94067">
        <ele>881.18579101562</ele>
        <time>2012-05-07T10:58:12Z</time>
      </trkpt>
      <trkpt lat="43.60305" lon="2.94069">
        <ele>882.14697265625</ele>
        <time>2012-05-07T10:58:18Z</time>
      </trkpt>
      <trkpt lat="43.60308" lon="2.94065">
        <ele>882.62768554688</ele>
        <time>2012-05-07T10:58:23Z</time>
      </trkpt>
      <trkpt lat="43.60311" lon="2.94064">
        <ele>883.5888671875</ele>
        <time>2012-05-07T10:58:29Z</time>
      </trkpt>
      <trkpt lat="43.60317" lon="2.94059">
        <ele>885.03100585938</ele>
        <time>2012-05-07T10:58:36Z</time>
      </trkpt>
      <trkpt lat="43.60321" lon="2.94054">
        <ele>886.47290039062</ele>
        <time>2012-05-07T10:58:41Z</time>
      </trkpt>
      <trkpt lat="43.60322" lon="2.94054">
        <ele>886.47290039062</ele>
        <time>2012-05-07T10:58:42Z</time>
      </trkpt>
      <trkpt lat="43.60327" lon="2.94048">
        <ele>888.3955078125</ele>
        <time>2012-05-07T10:58:48Z</time>
      </trkpt>
      <trkpt lat="43.60331" lon="2.94041">
        <ele>889.35668945312</ele>
        <time>2012-05-07T10:58:54Z</time>
      </trkpt>
      <trkpt lat="43.60332" lon="2.9404">
        <ele>889.35668945312</ele>
        <time>2012-05-07T10:58:55Z</time>
      </trkpt>
      <trkpt lat="43.60335" lon="2.94038">
        <ele>889.83740234375</ele>
        <time>2012-05-07T10:58:58Z</time>
      </trkpt>
      <trkpt lat="43.60339" lon="2.9403">
        <ele>890.31811523438</ele>
        <time>2012-05-07T10:59:04Z</time>
      </trkpt>
      <trkpt lat="43.6034" lon="2.94029">
        <ele>890.31811523438</ele>
        <time>2012-05-07T10:59:05Z</time>
      </trkpt>
      <trkpt lat="43.60343" lon="2.94023">
        <ele>891.279296875</ele>
        <time>2012-05-07T10:59:10Z</time>
      </trkpt>
      <trkpt lat="43.60346" lon="2.94018">
        <ele>892.24096679688</ele>
        <time>2012-05-07T10:59:14Z</time>
      </trkpt>
      <trkpt lat="43.6035" lon="2.94011">
        <ele>893.68286132812</ele>
        <time>2012-05-07T10:59:21Z</time>
      </trkpt>
      <trkpt lat="43.60353" lon="2.94006">
        <ele>894.16357421875</ele>
        <time>2012-05-07T10:59:25Z</time>
      </trkpt>
      <trkpt lat="43.60358" lon="2.93998">
        <ele>896.08618164062</ele>
        <time>2012-05-07T10:59:33Z</time>
      </trkpt>
      <trkpt lat="43.60361" lon="2.93987">
        <ele>897.04736328125</ele>
        <time>2012-05-07T10:59:40Z</time>
      </trkpt>
      <trkpt lat="43.60364" lon="2.93983">
        <ele>898.0087890625</ele>
        <time>2012-05-07T10:59:43Z</time>
      </trkpt>
      <trkpt lat="43.60366" lon="2.93978">
        <ele>898.96997070312</ele>
        <time>2012-05-07T10:59:47Z</time>
      </trkpt>
      <trkpt lat="43.60368" lon="2.93976">
        <ele>898.96997070312</ele>
        <time>2012-05-07T10:59:50Z</time>
      </trkpt>
      <trkpt lat="43.60369" lon="2.93965">
        <ele>901.37329101562</ele>
        <time>2012-05-07T10:59:59Z</time>
      </trkpt>
      <trkpt lat="43.60369" lon="2.93958">
        <ele>901.85400390625</ele>
        <time>2012-05-07T11:00:04Z</time>
      </trkpt>
      <trkpt lat="43.60374" lon="2.93958">
        <ele>901.85400390625</ele>
        <time>2012-05-07T11:00:09Z</time>
      </trkpt>
      <trkpt lat="43.60379" lon="2.93963">
        <ele>903.77661132812</ele>
        <time>2012-05-07T11:00:16Z</time>
      </trkpt>
      <trkpt lat="43.60382" lon="2.93972">
        <ele>905.69921875</ele>
        <time>2012-05-07T11:00:23Z</time>
      </trkpt>
      <trkpt lat="43.60382" lon="2.9398">
        <ele>906.1796875</ele>
        <time>2012-05-07T11:00:30Z</time>
      </trkpt>
      <trkpt lat="43.60385" lon="2.93985">
        <ele>906.66040039062</ele>
        <time>2012-05-07T11:00:35Z</time>
      </trkpt>
      <trkpt lat="43.60385" lon="2.93989">
        <ele>908.10278320312</ele>
        <time>2012-05-07T11:00:40Z</time>
      </trkpt>
      <trkpt lat="43.60383" lon="2.93999">
        <ele>908.58325195312</ele>
        <time>2012-05-07T11:00:47Z</time>
      </trkpt>
      <trkpt lat="43.60385" lon="2.94011">
        <ele>910.02514648438</ele>
        <time>2012-05-07T11:00:54Z</time>
      </trkpt>
      <trkpt lat="43.60385" lon="2.94014">
        <ele>910.02514648438</ele>
        <time>2012-05-07T11:00:56Z</time>
      </trkpt>
      <trkpt lat="43.60386" lon="2.9402">
        <ele>909.54467773438</ele>
        <time>2012-05-07T11:01:00Z</time>
      </trkpt>
      <trkpt lat="43.60391" lon="2.94024">
        <ele>910.98657226562</ele>
        <time>2012-05-07T11:01:08Z</time>
      </trkpt>
      <trkpt lat="43.60394" lon="2.94017">
        <ele>911.46728515625</ele>
        <time>2012-05-07T11:01:13Z</time>
      </trkpt>
      <trkpt lat="43.60395" lon="2.94014">
        <ele>911.94799804688</ele>
        <time>2012-05-07T11:01:15Z</time>
      </trkpt>
      <trkpt lat="43.60396" lon="2.94011">
        <ele>912.9091796875</ele>
        <time>2012-05-07T11:01:18Z</time>
      </trkpt>
      <trkpt lat="43.60398" lon="2.94004">
        <ele>912.42846679688</ele>
        <time>2012-05-07T11:01:24Z</time>
      </trkpt>
      <trkpt lat="43.604" lon="2.93997">
        <ele>913.38989257812</ele>
        <time>2012-05-07T11:01:29Z</time>
      </trkpt>
      <trkpt lat="43.60403" lon="2.93995">
        <ele>913.87036132812</ele>
        <time>2012-05-07T11:01:32Z</time>
      </trkpt>
      <trkpt lat="43.60405" lon="2.94004">
        <ele>915.3125</ele>
        <time>2012-05-07T11:01:39Z</time>
      </trkpt>
      <trkpt lat="43.60406" lon="2.9401">
        <ele>916.75439453125</ele>
        <time>2012-05-07T11:01:44Z</time>
      </trkpt>
      <trkpt lat="43.60405" lon="2.94017">
        <ele>917.23510742188</ele>
        <time>2012-05-07T11:01:48Z</time>
      </trkpt>
      <trkpt lat="43.60405" lon="2.94021">
        <ele>917.71557617188</ele>
        <time>2012-05-07T11:01:51Z</time>
      </trkpt>
      <trkpt lat="43.60405" lon="2.94031">
        <ele>917.71557617188</ele>
        <time>2012-05-07T11:01:57Z</time>
      </trkpt>
      <trkpt lat="43.60405" lon="2.94032">
        <ele>918.1962890625</ele>
        <time>2012-05-07T11:01:58Z</time>
      </trkpt>
      <trkpt lat="43.60405" lon="2.94041">
        <ele>919.15771484375</ele>
        <time>2012-05-07T11:02:03Z</time>
      </trkpt>
      <trkpt lat="43.60403" lon="2.94055">
        <ele>920.599609375</ele>
        <time>2012-05-07T11:02:11Z</time>
      </trkpt>
      <trkpt lat="43.60401" lon="2.94064">
        <ele>921.56079101562</ele>
        <time>2012-05-07T11:02:16Z</time>
      </trkpt>
      <trkpt lat="43.60398" lon="2.94075">
        <ele>921.08032226562</ele>
        <time>2012-05-07T11:02:22Z</time>
      </trkpt>
      <trkpt lat="43.60398" lon="2.94077">
        <ele>921.08032226562</ele>
        <time>2012-05-07T11:02:23Z</time>
      </trkpt>
      <trkpt lat="43.604" lon="2.9408">
        <ele>921.56079101562</ele>
        <time>2012-05-07T11:02:27Z</time>
      </trkpt>
      <trkpt lat="43.60403" lon="2.94079">
        <ele>923.0029296875</ele>
        <time>2012-05-07T11:02:33Z</time>
      </trkpt>
      <trkpt lat="43.60408" lon="2.94071">
        <ele>923.96411132812</ele>
        <time>2012-05-07T11:02:39Z</time>
      </trkpt>
      <trkpt lat="43.60413" lon="2.94064">
        <ele>927.3291015625</ele>
        <time>2012-05-07T11:02:46Z</time>
      </trkpt>
      <trkpt lat="43.60417" lon="2.94057">
        <ele>928.29028320312</ele>
        <time>2012-05-07T11:02:51Z</time>
      </trkpt>
      <trkpt lat="43.60421" lon="2.9405">
        <ele>928.29028320312</ele>
        <time>2012-05-07T11:02:55Z</time>
      </trkpt>
      <trkpt lat="43.60423" lon="2.94048">
        <ele>927.8095703125</ele>
        <time>2012-05-07T11:02:57Z</time>
      </trkpt>
      <trkpt lat="43.60425" lon="2.9405">
        <ele>928.29028320312</ele>
        <time>2012-05-07T11:03:00Z</time>
      </trkpt>
      <trkpt lat="43.60425" lon="2.94058">
        <ele>928.77099609375</ele>
        <time>2012-05-07T11:03:06Z</time>
      </trkpt>
      <trkpt lat="43.60428" lon="2.9406">
        <ele>928.77099609375</ele>
        <time>2012-05-07T11:03:10Z</time>
      </trkpt>
      <trkpt lat="43.60431" lon="2.94054">
        <ele>929.25146484375</ele>
        <time>2012-05-07T11:03:14Z</time>
      </trkpt>
      <trkpt lat="43.60433" lon="2.94051">
        <ele>930.212890625</ele>
        <time>2012-05-07T11:03:18Z</time>
      </trkpt>
      <trkpt lat="43.60435" lon="2.94047">
        <ele>931.17431640625</ele>
        <time>2012-05-07T11:03:22Z</time>
      </trkpt>
      <trkpt lat="43.6044" lon="2.94045">
        <ele>932.6162109375</ele>
        <time>2012-05-07T11:03:29Z</time>
      </trkpt>
      <trkpt lat="43.60443" lon="2.94042">
        <ele>934.53881835938</ele>
        <time>2012-05-07T11:03:33Z</time>
      </trkpt>
      <trkpt lat="43.60447" lon="2.94036">
        <ele>936.46142578125</ele>
        <time>2012-05-07T11:03:39Z</time>
      </trkpt>
      <trkpt lat="43.60448" lon="2.94032">
        <ele>937.42260742188</ele>
        <time>2012-05-07T11:03:42Z</time>
      </trkpt>
      <trkpt lat="43.60449" lon="2.94026">
        <ele>937.9033203125</ele>
        <time>2012-05-07T11:03:46Z</time>
      </trkpt>
      <trkpt lat="43.60451" lon="2.9402">
        <ele>938.86474609375</ele>
        <time>2012-05-07T11:03:51Z</time>
      </trkpt>
      <trkpt lat="43.60454" lon="2.94013">
        <ele>940.78735351562</ele>
        <time>2012-05-07T11:03:57Z</time>
      </trkpt>
      <trkpt lat="43.60457" lon="2.94006">
        <ele>941.74877929688</ele>
        <time>2012-05-07T11:04:03Z</time>
      </trkpt>
      <trkpt lat="43.60459" lon="2.93996">
        <ele>943.19067382812</ele>
        <time>2012-05-07T11:04:10Z</time>
      </trkpt>
      <trkpt lat="43.60458" lon="2.93981">
        <ele>946.07470703125</ele>
        <time>2012-05-07T11:04:20Z</time>
      </trkpt>
      <trkpt lat="43.60461" lon="2.93972">
        <ele>947.99731445312</ele>
        <time>2012-05-07T11:04:26Z</time>
      </trkpt>
      <trkpt lat="43.60461" lon="2.9397">
        <ele>947.99731445312</ele>
        <time>2012-05-07T11:04:27Z</time>
      </trkpt>
      <trkpt lat="43.60463" lon="2.93964">
        <ele>948.95849609375</ele>
        <time>2012-05-07T11:04:31Z</time>
      </trkpt>
      <trkpt lat="43.60464" lon="2.93957">
        <ele>949.919921875</ele>
        <time>2012-05-07T11:04:35Z</time>
      </trkpt>
      <trkpt lat="43.60464" lon="2.9395">
        <ele>950.40063476562</ele>
        <time>2012-05-07T11:04:40Z</time>
      </trkpt>
      <trkpt lat="43.60467" lon="2.93944">
        <ele>950.88110351562</ele>
        <time>2012-05-07T11:04:44Z</time>
      </trkpt>
      <trkpt lat="43.60468" lon="2.93937">
        <ele>950.88110351562</ele>
        <time>2012-05-07T11:04:48Z</time>
      </trkpt>
      <trkpt lat="43.60468" lon="2.93926">
        <ele>953.28442382812</ele>
        <time>2012-05-07T11:04:56Z</time>
      </trkpt>
      <trkpt lat="43.60469" lon="2.93921">
        <ele>953.76513671875</ele>
        <time>2012-05-07T11:05:00Z</time>
      </trkpt>
      <trkpt lat="43.6047" lon="2.93911">
        <ele>954.72631835938</ele>
        <time>2012-05-07T11:05:07Z</time>
      </trkpt>
      <trkpt lat="43.6047" lon="2.9391">
        <ele>954.72631835938</ele>
        <time>2012-05-07T11:05:08Z</time>
      </trkpt>
      <trkpt lat="43.60471" lon="2.939">
        <ele>956.64916992188</ele>
        <time>2012-05-07T11:05:14Z</time>
      </trkpt>
      <trkpt lat="43.60467" lon="2.9389">
        <ele>957.61059570312</ele>
        <time>2012-05-07T11:05:20Z</time>
      </trkpt>
      <trkpt lat="43.60469" lon="2.9388">
        <ele>957.61059570312</ele>
        <time>2012-05-07T11:05:25Z</time>
      </trkpt>
      <trkpt lat="43.60469" lon="2.93877">
        <ele>958.09130859375</ele>
        <time>2012-05-07T11:05:27Z</time>
      </trkpt>
      <trkpt lat="43.60467" lon="2.93867">
        <ele>959.533203125</ele>
        <time>2012-05-07T11:05:33Z</time>
      </trkpt>
      <trkpt lat="43.60466" lon="2.93862">
        <ele>960.013671875</ele>
        <time>2012-05-07T11:05:37Z</time>
      </trkpt>
      <trkpt lat="43.60463" lon="2.93851">
        <ele>960.97509765625</ele>
        <time>2012-05-07T11:05:45Z</time>
      </trkpt>
      <trkpt lat="43.60457" lon="2.9384">
        <ele>961.9365234375</ele>
        <time>2012-05-07T11:05:54Z</time>
      </trkpt>
      <trkpt lat="43.60454" lon="2.9383">
        <ele>964.8203125</ele>
        <time>2012-05-07T11:06:01Z</time>
      </trkpt>
      <trkpt lat="43.60449" lon="2.93822">
        <ele>966.74291992188</ele>
        <time>2012-05-07T11:06:08Z</time>
      </trkpt>
      <trkpt lat="43.60443" lon="2.93813">
        <ele>968.66552734375</ele>
        <time>2012-05-07T11:06:15Z</time>
      </trkpt>
      <trkpt lat="43.6044" lon="2.93807">
        <ele>969.14624023438</ele>
        <time>2012-05-07T11:06:19Z</time>
      </trkpt>
      <trkpt lat="43.60437" lon="2.93803">
        <ele>969.14624023438</ele>
        <time>2012-05-07T11:06:23Z</time>
      </trkpt>
      <trkpt lat="43.60432" lon="2.93798">
        <ele>969.14624023438</ele>
        <time>2012-05-07T11:06:30Z</time>
      </trkpt>
      <trkpt lat="43.60427" lon="2.93793">
        <ele>970.58813476562</ele>
        <time>2012-05-07T11:06:36Z</time>
      </trkpt>
      <trkpt lat="43.60423" lon="2.93787">
        <ele>972.0302734375</ele>
        <time>2012-05-07T11:06:42Z</time>
      </trkpt>
      <trkpt lat="43.6042" lon="2.93779">
        <ele>972.51098632812</ele>
        <time>2012-05-07T11:06:48Z</time>
      </trkpt>
      <trkpt lat="43.60416" lon="2.93772">
        <ele>973.47241210938</ele>
        <time>2012-05-07T11:06:54Z</time>
      </trkpt>
      <trkpt lat="43.60415" lon="2.93768">
        <ele>973.47241210938</ele>
        <time>2012-05-07T11:06:56Z</time>
      </trkpt>
      <trkpt lat="43.60415" lon="2.93761">
        <ele>973.47241210938</ele>
        <time>2012-05-07T11:07:01Z</time>
      </trkpt>
      <trkpt lat="43.60418" lon="2.93762">
        <ele>974.43359375</ele>
        <time>2012-05-07T11:07:07Z</time>
      </trkpt>
      <trkpt lat="43.60421" lon="2.93766">
        <ele>973.95288085938</ele>
        <time>2012-05-07T11:07:13Z</time>
      </trkpt>
      <trkpt lat="43.60425" lon="2.93772">
        <ele>974.91430664062</ele>
        <time>2012-05-07T11:07:19Z</time>
      </trkpt>
      <trkpt lat="43.60432" lon="2.93778">
        <ele>975.87548828125</ele>
        <time>2012-05-07T11:07:25Z</time>
      </trkpt>
      <trkpt lat="43.60442" lon="2.93784">
        <ele>978.27880859375</ele>
        <time>2012-05-07T11:07:34Z</time>
      </trkpt>
      <trkpt lat="43.60451" lon="2.93789">
        <ele>980.20141601562</ele>
        <time>2012-05-07T11:07:42Z</time>
      </trkpt>
      <trkpt lat="43.60458" lon="2.93792">
        <ele>981.64331054688</ele>
        <time>2012-05-07T11:07:48Z</time>
      </trkpt>
      <trkpt lat="43.6046" lon="2.93793">
        <ele>982.60473632812</ele>
        <time>2012-05-07T11:07:50Z</time>
      </trkpt>
      <trkpt lat="43.60466" lon="2.93795">
        <ele>984.04663085938</ele>
        <time>2012-05-07T11:07:56Z</time>
      </trkpt>
      <trkpt lat="43.60475" lon="2.93799">
        <ele>985.96923828125</ele>
        <time>2012-05-07T11:08:04Z</time>
      </trkpt>
      <trkpt lat="43.60483" lon="2.93804">
        <ele>986.44995117188</ele>
        <time>2012-05-07T11:08:11Z</time>
      </trkpt>
      <trkpt lat="43.60487" lon="2.93806">
        <ele>987.4111328125</ele>
        <time>2012-05-07T11:08:15Z</time>
      </trkpt>
      <trkpt lat="43.60495" lon="2.9381">
        <ele>989.333984375</ele>
        <time>2012-05-07T11:08:22Z</time>
      </trkpt>
      <trkpt lat="43.60504" lon="2.93815">
        <ele>989.81469726562</ele>
        <time>2012-05-07T11:08:29Z</time>
      </trkpt>
      <trkpt lat="43.60514" lon="2.93824">
        <ele>991.7373046875</ele>
        <time>2012-05-07T11:08:38Z</time>
      </trkpt>
      <trkpt lat="43.60517" lon="2.93825">
        <ele>992.21801757812</ele>
        <time>2012-05-07T11:08:40Z</time>
      </trkpt>
      <trkpt lat="43.60527" lon="2.93834">
        <ele>993.17919921875</ele>
        <time>2012-05-07T11:08:48Z</time>
      </trkpt>
      <trkpt lat="43.60528" lon="2.93835">
        <ele>993.17919921875</ele>
        <time>2012-05-07T11:08:49Z</time>
      </trkpt>
      <trkpt lat="43.60536" lon="2.93846">
        <ele>994.62109375</ele>
        <time>2012-05-07T11:08:58Z</time>
      </trkpt>
      <trkpt lat="43.6054" lon="2.93851">
        <ele>995.58251953125</ele>
        <time>2012-05-07T11:09:02Z</time>
      </trkpt>
      <trkpt lat="43.60545" lon="2.93859">
        <ele>996.5439453125</ele>
        <time>2012-05-07T11:09:09Z</time>
      </trkpt>
      <trkpt lat="43.60546" lon="2.93862">
        <ele>997.0244140625</ele>
        <time>2012-05-07T11:09:11Z</time>
      </trkpt>
      <trkpt lat="43.60551" lon="2.93872">
        <ele>997.98583984375</ele>
        <time>2012-05-07T11:09:18Z</time>
      </trkpt>
      <trkpt lat="43.60552" lon="2.93876">
        <ele>997.98583984375</ele>
        <time>2012-05-07T11:09:20Z</time>
      </trkpt>
      <trkpt lat="43.60555" lon="2.9388">
        <ele>998.46630859375</ele>
        <time>2012-05-07T11:09:26Z</time>
      </trkpt>
      <trkpt lat="43.60558" lon="2.93883">
        <ele>998.94702148438</ele>
        <time>2012-05-07T11:09:32Z</time>
      </trkpt>
      <trkpt lat="43.60562" lon="2.93883">
        <ele>1000.3891601562</ele>
        <time>2012-05-07T11:09:37Z</time>
      </trkpt>
      <trkpt lat="43.60561" lon="2.93877">
        <ele>1000.8696289062</ele>
        <time>2012-05-07T11:09:41Z</time>
      </trkpt>
      <trkpt lat="43.60561" lon="2.93864">
        <ele>1002.3115234375</ele>
        <time>2012-05-07T11:09:49Z</time>
      </trkpt>
      <trkpt lat="43.60561" lon="2.93856">
        <ele>1003.2729492188</ele>
        <time>2012-05-07T11:09:54Z</time>
      </trkpt>
      <trkpt lat="43.60563" lon="2.93845">
        <ele>1004.2346191406</ele>
        <time>2012-05-07T11:10:02Z</time>
      </trkpt>
      <trkpt lat="43.60563" lon="2.93841">
        <ele>1004.7150878906</ele>
        <time>2012-05-07T11:10:05Z</time>
      </trkpt>
      <trkpt lat="43.60563" lon="2.9383">
        <ele>1007.1184082031</ele>
        <time>2012-05-07T11:10:13Z</time>
      </trkpt>
      <trkpt lat="43.60562" lon="2.93828">
        <ele>1007.1184082031</ele>
        <time>2012-05-07T11:10:14Z</time>
      </trkpt>
      <trkpt lat="43.60561" lon="2.9382">
        <ele>1009.5217285156</ele>
        <time>2012-05-07T11:10:20Z</time>
      </trkpt>
      <trkpt lat="43.60561" lon="2.93818">
        <ele>1010.0021972656</ele>
        <time>2012-05-07T11:10:22Z</time>
      </trkpt>
      <trkpt lat="43.60558" lon="2.93807">
        <ele>1010.4829101562</ele>
        <time>2012-05-07T11:10:30Z</time>
      </trkpt>
      <trkpt lat="43.60558" lon="2.93806">
        <ele>1010.4829101562</ele>
        <time>2012-05-07T11:10:31Z</time>
      </trkpt>
      <trkpt lat="43.60555" lon="2.93798">
        <ele>1011.4443359375</ele>
        <time>2012-05-07T11:10:37Z</time>
      </trkpt>
      <trkpt lat="43.60551" lon="2.93788">
        <ele>1011.9250488281</ele>
        <time>2012-05-07T11:10:44Z</time>
      </trkpt>
      <trkpt lat="43.60544" lon="2.93777">
        <ele>1014.8088378906</ele>
        <time>2012-05-07T11:10:52Z</time>
      </trkpt>
      <trkpt lat="43.6054" lon="2.93772">
        <ele>1015.7702636719</ele>
        <time>2012-05-07T11:10:57Z</time>
      </trkpt>
      <trkpt lat="43.60534" lon="2.93765">
        <ele>1016.7314453125</ele>
        <time>2012-05-07T11:11:03Z</time>
      </trkpt>
      <trkpt lat="43.60529" lon="2.93758">
        <ele>1017.6926269531</ele>
        <time>2012-05-07T11:11:09Z</time>
      </trkpt>
      <trkpt lat="43.60527" lon="2.93752">
        <ele>1017.6926269531</ele>
        <time>2012-05-07T11:11:14Z</time>
      </trkpt>
      <trkpt lat="43.60523" lon="2.93743">
        <ele>1019.134765625</ele>
        <time>2012-05-07T11:11:21Z</time>
      </trkpt>
      <trkpt lat="43.60523" lon="2.93741">
        <ele>1019.6154785156</ele>
        <time>2012-05-07T11:11:23Z</time>
      </trkpt>
      <trkpt lat="43.60526" lon="2.93737">
        <ele>1021.0576171875</ele>
        <time>2012-05-07T11:11:29Z</time>
      </trkpt>
      <trkpt lat="43.60532" lon="2.93738">
        <ele>1022.0187988281</ele>
        <time>2012-05-07T11:11:34Z</time>
      </trkpt>
      <trkpt lat="43.60539" lon="2.93741">
        <ele>1023.4609375</ele>
        <time>2012-05-07T11:11:40Z</time>
      </trkpt>
      <trkpt lat="43.60547" lon="2.93744">
        <ele>1024.9028320312</ele>
        <time>2012-05-07T11:11:48Z</time>
      </trkpt>
      <trkpt lat="43.60554" lon="2.93746">
        <ele>1026.8254394531</ele>
        <time>2012-05-07T11:11:55Z</time>
      </trkpt>
      <trkpt lat="43.60559" lon="2.93749">
        <ele>1028.2673339844</ele>
        <time>2012-05-07T11:12:02Z</time>
      </trkpt>
      <trkpt lat="43.60564" lon="2.93751">
        <ele>1029.228515625</ele>
        <time>2012-05-07T11:12:08Z</time>
      </trkpt>
      <trkpt lat="43.60571" lon="2.93754">
        <ele>1030.1899414062</ele>
        <time>2012-05-07T11:12:15Z</time>
      </trkpt>
      <trkpt lat="43.60579" lon="2.93759">
        <ele>1029.7092285156</ele>
        <time>2012-05-07T11:12:23Z</time>
      </trkpt>
      <trkpt lat="43.60584" lon="2.93763">
        <ele>1030.6706542969</ele>
        <time>2012-05-07T11:12:29Z</time>
      </trkpt>
      <trkpt lat="43.60593" lon="2.93771">
        <ele>1031.6318359375</ele>
        <time>2012-05-07T11:12:39Z</time>
      </trkpt>
      <trkpt lat="43.606" lon="2.93776">
        <ele>1033.0737304688</ele>
        <time>2012-05-07T11:12:46Z</time>
      </trkpt>
      <trkpt lat="43.60605" lon="2.93774">
        <ele>1035.4770507812</ele>
        <time>2012-05-07T11:12:55Z</time>
      </trkpt>
      <trkpt lat="43.60608" lon="2.93769">
        <ele>1037.3999023438</ele>
        <time>2012-05-07T11:13:01Z</time>
      </trkpt>
      <trkpt lat="43.6061" lon="2.93767">
        <ele>1039.8032226562</ele>
        <time>2012-05-07T11:13:06Z</time>
      </trkpt>
      <trkpt lat="43.60612" lon="2.93764">
        <ele>1041.7258300781</ele>
        <time>2012-05-07T11:13:11Z</time>
      </trkpt>
      <trkpt lat="43.60616" lon="2.93761">
        <ele>1043.1677246094</ele>
        <time>2012-05-07T11:13:16Z</time>
      </trkpt>
      <trkpt lat="43.60619" lon="2.93759">
        <ele>1044.1291503906</ele>
        <time>2012-05-07T11:13:21Z</time>
      </trkpt>
      <trkpt lat="43.60626" lon="2.9376">
        <ele>1045.5710449219</ele>
        <time>2012-05-07T11:13:28Z</time>
      </trkpt>
      <trkpt lat="43.60631" lon="2.93758">
        <ele>1047.4936523438</ele>
        <time>2012-05-07T11:13:34Z</time>
      </trkpt>
      <trkpt lat="43.60637" lon="2.93755">
        <ele>1049.4162597656</ele>
        <time>2012-05-07T11:13:42Z</time>
      </trkpt>
      <trkpt lat="43.60643" lon="2.93756">
        <ele>1050.3776855469</ele>
        <time>2012-05-07T11:13:48Z</time>
      </trkpt>
      <trkpt lat="43.60647" lon="2.93755">
        <ele>1051.3388671875</ele>
        <time>2012-05-07T11:13:53Z</time>
      </trkpt>
      <trkpt lat="43.60649" lon="2.93754">
        <ele>1051.8195800781</ele>
        <time>2012-05-07T11:13:59Z</time>
      </trkpt>
      <trkpt lat="43.60656" lon="2.93749">
        <ele>1054.2231445312</ele>
        <time>2012-05-07T11:14:06Z</time>
      </trkpt>
      <trkpt lat="43.6066" lon="2.93744">
        <ele>1055.6650390625</ele>
        <time>2012-05-07T11:14:12Z</time>
      </trkpt>
      <trkpt lat="43.60664" lon="2.9374">
        <ele>1057.5876464844</ele>
        <time>2012-05-07T11:14:18Z</time>
      </trkpt>
      <trkpt lat="43.60667" lon="2.93737">
        <ele>1059.0295410156</ele>
        <time>2012-05-07T11:14:21Z</time>
      </trkpt>
      <trkpt lat="43.60672" lon="2.93729">
        <ele>1060.9521484375</ele>
        <time>2012-05-07T11:14:28Z</time>
      </trkpt>
      <trkpt lat="43.6068" lon="2.93722">
        <ele>1061.9135742188</ele>
        <time>2012-05-07T11:14:36Z</time>
      </trkpt>
      <trkpt lat="43.60684" lon="2.93718">
        <ele>1062.8747558594</ele>
        <time>2012-05-07T11:14:40Z</time>
      </trkpt>
      <trkpt lat="43.60691" lon="2.93709">
        <ele>1064.3166503906</ele>
        <time>2012-05-07T11:14:49Z</time>
      </trkpt>
      <trkpt lat="43.60697" lon="2.93701">
        <ele>1065.7587890625</ele>
        <time>2012-05-07T11:14:57Z</time>
      </trkpt>
      <trkpt lat="43.60698" lon="2.93699">
        <ele>1066.2392578125</ele>
        <time>2012-05-07T11:14:59Z</time>
      </trkpt>
      <trkpt lat="43.60702" lon="2.93692">
        <ele>1068.162109375</ele>
        <time>2012-05-07T11:15:06Z</time>
      </trkpt>
      <trkpt lat="43.60706" lon="2.93686">
        <ele>1069.1235351562</ele>
        <time>2012-05-07T11:15:11Z</time>
      </trkpt>
      <trkpt lat="43.60707" lon="2.9368">
        <ele>1070.0847167969</ele>
        <time>2012-05-07T11:15:14Z</time>
      </trkpt>
      <trkpt lat="43.60711" lon="2.93675">
        <ele>1071.5266113281</ele>
        <time>2012-05-07T11:15:19Z</time>
      </trkpt>
      <trkpt lat="43.60712" lon="2.93669">
        <ele>1071.0461425781</ele>
        <time>2012-05-07T11:15:23Z</time>
      </trkpt>
      <trkpt lat="43.60711" lon="2.93667">
        <ele>1072.0073242188</ele>
        <time>2012-05-07T11:15:25Z</time>
      </trkpt>
      <trkpt lat="43.6071" lon="2.93661">
        <ele>1074.8913574219</ele>
        <time>2012-05-07T11:15:32Z</time>
      </trkpt>
      <trkpt lat="43.6071" lon="2.93657">
        <ele>1077.7751464844</ele>
        <time>2012-05-07T11:15:39Z</time>
      </trkpt>
      <trkpt lat="43.60707" lon="2.93651">
        <ele>1078.7365722656</ele>
        <time>2012-05-07T11:15:45Z</time>
      </trkpt>
      <trkpt lat="43.60705" lon="2.93647">
        <ele>1078.7365722656</ele>
        <time>2012-05-07T11:15:51Z</time>
      </trkpt>
      <trkpt lat="43.60699" lon="2.93644">
        <ele>1079.6977539062</ele>
        <time>2012-05-07T11:15:58Z</time>
      </trkpt>
      <trkpt lat="43.60694" lon="2.93638">
        <ele>1078.7365722656</ele>
        <time>2012-05-07T11:16:04Z</time>
      </trkpt>
      <trkpt lat="43.60687" lon="2.93633">
        <ele>1076.3332519531</ele>
        <time>2012-05-07T11:16:12Z</time>
      </trkpt>
      <trkpt lat="43.60683" lon="2.93631">
        <ele>1074.4106445312</ele>
        <time>2012-05-07T11:16:17Z</time>
      </trkpt>
      <trkpt lat="43.60678" lon="2.93632">
        <ele>1072.96875</ele>
        <time>2012-05-07T11:16:21Z</time>
      </trkpt>
      <trkpt lat="43.60675" lon="2.9363">
        <ele>1072.0073242188</ele>
        <time>2012-05-07T11:16:24Z</time>
      </trkpt>
      <trkpt lat="43.60675" lon="2.93628">
        <ele>1072.0073242188</ele>
        <time>2012-05-07T11:16:26Z</time>
      </trkpt>
      <trkpt lat="43.60673" lon="2.93622">
        <ele>1071.5266113281</ele>
        <time>2012-05-07T11:16:31Z</time>
      </trkpt>
      <trkpt lat="43.60667" lon="2.93613">
        <ele>1071.5266113281</ele>
        <time>2012-05-07T11:16:39Z</time>
      </trkpt>
      <trkpt lat="43.6066" lon="2.93607">
        <ele>1072.0073242188</ele>
        <time>2012-05-07T11:16:45Z</time>
      </trkpt>
      <trkpt lat="43.60659" lon="2.93606">
        <ele>1072.0073242188</ele>
        <time>2012-05-07T11:16:46Z</time>
      </trkpt>
      <trkpt lat="43.60651" lon="2.93599">
        <ele>1072.0073242188</ele>
        <time>2012-05-07T11:16:54Z</time>
      </trkpt>
      <trkpt lat="43.6065" lon="2.93598">
        <ele>1072.0073242188</ele>
        <time>2012-05-07T11:16:56Z</time>
      </trkpt>
      <trkpt lat="43.60647" lon="2.93598">
        <ele>1072.0073242188</ele>
        <time>2012-05-07T11:17:04Z</time>
      </trkpt>
      <trkpt lat="43.60645" lon="2.93605">
        <ele>1072.0073242188</ele>
        <time>2012-05-07T11:17:12Z</time>
      </trkpt>
      <trkpt lat="43.60643" lon="2.93605">
        <ele>1072.4880371094</ele>
        <time>2012-05-07T11:17:18Z</time>
      </trkpt>
      <trkpt lat="43.60643" lon="2.93604">
        <ele>1072.4880371094</ele>
        <time>2012-05-07T11:17:24Z</time>
      </trkpt>
      <trkpt lat="43.60642" lon="2.93602">
        <ele>1073.4494628906</ele>
        <time>2012-05-07T11:17:32Z</time>
      </trkpt>
      <trkpt lat="43.60642" lon="2.936">
        <ele>1073.4494628906</ele>
        <time>2012-05-07T11:17:38Z</time>
      </trkpt>
      <trkpt lat="43.60642" lon="2.936">
        <ele>1074.4106445312</ele>
        <time>2012-05-07T11:17:53Z</time>
      </trkpt>
      <trkpt lat="43.60643" lon="2.93598">
        <ele>1075.8525390625</ele>
        <time>2012-05-07T11:18:03Z</time>
      </trkpt>
      <trkpt lat="43.60647" lon="2.93595">
        <ele>1075.8525390625</ele>
        <time>2012-05-07T11:18:11Z</time>
      </trkpt>
      <trkpt lat="43.60652" lon="2.93597">
        <ele>1075.3718261719</ele>
        <time>2012-05-07T11:18:18Z</time>
      </trkpt>
      <trkpt lat="43.60659" lon="2.936">
        <ele>1074.4106445312</ele>
        <time>2012-05-07T11:18:25Z</time>
      </trkpt>
      <trkpt lat="43.60663" lon="2.93602">
        <ele>1074.4106445312</ele>
        <time>2012-05-07T11:18:29Z</time>
      </trkpt>
      <trkpt lat="43.60667" lon="2.93603">
        <ele>1073.9299316406</ele>
        <time>2012-05-07T11:18:36Z</time>
      </trkpt>
      <trkpt lat="43.60673" lon="2.93604">
        <ele>1072.4880371094</ele>
        <time>2012-05-07T11:18:41Z</time>
      </trkpt>
      <trkpt lat="43.60677" lon="2.93603">
        <ele>1072.4880371094</ele>
        <time>2012-05-07T11:18:45Z</time>
      </trkpt>
      <trkpt lat="43.60679" lon="2.93602">
        <ele>1072.0073242188</ele>
        <time>2012-05-07T11:18:47Z</time>
      </trkpt>
      <trkpt lat="43.60686" lon="2.93603">
        <ele>1071.5266113281</ele>
        <time>2012-05-07T11:18:55Z</time>
      </trkpt>
      <trkpt lat="43.6069" lon="2.93604">
        <ele>1071.0461425781</ele>
        <time>2012-05-07T11:18:59Z</time>
      </trkpt>
      <trkpt lat="43.60694" lon="2.93605">
        <ele>1070.0847167969</ele>
        <time>2012-05-07T11:19:04Z</time>
      </trkpt>
      <trkpt lat="43.60698" lon="2.93604">
        <ele>1073.9299316406</ele>
        <time>2012-05-07T11:19:18Z</time>
      </trkpt>
      <trkpt lat="43.60696" lon="2.93605">
        <ele>1074.8913574219</ele>
        <time>2012-05-07T11:19:27Z</time>
      </trkpt>
      <trkpt lat="43.60692" lon="2.93605">
        <ele>1074.4106445312</ele>
        <time>2012-05-07T11:19:37Z</time>
      </trkpt>
      <trkpt lat="43.60687" lon="2.93604">
        <ele>1073.9299316406</ele>
        <time>2012-05-07T11:19:42Z</time>
      </trkpt>
      <trkpt lat="43.60686" lon="2.936">
        <ele>1074.8913574219</ele>
        <time>2012-05-07T11:19:49Z</time>
      </trkpt>
      <trkpt lat="43.60686" lon="2.93599">
        <ele>1074.8913574219</ele>
        <time>2012-05-07T11:20:07Z</time>
      </trkpt>
      <trkpt lat="43.60688" lon="2.936">
        <ele>1078.255859375</ele>
        <time>2012-05-07T11:20:34Z</time>
      </trkpt>
      <trkpt lat="43.60684" lon="2.936">
        <ele>1075.8525390625</ele>
        <time>2012-05-07T11:20:42Z</time>
      </trkpt>
      <trkpt lat="43.60682" lon="2.936">
        <ele>1076.8139648438</ele>
        <time>2012-05-07T11:20:48Z</time>
      </trkpt>
      <trkpt lat="43.60679" lon="2.93599">
        <ele>1076.8139648438</ele>
        <time>2012-05-07T11:20:56Z</time>
      </trkpt>
      <trkpt lat="43.60671" lon="2.93603">
        <ele>1075.8525390625</ele>
        <time>2012-05-07T11:21:02Z</time>
      </trkpt>
      <trkpt lat="43.60666" lon="2.93606">
        <ele>1072.96875</ele>
        <time>2012-05-07T11:21:08Z</time>
      </trkpt>
      <trkpt lat="43.60661" lon="2.93603">
        <ele>1072.96875</ele>
        <time>2012-05-07T11:21:12Z</time>
      </trkpt>
      <trkpt lat="43.60651" lon="2.93598">
        <ele>1073.4494628906</ele>
        <time>2012-05-07T11:21:20Z</time>
      </trkpt>
      <trkpt lat="43.60648" lon="2.93599">
        <ele>1073.4494628906</ele>
        <time>2012-05-07T11:21:23Z</time>
      </trkpt>
      <trkpt lat="43.60645" lon="2.93601">
        <ele>1073.4494628906</ele>
        <time>2012-05-07T11:21:26Z</time>
      </trkpt>
      <trkpt lat="43.60641" lon="2.936">
        <ele>1073.4494628906</ele>
        <time>2012-05-07T11:21:28Z</time>
      </trkpt>
      <trkpt lat="43.6064" lon="2.93603">
        <ele>1071.5266113281</ele>
        <time>2012-05-07T11:21:34Z</time>
      </trkpt>
      <trkpt lat="43.60638" lon="2.93604">
        <ele>1071.0461425781</ele>
        <time>2012-05-07T11:21:40Z</time>
      </trkpt>
      <trkpt lat="43.60638" lon="2.93606">
        <ele>1071.5266113281</ele>
        <time>2012-05-07T11:21:46Z</time>
      </trkpt>
      <trkpt lat="43.60631" lon="2.93609">
        <ele>1070.0847167969</ele>
        <time>2012-05-07T11:21:54Z</time>
      </trkpt>
      <trkpt lat="43.60626" lon="2.93609">
        <ele>1069.1235351562</ele>
        <time>2012-05-07T11:21:59Z</time>
      </trkpt>
      <trkpt lat="43.60625" lon="2.93609">
        <ele>1069.1235351562</ele>
        <time>2012-05-07T11:22:00Z</time>
      </trkpt>
      <trkpt lat="43.60619" lon="2.93609">
        <ele>1069.6042480469</ele>
        <time>2012-05-07T11:22:05Z</time>
      </trkpt>
      <trkpt lat="43.60615" lon="2.93609">
        <ele>1069.1235351562</ele>
        <time>2012-05-07T11:22:10Z</time>
      </trkpt>
      <trkpt lat="43.60612" lon="2.93609">
        <ele>1067.6811523438</ele>
        <time>2012-05-07T11:22:14Z</time>
      </trkpt>
      <trkpt lat="43.60606" lon="2.93611">
        <ele>1066.7199707031</ele>
        <time>2012-05-07T11:22:19Z</time>
      </trkpt>
      <trkpt lat="43.60596" lon="2.93617">
        <ele>1065.2780761719</ele>
        <time>2012-05-07T11:22:30Z</time>
      </trkpt>
      <trkpt lat="43.6059" lon="2.9362">
        <ele>1063.35546875</ele>
        <time>2012-05-07T11:22:35Z</time>
      </trkpt>
      <trkpt lat="43.60588" lon="2.93622">
        <ele>1062.8747558594</ele>
        <time>2012-05-07T11:22:36Z</time>
      </trkpt>
      <trkpt lat="43.60582" lon="2.93626">
        <ele>1061.9135742188</ele>
        <time>2012-05-07T11:22:40Z</time>
      </trkpt>
      <trkpt lat="43.60579" lon="2.93631">
        <ele>1061.9135742188</ele>
        <time>2012-05-07T11:22:44Z</time>
      </trkpt>
      <trkpt lat="43.60575" lon="2.93636">
        <ele>1059.9907226562</ele>
        <time>2012-05-07T11:22:49Z</time>
      </trkpt>
      <trkpt lat="43.60573" lon="2.9364">
        <ele>1059.0295410156</ele>
        <time>2012-05-07T11:22:54Z</time>
      </trkpt>
      <trkpt lat="43.6057" lon="2.93645">
        <ele>1057.5876464844</ele>
        <time>2012-05-07T11:22:59Z</time>
      </trkpt>
      <trkpt lat="43.60565" lon="2.9365">
        <ele>1055.6650390625</ele>
        <time>2012-05-07T11:23:05Z</time>
      </trkpt>
      <trkpt lat="43.60563" lon="2.93652">
        <ele>1054.7036132812</ele>
        <time>2012-05-07T11:23:08Z</time>
      </trkpt>
      <trkpt lat="43.60559" lon="2.9365">
        <ele>1052.3002929688</ele>
        <time>2012-05-07T11:23:14Z</time>
      </trkpt>
      <trkpt lat="43.60556" lon="2.9365">
        <ele>1050.8581542969</ele>
        <time>2012-05-07T11:23:19Z</time>
      </trkpt>
      <trkpt lat="43.60551" lon="2.93649">
        <ele>1049.4162597656</ele>
        <time>2012-05-07T11:23:24Z</time>
      </trkpt>
      <trkpt lat="43.60549" lon="2.93646">
        <ele>1047.9743652344</ele>
        <time>2012-05-07T11:23:28Z</time>
      </trkpt>
      <trkpt lat="43.60546" lon="2.93645">
        <ele>1046.5324707031</ele>
        <time>2012-05-07T11:23:34Z</time>
      </trkpt>
      <trkpt lat="43.60543" lon="2.93646">
        <ele>1044.6096191406</ele>
        <time>2012-05-07T11:23:42Z</time>
      </trkpt>
      <trkpt lat="43.60543" lon="2.93647">
        <ele>1042.6872558594</ele>
        <time>2012-05-07T11:23:49Z</time>
      </trkpt>
      <trkpt lat="43.60541" lon="2.93648">
        <ele>1041.2451171875</ele>
        <time>2012-05-07T11:23:56Z</time>
      </trkpt>
      <trkpt lat="43.60538" lon="2.93647">
        <ele>1038.8420410156</ele>
        <time>2012-05-07T11:24:02Z</time>
      </trkpt>
      <trkpt lat="43.60534" lon="2.93647">
        <ele>1037.8806152344</ele>
        <time>2012-05-07T11:24:08Z</time>
      </trkpt>
      <trkpt lat="43.6053" lon="2.93648">
        <ele>1036.9191894531</ele>
        <time>2012-05-07T11:24:13Z</time>
      </trkpt>
      <trkpt lat="43.60528" lon="2.93651">
        <ele>1034.9965820312</ele>
        <time>2012-05-07T11:24:18Z</time>
      </trkpt>
      <trkpt lat="43.60523" lon="2.9365">
        <ele>1033.0737304688</ele>
        <time>2012-05-07T11:24:23Z</time>
      </trkpt>
      <trkpt lat="43.6052" lon="2.93649">
        <ele>1032.1125488281</ele>
        <time>2012-05-07T11:24:28Z</time>
      </trkpt>
      <trkpt lat="43.60516" lon="2.93648">
        <ele>1030.6706542969</ele>
        <time>2012-05-07T11:24:33Z</time>
      </trkpt>
      <trkpt lat="43.60511" lon="2.93649">
        <ele>1029.7092285156</ele>
        <time>2012-05-07T11:24:39Z</time>
      </trkpt>
      <trkpt lat="43.60506" lon="2.93648">
        <ele>1028.2673339844</ele>
        <time>2012-05-07T11:24:45Z</time>
      </trkpt>
      <trkpt lat="43.60502" lon="2.93645">
        <ele>1027.3061523438</ele>
        <time>2012-05-07T11:24:49Z</time>
      </trkpt>
      <trkpt lat="43.605" lon="2.93643">
        <ele>1026.8254394531</ele>
        <time>2012-05-07T11:24:51Z</time>
      </trkpt>
      <trkpt lat="43.60495" lon="2.93646">
        <ele>1026.3447265625</ele>
        <time>2012-05-07T11:24:56Z</time>
      </trkpt>
      <trkpt lat="43.60495" lon="2.93647">
        <ele>1026.3447265625</ele>
        <time>2012-05-07T11:24:57Z</time>
      </trkpt>
      <trkpt lat="43.60491" lon="2.93648">
        <ele>1025.8640136719</ele>
        <time>2012-05-07T11:25:03Z</time>
      </trkpt>
      <trkpt lat="43.60487" lon="2.93657">
        <ele>1024.9028320312</ele>
        <time>2012-05-07T11:25:09Z</time>
      </trkpt>
      <trkpt lat="43.60482" lon="2.9366">
        <ele>1022.9802246094</ele>
        <time>2012-05-07T11:25:14Z</time>
      </trkpt>
      <trkpt lat="43.60481" lon="2.9366">
        <ele>1022.4995117188</ele>
        <time>2012-05-07T11:25:15Z</time>
      </trkpt>
      <trkpt lat="43.60475" lon="2.9366">
        <ele>1020.0961914062</ele>
        <time>2012-05-07T11:25:21Z</time>
      </trkpt>
      <trkpt lat="43.60472" lon="2.93658">
        <ele>1019.134765625</ele>
        <time>2012-05-07T11:25:25Z</time>
      </trkpt>
      <trkpt lat="43.6047" lon="2.93657">
        <ele>1019.134765625</ele>
        <time>2012-05-07T11:25:27Z</time>
      </trkpt>
      <trkpt lat="43.60463" lon="2.93658">
        <ele>1015.7702636719</ele>
        <time>2012-05-07T11:25:34Z</time>
      </trkpt>
      <trkpt lat="43.60461" lon="2.93658">
        <ele>1015.7702636719</ele>
        <time>2012-05-07T11:25:35Z</time>
      </trkpt>
      <trkpt lat="43.60459" lon="2.93658">
        <ele>1015.2895507812</ele>
        <time>2012-05-07T11:25:38Z</time>
      </trkpt>
      <trkpt lat="43.60455" lon="2.93658">
        <ele>1013.3669433594</ele>
        <time>2012-05-07T11:25:43Z</time>
      </trkpt>
      <trkpt lat="43.60449" lon="2.93656">
        <ele>1010.4829101562</ele>
        <time>2012-05-07T11:25:50Z</time>
      </trkpt>
      <trkpt lat="43.60444" lon="2.93655">
        <ele>1008.0798339844</ele>
        <time>2012-05-07T11:25:54Z</time>
      </trkpt>
      <trkpt lat="43.60442" lon="2.93655">
        <ele>1007.5991210938</ele>
        <time>2012-05-07T11:25:56Z</time>
      </trkpt>
      <trkpt lat="43.60435" lon="2.93656">
        <ele>1005.1958007812</ele>
        <time>2012-05-07T11:26:02Z</time>
      </trkpt>
      <trkpt lat="43.60431" lon="2.93657">
        <ele>1003.2729492188</ele>
        <time>2012-05-07T11:26:08Z</time>
      </trkpt>
      <trkpt lat="43.60427" lon="2.93658">
        <ele>1002.7922363281</ele>
        <time>2012-05-07T11:26:12Z</time>
      </trkpt>
      <trkpt lat="43.60426" lon="2.93659">
        <ele>1001.8310546875</ele>
        <time>2012-05-07T11:26:18Z</time>
      </trkpt>
      <trkpt lat="43.60423" lon="2.93658">
        <ele>1001.3503417969</ele>
        <time>2012-05-07T11:26:22Z</time>
      </trkpt>
      <trkpt lat="43.60418" lon="2.93657">
        <ele>999.427734375</ele>
        <time>2012-05-07T11:26:27Z</time>
      </trkpt>
      <trkpt lat="43.60414" lon="2.93653">
        <ele>997.98583984375</ele>
        <time>2012-05-07T11:26:32Z</time>
      </trkpt>
      <trkpt lat="43.60409" lon="2.93648">
        <ele>996.06323242188</ele>
        <time>2012-05-07T11:26:36Z</time>
      </trkpt>
      <trkpt lat="43.60404" lon="2.93642">
        <ele>994.140625</ele>
        <time>2012-05-07T11:26:42Z</time>
      </trkpt>
      <trkpt lat="43.60398" lon="2.9364">
        <ele>993.65991210938</ele>
        <time>2012-05-07T11:26:47Z</time>
      </trkpt>
      <trkpt lat="43.60394" lon="2.93637">
        <ele>992.69873046875</ele>
        <time>2012-05-07T11:26:52Z</time>
      </trkpt>
      <trkpt lat="43.60389" lon="2.93638">
        <ele>991.25659179688</ele>
        <time>2012-05-07T11:26:57Z</time>
      </trkpt>
      <trkpt lat="43.60386" lon="2.93638">
        <ele>989.333984375</ele>
        <time>2012-05-07T11:27:00Z</time>
      </trkpt>
      <trkpt lat="43.6038" lon="2.93633">
        <ele>989.333984375</ele>
        <time>2012-05-07T11:27:06Z</time>
      </trkpt>
      <trkpt lat="43.60372" lon="2.93629">
        <ele>987.89184570312</ele>
        <time>2012-05-07T11:27:12Z</time>
      </trkpt>
      <trkpt lat="43.60368" lon="2.93624">
        <ele>987.4111328125</ele>
        <time>2012-05-07T11:27:16Z</time>
      </trkpt>
      <trkpt lat="43.60367" lon="2.93623">
        <ele>986.93041992188</ele>
        <time>2012-05-07T11:27:17Z</time>
      </trkpt>
      <trkpt lat="43.60361" lon="2.93614">
        <ele>987.4111328125</ele>
        <time>2012-05-07T11:27:23Z</time>
      </trkpt>
      <trkpt lat="43.6036" lon="2.93612">
        <ele>987.4111328125</ele>
        <time>2012-05-07T11:27:24Z</time>
      </trkpt>
      <trkpt lat="43.60358" lon="2.93608">
        <ele>988.853515625</ele>
        <time>2012-05-07T11:27:27Z</time>
      </trkpt>
      <trkpt lat="43.60353" lon="2.93602">
        <ele>988.853515625</ele>
        <time>2012-05-07T11:27:33Z</time>
      </trkpt>
      <trkpt lat="43.60352" lon="2.93601">
        <ele>988.853515625</ele>
        <time>2012-05-07T11:27:34Z</time>
      </trkpt>
      <trkpt lat="43.6035" lon="2.93601">
        <ele>988.37280273438</ele>
        <time>2012-05-07T11:27:36Z</time>
      </trkpt>
      <trkpt lat="43.60344" lon="2.93597">
        <ele>985.96923828125</ele>
        <time>2012-05-07T11:27:41Z</time>
      </trkpt>
      <trkpt lat="43.6034" lon="2.93595">
        <ele>983.08520507812</ele>
        <time>2012-05-07T11:27:48Z</time>
      </trkpt>
      <trkpt lat="43.60334" lon="2.93594">
        <ele>981.16284179688</ele>
        <time>2012-05-07T11:27:53Z</time>
      </trkpt>
      <trkpt lat="43.60327" lon="2.93594">
        <ele>978.27880859375</ele>
        <time>2012-05-07T11:27:59Z</time>
      </trkpt>
      <trkpt lat="43.60324" lon="2.93595">
        <ele>977.31762695312</ele>
        <time>2012-05-07T11:28:02Z</time>
      </trkpt>
      <trkpt lat="43.60316" lon="2.93591">
        <ele>975.87548828125</ele>
        <time>2012-05-07T11:28:10Z</time>
      </trkpt>
      <trkpt lat="43.60309" lon="2.9359">
        <ele>975.87548828125</ele>
        <time>2012-05-07T11:28:15Z</time>
      </trkpt>
      <trkpt lat="43.60308" lon="2.93589">
        <ele>975.87548828125</ele>
        <time>2012-05-07T11:28:16Z</time>
      </trkpt>
      <trkpt lat="43.60304" lon="2.93589">
        <ele>976.8369140625</ele>
        <time>2012-05-07T11:28:21Z</time>
      </trkpt>
      <trkpt lat="43.60298" lon="2.93586">
        <ele>975.87548828125</ele>
        <time>2012-05-07T11:28:28Z</time>
      </trkpt>
      <trkpt lat="43.60292" lon="2.93589">
        <ele>973.47241210938</ele>
        <time>2012-05-07T11:28:34Z</time>
      </trkpt>
      <trkpt lat="43.60291" lon="2.93589">
        <ele>972.99169921875</ele>
        <time>2012-05-07T11:28:35Z</time>
      </trkpt>
      <trkpt lat="43.60289" lon="2.93588">
        <ele>972.0302734375</ele>
        <time>2012-05-07T11:28:37Z</time>
      </trkpt>
      <trkpt lat="43.60281" lon="2.9359">
        <ele>969.626953125</ele>
        <time>2012-05-07T11:28:42Z</time>
      </trkpt>
      <trkpt lat="43.60274" lon="2.93588">
        <ele>969.14624023438</ele>
        <time>2012-05-07T11:28:48Z</time>
      </trkpt>
      <trkpt lat="43.60268" lon="2.93588">
        <ele>968.66552734375</ele>
        <time>2012-05-07T11:28:52Z</time>
      </trkpt>
      <trkpt lat="43.60264" lon="2.93589">
        <ele>968.18481445312</ele>
        <time>2012-05-07T11:28:57Z</time>
      </trkpt>
      <trkpt lat="43.60261" lon="2.93586">
        <ele>967.2236328125</ele>
        <time>2012-05-07T11:29:02Z</time>
      </trkpt>
      <trkpt lat="43.60255" lon="2.93586">
        <ele>965.30102539062</ele>
        <time>2012-05-07T11:29:08Z</time>
      </trkpt>
      <trkpt lat="43.6025" lon="2.93588">
        <ele>962.89770507812</ele>
        <time>2012-05-07T11:29:12Z</time>
      </trkpt>
      <trkpt lat="43.60246" lon="2.93589">
        <ele>960.49438476562</ele>
        <time>2012-05-07T11:29:17Z</time>
      </trkpt>
      <trkpt lat="43.60241" lon="2.93591">
        <ele>957.61059570312</ele>
        <time>2012-05-07T11:29:23Z</time>
      </trkpt>
      <trkpt lat="43.60236" lon="2.93595">
        <ele>956.16845703125</ele>
        <time>2012-05-07T11:29:27Z</time>
      </trkpt>
      <trkpt lat="43.60232" lon="2.93597">
        <ele>954.24584960938</ele>
        <time>2012-05-07T11:29:32Z</time>
      </trkpt>
      <trkpt lat="43.60228" lon="2.93602">
        <ele>952.32299804688</ele>
        <time>2012-05-07T11:29:38Z</time>
      </trkpt>
      <trkpt lat="43.60228" lon="2.93604">
        <ele>951.84252929688</ele>
        <time>2012-05-07T11:29:39Z</time>
      </trkpt>
      <trkpt lat="43.60221" lon="2.93604">
        <ele>949.43920898438</ele>
        <time>2012-05-07T11:29:46Z</time>
      </trkpt>
      <trkpt lat="43.60216" lon="2.93607">
        <ele>947.03588867188</ele>
        <time>2012-05-07T11:29:52Z</time>
      </trkpt>
      <trkpt lat="43.60215" lon="2.93607">
        <ele>946.55541992188</ele>
        <time>2012-05-07T11:29:53Z</time>
      </trkpt>
      <trkpt lat="43.60211" lon="2.93608">
        <ele>944.15209960938</ele>
        <time>2012-05-07T11:29:58Z</time>
      </trkpt>
      <trkpt lat="43.60207" lon="2.93614">
        <ele>940.78735351562</ele>
        <time>2012-05-07T11:30:04Z</time>
      </trkpt>
      <trkpt lat="43.60203" lon="2.93617">
        <ele>938.38403320312</ele>
        <time>2012-05-07T11:30:09Z</time>
      </trkpt>
      <trkpt lat="43.602" lon="2.93619">
        <ele>936.94189453125</ele>
        <time>2012-05-07T11:30:13Z</time>
      </trkpt>
      <trkpt lat="43.60195" lon="2.9362">
        <ele>934.53881835938</ele>
        <time>2012-05-07T11:30:19Z</time>
      </trkpt>
      <trkpt lat="43.60189" lon="2.93623">
        <ele>932.6162109375</ele>
        <time>2012-05-07T11:30:25Z</time>
      </trkpt>
      <trkpt lat="43.60184" lon="2.93624">
        <ele>930.69360351562</ele>
        <time>2012-05-07T11:30:31Z</time>
      </trkpt>
      <trkpt lat="43.60178" lon="2.93626">
        <ele>928.77099609375</ele>
        <time>2012-05-07T11:30:36Z</time>
      </trkpt>
      <trkpt lat="43.60173" lon="2.93624">
        <ele>926.84838867188</ele>
        <time>2012-05-07T11:30:42Z</time>
      </trkpt>
      <trkpt lat="43.60172" lon="2.93625">
        <ele>926.36767578125</ele>
        <time>2012-05-07T11:30:43Z</time>
      </trkpt>
      <trkpt lat="43.60166" lon="2.93627">
        <ele>923.48364257812</ele>
        <time>2012-05-07T11:30:48Z</time>
      </trkpt>
      <trkpt lat="43.60165" lon="2.93628">
        <ele>922.04150390625</ele>
        <time>2012-05-07T11:30:50Z</time>
      </trkpt>
      <trkpt lat="43.60162" lon="2.9363">
        <ele>920.599609375</ele>
        <time>2012-05-07T11:30:54Z</time>
      </trkpt>
      <trkpt lat="43.60155" lon="2.93628">
        <ele>918.1962890625</ele>
        <time>2012-05-07T11:30:59Z</time>
      </trkpt>
      <trkpt lat="43.60148" lon="2.93627">
        <ele>916.75439453125</ele>
        <time>2012-05-07T11:31:03Z</time>
      </trkpt>
      <trkpt lat="43.60142" lon="2.93624">
        <ele>916.27368164062</ele>
        <time>2012-05-07T11:31:08Z</time>
      </trkpt>
      <trkpt lat="43.6014" lon="2.93623">
        <ele>916.27368164062</ele>
        <time>2012-05-07T11:31:09Z</time>
      </trkpt>
      <trkpt lat="43.60136" lon="2.9362">
        <ele>916.27368164062</ele>
        <time>2012-05-07T11:31:13Z</time>
      </trkpt>
      <trkpt lat="43.60128" lon="2.93614">
        <ele>916.75439453125</ele>
        <time>2012-05-07T11:31:19Z</time>
      </trkpt>
      <trkpt lat="43.60122" lon="2.93608">
        <ele>915.79321289062</ele>
        <time>2012-05-07T11:31:23Z</time>
      </trkpt>
      <trkpt lat="43.60116" lon="2.93608">
        <ele>913.38989257812</ele>
        <time>2012-05-07T11:31:27Z</time>
      </trkpt>
      <trkpt lat="43.60104" lon="2.93602">
        <ele>909.54467773438</ele>
        <time>2012-05-07T11:31:33Z</time>
      </trkpt>
      <trkpt lat="43.60103" lon="2.93602">
        <ele>909.06396484375</ele>
        <time>2012-05-07T11:31:34Z</time>
      </trkpt>
      <trkpt lat="43.60091" lon="2.93601">
        <ele>904.73779296875</ele>
        <time>2012-05-07T11:31:42Z</time>
      </trkpt>
      <trkpt lat="43.60083" lon="2.93601">
        <ele>903.2958984375</ele>
        <time>2012-05-07T11:31:47Z</time>
      </trkpt>
      <trkpt lat="43.60082" lon="2.93601">
        <ele>903.2958984375</ele>
        <time>2012-05-07T11:31:48Z</time>
      </trkpt>
      <trkpt lat="43.60079" lon="2.93604">
        <ele>901.37329101562</ele>
        <time>2012-05-07T11:31:52Z</time>
      </trkpt>
      <trkpt lat="43.60071" lon="2.93604">
        <ele>899.45068359375</ele>
        <time>2012-05-07T11:32:00Z</time>
      </trkpt>
      <trkpt lat="43.60064" lon="2.93603">
        <ele>897.52807617188</ele>
        <time>2012-05-07T11:32:06Z</time>
      </trkpt>
      <trkpt lat="43.60057" lon="2.936">
        <ele>896.56689453125</ele>
        <time>2012-05-07T11:32:12Z</time>
      </trkpt>
      <trkpt lat="43.60054" lon="2.93604">
        <ele>895.12475585938</ele>
        <time>2012-05-07T11:32:16Z</time>
      </trkpt>
      <trkpt lat="43.60049" lon="2.93608">
        <ele>893.2021484375</ele>
        <time>2012-05-07T11:32:23Z</time>
      </trkpt>
      <trkpt lat="43.60042" lon="2.93606">
        <ele>891.76000976562</ele>
        <time>2012-05-07T11:32:29Z</time>
      </trkpt>
      <trkpt lat="43.60038" lon="2.93608">
        <ele>889.35668945312</ele>
        <time>2012-05-07T11:32:33Z</time>
      </trkpt>
      <trkpt lat="43.60033" lon="2.93609">
        <ele>887.43408203125</ele>
        <time>2012-05-07T11:32:39Z</time>
      </trkpt>
      <trkpt lat="43.60028" lon="2.93609">
        <ele>885.51147460938</ele>
        <time>2012-05-07T11:32:45Z</time>
      </trkpt>
      <trkpt lat="43.60024" lon="2.93612">
        <ele>883.5888671875</ele>
        <time>2012-05-07T11:32:51Z</time>
      </trkpt>
      <trkpt lat="43.6002" lon="2.93608">
        <ele>882.14697265625</ele>
        <time>2012-05-07T11:32:57Z</time>
      </trkpt>
      <trkpt lat="43.60016" lon="2.93609">
        <ele>880.705078125</ele>
        <time>2012-05-07T11:33:01Z</time>
      </trkpt>
      <trkpt lat="43.6001" lon="2.93612">
        <ele>878.78247070312</ele>
        <time>2012-05-07T11:33:08Z</time>
      </trkpt>
      <trkpt lat="43.60004" lon="2.93612">
        <ele>876.85986328125</ele>
        <time>2012-05-07T11:33:13Z</time>
      </trkpt>
      <trkpt lat="43.59998" lon="2.93613">
        <ele>874.93701171875</ele>
        <time>2012-05-07T11:33:19Z</time>
      </trkpt>
      <trkpt lat="43.59997" lon="2.93613">
        <ele>874.45629882812</ele>
        <time>2012-05-07T11:33:20Z</time>
      </trkpt>
      <trkpt lat="43.59995" lon="2.93613">
        <ele>873.9755859375</ele>
        <time>2012-05-07T11:33:22Z</time>
      </trkpt>
      <trkpt lat="43.59993" lon="2.93613">
        <ele>872.53369140625</ele>
        <time>2012-05-07T11:33:27Z</time>
      </trkpt>
      <trkpt lat="43.5999" lon="2.93614">
        <ele>870.61108398438</ele>
        <time>2012-05-07T11:33:32Z</time>
      </trkpt>
      <trkpt lat="43.59985" lon="2.93613">
        <ele>869.16918945312</ele>
        <time>2012-05-07T11:33:37Z</time>
      </trkpt>
      <trkpt lat="43.59982" lon="2.93617">
        <ele>867.24658203125</ele>
        <time>2012-05-07T11:33:42Z</time>
      </trkpt>
      <trkpt lat="43.59978" lon="2.93622">
        <ele>864.84326171875</ele>
        <time>2012-05-07T11:33:48Z</time>
      </trkpt>
      <trkpt lat="43.59973" lon="2.93623">
        <ele>861.95947265625</ele>
        <time>2012-05-07T11:33:54Z</time>
      </trkpt>
      <trkpt lat="43.59969" lon="2.93625">
        <ele>860.03662109375</ele>
        <time>2012-05-07T11:33:59Z</time>
      </trkpt>
      <trkpt lat="43.59965" lon="2.9363">
        <ele>857.15258789062</ele>
        <time>2012-05-07T11:34:05Z</time>
      </trkpt>
      <trkpt lat="43.5996" lon="2.93632">
        <ele>855.71069335938</ele>
        <time>2012-05-07T11:34:12Z</time>
      </trkpt>
      <trkpt lat="43.59956" lon="2.93629">
        <ele>854.26879882812</ele>
        <time>2012-05-07T11:34:17Z</time>
      </trkpt>
      <trkpt lat="43.59952" lon="2.93629">
        <ele>852.82666015625</ele>
        <time>2012-05-07T11:34:20Z</time>
      </trkpt>
      <trkpt lat="43.59947" lon="2.9363">
        <ele>850.42358398438</ele>
        <time>2012-05-07T11:34:26Z</time>
      </trkpt>
      <trkpt lat="43.59945" lon="2.93636">
        <ele>848.50073242188</ele>
        <time>2012-05-07T11:34:32Z</time>
      </trkpt>
      <trkpt lat="43.59942" lon="2.9364">
        <ele>847.05883789062</ele>
        <time>2012-05-07T11:34:38Z</time>
      </trkpt>
      <trkpt lat="43.59939" lon="2.93645">
        <ele>846.09765625</ele>
        <time>2012-05-07T11:34:45Z</time>
      </trkpt>
      <trkpt lat="43.59936" lon="2.93647">
        <ele>845.61694335938</ele>
        <time>2012-05-07T11:34:50Z</time>
      </trkpt>
      <trkpt lat="43.59932" lon="2.93648">
        <ele>844.17504882812</ele>
        <time>2012-05-07T11:34:56Z</time>
      </trkpt>
      <trkpt lat="43.59929" lon="2.93652">
        <ele>842.25219726562</ele>
        <time>2012-05-07T11:35:01Z</time>
      </trkpt>
      <trkpt lat="43.59926" lon="2.93654">
        <ele>840.81005859375</ele>
        <time>2012-05-07T11:35:07Z</time>
      </trkpt>
      <trkpt lat="43.59924" lon="2.93657">
        <ele>840.81005859375</ele>
        <time>2012-05-07T11:35:12Z</time>
      </trkpt>
      <trkpt lat="43.59926" lon="2.93662">
        <ele>840.81005859375</ele>
        <time>2012-05-07T11:35:19Z</time>
      </trkpt>
      <trkpt lat="43.59925" lon="2.93667">
        <ele>840.32958984375</ele>
        <time>2012-05-07T11:35:25Z</time>
      </trkpt>
      <trkpt lat="43.59922" lon="2.93673">
        <ele>838.8876953125</ele>
        <time>2012-05-07T11:35:31Z</time>
      </trkpt>
      <trkpt lat="43.59922" lon="2.93679">
        <ele>836.96484375</ele>
        <time>2012-05-07T11:35:35Z</time>
      </trkpt>
      <trkpt lat="43.59919" lon="2.93689">
        <ele>835.52294921875</ele>
        <time>2012-05-07T11:35:40Z</time>
      </trkpt>
      <trkpt lat="43.59917" lon="2.93693">
        <ele>834.56176757812</ele>
        <time>2012-05-07T11:35:43Z</time>
      </trkpt>
      <trkpt lat="43.59915" lon="2.93696">
        <ele>833.60034179688</ele>
        <time>2012-05-07T11:35:46Z</time>
      </trkpt>
      <trkpt lat="43.59914" lon="2.93702">
        <ele>832.15844726562</ele>
        <time>2012-05-07T11:35:53Z</time>
      </trkpt>
      <trkpt lat="43.59909" lon="2.93703">
        <ele>831.197265625</ele>
        <time>2012-05-07T11:35:59Z</time>
      </trkpt>
      <trkpt lat="43.59907" lon="2.93704">
        <ele>829.75512695312</ele>
        <time>2012-05-07T11:36:03Z</time>
      </trkpt>
      <trkpt lat="43.59904" lon="2.93708">
        <ele>828.7939453125</ele>
        <time>2012-05-07T11:36:09Z</time>
      </trkpt>
      <trkpt lat="43.59899" lon="2.93711">
        <ele>826.87109375</ele>
        <time>2012-05-07T11:36:16Z</time>
      </trkpt>
      <trkpt lat="43.59895" lon="2.93713">
        <ele>824.94848632812</ele>
        <time>2012-05-07T11:36:20Z</time>
      </trkpt>
      <trkpt lat="43.59893" lon="2.93714">
        <ele>823.98706054688</ele>
        <time>2012-05-07T11:36:22Z</time>
      </trkpt>
      <trkpt lat="43.59887" lon="2.93715">
        <ele>821.58374023438</ele>
        <time>2012-05-07T11:36:27Z</time>
      </trkpt>
      <trkpt lat="43.59879" lon="2.93718">
        <ele>818.21923828125</ele>
        <time>2012-05-07T11:36:34Z</time>
      </trkpt>
      <trkpt lat="43.59877" lon="2.93721">
        <ele>816.77734375</ele>
        <time>2012-05-07T11:36:37Z</time>
      </trkpt>
      <trkpt lat="43.59875" lon="2.93722">
        <ele>816.77734375</ele>
        <time>2012-05-07T11:36:40Z</time>
      </trkpt>
      <trkpt lat="43.59871" lon="2.93724">
        <ele>815.33544921875</ele>
        <time>2012-05-07T11:36:45Z</time>
      </trkpt>
      <trkpt lat="43.59867" lon="2.93728">
        <ele>813.41284179688</ele>
        <time>2012-05-07T11:36:52Z</time>
      </trkpt>
      <trkpt lat="43.59865" lon="2.93732">
        <ele>811.48999023438</ele>
        <time>2012-05-07T11:36:57Z</time>
      </trkpt>
      <trkpt lat="43.5986" lon="2.93734">
        <ele>809.5673828125</ele>
        <time>2012-05-07T11:37:03Z</time>
      </trkpt>
      <trkpt lat="43.59857" lon="2.93738">
        <ele>807.64477539062</ele>
        <time>2012-05-07T11:37:09Z</time>
      </trkpt>
      <trkpt lat="43.59854" lon="2.93743">
        <ele>805.72216796875</ele>
        <time>2012-05-07T11:37:14Z</time>
      </trkpt>
      <trkpt lat="43.5985" lon="2.93743">
        <ele>804.2802734375</ele>
        <time>2012-05-07T11:37:20Z</time>
      </trkpt>
      <trkpt lat="43.5985" lon="2.93744">
        <ele>804.2802734375</ele>
        <time>2012-05-07T11:37:27Z</time>
      </trkpt>
      <trkpt lat="43.59848" lon="2.93746">
        <ele>803.79956054688</ele>
        <time>2012-05-07T11:37:32Z</time>
      </trkpt>
      <trkpt lat="43.59847" lon="2.93752">
        <ele>802.357421875</ele>
        <time>2012-05-07T11:37:38Z</time>
      </trkpt>
      <trkpt lat="43.59843" lon="2.93754">
        <ele>800.43505859375</ele>
        <time>2012-05-07T11:37:44Z</time>
      </trkpt>
      <trkpt lat="43.59839" lon="2.93753">
        <ele>799.4736328125</ele>
        <time>2012-05-07T11:37:48Z</time>
      </trkpt>
      <trkpt lat="43.59834" lon="2.93753">
        <ele>798.99291992188</ele>
        <time>2012-05-07T11:37:53Z</time>
      </trkpt>
      <trkpt lat="43.59832" lon="2.93755">
        <ele>798.03173828125</ele>
        <time>2012-05-07T11:37:56Z</time>
      </trkpt>
      <trkpt lat="43.59828" lon="2.93754">
        <ele>795.62817382812</ele>
        <time>2012-05-07T11:38:02Z</time>
      </trkpt>
      <trkpt lat="43.59826" lon="2.93754">
        <ele>793.70556640625</ele>
        <time>2012-05-07T11:38:06Z</time>
      </trkpt>
      <trkpt lat="43.59821" lon="2.93753">
        <ele>791.78295898438</ele>
        <time>2012-05-07T11:38:14Z</time>
      </trkpt>
      <trkpt lat="43.59817" lon="2.93751">
        <ele>789.37963867188</ele>
        <time>2012-05-07T11:38:20Z</time>
      </trkpt>
      <trkpt lat="43.59812" lon="2.93747">
        <ele>787.45703125</ele>
        <time>2012-05-07T11:38:25Z</time>
      </trkpt>
      <trkpt lat="43.59806" lon="2.93745">
        <ele>785.05395507812</ele>
        <time>2012-05-07T11:38:30Z</time>
      </trkpt>
      <trkpt lat="43.59801" lon="2.93745">
        <ele>783.13110351562</ele>
        <time>2012-05-07T11:38:34Z</time>
      </trkpt>
      <trkpt lat="43.598" lon="2.93744">
        <ele>782.65063476562</ele>
        <time>2012-05-07T11:38:36Z</time>
      </trkpt>
      <trkpt lat="43.59794" lon="2.9374">
        <ele>781.20874023438</ele>
        <time>2012-05-07T11:38:42Z</time>
      </trkpt>
      <trkpt lat="43.59793" lon="2.93739">
        <ele>780.72802734375</ele>
        <time>2012-05-07T11:38:43Z</time>
      </trkpt>
      <trkpt lat="43.59784" lon="2.9374">
        <ele>777.84375</ele>
        <time>2012-05-07T11:38:50Z</time>
      </trkpt>
      <trkpt lat="43.59783" lon="2.93739">
        <ele>777.36328125</ele>
        <time>2012-05-07T11:38:51Z</time>
      </trkpt>
      <trkpt lat="43.5978" lon="2.93735">
        <ele>777.36328125</ele>
        <time>2012-05-07T11:38:54Z</time>
      </trkpt>
      <trkpt lat="43.59777" lon="2.93736">
        <ele>775.92114257812</ele>
        <time>2012-05-07T11:38:57Z</time>
      </trkpt>
      <trkpt lat="43.5977" lon="2.93736">
        <ele>772.556640625</ele>
        <time>2012-05-07T11:39:05Z</time>
      </trkpt>
      <trkpt lat="43.59766" lon="2.93735">
        <ele>771.59521484375</ele>
        <time>2012-05-07T11:39:09Z</time>
      </trkpt>
      <trkpt lat="43.59761" lon="2.93736">
        <ele>769.6728515625</ele>
        <time>2012-05-07T11:39:15Z</time>
      </trkpt>
      <trkpt lat="43.5976" lon="2.93734">
        <ele>769.19213867188</ele>
        <time>2012-05-07T11:39:20Z</time>
      </trkpt>
      <trkpt lat="43.59757" lon="2.93729">
        <ele>768.23071289062</ele>
        <time>2012-05-07T11:39:25Z</time>
      </trkpt>
      <trkpt lat="43.59754" lon="2.93725">
        <ele>767.26953125</ele>
        <time>2012-05-07T11:39:29Z</time>
      </trkpt>
      <trkpt lat="43.5975" lon="2.93721">
        <ele>765.82763671875</ele>
        <time>2012-05-07T11:39:34Z</time>
      </trkpt>
      <trkpt lat="43.59745" lon="2.93715">
        <ele>762.943359375</ele>
        <time>2012-05-07T11:39:40Z</time>
      </trkpt>
      <trkpt lat="43.59742" lon="2.93716">
        <ele>761.98217773438</ele>
        <time>2012-05-07T11:39:48Z</time>
      </trkpt>
      <trkpt lat="43.59738" lon="2.93717">
        <ele>760.5400390625</ele>
        <time>2012-05-07T11:39:55Z</time>
      </trkpt>
      <trkpt lat="43.59735" lon="2.9372">
        <ele>760.5400390625</ele>
        <time>2012-05-07T11:40:01Z</time>
      </trkpt>
      <trkpt lat="43.59732" lon="2.93723">
        <ele>759.57885742188</ele>
        <time>2012-05-07T11:40:07Z</time>
      </trkpt>
      <trkpt lat="43.59727" lon="2.93729">
        <ele>760.05932617188</ele>
        <time>2012-05-07T11:40:13Z</time>
      </trkpt>
      <trkpt lat="43.59727" lon="2.93731">
        <ele>759.57885742188</ele>
        <time>2012-05-07T11:40:19Z</time>
      </trkpt>
      <trkpt lat="43.59724" lon="2.93731">
        <ele>758.61743164062</ele>
        <time>2012-05-07T11:40:27Z</time>
      </trkpt>
      <trkpt lat="43.59722" lon="2.93734">
        <ele>757.17553710938</ele>
        <time>2012-05-07T11:40:33Z</time>
      </trkpt>
      <trkpt lat="43.5972" lon="2.93737">
        <ele>756.21411132812</ele>
        <time>2012-05-07T11:40:37Z</time>
      </trkpt>
      <trkpt lat="43.59718" lon="2.93738">
        <ele>755.2529296875</ele>
        <time>2012-05-07T11:40:41Z</time>
      </trkpt>
      <trkpt lat="43.59713" lon="2.93739">
        <ele>754.29174804688</ele>
        <time>2012-05-07T11:40:47Z</time>
      </trkpt>
      <trkpt lat="43.59709" lon="2.93739">
        <ele>753.33032226562</ele>
        <time>2012-05-07T11:40:54Z</time>
      </trkpt>
      <trkpt lat="43.59704" lon="2.93741">
        <ele>751.40771484375</ele>
        <time>2012-05-07T11:41:02Z</time>
      </trkpt>
      <trkpt lat="43.59702" lon="2.93744">
        <ele>750.92700195312</ele>
        <time>2012-05-07T11:41:06Z</time>
      </trkpt>
      <trkpt lat="43.59702" lon="2.93748">
        <ele>749.9658203125</ele>
        <time>2012-05-07T11:41:10Z</time>
      </trkpt>
      <trkpt lat="43.597" lon="2.93751">
        <ele>747.08154296875</ele>
        <time>2012-05-07T11:41:16Z</time>
      </trkpt>
      <trkpt lat="43.59699" lon="2.93755">
        <ele>745.6396484375</ele>
        <time>2012-05-07T11:41:20Z</time>
      </trkpt>
      <trkpt lat="43.59698" lon="2.93758">
        <ele>744.19775390625</ele>
        <time>2012-05-07T11:41:25Z</time>
      </trkpt>
      <trkpt lat="43.59697" lon="2.93763">
        <ele>741.31372070312</ele>
        <time>2012-05-07T11:41:31Z</time>
      </trkpt>
      <trkpt lat="43.59696" lon="2.93766">
        <ele>739.39111328125</ele>
        <time>2012-05-07T11:41:35Z</time>
      </trkpt>
      <trkpt lat="43.59695" lon="2.93771">
        <ele>736.98779296875</ele>
        <time>2012-05-07T11:41:40Z</time>
      </trkpt>
      <trkpt lat="43.59694" lon="2.93774">
        <ele>735.0654296875</ele>
        <time>2012-05-07T11:41:44Z</time>
      </trkpt>
      <trkpt lat="43.59692" lon="2.93779">
        <ele>733.142578125</ele>
        <time>2012-05-07T11:41:50Z</time>
      </trkpt>
      <trkpt lat="43.5969" lon="2.93782">
        <ele>732.18139648438</ele>
        <time>2012-05-07T11:41:55Z</time>
      </trkpt>
      <trkpt lat="43.59687" lon="2.93781">
        <ele>731.21997070312</ele>
        <time>2012-05-07T11:41:59Z</time>
      </trkpt>
      <trkpt lat="43.59686" lon="2.93785">
        <ele>729.29711914062</ele>
        <time>2012-05-07T11:42:05Z</time>
      </trkpt>
      <trkpt lat="43.59684" lon="2.93789">
        <ele>728.3359375</ele>
        <time>2012-05-07T11:42:12Z</time>
      </trkpt>
      <trkpt lat="43.59685" lon="2.93795">
        <ele>724.49072265625</ele>
        <time>2012-05-07T11:42:18Z</time>
      </trkpt>
      <trkpt lat="43.59679" lon="2.93798">
        <ele>724.49072265625</ele>
        <time>2012-05-07T11:42:27Z</time>
      </trkpt>
      <trkpt lat="43.59678" lon="2.93799">
        <ele>722.08740234375</ele>
        <time>2012-05-07T11:42:32Z</time>
      </trkpt>
      <trkpt lat="43.59678" lon="2.93805">
        <ele>720.6455078125</ele>
        <time>2012-05-07T11:42:36Z</time>
      </trkpt>
      <trkpt lat="43.59677" lon="2.93809">
        <ele>719.20361328125</ele>
        <time>2012-05-07T11:42:40Z</time>
      </trkpt>
      <trkpt lat="43.59675" lon="2.93813">
        <ele>716.31958007812</ele>
        <time>2012-05-07T11:42:46Z</time>
      </trkpt>
      <trkpt lat="43.59675" lon="2.93818">
        <ele>714.39672851562</ele>
        <time>2012-05-07T11:42:50Z</time>
      </trkpt>
      <trkpt lat="43.59673" lon="2.93824">
        <ele>712.47412109375</ele>
        <time>2012-05-07T11:42:55Z</time>
      </trkpt>
      <trkpt lat="43.59671" lon="2.93831">
        <ele>710.55151367188</ele>
        <time>2012-05-07T11:43:02Z</time>
      </trkpt>
      <trkpt lat="43.59669" lon="2.93835">
        <ele>710.07080078125</ele>
        <time>2012-05-07T11:43:06Z</time>
      </trkpt>
      <trkpt lat="43.59667" lon="2.93841">
        <ele>709.59033203125</ele>
        <time>2012-05-07T11:43:11Z</time>
      </trkpt>
      <trkpt lat="43.59666" lon="2.93847">
        <ele>710.07080078125</ele>
        <time>2012-05-07T11:43:16Z</time>
      </trkpt>
      <trkpt lat="43.59668" lon="2.93853">
        <ele>709.10961914062</ele>
        <time>2012-05-07T11:43:22Z</time>
      </trkpt>
      <trkpt lat="43.59668" lon="2.93859">
        <ele>708.62890625</ele>
        <time>2012-05-07T11:43:28Z</time>
      </trkpt>
      <trkpt lat="43.59666" lon="2.93862">
        <ele>707.66772460938</ele>
        <time>2012-05-07T11:43:33Z</time>
      </trkpt>
      <trkpt lat="43.59664" lon="2.93868">
        <ele>707.66772460938</ele>
        <time>2012-05-07T11:43:38Z</time>
      </trkpt>
      <trkpt lat="43.59661" lon="2.93868">
        <ele>705.26440429688</ele>
        <time>2012-05-07T11:43:43Z</time>
      </trkpt>
      <trkpt lat="43.59658" lon="2.93868">
        <ele>703.341796875</ele>
        <time>2012-05-07T11:43:48Z</time>
      </trkpt>
      <trkpt lat="43.59654" lon="2.93867">
        <ele>700.4580078125</ele>
        <time>2012-05-07T11:43:53Z</time>
      </trkpt>
      <trkpt lat="43.59651" lon="2.93863">
        <ele>700.9384765625</ele>
        <time>2012-05-07T11:43:57Z</time>
      </trkpt>
      <trkpt lat="43.59647" lon="2.93859">
        <ele>700.9384765625</ele>
        <time>2012-05-07T11:44:03Z</time>
      </trkpt>
      <trkpt lat="43.59645" lon="2.9386">
        <ele>699.97705078125</ele>
        <time>2012-05-07T11:44:07Z</time>
      </trkpt>
      <trkpt lat="43.59642" lon="2.93862">
        <ele>698.53491210938</ele>
        <time>2012-05-07T11:44:11Z</time>
      </trkpt>
      <trkpt lat="43.59638" lon="2.93863">
        <ele>696.61254882812</ele>
        <time>2012-05-07T11:44:16Z</time>
      </trkpt>
      <trkpt lat="43.59634" lon="2.9386">
        <ele>695.65112304688</ele>
        <time>2012-05-07T11:44:21Z</time>
      </trkpt>
      <trkpt lat="43.59631" lon="2.93862">
        <ele>694.20922851562</ele>
        <time>2012-05-07T11:44:24Z</time>
      </trkpt>
      <trkpt lat="43.59629" lon="2.93859">
        <ele>691.80590820312</ele>
        <time>2012-05-07T11:44:29Z</time>
      </trkpt>
      <trkpt lat="43.59627" lon="2.93857">
        <ele>689.88330078125</ele>
        <time>2012-05-07T11:44:34Z</time>
      </trkpt>
      <trkpt lat="43.59624" lon="2.93859">
        <ele>688.44140625</ele>
        <time>2012-05-07T11:44:39Z</time>
      </trkpt>
      <trkpt lat="43.5962" lon="2.93859">
        <ele>686.0380859375</ele>
        <time>2012-05-07T11:44:46Z</time>
      </trkpt>
      <trkpt lat="43.59616" lon="2.93862">
        <ele>683.63452148438</ele>
        <time>2012-05-07T11:44:51Z</time>
      </trkpt>
      <trkpt lat="43.59614" lon="2.93861">
        <ele>682.19262695312</ele>
        <time>2012-05-07T11:44:55Z</time>
      </trkpt>
      <trkpt lat="43.59611" lon="2.93855">
        <ele>682.19262695312</ele>
        <time>2012-05-07T11:44:59Z</time>
      </trkpt>
      <trkpt lat="43.59609" lon="2.93854">
        <ele>681.7119140625</ele>
        <time>2012-05-07T11:45:04Z</time>
      </trkpt>
      <trkpt lat="43.59607" lon="2.93858">
        <ele>679.78930664062</ele>
        <time>2012-05-07T11:45:07Z</time>
      </trkpt>
      <trkpt lat="43.59606" lon="2.93864">
        <ele>678.34741210938</ele>
        <time>2012-05-07T11:45:11Z</time>
      </trkpt>
      <trkpt lat="43.59603" lon="2.93868">
        <ele>676.4248046875</ele>
        <time>2012-05-07T11:45:16Z</time>
      </trkpt>
      <trkpt lat="43.59601" lon="2.93866">
        <ele>674.021484375</ele>
        <time>2012-05-07T11:45:21Z</time>
      </trkpt>
      <trkpt lat="43.596" lon="2.93871">
        <ele>673.06030273438</ele>
        <time>2012-05-07T11:45:26Z</time>
      </trkpt>
      <trkpt lat="43.59598" lon="2.9388">
        <ele>670.17626953125</ele>
        <time>2012-05-07T11:45:33Z</time>
      </trkpt>
      <trkpt lat="43.59595" lon="2.93884">
        <ele>668.25366210938</ele>
        <time>2012-05-07T11:45:39Z</time>
      </trkpt>
      <trkpt lat="43.59593" lon="2.93886">
        <ele>666.33081054688</ele>
        <time>2012-05-07T11:45:44Z</time>
      </trkpt>
      <trkpt lat="43.5959" lon="2.93891">
        <ele>664.88891601562</ele>
        <time>2012-05-07T11:45:50Z</time>
      </trkpt>
      <trkpt lat="43.59587" lon="2.93896">
        <ele>664.88891601562</ele>
        <time>2012-05-07T11:45:56Z</time>
      </trkpt>
      <trkpt lat="43.59586" lon="2.93899">
        <ele>664.88891601562</ele>
        <time>2012-05-07T11:46:02Z</time>
      </trkpt>
      <trkpt lat="43.59584" lon="2.93901">
        <ele>665.85034179688</ele>
        <time>2012-05-07T11:46:07Z</time>
      </trkpt>
      <trkpt lat="43.59581" lon="2.93903">
        <ele>665.36962890625</ele>
        <time>2012-05-07T11:46:12Z</time>
      </trkpt>
      <trkpt lat="43.59579" lon="2.93905">
        <ele>662.96630859375</ele>
        <time>2012-05-07T11:46:17Z</time>
      </trkpt>
      <trkpt lat="43.59577" lon="2.93904">
        <ele>662.00512695312</ele>
        <time>2012-05-07T11:46:21Z</time>
      </trkpt>
      <trkpt lat="43.59574" lon="2.93899">
        <ele>660.56298828125</ele>
        <time>2012-05-07T11:46:27Z</time>
      </trkpt>
      <trkpt lat="43.59573" lon="2.93899">
        <ele>659.60180664062</ele>
        <time>2012-05-07T11:46:32Z</time>
      </trkpt>
      <trkpt lat="43.59569" lon="2.93901">
        <ele>657.19848632812</ele>
        <time>2012-05-07T11:46:37Z</time>
      </trkpt>
      <trkpt lat="43.59566" lon="2.93903">
        <ele>655.75659179688</ele>
        <time>2012-05-07T11:46:41Z</time>
      </trkpt>
      <trkpt lat="43.59562" lon="2.93904">
        <ele>653.35327148438</ele>
        <time>2012-05-07T11:46:47Z</time>
      </trkpt>
      <trkpt lat="43.5956" lon="2.93907">
        <ele>652.39184570312</ele>
        <time>2012-05-07T11:46:52Z</time>
      </trkpt>
      <trkpt lat="43.59558" lon="2.93906">
        <ele>650.94970703125</ele>
        <time>2012-05-07T11:46:57Z</time>
      </trkpt>
      <trkpt lat="43.59557" lon="2.93907">
        <ele>648.54638671875</ele>
        <time>2012-05-07T11:47:01Z</time>
      </trkpt>
      <trkpt lat="43.59556" lon="2.9391">
        <ele>647.1044921875</ele>
        <time>2012-05-07T11:47:06Z</time>
      </trkpt>
      <trkpt lat="43.59554" lon="2.93909">
        <ele>646.6240234375</ele>
        <time>2012-05-07T11:47:10Z</time>
      </trkpt>
      <trkpt lat="43.5955" lon="2.9391">
        <ele>644.220703125</ele>
        <time>2012-05-07T11:47:14Z</time>
      </trkpt>
      <trkpt lat="43.59549" lon="2.93913">
        <ele>643.25927734375</ele>
        <time>2012-05-07T11:47:19Z</time>
      </trkpt>
      <trkpt lat="43.59548" lon="2.93913">
        <ele>641.33666992188</ele>
        <time>2012-05-07T11:47:26Z</time>
      </trkpt>
      <trkpt lat="43.59546" lon="2.93911">
        <ele>641.33666992188</ele>
        <time>2012-05-07T11:47:31Z</time>
      </trkpt>
      <trkpt lat="43.59544" lon="2.9391">
        <ele>640.85595703125</ele>
        <time>2012-05-07T11:47:36Z</time>
      </trkpt>
      <trkpt lat="43.59541" lon="2.9391">
        <ele>639.89477539062</ele>
        <time>2012-05-07T11:47:41Z</time>
      </trkpt>
      <trkpt lat="43.59539" lon="2.9391">
        <ele>637.97216796875</ele>
        <time>2012-05-07T11:47:47Z</time>
      </trkpt>
      <trkpt lat="43.59537" lon="2.93907">
        <ele>637.0107421875</ele>
        <time>2012-05-07T11:47:53Z</time>
      </trkpt>
      <trkpt lat="43.59535" lon="2.93911">
        <ele>637.0107421875</ele>
        <time>2012-05-07T11:47:57Z</time>
      </trkpt>
      <trkpt lat="43.59535" lon="2.9392">
        <ele>635.56860351562</ele>
        <time>2012-05-07T11:48:03Z</time>
      </trkpt>
      <trkpt lat="43.59534" lon="2.93921">
        <ele>635.08813476562</ele>
        <time>2012-05-07T11:48:04Z</time>
      </trkpt>
      <trkpt lat="43.59533" lon="2.93927">
        <ele>633.64599609375</ele>
        <time>2012-05-07T11:48:09Z</time>
      </trkpt>
      <trkpt lat="43.59533" lon="2.93932">
        <ele>633.64599609375</ele>
        <time>2012-05-07T11:48:14Z</time>
      </trkpt>
      <trkpt lat="43.59531" lon="2.93936">
        <ele>632.2041015625</ele>
        <time>2012-05-07T11:48:22Z</time>
      </trkpt>
      <trkpt lat="43.59529" lon="2.9394">
        <ele>629.32006835938</ele>
        <time>2012-05-07T11:48:27Z</time>
      </trkpt>
      <trkpt lat="43.59528" lon="2.93945">
        <ele>624.99438476562</ele>
        <time>2012-05-07T11:48:33Z</time>
      </trkpt>
      <trkpt lat="43.59528" lon="2.93949">
        <ele>622.59106445312</ele>
        <time>2012-05-07T11:48:37Z</time>
      </trkpt>
      <trkpt lat="43.59525" lon="2.93953">
        <ele>621.62963867188</ele>
        <time>2012-05-07T11:48:42Z</time>
      </trkpt>
      <trkpt lat="43.59523" lon="2.93959">
        <ele>617.3037109375</ele>
        <time>2012-05-07T11:48:47Z</time>
      </trkpt>
      <trkpt lat="43.59522" lon="2.93961">
        <ele>617.3037109375</ele>
        <time>2012-05-07T11:48:48Z</time>
      </trkpt>
      <trkpt lat="43.59524" lon="2.93972">
        <ele>613.93896484375</ele>
        <time>2012-05-07T11:48:53Z</time>
      </trkpt>
      <trkpt lat="43.59528" lon="2.9398">
        <ele>612.4970703125</ele>
        <time>2012-05-07T11:48:57Z</time>
      </trkpt>
      <trkpt lat="43.59531" lon="2.93989">
        <ele>612.4970703125</ele>
        <time>2012-05-07T11:49:03Z</time>
      </trkpt>
      <trkpt lat="43.59531" lon="2.93993">
        <ele>616.34228515625</ele>
        <time>2012-05-07T11:49:08Z</time>
      </trkpt>
      <trkpt lat="43.5953" lon="2.93997">
        <ele>619.22631835938</ele>
        <time>2012-05-07T11:49:19Z</time>
      </trkpt>
      <trkpt lat="43.59529" lon="2.93998">
        <ele>619.70703125</ele>
        <time>2012-05-07T11:49:28Z</time>
      </trkpt>
      <trkpt lat="43.5953" lon="2.94006">
        <ele>619.70703125</ele>
        <time>2012-05-07T11:49:35Z</time>
      </trkpt>
      <trkpt lat="43.59529" lon="2.9401">
        <ele>618.74560546875</ele>
        <time>2012-05-07T11:49:40Z</time>
      </trkpt>
      <trkpt lat="43.59531" lon="2.94017">
        <ele>617.7841796875</ele>
        <time>2012-05-07T11:49:46Z</time>
      </trkpt>
      <trkpt lat="43.5953" lon="2.94025">
        <ele>616.82299804688</ele>
        <time>2012-05-07T11:49:51Z</time>
      </trkpt>
      <trkpt lat="43.59528" lon="2.94035">
        <ele>615.38110351562</ele>
        <time>2012-05-07T11:49:58Z</time>
      </trkpt>
      <trkpt lat="43.59528" lon="2.94041">
        <ele>616.34228515625</ele>
        <time>2012-05-07T11:50:02Z</time>
      </trkpt>
      <trkpt lat="43.59528" lon="2.94045">
        <ele>615.38110351562</ele>
        <time>2012-05-07T11:50:05Z</time>
      </trkpt>
      <trkpt lat="43.59529" lon="2.94055">
        <ele>613.93896484375</ele>
        <time>2012-05-07T11:50:11Z</time>
      </trkpt>
      <trkpt lat="43.59531" lon="2.94063">
        <ele>612.97778320312</ele>
        <time>2012-05-07T11:50:16Z</time>
      </trkpt>
      <trkpt lat="43.59533" lon="2.94073">
        <ele>612.0166015625</ele>
        <time>2012-05-07T11:50:23Z</time>
      </trkpt>
      <trkpt lat="43.59533" lon="2.94078">
        <ele>614.900390625</ele>
        <time>2012-05-07T11:50:27Z</time>
      </trkpt>
      <trkpt lat="43.59532" lon="2.94085">
        <ele>617.3037109375</ele>
        <time>2012-05-07T11:50:42Z</time>
      </trkpt>
      <trkpt lat="43.59531" lon="2.94088">
        <ele>620.66845703125</ele>
        <time>2012-05-07T11:50:57Z</time>
      </trkpt>
      <trkpt lat="43.5953" lon="2.94094">
        <ele>621.14916992188</ele>
        <time>2012-05-07T11:51:06Z</time>
      </trkpt>
      <trkpt lat="43.59529" lon="2.94092">
        <ele>612.4970703125</ele>
        <time>2012-05-07T11:51:19Z</time>
      </trkpt>
      <trkpt lat="43.59528" lon="2.94093">
        <ele>612.0166015625</ele>
        <time>2012-05-07T11:51:34Z</time>
      </trkpt>
      <trkpt lat="43.59528" lon="2.9409">
        <ele>608.17138671875</ele>
        <time>2012-05-07T11:51:50Z</time>
      </trkpt>
      <trkpt lat="43.59528" lon="2.94089">
        <ele>609.61328125</ele>
        <time>2012-05-07T11:52:19Z</time>
      </trkpt>
      <trkpt lat="43.5953" lon="2.94096">
        <ele>609.61328125</ele>
        <time>2012-05-07T11:52:25Z</time>
      </trkpt>
      <trkpt lat="43.59533" lon="2.941">
        <ele>608.65185546875</ele>
        <time>2012-05-07T11:52:31Z</time>
      </trkpt>
      <trkpt lat="43.59536" lon="2.94106">
        <ele>606.24853515625</ele>
        <time>2012-05-07T11:52:36Z</time>
      </trkpt>
      <trkpt lat="43.59538" lon="2.94113">
        <ele>603.84521484375</ele>
        <time>2012-05-07T11:52:42Z</time>
      </trkpt>
      <trkpt lat="43.59542" lon="2.94119">
        <ele>602.8837890625</ele>
        <time>2012-05-07T11:52:47Z</time>
      </trkpt>
      <trkpt lat="43.59546" lon="2.9413">
        <ele>603.36450195312</ele>
        <time>2012-05-07T11:52:54Z</time>
      </trkpt>
      <trkpt lat="43.5955" lon="2.94139">
        <ele>603.84521484375</ele>
        <time>2012-05-07T11:53:01Z</time>
      </trkpt>
      <trkpt lat="43.5955" lon="2.9414">
        <ele>603.84521484375</ele>
        <time>2012-05-07T11:53:02Z</time>
      </trkpt>
      <trkpt lat="43.59554" lon="2.9415">
        <ele>604.806640625</ele>
        <time>2012-05-07T11:53:09Z</time>
      </trkpt>
      <trkpt lat="43.59559" lon="2.94158">
        <ele>606.24853515625</ele>
        <time>2012-05-07T11:53:15Z</time>
      </trkpt>
      <trkpt lat="43.59564" lon="2.94165">
        <ele>606.72924804688</ele>
        <time>2012-05-07T11:53:20Z</time>
      </trkpt>
      <trkpt lat="43.59566" lon="2.9417">
        <ele>605.76806640625</ele>
        <time>2012-05-07T11:53:23Z</time>
      </trkpt>
      <trkpt lat="43.59566" lon="2.94175">
        <ele>604.806640625</ele>
        <time>2012-05-07T11:53:26Z</time>
      </trkpt>
      <trkpt lat="43.59558" lon="2.94173">
        <ele>604.326171875</ele>
        <time>2012-05-07T11:53:32Z</time>
      </trkpt>
      <trkpt lat="43.59553" lon="2.94169">
        <ele>602.8837890625</ele>
        <time>2012-05-07T11:53:36Z</time>
      </trkpt>
      <trkpt lat="43.59547" lon="2.94168">
        <ele>600.48071289062</ele>
        <time>2012-05-07T11:53:41Z</time>
      </trkpt>
      <trkpt lat="43.59542" lon="2.94164">
        <ele>599.03857421875</ele>
        <time>2012-05-07T11:53:46Z</time>
      </trkpt>
      <trkpt lat="43.59541" lon="2.94164">
        <ele>598.55786132812</ele>
        <time>2012-05-07T11:53:47Z</time>
      </trkpt>
      <trkpt lat="43.59534" lon="2.94165">
        <ele>596.15478515625</ele>
        <time>2012-05-07T11:53:54Z</time>
      </trkpt>
      <trkpt lat="43.59528" lon="2.94165">
        <ele>594.71264648438</ele>
        <time>2012-05-07T11:53:59Z</time>
      </trkpt>
      <trkpt lat="43.59523" lon="2.9416">
        <ele>594.71264648438</ele>
        <time>2012-05-07T11:54:04Z</time>
      </trkpt>
      <trkpt lat="43.5952" lon="2.94156">
        <ele>594.23217773438</ele>
        <time>2012-05-07T11:54:08Z</time>
      </trkpt>
      <trkpt lat="43.59517" lon="2.94151">
        <ele>594.23217773438</ele>
        <time>2012-05-07T11:54:13Z</time>
      </trkpt>
      <trkpt lat="43.59513" lon="2.94146">
        <ele>594.71264648438</ele>
        <time>2012-05-07T11:54:17Z</time>
      </trkpt>
      <trkpt lat="43.5951" lon="2.94144">
        <ele>593.27075195312</ele>
        <time>2012-05-07T11:54:20Z</time>
      </trkpt>
      <trkpt lat="43.59505" lon="2.94135">
        <ele>592.3095703125</ele>
        <time>2012-05-07T11:54:26Z</time>
      </trkpt>
      <trkpt lat="43.59504" lon="2.94133">
        <ele>593.27075195312</ele>
        <time>2012-05-07T11:54:31Z</time>
      </trkpt>
      <trkpt lat="43.59502" lon="2.94136">
        <ele>595.67407226562</ele>
        <time>2012-05-07T11:54:38Z</time>
      </trkpt>
      <trkpt lat="43.59501" lon="2.94132">
        <ele>597.11596679688</ele>
        <time>2012-05-07T11:54:44Z</time>
      </trkpt>
      <trkpt lat="43.59499" lon="2.94126">
        <ele>595.67407226562</ele>
        <time>2012-05-07T11:54:50Z</time>
      </trkpt>
      <trkpt lat="43.59496" lon="2.94124">
        <ele>596.63549804688</ele>
        <time>2012-05-07T11:54:57Z</time>
      </trkpt>
      <trkpt lat="43.59494" lon="2.94129">
        <ele>597.5966796875</ele>
        <time>2012-05-07T11:55:05Z</time>
      </trkpt>
      <trkpt lat="43.59496" lon="2.94134">
        <ele>598.07739257812</ele>
        <time>2012-05-07T11:55:22Z</time>
      </trkpt>
      <trkpt lat="43.59501" lon="2.9413">
        <ele>595.67407226562</ele>
        <time>2012-05-07T11:55:47Z</time>
      </trkpt>
      <trkpt lat="43.59499" lon="2.94121">
        <ele>593.75146484375</ele>
        <time>2012-05-07T11:55:57Z</time>
      </trkpt>
      <trkpt lat="43.59496" lon="2.94117">
        <ele>593.75146484375</ele>
        <time>2012-05-07T11:56:01Z</time>
      </trkpt>
      <trkpt lat="43.59492" lon="2.94115">
        <ele>591.34814453125</ele>
        <time>2012-05-07T11:56:08Z</time>
      </trkpt>
      <trkpt lat="43.59489" lon="2.94108">
        <ele>586.06079101562</ele>
        <time>2012-05-07T11:56:19Z</time>
      </trkpt>
      <trkpt lat="43.59486" lon="2.94103">
        <ele>583.65747070312</ele>
        <time>2012-05-07T11:56:25Z</time>
      </trkpt>
      <trkpt lat="43.59484" lon="2.941">
        <ele>582.21557617188</ele>
        <time>2012-05-07T11:56:32Z</time>
      </trkpt>
      <trkpt lat="43.59481" lon="2.94098">
        <ele>581.25439453125</ele>
        <time>2012-05-07T11:56:37Z</time>
      </trkpt>
      <trkpt lat="43.59479" lon="2.94093">
        <ele>583.1767578125</ele>
        <time>2012-05-07T11:56:49Z</time>
      </trkpt>
      <trkpt lat="43.5948" lon="2.94087">
        <ele>584.61889648438</ele>
        <time>2012-05-07T11:56:57Z</time>
      </trkpt>
      <trkpt lat="43.59478" lon="2.94089">
        <ele>594.71264648438</ele>
        <time>2012-05-07T11:57:19Z</time>
      </trkpt>
      <trkpt lat="43.59475" lon="2.9409">
        <ele>590.38696289062</ele>
        <time>2012-05-07T11:57:35Z</time>
      </trkpt>
      <trkpt lat="43.59473" lon="2.94088">
        <ele>589.90625</ele>
        <time>2012-05-07T11:57:43Z</time>
      </trkpt>
      <trkpt lat="43.59472" lon="2.94084">
        <ele>587.50268554688</ele>
        <time>2012-05-07T11:57:48Z</time>
      </trkpt>
      <trkpt lat="43.5947" lon="2.94082">
        <ele>585.099609375</ele>
        <time>2012-05-07T11:57:53Z</time>
      </trkpt>
      <trkpt lat="43.59468" lon="2.94076">
        <ele>585.580078125</ele>
        <time>2012-05-07T11:57:58Z</time>
      </trkpt>
      <trkpt lat="43.59468" lon="2.94074">
        <ele>582.6962890625</ele>
        <time>2012-05-07T11:58:06Z</time>
      </trkpt>
      <trkpt lat="43.59465" lon="2.94071">
        <ele>582.6962890625</ele>
        <time>2012-05-07T11:58:12Z</time>
      </trkpt>
      <trkpt lat="43.59465" lon="2.94071">
        <ele>585.580078125</ele>
        <time>2012-05-07T11:58:20Z</time>
      </trkpt>
      <trkpt lat="43.59468" lon="2.94072">
        <ele>584.13818359375</ele>
        <time>2012-05-07T11:58:24Z</time>
      </trkpt>
      <trkpt lat="43.59469" lon="2.94074">
        <ele>582.6962890625</ele>
        <time>2012-05-07T11:58:28Z</time>
      </trkpt>
      <trkpt lat="43.59461" lon="2.94077">
        <ele>579.81225585938</ele>
        <time>2012-05-07T11:58:34Z</time>
      </trkpt>
      <trkpt lat="43.5946" lon="2.94076">
        <ele>578.85107421875</ele>
        <time>2012-05-07T11:58:35Z</time>
      </trkpt>
      <trkpt lat="43.59457" lon="2.94077">
        <ele>576.92846679688</ele>
        <time>2012-05-07T11:58:41Z</time>
      </trkpt>
      <trkpt lat="43.59454" lon="2.9408">
        <ele>575.005859375</ele>
        <time>2012-05-07T11:58:43Z</time>
      </trkpt>
      <trkpt lat="43.59454" lon="2.94089">
        <ele>570.6796875</ele>
        <time>2012-05-07T11:58:47Z</time>
      </trkpt>
      <trkpt lat="43.59453" lon="2.94093">
        <ele>571.16040039062</ele>
        <time>2012-05-07T11:58:49Z</time>
      </trkpt>
      <trkpt lat="43.59449" lon="2.94104">
        <ele>577.4091796875</ele>
        <time>2012-05-07T11:58:55Z</time>
      </trkpt>
      <trkpt lat="43.59444" lon="2.94112">
        <ele>578.37036132812</ele>
        <time>2012-05-07T11:59:00Z</time>
      </trkpt>
      <trkpt lat="43.59442" lon="2.94115">
        <ele>576.92846679688</ele>
        <time>2012-05-07T11:59:03Z</time>
      </trkpt>
      <trkpt lat="43.59442" lon="2.94118">
        <ele>576.44775390625</ele>
        <time>2012-05-07T11:59:06Z</time>
      </trkpt>
      <trkpt lat="43.59441" lon="2.94127">
        <ele>575.96704101562</ele>
        <time>2012-05-07T11:59:11Z</time>
      </trkpt>
      <trkpt lat="43.59438" lon="2.94129">
        <ele>574.52514648438</ele>
        <time>2012-05-07T11:59:17Z</time>
      </trkpt>
      <trkpt lat="43.59436" lon="2.94128">
        <ele>573.08325195312</ele>
        <time>2012-05-07T11:59:22Z</time>
      </trkpt>
      <trkpt lat="43.59436" lon="2.94128">
        <ele>573.08325195312</ele>
        <time>2012-05-07T11:59:23Z</time>
      </trkpt>
      <trkpt lat="43.59434" lon="2.94125">
        <ele>574.52514648438</ele>
        <time>2012-05-07T11:59:29Z</time>
      </trkpt>
      <trkpt lat="43.59432" lon="2.94119">
        <ele>582.21557617188</ele>
        <time>2012-05-07T11:59:37Z</time>
      </trkpt>
      <trkpt lat="43.5943" lon="2.94114">
        <ele>587.02197265625</ele>
        <time>2012-05-07T11:59:46Z</time>
      </trkpt>
      <trkpt lat="43.59427" lon="2.94117">
        <ele>579.33154296875</ele>
        <time>2012-05-07T11:59:53Z</time>
      </trkpt>
      <trkpt lat="43.59424" lon="2.94117">
        <ele>576.44775390625</ele>
        <time>2012-05-07T11:59:57Z</time>
      </trkpt>
      <trkpt lat="43.59418" lon="2.94116">
        <ele>575.005859375</ele>
        <time>2012-05-07T12:00:03Z</time>
      </trkpt>
      <trkpt lat="43.59413" lon="2.94114">
        <ele>575.005859375</ele>
        <time>2012-05-07T12:00:09Z</time>
      </trkpt>
      <trkpt lat="43.59408" lon="2.94111">
        <ele>575.96704101562</ele>
        <time>2012-05-07T12:00:15Z</time>
      </trkpt>
      <trkpt lat="43.59401" lon="2.94108">
        <ele>578.37036132812</ele>
        <time>2012-05-07T12:00:23Z</time>
      </trkpt>
      <trkpt lat="43.59399" lon="2.94105">
        <ele>580.77368164062</ele>
        <time>2012-05-07T12:00:30Z</time>
      </trkpt>
      <trkpt lat="43.59398" lon="2.94105">
        <ele>576.92846679688</ele>
        <time>2012-05-07T12:01:10Z</time>
      </trkpt>
      <trkpt lat="43.59396" lon="2.94102">
        <ele>579.81225585938</ele>
        <time>2012-05-07T12:01:14Z</time>
      </trkpt>
      <trkpt lat="43.59391" lon="2.94097">
        <ele>578.85107421875</ele>
        <time>2012-05-07T12:01:20Z</time>
      </trkpt>
      <trkpt lat="43.5939" lon="2.94094">
        <ele>578.85107421875</ele>
        <time>2012-05-07T12:01:21Z</time>
      </trkpt>
      <trkpt lat="43.5938" lon="2.94084">
        <ele>577.8896484375</ele>
        <time>2012-05-07T12:01:27Z</time>
      </trkpt>
      <trkpt lat="43.59378" lon="2.94083">
        <ele>577.4091796875</ele>
        <time>2012-05-07T12:01:29Z</time>
      </trkpt>
      <trkpt lat="43.59376" lon="2.9408">
        <ele>578.85107421875</ele>
        <time>2012-05-07T12:01:37Z</time>
      </trkpt>
      <trkpt lat="43.59375" lon="2.94079">
        <ele>577.8896484375</ele>
        <time>2012-05-07T12:01:46Z</time>
      </trkpt>
      <trkpt lat="43.59372" lon="2.9407">
        <ele>575.96704101562</ele>
        <time>2012-05-07T12:01:51Z</time>
      </trkpt>
      <trkpt lat="43.59369" lon="2.9406">
        <ele>572.12182617188</ele>
        <time>2012-05-07T12:01:56Z</time>
      </trkpt>
      <trkpt lat="43.59364" lon="2.94056">
        <ele>569.23779296875</ele>
        <time>2012-05-07T12:02:01Z</time>
      </trkpt>
      <trkpt lat="43.59361" lon="2.94045">
        <ele>565.87329101562</ele>
        <time>2012-05-07T12:02:06Z</time>
      </trkpt>
      <trkpt lat="43.5935" lon="2.94036">
        <ele>562.9892578125</ele>
        <time>2012-05-07T12:02:12Z</time>
      </trkpt>
      <trkpt lat="43.59339" lon="2.9403">
        <ele>562.9892578125</ele>
        <time>2012-05-07T12:02:18Z</time>
      </trkpt>
      <trkpt lat="43.59327" lon="2.9402">
        <ele>563.95043945312</ele>
        <time>2012-05-07T12:02:24Z</time>
      </trkpt>
      <trkpt lat="43.59324" lon="2.94017">
        <ele>562.50854492188</ele>
        <time>2012-05-07T12:02:26Z</time>
      </trkpt>
      <trkpt lat="43.59311" lon="2.94013">
        <ele>559.14404296875</ele>
        <time>2012-05-07T12:02:32Z</time>
      </trkpt>
      <trkpt lat="43.59304" lon="2.94011">
        <ele>558.18286132812</ele>
        <time>2012-05-07T12:02:35Z</time>
      </trkpt>
      <trkpt lat="43.59291" lon="2.94003">
        <ele>556.74072265625</ele>
        <time>2012-05-07T12:02:41Z</time>
      </trkpt>
      <trkpt lat="43.59289" lon="2.94002">
        <ele>556.26000976562</ele>
        <time>2012-05-07T12:02:42Z</time>
      </trkpt>
      <trkpt lat="43.59278" lon="2.93997">
        <ele>553.3759765625</ele>
        <time>2012-05-07T12:02:47Z</time>
      </trkpt>
      <trkpt lat="43.5927" lon="2.93991">
        <ele>552.89526367188</ele>
        <time>2012-05-07T12:02:51Z</time>
      </trkpt>
      <trkpt lat="43.59261" lon="2.93988">
        <ele>551.93408203125</ele>
        <time>2012-05-07T12:02:55Z</time>
      </trkpt>
      <trkpt lat="43.59251" lon="2.93988">
        <ele>551.45336914062</ele>
        <time>2012-05-07T12:02:59Z</time>
      </trkpt>
      <trkpt lat="43.59235" lon="2.93984">
        <ele>548.0888671875</ele>
        <time>2012-05-07T12:03:06Z</time>
      </trkpt>
      <trkpt lat="43.59228" lon="2.93983">
        <ele>547.60815429688</ele>
        <time>2012-05-07T12:03:11Z</time>
      </trkpt>
      <trkpt lat="43.59224" lon="2.93983">
        <ele>548.5693359375</ele>
        <time>2012-05-07T12:03:14Z</time>
      </trkpt>
      <trkpt lat="43.59218" lon="2.93985">
        <ele>549.53076171875</ele>
        <time>2012-05-07T12:03:19Z</time>
      </trkpt>
      <trkpt lat="43.59215" lon="2.93984">
        <ele>550.01147460938</ele>
        <time>2012-05-07T12:03:20Z</time>
      </trkpt>
      <trkpt lat="43.592" lon="2.9398">
        <ele>550.97265625</ele>
        <time>2012-05-07T12:03:26Z</time>
      </trkpt>
      <trkpt lat="43.59197" lon="2.93981">
        <ele>550.97265625</ele>
        <time>2012-05-07T12:03:27Z</time>
      </trkpt>
      <trkpt lat="43.59183" lon="2.93974">
        <ele>552.89526367188</ele>
        <time>2012-05-07T12:03:33Z</time>
      </trkpt>
      <trkpt lat="43.59181" lon="2.93973">
        <ele>553.3759765625</ele>
        <time>2012-05-07T12:03:34Z</time>
      </trkpt>
      <trkpt lat="43.59172" lon="2.93974">
        <ele>553.85668945312</ele>
        <time>2012-05-07T12:03:39Z</time>
      </trkpt>
      <trkpt lat="43.5917" lon="2.93973">
        <ele>553.3759765625</ele>
        <time>2012-05-07T12:03:41Z</time>
      </trkpt>
      <trkpt lat="43.59163" lon="2.93962">
        <ele>549.05004882812</ele>
        <time>2012-05-07T12:03:47Z</time>
      </trkpt>
      <trkpt lat="43.59161" lon="2.93956">
        <ele>548.5693359375</ele>
        <time>2012-05-07T12:03:49Z</time>
      </trkpt>
      <trkpt lat="43.59154" lon="2.93951">
        <ele>544.72424316406</ele>
        <time>2012-05-07T12:03:54Z</time>
      </trkpt>
      <trkpt lat="43.5915" lon="2.9395">
        <ele>544.24365234375</ele>
        <time>2012-05-07T12:03:56Z</time>
      </trkpt>
      <trkpt lat="43.59146" lon="2.93948">
        <ele>542.80151367188</ele>
        <time>2012-05-07T12:03:59Z</time>
      </trkpt>
      <trkpt lat="43.5914" lon="2.93945">
        <ele>539.43688964844</ele>
        <time>2012-05-07T12:04:04Z</time>
      </trkpt>
      <trkpt lat="43.59136" lon="2.93936">
        <ele>537.99499511719</ele>
        <time>2012-05-07T12:04:08Z</time>
      </trkpt>
      <trkpt lat="43.5913" lon="2.93932">
        <ele>534.63037109375</ele>
        <time>2012-05-07T12:04:12Z</time>
      </trkpt>
      <trkpt lat="43.59127" lon="2.9393">
        <ele>533.6689453125</ele>
        <time>2012-05-07T12:04:14Z</time>
      </trkpt>
      <trkpt lat="43.59124" lon="2.93927">
        <ele>531.74633789062</ele>
        <time>2012-05-07T12:04:16Z</time>
      </trkpt>
      <trkpt lat="43.59118" lon="2.93921">
        <ele>528.3818359375</ele>
        <time>2012-05-07T12:04:20Z</time>
      </trkpt>
      <trkpt lat="43.59113" lon="2.93919">
        <ele>525.49780273438</ele>
        <time>2012-05-07T12:04:23Z</time>
      </trkpt>
      <trkpt lat="43.59106" lon="2.93913">
        <ele>523.09460449219</ele>
        <time>2012-05-07T12:04:28Z</time>
      </trkpt>
      <trkpt lat="43.59099" lon="2.93906">
        <ele>520.69128417969</ele>
        <time>2012-05-07T12:04:33Z</time>
      </trkpt>
      <trkpt lat="43.59097" lon="2.93905">
        <ele>519.72985839844</ele>
        <time>2012-05-07T12:04:34Z</time>
      </trkpt>
      <trkpt lat="43.59084" lon="2.93897">
        <ele>516.84594726562</ele>
        <time>2012-05-07T12:04:40Z</time>
      </trkpt>
      <trkpt lat="43.59077" lon="2.93891">
        <ele>515.40405273438</ele>
        <time>2012-05-07T12:04:45Z</time>
      </trkpt>
      <trkpt lat="43.59066" lon="2.93888">
        <ele>513.00073242188</ele>
        <time>2012-05-07T12:04:50Z</time>
      </trkpt>
      <trkpt lat="43.59057" lon="2.93881">
        <ele>509.63610839844</ele>
        <time>2012-05-07T12:04:55Z</time>
      </trkpt>
      <trkpt lat="43.59046" lon="2.93877">
        <ele>508.67468261719</ele>
        <time>2012-05-07T12:04:59Z</time>
      </trkpt>
      <trkpt lat="43.59037" lon="2.93873">
        <ele>507.71350097656</ele>
        <time>2012-05-07T12:05:03Z</time>
      </trkpt>
      <trkpt lat="43.59024" lon="2.93868">
        <ele>508.19409179688</ele>
        <time>2012-05-07T12:05:08Z</time>
      </trkpt>
      <trkpt lat="43.59013" lon="2.93862">
        <ele>508.67468261719</ele>
        <time>2012-05-07T12:05:13Z</time>
      </trkpt>
      <trkpt lat="43.59003" lon="2.93858">
        <ele>508.67468261719</ele>
        <time>2012-05-07T12:05:17Z</time>
      </trkpt>
      <trkpt lat="43.58995" lon="2.93856">
        <ele>511.55871582031</ele>
        <time>2012-05-07T12:05:20Z</time>
      </trkpt>
      <trkpt lat="43.58987" lon="2.93856">
        <ele>512.52001953125</ele>
        <time>2012-05-07T12:05:23Z</time>
      </trkpt>
      <trkpt lat="43.58973" lon="2.93852">
        <ele>510.59729003906</ele>
        <time>2012-05-07T12:05:29Z</time>
      </trkpt>
      <trkpt lat="43.58964" lon="2.93852">
        <ele>508.67468261719</ele>
        <time>2012-05-07T12:05:33Z</time>
      </trkpt>
      <trkpt lat="43.5896" lon="2.93851">
        <ele>507.71350097656</ele>
        <time>2012-05-07T12:05:35Z</time>
      </trkpt>
      <trkpt lat="43.58948" lon="2.93854">
        <ele>505.31018066406</ele>
        <time>2012-05-07T12:05:41Z</time>
      </trkpt>
      <trkpt lat="43.58941" lon="2.93846">
        <ele>500.98413085938</ele>
        <time>2012-05-07T12:05:47Z</time>
      </trkpt>
      <trkpt lat="43.58936" lon="2.93846">
        <ele>500.02294921875</ele>
        <time>2012-05-07T12:05:50Z</time>
      </trkpt>
      <trkpt lat="43.58933" lon="2.93846">
        <ele>499.0615234375</ele>
        <time>2012-05-07T12:05:52Z</time>
      </trkpt>
      <trkpt lat="43.58931" lon="2.93845">
        <ele>498.10034179688</ele>
        <time>2012-05-07T12:05:55Z</time>
      </trkpt>
      <trkpt lat="43.58926" lon="2.93845">
        <ele>495.21618652344</ele>
        <time>2012-05-07T12:06:01Z</time>
      </trkpt>
      <trkpt lat="43.58924" lon="2.93846">
        <ele>497.61962890625</ele>
        <time>2012-05-07T12:06:07Z</time>
      </trkpt>
      <trkpt lat="43.58919" lon="2.93845">
        <ele>496.65832519531</ele>
        <time>2012-05-07T12:06:11Z</time>
      </trkpt>
      <trkpt lat="43.58914" lon="2.93847">
        <ele>496.177734375</ele>
        <time>2012-05-07T12:06:14Z</time>
      </trkpt>
      <trkpt lat="43.58908" lon="2.93846">
        <ele>491.85168457031</ele>
        <time>2012-05-07T12:06:19Z</time>
      </trkpt>
      <trkpt lat="43.58905" lon="2.93846">
        <ele>488.48718261719</ele>
        <time>2012-05-07T12:06:22Z</time>
      </trkpt>
      <trkpt lat="43.58904" lon="2.93844">
        <ele>486.564453125</ele>
        <time>2012-05-07T12:06:24Z</time>
      </trkpt>
      <trkpt lat="43.589" lon="2.9384">
        <ele>481.7578125</ele>
        <time>2012-05-07T12:06:29Z</time>
      </trkpt>
      <trkpt lat="43.58895" lon="2.93839">
        <ele>477.43188476562</ele>
        <time>2012-05-07T12:06:35Z</time>
      </trkpt>
      <trkpt lat="43.58894" lon="2.93831">
        <ele>475.02868652344</ele>
        <time>2012-05-07T12:06:39Z</time>
      </trkpt>
      <trkpt lat="43.58892" lon="2.93831">
        <ele>474.06726074219</ele>
        <time>2012-05-07T12:06:42Z</time>
      </trkpt>
      <trkpt lat="43.58888" lon="2.93833">
        <ele>473.58666992188</ele>
        <time>2012-05-07T12:06:46Z</time>
      </trkpt>
      <trkpt lat="43.58883" lon="2.93836">
        <ele>471.66394042969</ele>
        <time>2012-05-07T12:06:52Z</time>
      </trkpt>
      <trkpt lat="43.58882" lon="2.93835">
        <ele>471.18334960938</ele>
        <time>2012-05-07T12:06:54Z</time>
      </trkpt>
      <trkpt lat="43.58879" lon="2.9383">
        <ele>470.22192382812</ele>
        <time>2012-05-07T12:07:00Z</time>
      </trkpt>
      <trkpt lat="43.58876" lon="2.93829">
        <ele>469.2607421875</ele>
        <time>2012-05-07T12:07:05Z</time>
      </trkpt>
      <trkpt lat="43.58874" lon="2.93824">
        <ele>467.33813476562</ele>
        <time>2012-05-07T12:07:10Z</time>
      </trkpt>
      <trkpt lat="43.58874" lon="2.93819">
        <ele>463.97338867188</ele>
        <time>2012-05-07T12:07:15Z</time>
      </trkpt>
      <trkpt lat="43.58875" lon="2.93812">
        <ele>460.12817382812</ele>
        <time>2012-05-07T12:07:20Z</time>
      </trkpt>
      <trkpt lat="43.58872" lon="2.9381">
        <ele>458.20556640625</ele>
        <time>2012-05-07T12:07:23Z</time>
      </trkpt>
      <trkpt lat="43.58868" lon="2.93809">
        <ele>455.80224609375</ele>
        <time>2012-05-07T12:07:28Z</time>
      </trkpt>
      <trkpt lat="43.58866" lon="2.93809">
        <ele>454.36022949219</ele>
        <time>2012-05-07T12:07:31Z</time>
      </trkpt>
      <trkpt lat="43.58861" lon="2.93809">
        <ele>451.95703125</ele>
        <time>2012-05-07T12:07:35Z</time>
      </trkpt>
      <trkpt lat="43.58858" lon="2.93809">
        <ele>449.5537109375</ele>
        <time>2012-05-07T12:07:40Z</time>
      </trkpt>
      <trkpt lat="43.58856" lon="2.93804">
        <ele>451.47631835938</ele>
        <time>2012-05-07T12:07:47Z</time>
      </trkpt>
      <trkpt lat="43.58856" lon="2.93799">
        <ele>446.66967773438</ele>
        <time>2012-05-07T12:07:52Z</time>
      </trkpt>
      <trkpt lat="43.58854" lon="2.93792">
        <ele>446.66967773438</ele>
        <time>2012-05-07T12:07:56Z</time>
      </trkpt>
      <trkpt lat="43.58854" lon="2.9379">
        <ele>446.66967773438</ele>
        <time>2012-05-07T12:07:57Z</time>
      </trkpt>
      <trkpt lat="43.58851" lon="2.93783">
        <ele>447.15026855469</ele>
        <time>2012-05-07T12:08:04Z</time>
      </trkpt>
      <trkpt lat="43.58852" lon="2.9378">
        <ele>447.63098144531</ele>
        <time>2012-05-07T12:08:11Z</time>
      </trkpt>
      <trkpt lat="43.58851" lon="2.93782">
        <ele>449.07299804688</ele>
        <time>2012-05-07T12:08:21Z</time>
      </trkpt>
      <trkpt lat="43.58851" lon="2.93785">
        <ele>454.36022949219</ele>
        <time>2012-05-07T12:08:46Z</time>
      </trkpt>
      <trkpt lat="43.58844" lon="2.93783">
        <ele>454.36022949219</ele>
        <time>2012-05-07T12:09:01Z</time>
      </trkpt>
      <trkpt lat="43.58842" lon="2.93781">
        <ele>459.16687011719</ele>
        <time>2012-05-07T12:09:15Z</time>
      </trkpt>
      <trkpt lat="43.58843" lon="2.93782">
        <ele>456.76354980469</ele>
        <time>2012-05-07T12:09:29Z</time>
      </trkpt>
      <trkpt lat="43.58842" lon="2.9378">
        <ele>453.87963867188</ele>
        <time>2012-05-07T12:09:32Z</time>
      </trkpt>
      <trkpt lat="43.58843" lon="2.9378">
        <ele>452.91821289062</ele>
        <time>2012-05-07T12:09:40Z</time>
      </trkpt>
      <trkpt lat="43.58842" lon="2.93779">
        <ele>460.12817382812</ele>
        <time>2012-05-07T12:10:08Z</time>
      </trkpt>
      <trkpt lat="43.58845" lon="2.93782">
        <ele>457.24426269531</ele>
        <time>2012-05-07T12:10:13Z</time>
      </trkpt>
      <trkpt lat="43.5885" lon="2.93785">
        <ele>450.03442382812</ele>
        <time>2012-05-07T12:10:27Z</time>
      </trkpt>
      <trkpt lat="43.58852" lon="2.93778">
        <ele>448.11181640625</ele>
        <time>2012-05-07T12:10:51Z</time>
      </trkpt>
      <trkpt lat="43.58852" lon="2.9378">
        <ele>451.95703125</ele>
        <time>2012-05-07T12:11:00Z</time>
      </trkpt>
      <trkpt lat="43.5885" lon="2.93785">
        <ele>449.07299804688</ele>
        <time>2012-05-07T12:11:30Z</time>
      </trkpt>
      <trkpt lat="43.58852" lon="2.93785">
        <ele>450.03442382812</ele>
        <time>2012-05-07T12:11:52Z</time>
      </trkpt>
      <trkpt lat="43.58851" lon="2.93786">
        <ele>451.47631835938</ele>
        <time>2012-05-07T12:12:01Z</time>
      </trkpt>
      <trkpt lat="43.58852" lon="2.9379">
        <ele>450.99560546875</ele>
        <time>2012-05-07T12:12:07Z</time>
      </trkpt>
      <trkpt lat="43.58853" lon="2.93794">
        <ele>451.95703125</ele>
        <time>2012-05-07T12:12:13Z</time>
      </trkpt>
      <trkpt lat="43.58855" lon="2.93799">
        <ele>451.47631835938</ele>
        <time>2012-05-07T12:12:33Z</time>
      </trkpt>
      <trkpt lat="43.58857" lon="2.938">
        <ele>454.36022949219</ele>
        <time>2012-05-07T12:12:43Z</time>
      </trkpt>
      <trkpt lat="43.58855" lon="2.93806">
        <ele>455.80224609375</ele>
        <time>2012-05-07T12:12:53Z</time>
      </trkpt>
      <trkpt lat="43.58858" lon="2.93805">
        <ele>456.28295898438</ele>
        <time>2012-05-07T12:13:03Z</time>
      </trkpt>
      <trkpt lat="43.58862" lon="2.93804">
        <ele>454.8408203125</ele>
        <time>2012-05-07T12:13:08Z</time>
      </trkpt>
      <trkpt lat="43.58865" lon="2.93805">
        <ele>456.28295898438</ele>
        <time>2012-05-07T12:13:16Z</time>
      </trkpt>
      <trkpt lat="43.58869" lon="2.93805">
        <ele>458.20556640625</ele>
        <time>2012-05-07T12:13:26Z</time>
      </trkpt>
      <trkpt lat="43.58873" lon="2.93807">
        <ele>457.24426269531</ele>
        <time>2012-05-07T12:13:31Z</time>
      </trkpt>
      <trkpt lat="43.58871" lon="2.9381">
        <ele>459.64758300781</ele>
        <time>2012-05-07T12:13:36Z</time>
      </trkpt>
      <trkpt lat="43.5887" lon="2.93816">
        <ele>461.08947753906</ele>
        <time>2012-05-07T12:13:43Z</time>
      </trkpt>
      <trkpt lat="43.5887" lon="2.93819">
        <ele>461.57019042969</ele>
        <time>2012-05-07T12:13:48Z</time>
      </trkpt>
      <trkpt lat="43.5887" lon="2.93822">
        <ele>463.01208496094</ele>
        <time>2012-05-07T12:13:53Z</time>
      </trkpt>
      <trkpt lat="43.58874" lon="2.93828">
        <ele>465.41552734375</ele>
        <time>2012-05-07T12:14:05Z</time>
      </trkpt>
      <trkpt lat="43.58876" lon="2.93831">
        <ele>465.41552734375</ele>
        <time>2012-05-07T12:14:10Z</time>
      </trkpt>
      <trkpt lat="43.58878" lon="2.93836">
        <ele>466.857421875</ele>
        <time>2012-05-07T12:14:17Z</time>
      </trkpt>
      <trkpt lat="43.58881" lon="2.93838">
        <ele>465.89611816406</ele>
        <time>2012-05-07T12:14:23Z</time>
      </trkpt>
      <trkpt lat="43.58882" lon="2.93834">
        <ele>465.41552734375</ele>
        <time>2012-05-07T12:14:28Z</time>
      </trkpt>
      <trkpt lat="43.58886" lon="2.9383">
        <ele>466.37670898438</ele>
        <time>2012-05-07T12:14:33Z</time>
      </trkpt>
      <trkpt lat="43.58888" lon="2.93828">
        <ele>468.78002929688</ele>
        <time>2012-05-07T12:14:39Z</time>
      </trkpt>
      <trkpt lat="43.58889" lon="2.93831">
        <ele>469.2607421875</ele>
        <time>2012-05-07T12:14:44Z</time>
      </trkpt>
      <trkpt lat="43.5889" lon="2.93836">
        <ele>469.74133300781</ele>
        <time>2012-05-07T12:14:49Z</time>
      </trkpt>
      <trkpt lat="43.58893" lon="2.93839">
        <ele>470.22192382812</ele>
        <time>2012-05-07T12:14:54Z</time>
      </trkpt>
      <trkpt lat="43.58896" lon="2.93839">
        <ele>471.66394042969</ele>
        <time>2012-05-07T12:15:01Z</time>
      </trkpt>
      <trkpt lat="43.58897" lon="2.93842">
        <ele>472.62536621094</ele>
        <time>2012-05-07T12:15:06Z</time>
      </trkpt>
      <trkpt lat="43.589" lon="2.93844">
        <ele>474.54797363281</ele>
        <time>2012-05-07T12:15:11Z</time>
      </trkpt>
      <trkpt lat="43.58903" lon="2.93844">
        <ele>478.87390136719</ele>
        <time>2012-05-07T12:15:18Z</time>
      </trkpt>
      <trkpt lat="43.58905" lon="2.93847">
        <ele>480.79663085938</ele>
        <time>2012-05-07T12:15:23Z</time>
      </trkpt>
      <trkpt lat="43.58908" lon="2.93847">
        <ele>485.60302734375</ele>
        <time>2012-05-07T12:15:29Z</time>
      </trkpt>
      <trkpt lat="43.58912" lon="2.93846">
        <ele>488.48718261719</ele>
        <time>2012-05-07T12:15:34Z</time>
      </trkpt>
      <trkpt lat="43.58915" lon="2.93844">
        <ele>488.00646972656</ele>
        <time>2012-05-07T12:15:39Z</time>
      </trkpt>
      <trkpt lat="43.58919" lon="2.93845">
        <ele>488.48718261719</ele>
        <time>2012-05-07T12:15:44Z</time>
      </trkpt>
      <trkpt lat="43.58923" lon="2.93847">
        <ele>490.40979003906</ele>
        <time>2012-05-07T12:15:51Z</time>
      </trkpt>
      <trkpt lat="43.58927" lon="2.93846">
        <ele>488.9677734375</ele>
        <time>2012-05-07T12:15:57Z</time>
      </trkpt>
      <trkpt lat="43.58931" lon="2.93846">
        <ele>490.40979003906</ele>
        <time>2012-05-07T12:16:03Z</time>
      </trkpt>
      <trkpt lat="43.58935" lon="2.93846">
        <ele>491.85168457031</ele>
        <time>2012-05-07T12:16:09Z</time>
      </trkpt>
      <trkpt lat="43.58937" lon="2.93848">
        <ele>492.33239746094</ele>
        <time>2012-05-07T12:16:13Z</time>
      </trkpt>
      <trkpt lat="43.5894" lon="2.93852">
        <ele>493.77429199219</ele>
        <time>2012-05-07T12:16:19Z</time>
      </trkpt>
      <trkpt lat="43.58944" lon="2.93856">
        <ele>496.177734375</ele>
        <time>2012-05-07T12:16:25Z</time>
      </trkpt>
      <trkpt lat="43.58951" lon="2.93854">
        <ele>498.10034179688</ele>
        <time>2012-05-07T12:16:32Z</time>
      </trkpt>
      <trkpt lat="43.58955" lon="2.93855">
        <ele>500.02294921875</ele>
        <time>2012-05-07T12:16:37Z</time>
      </trkpt>
      <trkpt lat="43.5896" lon="2.93855">
        <ele>501.46484375</ele>
        <time>2012-05-07T12:16:43Z</time>
      </trkpt>
      <trkpt lat="43.58965" lon="2.93855">
        <ele>501.46484375</ele>
        <time>2012-05-07T12:16:47Z</time>
      </trkpt>
      <trkpt lat="43.5897" lon="2.93855">
        <ele>503.38745117188</ele>
        <time>2012-05-07T12:16:53Z</time>
      </trkpt>
      <trkpt lat="43.58974" lon="2.93858">
        <ele>502.90673828125</ele>
        <time>2012-05-07T12:16:57Z</time>
      </trkpt>
      <trkpt lat="43.58979" lon="2.9386">
        <ele>502.42614746094</ele>
        <time>2012-05-07T12:17:02Z</time>
      </trkpt>
      <trkpt lat="43.58985" lon="2.93861">
        <ele>501.94555664062</ele>
        <time>2012-05-07T12:17:07Z</time>
      </trkpt>
      <trkpt lat="43.5899" lon="2.93862">
        <ele>502.90673828125</ele>
        <time>2012-05-07T12:17:12Z</time>
      </trkpt>
      <trkpt lat="43.58997" lon="2.93864">
        <ele>504.34887695312</ele>
        <time>2012-05-07T12:17:17Z</time>
      </trkpt>
      <trkpt lat="43.59004" lon="2.93865">
        <ele>507.23278808594</ele>
        <time>2012-05-07T12:17:23Z</time>
      </trkpt>
      <trkpt lat="43.59009" lon="2.93866">
        <ele>507.71350097656</ele>
        <time>2012-05-07T12:17:28Z</time>
      </trkpt>
      <trkpt lat="43.59014" lon="2.93867">
        <ele>507.23278808594</ele>
        <time>2012-05-07T12:17:32Z</time>
      </trkpt>
      <trkpt lat="43.59024" lon="2.93869">
        <ele>508.19409179688</ele>
        <time>2012-05-07T12:17:39Z</time>
      </trkpt>
      <trkpt lat="43.59031" lon="2.9387">
        <ele>509.15539550781</ele>
        <time>2012-05-07T12:17:44Z</time>
      </trkpt>
      <trkpt lat="43.59037" lon="2.93873">
        <ele>509.63610839844</ele>
        <time>2012-05-07T12:17:49Z</time>
      </trkpt>
      <trkpt lat="43.59044" lon="2.93875">
        <ele>510.11669921875</ele>
        <time>2012-05-07T12:17:54Z</time>
      </trkpt>
      <trkpt lat="43.59053" lon="2.93877">
        <ele>514.44262695312</ele>
        <time>2012-05-07T12:18:01Z</time>
      </trkpt>
      <trkpt lat="43.59055" lon="2.93877">
        <ele>516.365234375</ele>
        <time>2012-05-07T12:18:03Z</time>
      </trkpt>
      <trkpt lat="43.59061" lon="2.93881">
        <ele>516.84594726562</ele>
        <time>2012-05-07T12:18:08Z</time>
      </trkpt>
      <trkpt lat="43.59066" lon="2.93882">
        <ele>516.365234375</ele>
        <time>2012-05-07T12:18:13Z</time>
      </trkpt>
      <trkpt lat="43.59071" lon="2.93884">
        <ele>518.28784179688</ele>
        <time>2012-05-07T12:18:18Z</time>
      </trkpt>
      <trkpt lat="43.59076" lon="2.93886">
        <ele>518.28784179688</ele>
        <time>2012-05-07T12:18:22Z</time>
      </trkpt>
      <trkpt lat="43.5908" lon="2.93888">
        <ele>518.28784179688</ele>
        <time>2012-05-07T12:18:26Z</time>
      </trkpt>
      <trkpt lat="43.59085" lon="2.93891">
        <ele>520.69128417969</ele>
        <time>2012-05-07T12:18:32Z</time>
      </trkpt>
      <trkpt lat="43.59091" lon="2.93899">
        <ele>523.09460449219</ele>
        <time>2012-05-07T12:18:38Z</time>
      </trkpt>
      <trkpt lat="43.59094" lon="2.93901">
        <ele>525.01721191406</ele>
        <time>2012-05-07T12:18:43Z</time>
      </trkpt>
      <trkpt lat="43.59098" lon="2.93902">
        <ele>527.90100097656</ele>
        <time>2012-05-07T12:18:47Z</time>
      </trkpt>
      <trkpt lat="43.59102" lon="2.93905">
        <ele>528.3818359375</ele>
        <time>2012-05-07T12:18:52Z</time>
      </trkpt>
      <trkpt lat="43.59109" lon="2.93913">
        <ele>530.30444335938</ele>
        <time>2012-05-07T12:19:01Z</time>
      </trkpt>
      <trkpt lat="43.59113" lon="2.93916">
        <ele>532.22705078125</ele>
        <time>2012-05-07T12:19:06Z</time>
      </trkpt>
      <trkpt lat="43.59118" lon="2.93922">
        <ele>533.18835449219</ele>
        <time>2012-05-07T12:19:13Z</time>
      </trkpt>
      <trkpt lat="43.59121" lon="2.93927">
        <ele>533.6689453125</ele>
        <time>2012-05-07T12:19:18Z</time>
      </trkpt>
      <trkpt lat="43.59127" lon="2.9393">
        <ele>533.6689453125</ele>
        <time>2012-05-07T12:19:26Z</time>
      </trkpt>
      <trkpt lat="43.5913" lon="2.93931">
        <ele>534.14965820312</ele>
        <time>2012-05-07T12:19:30Z</time>
      </trkpt>
      <trkpt lat="43.59132" lon="2.93938">
        <ele>534.63037109375</ele>
        <time>2012-05-07T12:19:35Z</time>
      </trkpt>
      <trkpt lat="43.59132" lon="2.93942">
        <ele>535.59155273438</ele>
        <time>2012-05-07T12:19:39Z</time>
      </trkpt>
      <trkpt lat="43.59138" lon="2.93943">
        <ele>539.91760253906</ele>
        <time>2012-05-07T12:19:46Z</time>
      </trkpt>
      <trkpt lat="43.59138" lon="2.93943">
        <ele>540.39831542969</ele>
        <time>2012-05-07T12:19:47Z</time>
      </trkpt>
      <trkpt lat="43.59143" lon="2.93943">
        <ele>543.76281738281</ele>
        <time>2012-05-07T12:19:51Z</time>
      </trkpt>
      <trkpt lat="43.5915" lon="2.93945">
        <ele>549.53076171875</ele>
        <time>2012-05-07T12:19:59Z</time>
      </trkpt>
      <trkpt lat="43.59151" lon="2.93946">
        <ele>549.05004882812</ele>
        <time>2012-05-07T12:20:00Z</time>
      </trkpt>
      <trkpt lat="43.59156" lon="2.93952">
        <ele>548.0888671875</ele>
        <time>2012-05-07T12:20:06Z</time>
      </trkpt>
      <trkpt lat="43.5916" lon="2.93957">
        <ele>548.5693359375</ele>
        <time>2012-05-07T12:20:11Z</time>
      </trkpt>
      <trkpt lat="43.59163" lon="2.93962">
        <ele>548.5693359375</ele>
        <time>2012-05-07T12:20:15Z</time>
      </trkpt>
      <trkpt lat="43.59164" lon="2.93967">
        <ele>549.53076171875</ele>
        <time>2012-05-07T12:20:19Z</time>
      </trkpt>
      <trkpt lat="43.59169" lon="2.93972">
        <ele>551.45336914062</ele>
        <time>2012-05-07T12:20:25Z</time>
      </trkpt>
      <trkpt lat="43.59175" lon="2.93973">
        <ele>550.97265625</ele>
        <time>2012-05-07T12:20:32Z</time>
      </trkpt>
      <trkpt lat="43.5918" lon="2.93972">
        <ele>550.01147460938</ele>
        <time>2012-05-07T12:20:37Z</time>
      </trkpt>
      <trkpt lat="43.59182" lon="2.93973">
        <ele>549.05004882812</ele>
        <time>2012-05-07T12:20:38Z</time>
      </trkpt>
      <trkpt lat="43.59188" lon="2.93976">
        <ele>548.5693359375</ele>
        <time>2012-05-07T12:20:43Z</time>
      </trkpt>
      <trkpt lat="43.59195" lon="2.93979">
        <ele>549.05004882812</ele>
        <time>2012-05-07T12:20:49Z</time>
      </trkpt>
      <trkpt lat="43.59205" lon="2.93981">
        <ele>550.01147460938</ele>
        <time>2012-05-07T12:20:55Z</time>
      </trkpt>
      <trkpt lat="43.59214" lon="2.93983">
        <ele>550.01147460938</ele>
        <time>2012-05-07T12:20:59Z</time>
      </trkpt>
      <trkpt lat="43.59225" lon="2.93983">
        <ele>551.45336914062</ele>
        <time>2012-05-07T12:21:03Z</time>
      </trkpt>
      <trkpt lat="43.59234" lon="2.93986">
        <ele>551.93408203125</ele>
        <time>2012-05-07T12:21:07Z</time>
      </trkpt>
      <trkpt lat="43.59242" lon="2.93985">
        <ele>553.85668945312</ele>
        <time>2012-05-07T12:21:11Z</time>
      </trkpt>
      <trkpt lat="43.59244" lon="2.93984">
        <ele>554.33740234375</ele>
        <time>2012-05-07T12:21:12Z</time>
      </trkpt>
      <trkpt lat="43.59257" lon="2.93984">
        <ele>555.29858398438</ele>
        <time>2012-05-07T12:21:18Z</time>
      </trkpt>
      <trkpt lat="43.59266" lon="2.93986">
        <ele>554.81787109375</ele>
        <time>2012-05-07T12:21:22Z</time>
      </trkpt>
      <trkpt lat="43.59276" lon="2.93991">
        <ele>555.779296875</ele>
        <time>2012-05-07T12:21:27Z</time>
      </trkpt>
      <trkpt lat="43.59285" lon="2.93996">
        <ele>556.26000976562</ele>
        <time>2012-05-07T12:21:32Z</time>
      </trkpt>
      <trkpt lat="43.59287" lon="2.93997">
        <ele>556.26000976562</ele>
        <time>2012-05-07T12:21:34Z</time>
      </trkpt>
      <trkpt lat="43.59294" lon="2.94003">
        <ele>556.74072265625</ele>
        <time>2012-05-07T12:21:40Z</time>
      </trkpt>
      <trkpt lat="43.59302" lon="2.94004">
        <ele>557.22143554688</ele>
        <time>2012-05-07T12:21:46Z</time>
      </trkpt>
      <trkpt lat="43.5931" lon="2.94007">
        <ele>557.22143554688</ele>
        <time>2012-05-07T12:21:52Z</time>
      </trkpt>
      <trkpt lat="43.59316" lon="2.94009">
        <ele>555.779296875</ele>
        <time>2012-05-07T12:21:57Z</time>
      </trkpt>
      <trkpt lat="43.59322" lon="2.94012">
        <ele>557.7021484375</ele>
        <time>2012-05-07T12:22:03Z</time>
      </trkpt>
      <trkpt lat="43.59327" lon="2.94016">
        <ele>558.66333007812</ele>
        <time>2012-05-07T12:22:08Z</time>
      </trkpt>
      <trkpt lat="43.59331" lon="2.94021">
        <ele>560.10522460938</ele>
        <time>2012-05-07T12:22:12Z</time>
      </trkpt>
      <trkpt lat="43.59341" lon="2.94027">
        <ele>562.02807617188</ele>
        <time>2012-05-07T12:22:20Z</time>
      </trkpt>
      <trkpt lat="43.59344" lon="2.9403">
        <ele>562.9892578125</ele>
        <time>2012-05-07T12:22:24Z</time>
      </trkpt>
      <trkpt lat="43.5935" lon="2.94032">
        <ele>562.50854492188</ele>
        <time>2012-05-07T12:22:29Z</time>
      </trkpt>
      <trkpt lat="43.59356" lon="2.94035">
        <ele>562.02807617188</ele>
        <time>2012-05-07T12:22:34Z</time>
      </trkpt>
      <trkpt lat="43.59359" lon="2.94038">
        <ele>562.50854492188</ele>
        <time>2012-05-07T12:22:38Z</time>
      </trkpt>
      <trkpt lat="43.5936" lon="2.94041">
        <ele>563.46997070312</ele>
        <time>2012-05-07T12:22:41Z</time>
      </trkpt>
      <trkpt lat="43.59363" lon="2.94049">
        <ele>565.87329101562</ele>
        <time>2012-05-07T12:22:48Z</time>
      </trkpt>
      <trkpt lat="43.59367" lon="2.94053">
        <ele>569.71850585938</ele>
        <time>2012-05-07T12:22:53Z</time>
      </trkpt>
      <trkpt lat="43.59369" lon="2.94058">
        <ele>570.19897460938</ele>
        <time>2012-05-07T12:22:57Z</time>
      </trkpt>
      <trkpt lat="43.59374" lon="2.94062">
        <ele>569.71850585938</ele>
        <time>2012-05-07T12:23:01Z</time>
      </trkpt>
      <trkpt lat="43.59374" lon="2.94069">
        <ele>570.19897460938</ele>
        <time>2012-05-07T12:23:06Z</time>
      </trkpt>
      <trkpt lat="43.59376" lon="2.94074">
        <ele>569.71850585938</ele>
        <time>2012-05-07T12:23:10Z</time>
      </trkpt>
      <trkpt lat="43.59381" lon="2.94078">
        <ele>571.16040039062</ele>
        <time>2012-05-07T12:23:16Z</time>
      </trkpt>
      <trkpt lat="43.5938" lon="2.9408">
        <ele>572.12182617188</ele>
        <time>2012-05-07T12:23:19Z</time>
      </trkpt>
      <trkpt lat="43.59373" lon="2.94076">
        <ele>571.64086914062</ele>
        <time>2012-05-07T12:23:25Z</time>
      </trkpt>
      <trkpt lat="43.59367" lon="2.94077">
        <ele>572.6025390625</ele>
        <time>2012-05-07T12:23:29Z</time>
      </trkpt>
      <trkpt lat="43.59361" lon="2.94077">
        <ele>573.08325195312</ele>
        <time>2012-05-07T12:23:35Z</time>
      </trkpt>
      <trkpt lat="43.59354" lon="2.94075">
        <ele>574.04443359375</ele>
        <time>2012-05-07T12:23:41Z</time>
      </trkpt>
      <trkpt lat="43.59351" lon="2.94075">
        <ele>574.04443359375</ele>
        <time>2012-05-07T12:23:44Z</time>
      </trkpt>
      <trkpt lat="43.59345" lon="2.94072">
        <ele>577.4091796875</ele>
        <time>2012-05-07T12:23:49Z</time>
      </trkpt>
      <trkpt lat="43.59337" lon="2.9407">
        <ele>578.85107421875</ele>
        <time>2012-05-07T12:23:56Z</time>
      </trkpt>
      <trkpt lat="43.59332" lon="2.94069">
        <ele>580.77368164062</ele>
        <time>2012-05-07T12:24:01Z</time>
      </trkpt>
      <trkpt lat="43.59331" lon="2.94069">
        <ele>581.25439453125</ele>
        <time>2012-05-07T12:24:02Z</time>
      </trkpt>
      <trkpt lat="43.5933" lon="2.94073">
        <ele>581.73486328125</ele>
        <time>2012-05-07T12:24:07Z</time>
      </trkpt>
      <trkpt lat="43.59328" lon="2.94075">
        <ele>581.73486328125</ele>
        <time>2012-05-07T12:24:12Z</time>
      </trkpt>
      <trkpt lat="43.59324" lon="2.94079">
        <ele>582.6962890625</ele>
        <time>2012-05-07T12:24:18Z</time>
      </trkpt>
      <trkpt lat="43.59319" lon="2.94078">
        <ele>584.13818359375</ele>
        <time>2012-05-07T12:24:22Z</time>
      </trkpt>
      <trkpt lat="43.59307" lon="2.94074">
        <ele>588.46435546875</ele>
        <time>2012-05-07T12:24:31Z</time>
      </trkpt>
      <trkpt lat="43.59298" lon="2.94075">
        <ele>588.46435546875</ele>
        <time>2012-05-07T12:24:37Z</time>
      </trkpt>
      <trkpt lat="43.59291" lon="2.94076">
        <ele>589.42553710938</ele>
        <time>2012-05-07T12:24:42Z</time>
      </trkpt>
      <trkpt lat="43.59287" lon="2.94076">
        <ele>589.42553710938</ele>
        <time>2012-05-07T12:24:45Z</time>
      </trkpt>
      <trkpt lat="43.59272" lon="2.94077">
        <ele>589.42553710938</ele>
        <time>2012-05-07T12:24:56Z</time>
      </trkpt>
      <trkpt lat="43.59269" lon="2.94077">
        <ele>588.94506835938</ele>
        <time>2012-05-07T12:24:59Z</time>
      </trkpt>
      <trkpt lat="43.5926" lon="2.94078">
        <ele>591.82885742188</ele>
        <time>2012-05-07T12:25:05Z</time>
      </trkpt>
      <trkpt lat="43.5925" lon="2.94076">
        <ele>595.67407226562</ele>
        <time>2012-05-07T12:25:12Z</time>
      </trkpt>
      <trkpt lat="43.59242" lon="2.94077">
        <ele>594.23217773438</ele>
        <time>2012-05-07T12:25:18Z</time>
      </trkpt>
      <trkpt lat="43.59231" lon="2.94078">
        <ele>591.82885742188</ele>
        <time>2012-05-07T12:25:26Z</time>
      </trkpt>
      <trkpt lat="43.5922" lon="2.94079">
        <ele>593.75146484375</ele>
        <time>2012-05-07T12:25:34Z</time>
      </trkpt>
      <trkpt lat="43.59204" lon="2.94081">
        <ele>590.86743164062</ele>
        <time>2012-05-07T12:25:45Z</time>
      </trkpt>
      <trkpt lat="43.59196" lon="2.9408">
        <ele>589.90625</ele>
        <time>2012-05-07T12:25:52Z</time>
      </trkpt>
      <trkpt lat="43.59185" lon="2.94079">
        <ele>590.86743164062</ele>
        <time>2012-05-07T12:25:59Z</time>
      </trkpt>
      <trkpt lat="43.59177" lon="2.94077">
        <ele>590.86743164062</ele>
        <time>2012-05-07T12:26:05Z</time>
      </trkpt>
      <trkpt lat="43.59168" lon="2.94076">
        <ele>590.38696289062</ele>
        <time>2012-05-07T12:26:12Z</time>
      </trkpt>
      <trkpt lat="43.59167" lon="2.94076">
        <ele>589.90625</ele>
        <time>2012-05-07T12:26:13Z</time>
      </trkpt>
      <trkpt lat="43.59161" lon="2.94074">
        <ele>587.9833984375</ele>
        <time>2012-05-07T12:26:17Z</time>
      </trkpt>
      <trkpt lat="43.59149" lon="2.94069">
        <ele>588.94506835938</ele>
        <time>2012-05-07T12:26:27Z</time>
      </trkpt>
      <trkpt lat="43.59138" lon="2.94062">
        <ele>594.71264648438</ele>
        <time>2012-05-07T12:26:35Z</time>
      </trkpt>
      <trkpt lat="43.5913" lon="2.94055">
        <ele>596.63549804688</ele>
        <time>2012-05-07T12:26:42Z</time>
      </trkpt>
      <trkpt lat="43.5912" lon="2.94048">
        <ele>597.11596679688</ele>
        <time>2012-05-07T12:26:49Z</time>
      </trkpt>
      <trkpt lat="43.59113" lon="2.94047">
        <ele>596.15478515625</ele>
        <time>2012-05-07T12:26:54Z</time>
      </trkpt>
      <trkpt lat="43.59103" lon="2.94047">
        <ele>594.71264648438</ele>
        <time>2012-05-07T12:27:02Z</time>
      </trkpt>
      <trkpt lat="43.59093" lon="2.94047">
        <ele>593.27075195312</ele>
        <time>2012-05-07T12:27:10Z</time>
      </trkpt>
      <trkpt lat="43.59089" lon="2.94048">
        <ele>592.79028320312</ele>
        <time>2012-05-07T12:27:17Z</time>
      </trkpt>
      <trkpt lat="43.59084" lon="2.94047">
        <ele>590.86743164062</ele>
        <time>2012-05-07T12:27:26Z</time>
      </trkpt>
      <trkpt lat="43.59074" lon="2.94046">
        <ele>589.90625</ele>
        <time>2012-05-07T12:27:35Z</time>
      </trkpt>
      <trkpt lat="43.59071" lon="2.94045">
        <ele>589.42553710938</ele>
        <time>2012-05-07T12:27:39Z</time>
      </trkpt>
      <trkpt lat="43.59068" lon="2.94044">
        <ele>590.86743164062</ele>
        <time>2012-05-07T12:27:45Z</time>
      </trkpt>
      <trkpt lat="43.59064" lon="2.94044">
        <ele>590.38696289062</ele>
        <time>2012-05-07T12:27:50Z</time>
      </trkpt>
      <trkpt lat="43.59061" lon="2.94049">
        <ele>591.82885742188</ele>
        <time>2012-05-07T12:27:56Z</time>
      </trkpt>
      <trkpt lat="43.59062" lon="2.94052">
        <ele>592.79028320312</ele>
        <time>2012-05-07T12:28:00Z</time>
      </trkpt>
      <trkpt lat="43.59065" lon="2.94055">
        <ele>595.67407226562</ele>
        <time>2012-05-07T12:28:08Z</time>
      </trkpt>
      <trkpt lat="43.59068" lon="2.94056">
        <ele>597.11596679688</ele>
        <time>2012-05-07T12:28:14Z</time>
      </trkpt>
      <trkpt lat="43.59066" lon="2.9406">
        <ele>597.5966796875</ele>
        <time>2012-05-07T12:28:19Z</time>
      </trkpt>
      <trkpt lat="43.59063" lon="2.94061">
        <ele>599.51928710938</ele>
        <time>2012-05-07T12:28:24Z</time>
      </trkpt>
      <trkpt lat="43.59066" lon="2.94059">
        <ele>599.51928710938</ele>
        <time>2012-05-07T12:28:35Z</time>
      </trkpt>
      <trkpt lat="43.59067" lon="2.94059">
        <ele>599.03857421875</ele>
        <time>2012-05-07T12:28:36Z</time>
      </trkpt>
      <trkpt lat="43.59075" lon="2.94058">
        <ele>597.5966796875</ele>
        <time>2012-05-07T12:28:41Z</time>
      </trkpt>
      <trkpt lat="43.59079" lon="2.94059">
        <ele>597.5966796875</ele>
        <time>2012-05-07T12:28:44Z</time>
      </trkpt>
      <trkpt lat="43.59084" lon="2.94059">
        <ele>597.5966796875</ele>
        <time>2012-05-07T12:28:48Z</time>
      </trkpt>
      <trkpt lat="43.59092" lon="2.9406">
        <ele>600</ele>
        <time>2012-05-07T12:28:54Z</time>
      </trkpt>
      <trkpt lat="43.59099" lon="2.9406">
        <ele>602.40307617188</ele>
        <time>2012-05-07T12:28:59Z</time>
      </trkpt>
      <trkpt lat="43.59107" lon="2.94063">
        <ele>601.44189453125</ele>
        <time>2012-05-07T12:29:05Z</time>
      </trkpt>
      <trkpt lat="43.59117" lon="2.94067">
        <ele>601.92260742188</ele>
        <time>2012-05-07T12:29:12Z</time>
      </trkpt>
      <trkpt lat="43.59119" lon="2.94069">
        <ele>601.92260742188</ele>
        <time>2012-05-07T12:29:14Z</time>
      </trkpt>
      <trkpt lat="43.59123" lon="2.94069">
        <ele>601.92260742188</ele>
        <time>2012-05-07T12:29:18Z</time>
      </trkpt>
      <trkpt lat="43.59129" lon="2.94072">
        <ele>602.8837890625</ele>
        <time>2012-05-07T12:29:23Z</time>
      </trkpt>
      <trkpt lat="43.59134" lon="2.94075">
        <ele>603.36450195312</ele>
        <time>2012-05-07T12:29:27Z</time>
      </trkpt>
      <trkpt lat="43.59142" lon="2.94083">
        <ele>603.36450195312</ele>
        <time>2012-05-07T12:29:34Z</time>
      </trkpt>
      <trkpt lat="43.59141" lon="2.94087">
        <ele>603.36450195312</ele>
        <time>2012-05-07T12:29:36Z</time>
      </trkpt>
      <trkpt lat="43.59139" lon="2.94089">
        <ele>603.84521484375</ele>
        <time>2012-05-07T12:29:38Z</time>
      </trkpt>
      <trkpt lat="43.59132" lon="2.9409">
        <ele>604.806640625</ele>
        <time>2012-05-07T12:29:43Z</time>
      </trkpt>
      <trkpt lat="43.59123" lon="2.94088">
        <ele>605.76806640625</ele>
        <time>2012-05-07T12:29:49Z</time>
      </trkpt>
      <trkpt lat="43.59109" lon="2.94084">
        <ele>608.65185546875</ele>
        <time>2012-05-07T12:29:59Z</time>
      </trkpt>
      <trkpt lat="43.59101" lon="2.94082">
        <ele>612.0166015625</ele>
        <time>2012-05-07T12:30:05Z</time>
      </trkpt>
      <trkpt lat="43.59091" lon="2.94082">
        <ele>614.900390625</ele>
        <time>2012-05-07T12:30:12Z</time>
      </trkpt>
      <trkpt lat="43.59083" lon="2.94084">
        <ele>615.38110351562</ele>
        <time>2012-05-07T12:30:19Z</time>
      </trkpt>
      <trkpt lat="43.59076" lon="2.94089">
        <ele>614.41967773438</ele>
        <time>2012-05-07T12:30:26Z</time>
      </trkpt>
      <trkpt lat="43.59072" lon="2.94098">
        <ele>612.4970703125</ele>
        <time>2012-05-07T12:30:34Z</time>
      </trkpt>
      <trkpt lat="43.59069" lon="2.94107">
        <ele>610.57446289062</ele>
        <time>2012-05-07T12:30:40Z</time>
      </trkpt>
      <trkpt lat="43.59065" lon="2.94118">
        <ele>610.57446289062</ele>
        <time>2012-05-07T12:30:47Z</time>
      </trkpt>
      <trkpt lat="43.59062" lon="2.94127">
        <ele>610.57446289062</ele>
        <time>2012-05-07T12:30:54Z</time>
      </trkpt>
      <trkpt lat="43.59061" lon="2.9413">
        <ele>610.57446289062</ele>
        <time>2012-05-07T12:30:56Z</time>
      </trkpt>
      <trkpt lat="43.59059" lon="2.94142">
        <ele>611.05517578125</ele>
        <time>2012-05-07T12:31:03Z</time>
      </trkpt>
      <trkpt lat="43.59057" lon="2.94155">
        <ele>611.05517578125</ele>
        <time>2012-05-07T12:31:10Z</time>
      </trkpt>
      <trkpt lat="43.59055" lon="2.94168">
        <ele>609.61328125</ele>
        <time>2012-05-07T12:31:17Z</time>
      </trkpt>
      <trkpt lat="43.59051" lon="2.94179">
        <ele>609.13256835938</ele>
        <time>2012-05-07T12:31:24Z</time>
      </trkpt>
      <trkpt lat="43.59049" lon="2.94189">
        <ele>609.61328125</ele>
        <time>2012-05-07T12:31:30Z</time>
      </trkpt>
      <trkpt lat="43.59049" lon="2.94196">
        <ele>609.61328125</ele>
        <time>2012-05-07T12:31:34Z</time>
      </trkpt>
      <trkpt lat="43.59051" lon="2.942">
        <ele>611.05517578125</ele>
        <time>2012-05-07T12:31:38Z</time>
      </trkpt>
      <trkpt lat="43.59047" lon="2.94208">
        <ele>611.53588867188</ele>
        <time>2012-05-07T12:31:44Z</time>
      </trkpt>
      <trkpt lat="43.59039" lon="2.94215">
        <ele>613.45849609375</ele>
        <time>2012-05-07T12:31:51Z</time>
      </trkpt>
      <trkpt lat="43.59035" lon="2.94217">
        <ele>612.97778320312</ele>
        <time>2012-05-07T12:31:55Z</time>
      </trkpt>
      <trkpt lat="43.59031" lon="2.94219">
        <ele>613.45849609375</ele>
        <time>2012-05-07T12:31:59Z</time>
      </trkpt>
      <trkpt lat="43.59027" lon="2.94222">
        <ele>612.0166015625</ele>
        <time>2012-05-07T12:32:03Z</time>
      </trkpt>
      <trkpt lat="43.59018" lon="2.94223">
        <ele>613.45849609375</ele>
        <time>2012-05-07T12:32:11Z</time>
      </trkpt>
      <trkpt lat="43.5901" lon="2.94226">
        <ele>613.93896484375</ele>
        <time>2012-05-07T12:32:16Z</time>
      </trkpt>
      <trkpt lat="43.59005" lon="2.94228">
        <ele>613.45849609375</ele>
        <time>2012-05-07T12:32:20Z</time>
      </trkpt>
      <trkpt lat="43.59002" lon="2.94228">
        <ele>613.93896484375</ele>
        <time>2012-05-07T12:32:26Z</time>
      </trkpt>
      <trkpt lat="43.59002" lon="2.94228">
        <ele>612.97778320312</ele>
        <time>2012-05-07T12:32:50Z</time>
      </trkpt>
      <trkpt lat="43.59003" lon="2.94227">
        <ele>612.0166015625</ele>
        <time>2012-05-07T12:32:59Z</time>
      </trkpt>
      <trkpt lat="43.59007" lon="2.94233">
        <ele>612.97778320312</ele>
        <time>2012-05-07T12:33:05Z</time>
      </trkpt>
      <trkpt lat="43.59007" lon="2.94237">
        <ele>614.41967773438</ele>
        <time>2012-05-07T12:33:10Z</time>
      </trkpt>
      <trkpt lat="43.59009" lon="2.94241">
        <ele>616.82299804688</ele>
        <time>2012-05-07T12:33:16Z</time>
      </trkpt>
      <trkpt lat="43.5901" lon="2.94245">
        <ele>616.34228515625</ele>
        <time>2012-05-07T12:33:21Z</time>
      </trkpt>
      <trkpt lat="43.59013" lon="2.94247">
        <ele>619.22631835938</ele>
        <time>2012-05-07T12:33:26Z</time>
      </trkpt>
      <trkpt lat="43.59016" lon="2.9425">
        <ele>621.14916992188</ele>
        <time>2012-05-07T12:33:32Z</time>
      </trkpt>
      <trkpt lat="43.59016" lon="2.94253">
        <ele>621.14916992188</ele>
        <time>2012-05-07T12:33:39Z</time>
      </trkpt>
      <trkpt lat="43.59021" lon="2.94256">
        <ele>621.14916992188</ele>
        <time>2012-05-07T12:33:50Z</time>
      </trkpt>
      <trkpt lat="43.59023" lon="2.9426">
        <ele>622.59106445312</ele>
        <time>2012-05-07T12:33:56Z</time>
      </trkpt>
      <trkpt lat="43.59025" lon="2.9426">
        <ele>626.43627929688</ele>
        <time>2012-05-07T12:34:03Z</time>
      </trkpt>
      <trkpt lat="43.59023" lon="2.94262">
        <ele>631.24291992188</ele>
        <time>2012-05-07T12:34:10Z</time>
      </trkpt>
      <trkpt lat="43.59028" lon="2.94267">
        <ele>636.5302734375</ele>
        <time>2012-05-07T12:34:23Z</time>
      </trkpt>
      <trkpt lat="43.59031" lon="2.94271">
        <ele>634.12670898438</ele>
        <time>2012-05-07T12:34:28Z</time>
      </trkpt>
      <trkpt lat="43.59029" lon="2.94275">
        <ele>633.16528320312</ele>
        <time>2012-05-07T12:34:33Z</time>
      </trkpt>
      <trkpt lat="43.59028" lon="2.94282">
        <ele>633.16528320312</ele>
        <time>2012-05-07T12:34:40Z</time>
      </trkpt>
      <trkpt lat="43.59029" lon="2.94288">
        <ele>634.12670898438</ele>
        <time>2012-05-07T12:34:46Z</time>
      </trkpt>
      <trkpt lat="43.5903" lon="2.94292">
        <ele>630.28149414062</ele>
        <time>2012-05-07T12:34:51Z</time>
      </trkpt>
      <trkpt lat="43.59031" lon="2.94297">
        <ele>635.08813476562</ele>
        <time>2012-05-07T12:34:57Z</time>
      </trkpt>
      <trkpt lat="43.59032" lon="2.943">
        <ele>637.49145507812</ele>
        <time>2012-05-07T12:35:02Z</time>
      </trkpt>
      <trkpt lat="43.59037" lon="2.94303">
        <ele>640.37548828125</ele>
        <time>2012-05-07T12:35:10Z</time>
      </trkpt>
      <trkpt lat="43.59038" lon="2.94306">
        <ele>641.8173828125</ele>
        <time>2012-05-07T12:35:15Z</time>
      </trkpt>
      <trkpt lat="43.59039" lon="2.94307">
        <ele>647.1044921875</ele>
        <time>2012-05-07T12:35:24Z</time>
      </trkpt>
      <trkpt lat="43.5904" lon="2.94309">
        <ele>649.02709960938</ele>
        <time>2012-05-07T12:35:28Z</time>
      </trkpt>
      <trkpt lat="43.59039" lon="2.94317">
        <ele>649.02709960938</ele>
        <time>2012-05-07T12:35:47Z</time>
      </trkpt>
      <trkpt lat="43.59043" lon="2.9432">
        <ele>649.02709960938</ele>
        <time>2012-05-07T12:35:53Z</time>
      </trkpt>
      <trkpt lat="43.59045" lon="2.94324">
        <ele>650.94970703125</ele>
        <time>2012-05-07T12:35:59Z</time>
      </trkpt>
      <trkpt lat="43.59042" lon="2.94332">
        <ele>654.79516601562</ele>
        <time>2012-05-07T12:36:09Z</time>
      </trkpt>
      <trkpt lat="43.59036" lon="2.94338">
        <ele>656.7177734375</ele>
        <time>2012-05-07T12:36:15Z</time>
      </trkpt>
      <trkpt lat="43.59035" lon="2.94341">
        <ele>655.27587890625</ele>
        <time>2012-05-07T12:36:20Z</time>
      </trkpt>
      <trkpt lat="43.59032" lon="2.94344">
        <ele>653.833984375</ele>
        <time>2012-05-07T12:36:25Z</time>
      </trkpt>
      <trkpt lat="43.59029" lon="2.94347">
        <ele>654.31469726562</ele>
        <time>2012-05-07T12:36:30Z</time>
      </trkpt>
      <trkpt lat="43.59029" lon="2.94352">
        <ele>654.31469726562</ele>
        <time>2012-05-07T12:36:35Z</time>
      </trkpt>
      <trkpt lat="43.59029" lon="2.94353">
        <ele>654.31469726562</ele>
        <time>2012-05-07T12:36:38Z</time>
      </trkpt>
      <trkpt lat="43.59021" lon="2.94357">
        <ele>654.79516601562</ele>
        <time>2012-05-07T12:36:44Z</time>
      </trkpt>
      <trkpt lat="43.59015" lon="2.94359">
        <ele>654.31469726562</ele>
        <time>2012-05-07T12:36:49Z</time>
      </trkpt>
      <trkpt lat="43.5901" lon="2.9436">
        <ele>653.35327148438</ele>
        <time>2012-05-07T12:36:53Z</time>
      </trkpt>
      <trkpt lat="43.59008" lon="2.94361">
        <ele>654.79516601562</ele>
        <time>2012-05-07T12:36:54Z</time>
      </trkpt>
      <trkpt lat="43.58999" lon="2.94362">
        <ele>652.39184570312</ele>
        <time>2012-05-07T12:37:01Z</time>
      </trkpt>
      <trkpt lat="43.58998" lon="2.94363">
        <ele>652.39184570312</ele>
        <time>2012-05-07T12:37:02Z</time>
      </trkpt>
      <trkpt lat="43.58991" lon="2.94366">
        <ele>650.46923828125</ele>
        <time>2012-05-07T12:37:07Z</time>
      </trkpt>
      <trkpt lat="43.58984" lon="2.94366">
        <ele>653.35327148438</ele>
        <time>2012-05-07T12:37:12Z</time>
      </trkpt>
      <trkpt lat="43.58981" lon="2.94368">
        <ele>652.87255859375</ele>
        <time>2012-05-07T12:37:14Z</time>
      </trkpt>
      <trkpt lat="43.58974" lon="2.9437">
        <ele>652.87255859375</ele>
        <time>2012-05-07T12:37:20Z</time>
      </trkpt>
      <trkpt lat="43.58967" lon="2.94373">
        <ele>651.43041992188</ele>
        <time>2012-05-07T12:37:26Z</time>
      </trkpt>
      <trkpt lat="43.58963" lon="2.94374">
        <ele>650.94970703125</ele>
        <time>2012-05-07T12:37:29Z</time>
      </trkpt>
      <trkpt lat="43.58955" lon="2.94375">
        <ele>649.5078125</ele>
        <time>2012-05-07T12:37:34Z</time>
      </trkpt>
      <trkpt lat="43.58945" lon="2.94377">
        <ele>649.5078125</ele>
        <time>2012-05-07T12:37:42Z</time>
      </trkpt>
      <trkpt lat="43.58944" lon="2.94377">
        <ele>649.02709960938</ele>
        <time>2012-05-07T12:37:43Z</time>
      </trkpt>
      <trkpt lat="43.58935" lon="2.94376">
        <ele>651.43041992188</ele>
        <time>2012-05-07T12:37:49Z</time>
      </trkpt>
      <trkpt lat="43.58928" lon="2.94378">
        <ele>653.833984375</ele>
        <time>2012-05-07T12:37:54Z</time>
      </trkpt>
      <trkpt lat="43.5892" lon="2.9438">
        <ele>651.43041992188</ele>
        <time>2012-05-07T12:38:00Z</time>
      </trkpt>
      <trkpt lat="43.5891" lon="2.9438">
        <ele>652.87255859375</ele>
        <time>2012-05-07T12:38:06Z</time>
      </trkpt>
      <trkpt lat="43.58907" lon="2.94381">
        <ele>653.35327148438</ele>
        <time>2012-05-07T12:38:08Z</time>
      </trkpt>
      <trkpt lat="43.58895" lon="2.94383">
        <ele>653.35327148438</ele>
        <time>2012-05-07T12:38:15Z</time>
      </trkpt>
      <trkpt lat="43.58889" lon="2.94385">
        <ele>652.39184570312</ele>
        <time>2012-05-07T12:38:20Z</time>
      </trkpt>
      <trkpt lat="43.58884" lon="2.94387">
        <ele>652.39184570312</ele>
        <time>2012-05-07T12:38:23Z</time>
      </trkpt>
      <trkpt lat="43.58874" lon="2.94392">
        <ele>651.9111328125</ele>
        <time>2012-05-07T12:38:29Z</time>
      </trkpt>
      <trkpt lat="43.58864" lon="2.94396">
        <ele>650.94970703125</ele>
        <time>2012-05-07T12:38:33Z</time>
      </trkpt>
      <trkpt lat="43.5885" lon="2.94397">
        <ele>651.43041992188</ele>
        <time>2012-05-07T12:38:38Z</time>
      </trkpt>
      <trkpt lat="43.58837" lon="2.94399">
        <ele>650.46923828125</ele>
        <time>2012-05-07T12:38:43Z</time>
      </trkpt>
      <trkpt lat="43.58834" lon="2.94398">
        <ele>650.94970703125</ele>
        <time>2012-05-07T12:38:44Z</time>
      </trkpt>
      <trkpt lat="43.58823" lon="2.94399">
        <ele>652.39184570312</ele>
        <time>2012-05-07T12:38:49Z</time>
      </trkpt>
      <trkpt lat="43.58811" lon="2.94398">
        <ele>652.87255859375</ele>
        <time>2012-05-07T12:38:54Z</time>
      </trkpt>
      <trkpt lat="43.58798" lon="2.94395">
        <ele>654.31469726562</ele>
        <time>2012-05-07T12:38:59Z</time>
      </trkpt>
      <trkpt lat="43.5879" lon="2.94393">
        <ele>654.79516601562</ele>
        <time>2012-05-07T12:39:03Z</time>
      </trkpt>
      <trkpt lat="43.58777" lon="2.94395">
        <ele>652.87255859375</ele>
        <time>2012-05-07T12:39:09Z</time>
      </trkpt>
      <trkpt lat="43.58775" lon="2.94396">
        <ele>652.87255859375</ele>
        <time>2012-05-07T12:39:10Z</time>
      </trkpt>
      <trkpt lat="43.58768" lon="2.94401">
        <ele>650.94970703125</ele>
        <time>2012-05-07T12:39:14Z</time>
      </trkpt>
      <trkpt lat="43.58757" lon="2.94404">
        <ele>650.46923828125</ele>
        <time>2012-05-07T12:39:19Z</time>
      </trkpt>
      <trkpt lat="43.58746" lon="2.94413">
        <ele>651.9111328125</ele>
        <time>2012-05-07T12:39:26Z</time>
      </trkpt>
      <trkpt lat="43.58741" lon="2.94419">
        <ele>650.94970703125</ele>
        <time>2012-05-07T12:39:31Z</time>
      </trkpt>
      <trkpt lat="43.58739" lon="2.94422">
        <ele>650.94970703125</ele>
        <time>2012-05-07T12:39:34Z</time>
      </trkpt>
      <trkpt lat="43.58736" lon="2.94425">
        <ele>651.9111328125</ele>
        <time>2012-05-07T12:39:39Z</time>
      </trkpt>
      <trkpt lat="43.58731" lon="2.94428">
        <ele>650.94970703125</ele>
        <time>2012-05-07T12:39:43Z</time>
      </trkpt>
      <trkpt lat="43.58722" lon="2.9443">
        <ele>648.06591796875</ele>
        <time>2012-05-07T12:39:47Z</time>
      </trkpt>
      <trkpt lat="43.58707" lon="2.94438">
        <ele>647.58520507812</ele>
        <time>2012-05-07T12:39:53Z</time>
      </trkpt>
      <trkpt lat="43.58705" lon="2.9444">
        <ele>648.06591796875</ele>
        <time>2012-05-07T12:39:54Z</time>
      </trkpt>
      <trkpt lat="43.587" lon="2.94448">
        <ele>648.06591796875</ele>
        <time>2012-05-07T12:39:58Z</time>
      </trkpt>
      <trkpt lat="43.58697" lon="2.94453">
        <ele>647.58520507812</ele>
        <time>2012-05-07T12:40:01Z</time>
      </trkpt>
      <trkpt lat="43.5869" lon="2.94459">
        <ele>647.58520507812</ele>
        <time>2012-05-07T12:40:07Z</time>
      </trkpt>
      <trkpt lat="43.58689" lon="2.94462">
        <ele>647.58520507812</ele>
        <time>2012-05-07T12:40:10Z</time>
      </trkpt>
      <trkpt lat="43.58685" lon="2.94466">
        <ele>650.46923828125</ele>
        <time>2012-05-07T12:40:15Z</time>
      </trkpt>
      <trkpt lat="43.58682" lon="2.94471">
        <ele>651.9111328125</ele>
        <time>2012-05-07T12:40:20Z</time>
      </trkpt>
      <trkpt lat="43.58678" lon="2.94475">
        <ele>652.87255859375</ele>
        <time>2012-05-07T12:40:25Z</time>
      </trkpt>
      <trkpt lat="43.58673" lon="2.94481">
        <ele>652.87255859375</ele>
        <time>2012-05-07T12:40:30Z</time>
      </trkpt>
      <trkpt lat="43.58672" lon="2.94484">
        <ele>652.39184570312</ele>
        <time>2012-05-07T12:40:31Z</time>
      </trkpt>
      <trkpt lat="43.58667" lon="2.94489">
        <ele>655.27587890625</ele>
        <time>2012-05-07T12:40:36Z</time>
      </trkpt>
      <trkpt lat="43.58662" lon="2.94496">
        <ele>655.27587890625</ele>
        <time>2012-05-07T12:40:42Z</time>
      </trkpt>
      <trkpt lat="43.58662" lon="2.94506">
        <ele>656.7177734375</ele>
        <time>2012-05-07T12:40:49Z</time>
      </trkpt>
      <trkpt lat="43.58662" lon="2.94512">
        <ele>659.12109375</ele>
        <time>2012-05-07T12:40:53Z</time>
      </trkpt>
      <trkpt lat="43.58665" lon="2.94524">
        <ele>655.75659179688</ele>
        <time>2012-05-07T12:40:59Z</time>
      </trkpt>
      <trkpt lat="43.58668" lon="2.94531">
        <ele>654.79516601562</ele>
        <time>2012-05-07T12:41:02Z</time>
      </trkpt>
      <trkpt lat="43.5867" lon="2.94535">
        <ele>654.31469726562</ele>
        <time>2012-05-07T12:41:04Z</time>
      </trkpt>
      <trkpt lat="43.58672" lon="2.94541">
        <ele>654.31469726562</ele>
        <time>2012-05-07T12:41:07Z</time>
      </trkpt>
      <trkpt lat="43.58678" lon="2.9456">
        <ele>650.94970703125</ele>
        <time>2012-05-07T12:41:13Z</time>
      </trkpt>
      <trkpt lat="43.58688" lon="2.94584">
        <ele>647.58520507812</ele>
        <time>2012-05-07T12:41:19Z</time>
      </trkpt>
      <trkpt lat="43.58688" lon="2.94595">
        <ele>646.6240234375</ele>
        <time>2012-05-07T12:41:21Z</time>
      </trkpt>
      <trkpt lat="43.58698" lon="2.94622">
        <ele>646.14331054688</ele>
        <time>2012-05-07T12:41:28Z</time>
      </trkpt>
      <trkpt lat="43.58707" lon="2.94637">
        <ele>644.701171875</ele>
        <time>2012-05-07T12:41:32Z</time>
      </trkpt>
      <trkpt lat="43.58707" lon="2.9464">
        <ele>644.220703125</ele>
        <time>2012-05-07T12:41:33Z</time>
      </trkpt>
      <trkpt lat="43.5871" lon="2.9466">
        <ele>642.77880859375</ele>
        <time>2012-05-07T12:41:38Z</time>
      </trkpt>
      <trkpt lat="43.58714" lon="2.94681">
        <ele>638.45288085938</ele>
        <time>2012-05-07T12:41:43Z</time>
      </trkpt>
      <trkpt lat="43.5872" lon="2.94705">
        <ele>637.49145507812</ele>
        <time>2012-05-07T12:41:49Z</time>
      </trkpt>
      <trkpt lat="43.5872" lon="2.94719">
        <ele>635.08813476562</ele>
        <time>2012-05-07T12:41:53Z</time>
      </trkpt>
      <trkpt lat="43.58718" lon="2.94727">
        <ele>634.607421875</ele>
        <time>2012-05-07T12:41:55Z</time>
      </trkpt>
      <trkpt lat="43.58719" lon="2.94735">
        <ele>635.56860351562</ele>
        <time>2012-05-07T12:41:59Z</time>
      </trkpt>
      <trkpt lat="43.58717" lon="2.94737">
        <ele>634.607421875</ele>
        <time>2012-05-07T12:42:05Z</time>
      </trkpt>
      <trkpt lat="43.58716" lon="2.94736">
        <ele>634.12670898438</ele>
        <time>2012-05-07T12:42:06Z</time>
      </trkpt>
      <trkpt lat="43.58711" lon="2.94725">
        <ele>631.72338867188</ele>
        <time>2012-05-07T12:42:11Z</time>
      </trkpt>
      <trkpt lat="43.5871" lon="2.94722">
        <ele>631.72338867188</ele>
        <time>2012-05-07T12:42:12Z</time>
      </trkpt>
      <trkpt lat="43.58708" lon="2.94716">
        <ele>631.24291992188</ele>
        <time>2012-05-07T12:42:14Z</time>
      </trkpt>
      <trkpt lat="43.58703" lon="2.9471">
        <ele>631.24291992188</ele>
        <time>2012-05-07T12:42:17Z</time>
      </trkpt>
      <trkpt lat="43.58691" lon="2.94707">
        <ele>630.28149414062</ele>
        <time>2012-05-07T12:42:21Z</time>
      </trkpt>
      <trkpt lat="43.58679" lon="2.94701">
        <ele>629.80078125</ele>
        <time>2012-05-07T12:42:26Z</time>
      </trkpt>
      <trkpt lat="43.58675" lon="2.947">
        <ele>629.80078125</ele>
        <time>2012-05-07T12:42:29Z</time>
      </trkpt>
      <trkpt lat="43.58664" lon="2.94704">
        <ele>626.43627929688</ele>
        <time>2012-05-07T12:42:36Z</time>
      </trkpt>
      <trkpt lat="43.58663" lon="2.94705">
        <ele>625.95556640625</ele>
        <time>2012-05-07T12:42:37Z</time>
      </trkpt>
      <trkpt lat="43.58657" lon="2.94709">
        <ele>623.07177734375</ele>
        <time>2012-05-07T12:42:42Z</time>
      </trkpt>
      <trkpt lat="43.58654" lon="2.94719">
        <ele>613.93896484375</ele>
        <time>2012-05-07T12:42:47Z</time>
      </trkpt>
      <trkpt lat="43.58647" lon="2.94727">
        <ele>608.17138671875</ele>
        <time>2012-05-07T12:42:51Z</time>
      </trkpt>
      <trkpt lat="43.58641" lon="2.94729">
        <ele>608.65185546875</ele>
        <time>2012-05-07T12:42:54Z</time>
      </trkpt>
      <trkpt lat="43.58632" lon="2.94739">
        <ele>607.2099609375</ele>
        <time>2012-05-07T12:42:58Z</time>
      </trkpt>
      <trkpt lat="43.58619" lon="2.94753">
        <ele>605.28735351562</ele>
        <time>2012-05-07T12:43:03Z</time>
      </trkpt>
      <trkpt lat="43.58612" lon="2.9476">
        <ele>605.28735351562</ele>
        <time>2012-05-07T12:43:07Z</time>
      </trkpt>
      <trkpt lat="43.58606" lon="2.94771">
        <ele>604.806640625</ele>
        <time>2012-05-07T12:43:11Z</time>
      </trkpt>
      <trkpt lat="43.58596" lon="2.94782">
        <ele>603.84521484375</ele>
        <time>2012-05-07T12:43:15Z</time>
      </trkpt>
      <trkpt lat="43.58583" lon="2.94799">
        <ele>604.806640625</ele>
        <time>2012-05-07T12:43:20Z</time>
      </trkpt>
      <trkpt lat="43.58577" lon="2.9481">
        <ele>605.28735351562</ele>
        <time>2012-05-07T12:43:24Z</time>
      </trkpt>
      <trkpt lat="43.58564" lon="2.94824">
        <ele>606.24853515625</ele>
        <time>2012-05-07T12:43:30Z</time>
      </trkpt>
      <trkpt lat="43.58561" lon="2.94827">
        <ele>605.28735351562</ele>
        <time>2012-05-07T12:43:31Z</time>
      </trkpt>
      <trkpt lat="43.58545" lon="2.94837">
        <ele>605.28735351562</ele>
        <time>2012-05-07T12:43:37Z</time>
      </trkpt>
      <trkpt lat="43.58543" lon="2.94838">
        <ele>605.28735351562</ele>
        <time>2012-05-07T12:43:38Z</time>
      </trkpt>
      <trkpt lat="43.58532" lon="2.94849">
        <ele>603.36450195312</ele>
        <time>2012-05-07T12:43:45Z</time>
      </trkpt>
      <trkpt lat="43.58527" lon="2.94856">
        <ele>603.36450195312</ele>
        <time>2012-05-07T12:43:50Z</time>
      </trkpt>
      <trkpt lat="43.58522" lon="2.94864">
        <ele>601.44189453125</ele>
        <time>2012-05-07T12:43:55Z</time>
      </trkpt>
      <trkpt lat="43.58522" lon="2.94868">
        <ele>600.48071289062</ele>
        <time>2012-05-07T12:43:58Z</time>
      </trkpt>
      <trkpt lat="43.5851" lon="2.94877">
        <ele>600</ele>
        <time>2012-05-07T12:44:05Z</time>
      </trkpt>
      <trkpt lat="43.58499" lon="2.94883">
        <ele>599.51928710938</ele>
        <time>2012-05-07T12:44:09Z</time>
      </trkpt>
      <trkpt lat="43.58495" lon="2.94884">
        <ele>597.11596679688</ele>
        <time>2012-05-07T12:44:11Z</time>
      </trkpt>
      <trkpt lat="43.58485" lon="2.94885">
        <ele>593.75146484375</ele>
        <time>2012-05-07T12:44:15Z</time>
      </trkpt>
      <trkpt lat="43.58472" lon="2.94884">
        <ele>588.46435546875</ele>
        <time>2012-05-07T12:44:20Z</time>
      </trkpt>
      <trkpt lat="43.58459" lon="2.94882">
        <ele>584.61889648438</ele>
        <time>2012-05-07T12:44:25Z</time>
      </trkpt>
      <trkpt lat="43.58446" lon="2.94881">
        <ele>582.21557617188</ele>
        <time>2012-05-07T12:44:30Z</time>
      </trkpt>
      <trkpt lat="43.58439" lon="2.94882">
        <ele>580.29296875</ele>
        <time>2012-05-07T12:44:34Z</time>
      </trkpt>
      <trkpt lat="43.58432" lon="2.94889">
        <ele>578.37036132812</ele>
        <time>2012-05-07T12:44:38Z</time>
      </trkpt>
      <trkpt lat="43.58426" lon="2.94894">
        <ele>576.44775390625</ele>
        <time>2012-05-07T12:44:42Z</time>
      </trkpt>
      <trkpt lat="43.5842" lon="2.949">
        <ele>576.44775390625</ele>
        <time>2012-05-07T12:44:46Z</time>
      </trkpt>
      <trkpt lat="43.58419" lon="2.94902">
        <ele>575.96704101562</ele>
        <time>2012-05-07T12:44:47Z</time>
      </trkpt>
      <trkpt lat="43.58405" lon="2.94914">
        <ele>572.12182617188</ele>
        <time>2012-05-07T12:44:53Z</time>
      </trkpt>
      <trkpt lat="43.58389" lon="2.94923">
        <ele>571.16040039062</ele>
        <time>2012-05-07T12:44:59Z</time>
      </trkpt>
      <trkpt lat="43.58378" lon="2.94928">
        <ele>570.19897460938</ele>
        <time>2012-05-07T12:45:03Z</time>
      </trkpt>
      <trkpt lat="43.58376" lon="2.94929">
        <ele>569.71850585938</ele>
        <time>2012-05-07T12:45:04Z</time>
      </trkpt>
      <trkpt lat="43.5836" lon="2.94933">
        <ele>568.75708007812</ele>
        <time>2012-05-07T12:45:10Z</time>
      </trkpt>
      <trkpt lat="43.58347" lon="2.94937">
        <ele>567.79565429688</ele>
        <time>2012-05-07T12:45:15Z</time>
      </trkpt>
      <trkpt lat="43.58326" lon="2.94942">
        <ele>563.46997070312</ele>
        <time>2012-05-07T12:45:22Z</time>
      </trkpt>
      <trkpt lat="43.58315" lon="2.94946">
        <ele>561.54736328125</ele>
        <time>2012-05-07T12:45:26Z</time>
      </trkpt>
      <trkpt lat="43.58305" lon="2.94947">
        <ele>565.392578125</ele>
        <time>2012-05-07T12:45:31Z</time>
      </trkpt>
      <trkpt lat="43.58295" lon="2.94949">
        <ele>568.2763671875</ele>
        <time>2012-05-07T12:45:38Z</time>
      </trkpt>
      <trkpt lat="43.58291" lon="2.94948">
        <ele>567.79565429688</ele>
        <time>2012-05-07T12:45:42Z</time>
      </trkpt>
      <trkpt lat="43.58278" lon="2.94948">
        <ele>569.23779296875</ele>
        <time>2012-05-07T12:45:50Z</time>
      </trkpt>
      <trkpt lat="43.58269" lon="2.94947">
        <ele>567.79565429688</ele>
        <time>2012-05-07T12:45:54Z</time>
      </trkpt>
      <trkpt lat="43.58257" lon="2.94942">
        <ele>563.46997070312</ele>
        <time>2012-05-07T12:46:00Z</time>
      </trkpt>
      <trkpt lat="43.58245" lon="2.94936">
        <ele>560.5859375</ele>
        <time>2012-05-07T12:46:05Z</time>
      </trkpt>
      <trkpt lat="43.58234" lon="2.94931">
        <ele>561.06665039062</ele>
        <time>2012-05-07T12:46:09Z</time>
      </trkpt>
      <trkpt lat="43.5822" lon="2.94927">
        <ele>559.14404296875</ele>
        <time>2012-05-07T12:46:14Z</time>
      </trkpt>
      <trkpt lat="43.58204" lon="2.94924">
        <ele>558.18286132812</ele>
        <time>2012-05-07T12:46:20Z</time>
      </trkpt>
      <trkpt lat="43.58193" lon="2.94921">
        <ele>557.7021484375</ele>
        <time>2012-05-07T12:46:25Z</time>
      </trkpt>
      <trkpt lat="43.58186" lon="2.94916">
        <ele>558.18286132812</ele>
        <time>2012-05-07T12:46:29Z</time>
      </trkpt>
      <trkpt lat="43.58176" lon="2.94913">
        <ele>558.18286132812</ele>
        <time>2012-05-07T12:46:34Z</time>
      </trkpt>
      <trkpt lat="43.58167" lon="2.94911">
        <ele>556.74072265625</ele>
        <time>2012-05-07T12:46:39Z</time>
      </trkpt>
      <trkpt lat="43.58164" lon="2.94912">
        <ele>556.74072265625</ele>
        <time>2012-05-07T12:46:40Z</time>
      </trkpt>
      <trkpt lat="43.58151" lon="2.94912">
        <ele>553.3759765625</ele>
        <time>2012-05-07T12:46:46Z</time>
      </trkpt>
      <trkpt lat="43.58149" lon="2.94912">
        <ele>551.93408203125</ele>
        <time>2012-05-07T12:46:48Z</time>
      </trkpt>
      <trkpt lat="43.58138" lon="2.94907">
        <ele>550.97265625</ele>
        <time>2012-05-07T12:46:54Z</time>
      </trkpt>
      <trkpt lat="43.58126" lon="2.94908">
        <ele>550.4921875</ele>
        <time>2012-05-07T12:46:59Z</time>
      </trkpt>
      <trkpt lat="43.58113" lon="2.94911">
        <ele>550.01147460938</ele>
        <time>2012-05-07T12:47:04Z</time>
      </trkpt>
      <trkpt lat="43.58101" lon="2.94914">
        <ele>549.05004882812</ele>
        <time>2012-05-07T12:47:09Z</time>
      </trkpt>
      <trkpt lat="43.58091" lon="2.94923">
        <ele>546.64685058594</ele>
        <time>2012-05-07T12:47:14Z</time>
      </trkpt>
      <trkpt lat="43.58081" lon="2.94926">
        <ele>544.24365234375</ele>
        <time>2012-05-07T12:47:18Z</time>
      </trkpt>
      <trkpt lat="43.58078" lon="2.94927">
        <ele>543.76281738281</ele>
        <time>2012-05-07T12:47:20Z</time>
      </trkpt>
      <trkpt lat="43.58069" lon="2.94931">
        <ele>542.80151367188</ele>
        <time>2012-05-07T12:47:25Z</time>
      </trkpt>
      <trkpt lat="43.5806" lon="2.94939">
        <ele>540.87890625</ele>
        <time>2012-05-07T12:47:29Z</time>
      </trkpt>
      <trkpt lat="43.58052" lon="2.94942">
        <ele>540.39831542969</ele>
        <time>2012-05-07T12:47:34Z</time>
      </trkpt>
      <trkpt lat="43.58046" lon="2.94952">
        <ele>539.43688964844</ele>
        <time>2012-05-07T12:47:40Z</time>
      </trkpt>
      <trkpt lat="43.58043" lon="2.94952">
        <ele>537.51428222656</ele>
        <time>2012-05-07T12:47:43Z</time>
      </trkpt>
      <trkpt lat="43.5803" lon="2.94951">
        <ele>535.11096191406</ele>
        <time>2012-05-07T12:47:49Z</time>
      </trkpt>
      <trkpt lat="43.58022" lon="2.94958">
        <ele>532.22705078125</ele>
        <time>2012-05-07T12:47:54Z</time>
      </trkpt>
      <trkpt lat="43.58013" lon="2.9497">
        <ele>531.74633789062</ele>
        <time>2012-05-07T12:48:00Z</time>
      </trkpt>
      <trkpt lat="43.58006" lon="2.94975">
        <ele>531.26574707031</ele>
        <time>2012-05-07T12:48:04Z</time>
      </trkpt>
      <trkpt lat="43.57996" lon="2.94984">
        <ele>529.34313964844</ele>
        <time>2012-05-07T12:48:09Z</time>
      </trkpt>
      <trkpt lat="43.57993" lon="2.94987">
        <ele>527.42041015625</ele>
        <time>2012-05-07T12:48:11Z</time>
      </trkpt>
      <trkpt lat="43.57982" lon="2.94995">
        <ele>523.5751953125</ele>
        <time>2012-05-07T12:48:17Z</time>
      </trkpt>
      <trkpt lat="43.57975" lon="2.95006">
        <ele>520.69128417969</ele>
        <time>2012-05-07T12:48:23Z</time>
      </trkpt>
      <trkpt lat="43.57968" lon="2.95014">
        <ele>519.72985839844</ele>
        <time>2012-05-07T12:48:27Z</time>
      </trkpt>
      <trkpt lat="43.57956" lon="2.95029">
        <ele>517.32666015625</ele>
        <time>2012-05-07T12:48:33Z</time>
      </trkpt>
      <trkpt lat="43.57946" lon="2.95043">
        <ele>516.84594726562</ele>
        <time>2012-05-07T12:48:39Z</time>
      </trkpt>
      <trkpt lat="43.57932" lon="2.95055">
        <ele>514.92333984375</ele>
        <time>2012-05-07T12:48:45Z</time>
      </trkpt>
      <trkpt lat="43.5792" lon="2.95066">
        <ele>511.07800292969</ele>
        <time>2012-05-07T12:48:51Z</time>
      </trkpt>
      <trkpt lat="43.57912" lon="2.95077">
        <ele>510.59729003906</ele>
        <time>2012-05-07T12:48:56Z</time>
      </trkpt>
      <trkpt lat="43.57898" lon="2.95096">
        <ele>512.03942871094</ele>
        <time>2012-05-07T12:49:04Z</time>
      </trkpt>
      <trkpt lat="43.57886" lon="2.95106">
        <ele>512.03942871094</ele>
        <time>2012-05-07T12:49:11Z</time>
      </trkpt>
      <trkpt lat="43.57879" lon="2.95111">
        <ele>509.15539550781</ele>
        <time>2012-05-07T12:49:16Z</time>
      </trkpt>
      <trkpt lat="43.5787" lon="2.95119">
        <ele>507.23278808594</ele>
        <time>2012-05-07T12:49:22Z</time>
      </trkpt>
      <trkpt lat="43.57865" lon="2.95123">
        <ele>506.271484375</ele>
        <time>2012-05-07T12:49:24Z</time>
      </trkpt>
      <trkpt lat="43.57861" lon="2.95128">
        <ele>504.34887695312</ele>
        <time>2012-05-07T12:49:27Z</time>
      </trkpt>
      <trkpt lat="43.57853" lon="2.95141">
        <ele>503.38745117188</ele>
        <time>2012-05-07T12:49:33Z</time>
      </trkpt>
      <trkpt lat="43.57851" lon="2.95143">
        <ele>502.42614746094</ele>
        <time>2012-05-07T12:49:34Z</time>
      </trkpt>
      <trkpt lat="43.57841" lon="2.95158">
        <ele>502.90673828125</ele>
        <time>2012-05-07T12:49:40Z</time>
      </trkpt>
      <trkpt lat="43.57839" lon="2.95163">
        <ele>503.8681640625</ele>
        <time>2012-05-07T12:49:42Z</time>
      </trkpt>
      <trkpt lat="43.57831" lon="2.95169">
        <ele>502.42614746094</ele>
        <time>2012-05-07T12:49:46Z</time>
      </trkpt>
      <trkpt lat="43.57828" lon="2.95176">
        <ele>503.38745117188</ele>
        <time>2012-05-07T12:49:49Z</time>
      </trkpt>
      <trkpt lat="43.57823" lon="2.95189">
        <ele>503.8681640625</ele>
        <time>2012-05-07T12:49:53Z</time>
      </trkpt>
      <trkpt lat="43.57814" lon="2.95205">
        <ele>501.94555664062</ele>
        <time>2012-05-07T12:49:59Z</time>
      </trkpt>
      <trkpt lat="43.57808" lon="2.95217">
        <ele>500.50354003906</ele>
        <time>2012-05-07T12:50:03Z</time>
      </trkpt>
      <trkpt lat="43.57802" lon="2.95225">
        <ele>496.65832519531</ele>
        <time>2012-05-07T12:50:08Z</time>
      </trkpt>
      <trkpt lat="43.57797" lon="2.9523">
        <ele>495.69689941406</ele>
        <time>2012-05-07T12:50:11Z</time>
      </trkpt>
      <trkpt lat="43.5779" lon="2.95241">
        <ele>489.44836425781</ele>
        <time>2012-05-07T12:50:17Z</time>
      </trkpt>
      <trkpt lat="43.57785" lon="2.95246">
        <ele>486.564453125</ele>
        <time>2012-05-07T12:50:20Z</time>
      </trkpt>
      <trkpt lat="43.57774" lon="2.95258">
        <ele>482.71923828125</ele>
        <time>2012-05-07T12:50:26Z</time>
      </trkpt>
      <trkpt lat="43.57772" lon="2.9526">
        <ele>481.27722167969</ele>
        <time>2012-05-07T12:50:27Z</time>
      </trkpt>
      <trkpt lat="43.57761" lon="2.95273">
        <ele>477.91247558594</ele>
        <time>2012-05-07T12:50:33Z</time>
      </trkpt>
      <trkpt lat="43.57751" lon="2.9528">
        <ele>476.47058105469</ele>
        <time>2012-05-07T12:50:38Z</time>
      </trkpt>
      <trkpt lat="43.57746" lon="2.95283">
        <ele>478.87390136719</ele>
        <time>2012-05-07T12:50:41Z</time>
      </trkpt>
      <trkpt lat="43.57738" lon="2.95287">
        <ele>477.91247558594</ele>
        <time>2012-05-07T12:50:45Z</time>
      </trkpt>
      <trkpt lat="43.57729" lon="2.953">
        <ele>474.54797363281</ele>
        <time>2012-05-07T12:50:51Z</time>
      </trkpt>
      <trkpt lat="43.57725" lon="2.95304">
        <ele>475.02868652344</ele>
        <time>2012-05-07T12:50:54Z</time>
      </trkpt>
      <trkpt lat="43.57722" lon="2.95309">
        <ele>473.58666992188</ele>
        <time>2012-05-07T12:50:57Z</time>
      </trkpt>
      <trkpt lat="43.57717" lon="2.95313">
        <ele>474.54797363281</ele>
        <time>2012-05-07T12:51:01Z</time>
      </trkpt>
      <trkpt lat="43.57712" lon="2.95322">
        <ele>476.47058105469</ele>
        <time>2012-05-07T12:51:06Z</time>
      </trkpt>
      <trkpt lat="43.57711" lon="2.95327">
        <ele>475.02868652344</ele>
        <time>2012-05-07T12:51:10Z</time>
      </trkpt>
      <trkpt lat="43.57711" lon="2.95333">
        <ele>474.54797363281</ele>
        <time>2012-05-07T12:51:13Z</time>
      </trkpt>
      <trkpt lat="43.57711" lon="2.9534">
        <ele>472.62536621094</ele>
        <time>2012-05-07T12:51:17Z</time>
      </trkpt>
      <trkpt lat="43.57708" lon="2.95346">
        <ele>473.10607910156</ele>
        <time>2012-05-07T12:51:25Z</time>
      </trkpt>
      <trkpt lat="43.577" lon="2.95351">
        <ele>477.91247558594</ele>
        <time>2012-05-07T12:51:45Z</time>
      </trkpt>
      <trkpt lat="43.57693" lon="2.95343">
        <ele>476.47058105469</ele>
        <time>2012-05-07T12:51:49Z</time>
      </trkpt>
      <trkpt lat="43.57689" lon="2.95331">
        <ele>473.58666992188</ele>
        <time>2012-05-07T12:51:54Z</time>
      </trkpt>
      <trkpt lat="43.57684" lon="2.95329">
        <ele>472.14465332031</ele>
        <time>2012-05-07T12:51:58Z</time>
      </trkpt>
      <trkpt lat="43.57677" lon="2.95323">
        <ele>471.18334960938</ele>
        <time>2012-05-07T12:52:01Z</time>
      </trkpt>
      <trkpt lat="43.57669" lon="2.95314">
        <ele>468.78002929688</ele>
        <time>2012-05-07T12:52:06Z</time>
      </trkpt>
      <trkpt lat="43.57667" lon="2.95307">
        <ele>467.33813476562</ele>
        <time>2012-05-07T12:52:08Z</time>
      </trkpt>
      <trkpt lat="43.57669" lon="2.95294">
        <ele>464.4541015625</ele>
        <time>2012-05-07T12:52:14Z</time>
      </trkpt>
      <trkpt lat="43.57666" lon="2.95292">
        <ele>463.01208496094</ele>
        <time>2012-05-07T12:52:18Z</time>
      </trkpt>
      <trkpt lat="43.57664" lon="2.9529">
        <ele>462.05078125</ele>
        <time>2012-05-07T12:52:20Z</time>
      </trkpt>
      <trkpt lat="43.57666" lon="2.95279">
        <ele>458.68615722656</ele>
        <time>2012-05-07T12:52:24Z</time>
      </trkpt>
      <trkpt lat="43.57666" lon="2.95273">
        <ele>454.8408203125</ele>
        <time>2012-05-07T12:52:28Z</time>
      </trkpt>
      <trkpt lat="43.5766" lon="2.95281">
        <ele>449.5537109375</ele>
        <time>2012-05-07T12:52:34Z</time>
      </trkpt>
      <trkpt lat="43.57655" lon="2.9528">
        <ele>444.26647949219</ele>
        <time>2012-05-07T12:52:37Z</time>
      </trkpt>
      <trkpt lat="43.57655" lon="2.95277">
        <ele>442.34387207031</ele>
        <time>2012-05-07T12:52:39Z</time>
      </trkpt>
      <trkpt lat="43.57651" lon="2.95284">
        <ele>437.05651855469</ele>
        <time>2012-05-07T12:52:44Z</time>
      </trkpt>
      <trkpt lat="43.57644" lon="2.95291">
        <ele>434.6533203125</ele>
        <time>2012-05-07T12:52:48Z</time>
      </trkpt>
      <trkpt lat="43.5764" lon="2.95292">
        <ele>433.69189453125</ele>
        <time>2012-05-07T12:52:51Z</time>
      </trkpt>
      <trkpt lat="43.5763" lon="2.95292">
        <ele>433.69189453125</ele>
        <time>2012-05-07T12:52:56Z</time>
      </trkpt>
      <trkpt lat="43.57625" lon="2.95292">
        <ele>433.21130371094</ele>
        <time>2012-05-07T12:52:59Z</time>
      </trkpt>
      <trkpt lat="43.57626" lon="2.9528">
        <ele>431.76916503906</ele>
        <time>2012-05-07T12:53:05Z</time>
      </trkpt>
      <trkpt lat="43.5762" lon="2.95279">
        <ele>430.32727050781</ele>
        <time>2012-05-07T12:53:08Z</time>
      </trkpt>
      <trkpt lat="43.5761" lon="2.9528">
        <ele>428.88537597656</ele>
        <time>2012-05-07T12:53:13Z</time>
      </trkpt>
      <trkpt lat="43.57603" lon="2.95288">
        <ele>425.04016113281</ele>
        <time>2012-05-07T12:53:18Z</time>
      </trkpt>
      <trkpt lat="43.57598" lon="2.95292">
        <ele>423.11743164062</ele>
        <time>2012-05-07T12:53:21Z</time>
      </trkpt>
      <trkpt lat="43.57596" lon="2.95296">
        <ele>421.67541503906</ele>
        <time>2012-05-07T12:53:24Z</time>
      </trkpt>
      <trkpt lat="43.57591" lon="2.95304">
        <ele>418.79150390625</ele>
        <time>2012-05-07T12:53:29Z</time>
      </trkpt>
      <trkpt lat="43.57588" lon="2.95316">
        <ele>422.15600585938</ele>
        <time>2012-05-07T12:53:35Z</time>
      </trkpt>
      <trkpt lat="43.57587" lon="2.95331">
        <ele>424.07873535156</ele>
        <time>2012-05-07T12:53:39Z</time>
      </trkpt>
      <trkpt lat="43.57591" lon="2.95342">
        <ele>426.00134277344</ele>
        <time>2012-05-07T12:53:44Z</time>
      </trkpt>
      <trkpt lat="43.57594" lon="2.9535">
        <ele>425.52075195312</ele>
        <time>2012-05-07T12:53:48Z</time>
      </trkpt>
      <trkpt lat="43.57598" lon="2.95361">
        <ele>425.04016113281</ele>
        <time>2012-05-07T12:53:53Z</time>
      </trkpt>
      <trkpt lat="43.57606" lon="2.95372">
        <ele>424.07873535156</ele>
        <time>2012-05-07T12:53:58Z</time>
      </trkpt>
      <trkpt lat="43.57607" lon="2.95374">
        <ele>424.07873535156</ele>
        <time>2012-05-07T12:53:59Z</time>
      </trkpt>
      <trkpt lat="43.57609" lon="2.95378">
        <ele>423.59802246094</ele>
        <time>2012-05-07T12:54:01Z</time>
      </trkpt>
      <trkpt lat="43.57611" lon="2.95382">
        <ele>423.59802246094</ele>
        <time>2012-05-07T12:54:05Z</time>
      </trkpt>
      <trkpt lat="43.57613" lon="2.95387">
        <ele>423.59802246094</ele>
        <time>2012-05-07T12:54:09Z</time>
      </trkpt>
      <trkpt lat="43.57623" lon="2.95392">
        <ele>423.11743164062</ele>
        <time>2012-05-07T12:54:15Z</time>
      </trkpt>
      <trkpt lat="43.57631" lon="2.954">
        <ele>423.11743164062</ele>
        <time>2012-05-07T12:54:18Z</time>
      </trkpt>
      <trkpt lat="43.57633" lon="2.95407">
        <ele>422.63671875</ele>
        <time>2012-05-07T12:54:20Z</time>
      </trkpt>
      <trkpt lat="43.57637" lon="2.95425">
        <ele>423.11743164062</ele>
        <time>2012-05-07T12:54:25Z</time>
      </trkpt>
      <trkpt lat="43.5764" lon="2.95441">
        <ele>421.19482421875</ele>
        <time>2012-05-07T12:54:30Z</time>
      </trkpt>
      <trkpt lat="43.57643" lon="2.95447">
        <ele>421.19482421875</ele>
        <time>2012-05-07T12:54:32Z</time>
      </trkpt>
      <trkpt lat="43.5765" lon="2.95459">
        <ele>419.75280761719</ele>
        <time>2012-05-07T12:54:37Z</time>
      </trkpt>
      <trkpt lat="43.57657" lon="2.95472">
        <ele>419.27221679688</ele>
        <time>2012-05-07T12:54:41Z</time>
      </trkpt>
      <trkpt lat="43.57663" lon="2.95488">
        <ele>420.2333984375</ele>
        <time>2012-05-07T12:54:47Z</time>
      </trkpt>
      <trkpt lat="43.57665" lon="2.95493">
        <ele>421.19482421875</ele>
        <time>2012-05-07T12:54:49Z</time>
      </trkpt>
      <trkpt lat="43.57667" lon="2.95497">
        <ele>420.71411132812</ele>
        <time>2012-05-07T12:54:51Z</time>
      </trkpt>
      <trkpt lat="43.57671" lon="2.95504">
        <ele>422.15600585938</ele>
        <time>2012-05-07T12:54:55Z</time>
      </trkpt>
      <trkpt lat="43.57671" lon="2.95518">
        <ele>423.11743164062</ele>
        <time>2012-05-07T12:55:00Z</time>
      </trkpt>
      <trkpt lat="43.57669" lon="2.95522">
        <ele>422.15600585938</ele>
        <time>2012-05-07T12:55:03Z</time>
      </trkpt>
      <trkpt lat="43.57664" lon="2.95525">
        <ele>421.19482421875</ele>
        <time>2012-05-07T12:55:07Z</time>
      </trkpt>
      <trkpt lat="43.57661" lon="2.95526">
        <ele>421.19482421875</ele>
        <time>2012-05-07T12:55:10Z</time>
      </trkpt>
      <trkpt lat="43.5766" lon="2.95527">
        <ele>419.75280761719</ele>
        <time>2012-05-07T12:55:11Z</time>
      </trkpt>
      <trkpt lat="43.57655" lon="2.95528">
        <ele>413.98486328125</ele>
        <time>2012-05-07T12:55:15Z</time>
      </trkpt>
      <trkpt lat="43.57648" lon="2.95531">
        <ele>410.1396484375</ele>
        <time>2012-05-07T12:55:20Z</time>
      </trkpt>
      <trkpt lat="43.5764" lon="2.95536">
        <ele>404.85229492188</ele>
        <time>2012-05-07T12:55:25Z</time>
      </trkpt>
      <trkpt lat="43.57631" lon="2.95538">
        <ele>400.52648925781</ele>
        <time>2012-05-07T12:55:31Z</time>
      </trkpt>
      <trkpt lat="43.5763" lon="2.95539">
        <ele>399.56506347656</ele>
        <time>2012-05-07T12:55:32Z</time>
      </trkpt>
      <trkpt lat="43.57627" lon="2.95539">
        <ele>398.60375976562</ele>
        <time>2012-05-07T12:55:34Z</time>
      </trkpt>
      <trkpt lat="43.57619" lon="2.9554">
        <ele>394.75854492188</ele>
        <time>2012-05-07T12:55:40Z</time>
      </trkpt>
      <trkpt lat="43.57611" lon="2.95541">
        <ele>391.87451171875</ele>
        <time>2012-05-07T12:55:45Z</time>
      </trkpt>
      <trkpt lat="43.57602" lon="2.95544">
        <ele>388.029296875</ele>
        <time>2012-05-07T12:55:51Z</time>
      </trkpt>
      <trkpt lat="43.57597" lon="2.95546">
        <ele>384.66479492188</ele>
        <time>2012-05-07T12:55:55Z</time>
      </trkpt>
      <trkpt lat="43.5759" lon="2.95548">
        <ele>382.74206542969</ele>
        <time>2012-05-07T12:55:59Z</time>
      </trkpt>
      <trkpt lat="43.57589" lon="2.95549">
        <ele>381.78063964844</ele>
        <time>2012-05-07T12:56:00Z</time>
      </trkpt>
      <trkpt lat="43.57579" lon="2.95551">
        <ele>377.93542480469</ele>
        <time>2012-05-07T12:56:07Z</time>
      </trkpt>
      <trkpt lat="43.57572" lon="2.95552">
        <ele>377.93542480469</ele>
        <time>2012-05-07T12:56:12Z</time>
      </trkpt>
      <trkpt lat="43.57568" lon="2.95555">
        <ele>376.97424316406</ele>
        <time>2012-05-07T12:56:16Z</time>
      </trkpt>
      <trkpt lat="43.57561" lon="2.95557">
        <ele>378.41613769531</ele>
        <time>2012-05-07T12:56:20Z</time>
      </trkpt>
      <trkpt lat="43.57552" lon="2.95557">
        <ele>377.93542480469</ele>
        <time>2012-05-07T12:56:26Z</time>
      </trkpt>
      <trkpt lat="43.57547" lon="2.95557">
        <ele>378.89685058594</ele>
        <time>2012-05-07T12:56:29Z</time>
      </trkpt>
      <trkpt lat="43.5754" lon="2.95557">
        <ele>376.49353027344</ele>
        <time>2012-05-07T12:56:34Z</time>
      </trkpt>
      <trkpt lat="43.57534" lon="2.9556">
        <ele>376.01281738281</ele>
        <time>2012-05-07T12:56:39Z</time>
      </trkpt>
      <trkpt lat="43.57532" lon="2.95562">
        <ele>372.64819335938</ele>
        <time>2012-05-07T12:56:44Z</time>
      </trkpt>
      <trkpt lat="43.57528" lon="2.95565">
        <ele>365.43835449219</ele>
        <time>2012-05-07T12:57:04Z</time>
      </trkpt>
      <trkpt lat="43.57523" lon="2.95564">
        <ele>367.36096191406</ele>
        <time>2012-05-07T12:57:13Z</time>
      </trkpt>
      <trkpt lat="43.57518" lon="2.95566">
        <ele>366.88024902344</ele>
        <time>2012-05-07T12:57:18Z</time>
      </trkpt>
      <trkpt lat="43.57512" lon="2.95566">
        <ele>367.84155273438</ele>
        <time>2012-05-07T12:57:22Z</time>
      </trkpt>
      <trkpt lat="43.5751" lon="2.95567">
        <ele>367.36096191406</ele>
        <time>2012-05-07T12:57:24Z</time>
      </trkpt>
      <trkpt lat="43.57505" lon="2.95572">
        <ele>367.84155273438</ele>
        <time>2012-05-07T12:57:29Z</time>
      </trkpt>
      <trkpt lat="43.57503" lon="2.95575">
        <ele>367.84155273438</ele>
        <time>2012-05-07T12:57:32Z</time>
      </trkpt>
      <trkpt lat="43.57498" lon="2.95578">
        <ele>364.47692871094</ele>
        <time>2012-05-07T12:57:37Z</time>
      </trkpt>
      <trkpt lat="43.57496" lon="2.95579">
        <ele>363.99633789062</ele>
        <time>2012-05-07T12:57:38Z</time>
      </trkpt>
      <trkpt lat="43.57485" lon="2.95583">
        <ele>363.03503417969</ele>
        <time>2012-05-07T12:57:44Z</time>
      </trkpt>
      <trkpt lat="43.57475" lon="2.95592">
        <ele>363.99633789062</ele>
        <time>2012-05-07T12:57:50Z</time>
      </trkpt>
      <trkpt lat="43.57466" lon="2.95599">
        <ele>365.9189453125</ele>
        <time>2012-05-07T12:57:55Z</time>
      </trkpt>
      <trkpt lat="43.57453" lon="2.95609">
        <ele>367.36096191406</ele>
        <time>2012-05-07T12:58:01Z</time>
      </trkpt>
      <trkpt lat="43.57447" lon="2.95619">
        <ele>367.36096191406</ele>
        <time>2012-05-07T12:58:04Z</time>
      </trkpt>
      <trkpt lat="43.57446" lon="2.95621">
        <ele>367.84155273438</ele>
        <time>2012-05-07T12:58:05Z</time>
      </trkpt>
      <trkpt lat="43.57439" lon="2.95629">
        <ele>367.84155273438</ele>
        <time>2012-05-07T12:58:10Z</time>
      </trkpt>
      <trkpt lat="43.5743" lon="2.95639">
        <ele>365.9189453125</ele>
        <time>2012-05-07T12:58:16Z</time>
      </trkpt>
      <trkpt lat="43.57426" lon="2.95642">
        <ele>365.43835449219</ele>
        <time>2012-05-07T12:58:19Z</time>
      </trkpt>
      <trkpt lat="43.57421" lon="2.95646">
        <ele>362.55432128906</ele>
        <time>2012-05-07T12:58:23Z</time>
      </trkpt>
      <trkpt lat="43.5742" lon="2.95657">
        <ele>360.63171386719</ele>
        <time>2012-05-07T12:58:29Z</time>
      </trkpt>
      <trkpt lat="43.5742" lon="2.95659">
        <ele>358.708984375</ele>
        <time>2012-05-07T12:58:32Z</time>
      </trkpt>
      <trkpt lat="43.57415" lon="2.95665">
        <ele>357.26708984375</ele>
        <time>2012-05-07T12:58:36Z</time>
      </trkpt>
      <trkpt lat="43.57409" lon="2.95673">
        <ele>354.86376953125</ele>
        <time>2012-05-07T12:58:42Z</time>
      </trkpt>
      <trkpt lat="43.57403" lon="2.9568">
        <ele>353.421875</ele>
        <time>2012-05-07T12:58:46Z</time>
      </trkpt>
      <trkpt lat="43.57396" lon="2.9569">
        <ele>353.90258789062</ele>
        <time>2012-05-07T12:58:52Z</time>
      </trkpt>
      <trkpt lat="43.57393" lon="2.9569">
        <ele>352.94116210938</ele>
        <time>2012-05-07T12:58:55Z</time>
      </trkpt>
      <trkpt lat="43.57389" lon="2.95683">
        <ele>351.01843261719</ele>
        <time>2012-05-07T12:59:00Z</time>
      </trkpt>
      <trkpt lat="43.57389" lon="2.95673">
        <ele>347.17321777344</ele>
        <time>2012-05-07T12:59:04Z</time>
      </trkpt>
      <trkpt lat="43.57389" lon="2.95664">
        <ele>345.25061035156</ele>
        <time>2012-05-07T12:59:07Z</time>
      </trkpt>
      <trkpt lat="43.57389" lon="2.95651">
        <ele>341.4052734375</ele>
        <time>2012-05-07T12:59:12Z</time>
      </trkpt>
      <trkpt lat="43.5739" lon="2.95643">
        <ele>339.96337890625</ele>
        <time>2012-05-07T12:59:15Z</time>
      </trkpt>
      <trkpt lat="43.57391" lon="2.95629">
        <ele>337.07946777344</ele>
        <time>2012-05-07T12:59:20Z</time>
      </trkpt>
      <trkpt lat="43.57392" lon="2.95624">
        <ele>335.63732910156</ele>
        <time>2012-05-07T12:59:22Z</time>
      </trkpt>
      <trkpt lat="43.57393" lon="2.95614">
        <ele>334.19543457031</ele>
        <time>2012-05-07T12:59:28Z</time>
      </trkpt>
      <trkpt lat="43.57396" lon="2.95604">
        <ele>330.83093261719</ele>
        <time>2012-05-07T12:59:32Z</time>
      </trkpt>
      <trkpt lat="43.57401" lon="2.9559">
        <ele>328.42761230469</ele>
        <time>2012-05-07T12:59:37Z</time>
      </trkpt>
      <trkpt lat="43.57405" lon="2.95585">
        <ele>327.46618652344</ele>
        <time>2012-05-07T12:59:40Z</time>
      </trkpt>
      <trkpt lat="43.57401" lon="2.95583">
        <ele>325.54357910156</ele>
        <time>2012-05-07T12:59:45Z</time>
      </trkpt>
      <trkpt lat="43.57396" lon="2.95588">
        <ele>324.58227539062</ele>
        <time>2012-05-07T12:59:48Z</time>
      </trkpt>
      <trkpt lat="43.57386" lon="2.95591">
        <ele>322.65966796875</ele>
        <time>2012-05-07T12:59:54Z</time>
      </trkpt>
      <trkpt lat="43.57379" lon="2.95593">
        <ele>321.69836425781</ele>
        <time>2012-05-07T12:59:58Z</time>
      </trkpt>
      <trkpt lat="43.57373" lon="2.95597">
        <ele>320.73706054688</ele>
        <time>2012-05-07T13:00:03Z</time>
      </trkpt>
      <trkpt lat="43.57367" lon="2.956">
        <ele>321.2177734375</ele>
        <time>2012-05-07T13:00:07Z</time>
      </trkpt>
      <trkpt lat="43.5736" lon="2.95601">
        <ele>320.25634765625</ele>
        <time>2012-05-07T13:00:12Z</time>
      </trkpt>
      <trkpt lat="43.57357" lon="2.95597">
        <ele>318.81433105469</ele>
        <time>2012-05-07T13:00:18Z</time>
      </trkpt>
      <trkpt lat="43.57358" lon="2.95594">
        <ele>317.85302734375</ele>
        <time>2012-05-07T13:00:21Z</time>
      </trkpt>
      <trkpt lat="43.57365" lon="2.95583">
        <ele>315.93041992188</ele>
        <time>2012-05-07T13:00:27Z</time>
      </trkpt>
      <trkpt lat="43.57365" lon="2.95578">
        <ele>315.44982910156</ele>
        <time>2012-05-07T13:00:29Z</time>
      </trkpt>
      <trkpt lat="43.57364" lon="2.95564">
        <ele>311.12377929688</ele>
        <time>2012-05-07T13:00:36Z</time>
      </trkpt>
      <trkpt lat="43.57364" lon="2.95557">
        <ele>309.68188476562</ele>
        <time>2012-05-07T13:00:39Z</time>
      </trkpt>
      <trkpt lat="43.57364" lon="2.95549">
        <ele>308.72045898438</ele>
        <time>2012-05-07T13:00:42Z</time>
      </trkpt>
      <trkpt lat="43.57365" lon="2.95533">
        <ele>303.91394042969</ele>
        <time>2012-05-07T13:00:49Z</time>
      </trkpt>
      <trkpt lat="43.57365" lon="2.95528">
        <ele>301.99133300781</ele>
        <time>2012-05-07T13:00:51Z</time>
      </trkpt>
      <trkpt lat="43.57368" lon="2.95522">
        <ele>299.58801269531</ele>
        <time>2012-05-07T13:00:54Z</time>
      </trkpt>
      <trkpt lat="43.5737" lon="2.95516">
        <ele>297.18469238281</ele>
        <time>2012-05-07T13:00:57Z</time>
      </trkpt>
      <trkpt lat="43.57368" lon="2.95509">
        <ele>297.18469238281</ele>
        <time>2012-05-07T13:01:01Z</time>
      </trkpt>
      <trkpt lat="43.57359" lon="2.95509">
        <ele>294.78137207031</ele>
        <time>2012-05-07T13:01:07Z</time>
      </trkpt>
      <trkpt lat="43.57347" lon="2.95509">
        <ele>293.82006835938</ele>
        <time>2012-05-07T13:01:13Z</time>
      </trkpt>
      <trkpt lat="43.57338" lon="2.95512">
        <ele>293.33935546875</ele>
        <time>2012-05-07T13:01:18Z</time>
      </trkpt>
      <trkpt lat="43.57336" lon="2.95514">
        <ele>292.85876464844</ele>
        <time>2012-05-07T13:01:19Z</time>
      </trkpt>
      <trkpt lat="43.5733" lon="2.95518">
        <ele>291.41674804688</ele>
        <time>2012-05-07T13:01:23Z</time>
      </trkpt>
      <trkpt lat="43.57324" lon="2.95513">
        <ele>288.05224609375</ele>
        <time>2012-05-07T13:01:28Z</time>
      </trkpt>
      <trkpt lat="43.57322" lon="2.95506">
        <ele>288.53295898438</ele>
        <time>2012-05-07T13:01:32Z</time>
      </trkpt>
      <trkpt lat="43.57326" lon="2.95498">
        <ele>289.494140625</ele>
        <time>2012-05-07T13:01:36Z</time>
      </trkpt>
      <trkpt lat="43.57327" lon="2.95494">
        <ele>288.05224609375</ele>
        <time>2012-05-07T13:01:38Z</time>
      </trkpt>
      <trkpt lat="43.57322" lon="2.95487">
        <ele>290.45556640625</ele>
        <time>2012-05-07T13:01:47Z</time>
      </trkpt>
      <trkpt lat="43.57319" lon="2.95488">
        <ele>293.82006835938</ele>
        <time>2012-05-07T13:01:54Z</time>
      </trkpt>
      <trkpt lat="43.57317" lon="2.95486">
        <ele>299.58801269531</ele>
        <time>2012-05-07T13:02:09Z</time>
      </trkpt>
      <trkpt lat="43.57312" lon="2.95485">
        <ele>300.54931640625</ele>
        <time>2012-05-07T13:02:14Z</time>
      </trkpt>
      <trkpt lat="43.57304" lon="2.95485">
        <ele>301.99133300781</ele>
        <time>2012-05-07T13:02:21Z</time>
      </trkpt>
      <trkpt lat="43.57299" lon="2.95483">
        <ele>302.95251464844</ele>
        <time>2012-05-07T13:02:25Z</time>
      </trkpt>
      <trkpt lat="43.5729" lon="2.95486">
        <ele>298.62670898438</ele>
        <time>2012-05-07T13:02:32Z</time>
      </trkpt>
      <trkpt lat="43.57283" lon="2.95487">
        <ele>298.62670898438</ele>
        <time>2012-05-07T13:02:37Z</time>
      </trkpt>
      <trkpt lat="43.57276" lon="2.95487">
        <ele>295.26196289062</ele>
        <time>2012-05-07T13:02:44Z</time>
      </trkpt>
      <trkpt lat="43.57269" lon="2.95492">
        <ele>289.494140625</ele>
        <time>2012-05-07T13:02:51Z</time>
      </trkpt>
      <trkpt lat="43.57266" lon="2.95494">
        <ele>286.12951660156</ele>
        <time>2012-05-07T13:02:54Z</time>
      </trkpt>
      <trkpt lat="43.57257" lon="2.95495">
        <ele>279.40026855469</ele>
        <time>2012-05-07T13:03:01Z</time>
      </trkpt>
      <trkpt lat="43.57248" lon="2.95494">
        <ele>274.59375</ele>
        <time>2012-05-07T13:03:06Z</time>
      </trkpt>
      <trkpt lat="43.57232" lon="2.95491">
        <ele>271.70971679688</ele>
        <time>2012-05-07T13:03:12Z</time>
      </trkpt>
      <trkpt lat="43.57222" lon="2.9549">
        <ele>268.34509277344</ele>
        <time>2012-05-07T13:03:16Z</time>
      </trkpt>
      <trkpt lat="43.57216" lon="2.9549">
        <ele>267.86450195312</ele>
        <time>2012-05-07T13:03:18Z</time>
      </trkpt>
      <trkpt lat="43.57209" lon="2.95491">
        <ele>264.49987792969</ele>
        <time>2012-05-07T13:03:21Z</time>
      </trkpt>
      <trkpt lat="43.57199" lon="2.95489">
        <ele>268.82580566406</ele>
        <time>2012-05-07T13:03:25Z</time>
      </trkpt>
      <trkpt lat="43.57196" lon="2.95489">
        <ele>269.787109375</ele>
        <time>2012-05-07T13:03:26Z</time>
      </trkpt>
      <trkpt lat="43.57187" lon="2.9549">
        <ele>270.26770019531</ele>
        <time>2012-05-07T13:03:30Z</time>
      </trkpt>
      <trkpt lat="43.57175" lon="2.95492">
        <ele>270.26770019531</ele>
        <time>2012-05-07T13:03:34Z</time>
      </trkpt>
      <trkpt lat="43.57161" lon="2.95499">
        <ele>269.30651855469</ele>
        <time>2012-05-07T13:03:39Z</time>
      </trkpt>
      <trkpt lat="43.57151" lon="2.95508">
        <ele>267.86450195312</ele>
        <time>2012-05-07T13:03:44Z</time>
      </trkpt>
      <trkpt lat="43.57148" lon="2.95512">
        <ele>266.90319824219</ele>
        <time>2012-05-07T13:03:46Z</time>
      </trkpt>
      <trkpt lat="43.57142" lon="2.95524">
        <ele>265.94189453125</ele>
        <time>2012-05-07T13:03:50Z</time>
      </trkpt>
      <trkpt lat="43.57147" lon="2.95541">
        <ele>264.01928710938</ele>
        <time>2012-05-07T13:03:54Z</time>
      </trkpt>
      <trkpt lat="43.57148" lon="2.95546">
        <ele>264.49987792969</ele>
        <time>2012-05-07T13:03:56Z</time>
      </trkpt>
      <trkpt lat="43.57147" lon="2.95552">
        <ele>263.53857421875</ele>
        <time>2012-05-07T13:03:59Z</time>
      </trkpt>
      <trkpt lat="43.5714" lon="2.95562">
        <ele>263.05786132812</ele>
        <time>2012-05-07T13:04:05Z</time>
      </trkpt>
      <trkpt lat="43.57127" lon="2.95569">
        <ele>260.17395019531</ele>
        <time>2012-05-07T13:04:10Z</time>
      </trkpt>
      <trkpt lat="43.57115" lon="2.95577">
        <ele>257.77075195312</ele>
        <time>2012-05-07T13:04:15Z</time>
      </trkpt>
      <trkpt lat="43.57101" lon="2.95582">
        <ele>257.2900390625</ele>
        <time>2012-05-07T13:04:20Z</time>
      </trkpt>
      <trkpt lat="43.57093" lon="2.95587">
        <ele>255.36730957031</ele>
        <time>2012-05-07T13:04:24Z</time>
      </trkpt>
      <trkpt lat="43.57085" lon="2.95592">
        <ele>253.44470214844</ele>
        <time>2012-05-07T13:04:28Z</time>
      </trkpt>
      <trkpt lat="43.57086" lon="2.95606">
        <ele>252.4833984375</ele>
        <time>2012-05-07T13:04:32Z</time>
      </trkpt>
      <trkpt lat="43.57088" lon="2.95616">
        <ele>251.04138183594</ele>
        <time>2012-05-07T13:04:35Z</time>
      </trkpt>
      <trkpt lat="43.57096" lon="2.95635">
        <ele>249.59948730469</ele>
        <time>2012-05-07T13:04:41Z</time>
      </trkpt>
      <trkpt lat="43.57096" lon="2.9564">
        <ele>250.56079101562</ele>
        <time>2012-05-07T13:04:46Z</time>
      </trkpt>
      <trkpt lat="43.57098" lon="2.95646">
        <ele>250.56079101562</ele>
        <time>2012-05-07T13:04:51Z</time>
      </trkpt>
      <trkpt lat="43.57103" lon="2.95659">
        <ele>250.08020019531</ele>
        <time>2012-05-07T13:04:58Z</time>
      </trkpt>
      <trkpt lat="43.57105" lon="2.95674">
        <ele>252.4833984375</ele>
        <time>2012-05-07T13:05:06Z</time>
      </trkpt>
      <trkpt lat="43.57106" lon="2.95676">
        <ele>252.4833984375</ele>
        <time>2012-05-07T13:05:07Z</time>
      </trkpt>
      <trkpt lat="43.57102" lon="2.95694">
        <ele>252.00280761719</ele>
        <time>2012-05-07T13:05:14Z</time>
      </trkpt>
      <trkpt lat="43.57098" lon="2.95708">
        <ele>250.08020019531</ele>
        <time>2012-05-07T13:05:18Z</time>
      </trkpt>
      <trkpt lat="43.57095" lon="2.95723">
        <ele>248.15759277344</ele>
        <time>2012-05-07T13:05:22Z</time>
      </trkpt>
      <trkpt lat="43.57094" lon="2.95727">
        <ele>247.6767578125</ele>
        <time>2012-05-07T13:05:23Z</time>
      </trkpt>
      <trkpt lat="43.5709" lon="2.9575">
        <ele>246.71545410156</ele>
        <time>2012-05-07T13:05:29Z</time>
      </trkpt>
      <trkpt lat="43.57089" lon="2.95754">
        <ele>246.71545410156</ele>
        <time>2012-05-07T13:05:30Z</time>
      </trkpt>
      <trkpt lat="43.57079" lon="2.95771">
        <ele>243.83154296875</ele>
        <time>2012-05-07T13:05:36Z</time>
      </trkpt>
      <trkpt lat="43.57076" lon="2.95773">
        <ele>243.35083007812</ele>
        <time>2012-05-07T13:05:37Z</time>
      </trkpt>
      <trkpt lat="43.5706" lon="2.95789">
        <ele>240.46704101562</ele>
        <time>2012-05-07T13:05:44Z</time>
      </trkpt>
      <trkpt lat="43.5705" lon="2.95798">
        <ele>238.54431152344</ele>
        <time>2012-05-07T13:05:48Z</time>
      </trkpt>
      <trkpt lat="43.57043" lon="2.95801">
        <ele>238.06359863281</ele>
        <time>2012-05-07T13:05:50Z</time>
      </trkpt>
      <trkpt lat="43.57033" lon="2.95808">
        <ele>236.62170410156</ele>
        <time>2012-05-07T13:05:54Z</time>
      </trkpt>
      <trkpt lat="43.57017" lon="2.95822">
        <ele>233.73767089844</ele>
        <time>2012-05-07T13:06:01Z</time>
      </trkpt>
      <trkpt lat="43.5701" lon="2.95837">
        <ele>231.81494140625</ele>
        <time>2012-05-07T13:06:06Z</time>
      </trkpt>
      <trkpt lat="43.57003" lon="2.95849">
        <ele>230.373046875</ele>
        <time>2012-05-07T13:06:10Z</time>
      </trkpt>
      <trkpt lat="43.5699" lon="2.95856">
        <ele>229.89233398438</ele>
        <time>2012-05-07T13:06:15Z</time>
      </trkpt>
      <trkpt lat="43.56974" lon="2.95857">
        <ele>226.52783203125</ele>
        <time>2012-05-07T13:06:21Z</time>
      </trkpt>
      <trkpt lat="43.56962" lon="2.95857">
        <ele>226.04711914062</ele>
        <time>2012-05-07T13:06:25Z</time>
      </trkpt>
      <trkpt lat="43.56946" lon="2.95861">
        <ele>223.64379882812</ele>
        <time>2012-05-07T13:06:31Z</time>
      </trkpt>
      <trkpt lat="43.56931" lon="2.95867">
        <ele>219.31799316406</ele>
        <time>2012-05-07T13:06:37Z</time>
      </trkpt>
      <trkpt lat="43.56921" lon="2.95871">
        <ele>217.8759765625</ele>
        <time>2012-05-07T13:06:41Z</time>
      </trkpt>
      <trkpt lat="43.56902" lon="2.95875">
        <ele>215.47265625</ele>
        <time>2012-05-07T13:06:48Z</time>
      </trkpt>
      <trkpt lat="43.5689" lon="2.95878">
        <ele>213.0693359375</ele>
        <time>2012-05-07T13:06:53Z</time>
      </trkpt>
      <trkpt lat="43.56887" lon="2.95878">
        <ele>212.58862304688</ele>
        <time>2012-05-07T13:06:55Z</time>
      </trkpt>
      <trkpt lat="43.56881" lon="2.95879">
        <ele>210.666015625</ele>
        <time>2012-05-07T13:07:00Z</time>
      </trkpt>
      <trkpt lat="43.56867" lon="2.95881">
        <ele>206.82067871094</ele>
        <time>2012-05-07T13:07:11Z</time>
      </trkpt>
      <trkpt lat="43.56856" lon="2.95883">
        <ele>203.93688964844</ele>
        <time>2012-05-07T13:07:19Z</time>
      </trkpt>
      <trkpt lat="43.56844" lon="2.95886">
        <ele>201.05285644531</ele>
        <time>2012-05-07T13:07:28Z</time>
      </trkpt>
      <trkpt lat="43.56833" lon="2.95887">
        <ele>199.61083984375</ele>
        <time>2012-05-07T13:07:37Z</time>
      </trkpt>
      <trkpt lat="43.56823" lon="2.95888">
        <ele>200.572265625</ele>
        <time>2012-05-07T13:07:44Z</time>
      </trkpt>
      <trkpt lat="43.56817" lon="2.95888">
        <ele>200.572265625</ele>
        <time>2012-05-07T13:07:49Z</time>
      </trkpt>
      <trkpt lat="43.5681" lon="2.95887">
        <ele>201.05285644531</ele>
        <time>2012-05-07T13:07:54Z</time>
      </trkpt>
      <trkpt lat="43.56799" lon="2.9589">
        <ele>199.61083984375</ele>
        <time>2012-05-07T13:08:02Z</time>
      </trkpt>
      <trkpt lat="43.56789" lon="2.95892">
        <ele>198.1689453125</ele>
        <time>2012-05-07T13:08:09Z</time>
      </trkpt>
      <trkpt lat="43.56781" lon="2.95893">
        <ele>197.20751953125</ele>
        <time>2012-05-07T13:08:15Z</time>
      </trkpt>
      <trkpt lat="43.56773" lon="2.95895">
        <ele>195.28491210938</ele>
        <time>2012-05-07T13:08:22Z</time>
      </trkpt>
      <trkpt lat="43.5677" lon="2.95896">
        <ele>195.28491210938</ele>
        <time>2012-05-07T13:08:25Z</time>
      </trkpt>
      <trkpt lat="43.56758" lon="2.95901">
        <ele>195.765625</ele>
        <time>2012-05-07T13:08:33Z</time>
      </trkpt>
      <trkpt lat="43.5675" lon="2.95905">
        <ele>195.28491210938</ele>
        <time>2012-05-07T13:08:40Z</time>
      </trkpt>
      <trkpt lat="43.56738" lon="2.95907">
        <ele>195.28491210938</ele>
        <time>2012-05-07T13:08:49Z</time>
      </trkpt>
      <trkpt lat="43.56728" lon="2.95909">
        <ele>192.40112304688</ele>
        <time>2012-05-07T13:08:57Z</time>
      </trkpt>
      <trkpt lat="43.5672" lon="2.95912">
        <ele>190.958984375</ele>
        <time>2012-05-07T13:09:05Z</time>
      </trkpt>
      <trkpt lat="43.5671" lon="2.95916">
        <ele>189.51696777344</ele>
        <time>2012-05-07T13:09:13Z</time>
      </trkpt>
      <trkpt lat="43.5671" lon="2.95927">
        <ele>188.55578613281</ele>
        <time>2012-05-07T13:09:19Z</time>
      </trkpt>
      <trkpt lat="43.5671" lon="2.95938">
        <ele>187.59436035156</ele>
        <time>2012-05-07T13:09:26Z</time>
      </trkpt>
      <trkpt lat="43.56708" lon="2.95942">
        <ele>187.59436035156</ele>
        <time>2012-05-07T13:09:29Z</time>
      </trkpt>
      <trkpt lat="43.567" lon="2.95943">
        <ele>184.71057128906</ele>
        <time>2012-05-07T13:09:35Z</time>
      </trkpt>
      <trkpt lat="43.56691" lon="2.95947">
        <ele>183.26843261719</ele>
        <time>2012-05-07T13:09:42Z</time>
      </trkpt>
      <trkpt lat="43.56689" lon="2.95948">
        <ele>183.7490234375</ele>
        <time>2012-05-07T13:09:43Z</time>
      </trkpt>
      <trkpt lat="43.56681" lon="2.95953">
        <ele>185.19116210938</ele>
        <time>2012-05-07T13:09:50Z</time>
      </trkpt>
      <trkpt lat="43.56678" lon="2.95954">
        <ele>185.67175292969</ele>
        <time>2012-05-07T13:09:53Z</time>
      </trkpt>
      <trkpt lat="43.56676" lon="2.95953">
        <ele>185.19116210938</ele>
        <time>2012-05-07T13:09:55Z</time>
      </trkpt>
      <trkpt lat="43.56675" lon="2.95956">
        <ele>185.67175292969</ele>
        <time>2012-05-07T13:09:58Z</time>
      </trkpt>
      <trkpt lat="43.56673" lon="2.95961">
        <ele>186.15246582031</ele>
        <time>2012-05-07T13:10:04Z</time>
      </trkpt>
      <trkpt lat="43.5667" lon="2.95962">
        <ele>186.63317871094</ele>
        <time>2012-05-07T13:10:09Z</time>
      </trkpt>
      <trkpt lat="43.5667" lon="2.95963">
        <ele>185.67175292969</ele>
        <time>2012-05-07T13:10:16Z</time>
      </trkpt>
      <trkpt lat="43.56666" lon="2.95965">
        <ele>185.67175292969</ele>
        <time>2012-05-07T13:10:21Z</time>
      </trkpt>
      <trkpt lat="43.5666" lon="2.95967">
        <ele>185.19116210938</ele>
        <time>2012-05-07T13:10:25Z</time>
      </trkpt>
      <trkpt lat="43.56657" lon="2.95968">
        <ele>185.19116210938</ele>
        <time>2012-05-07T13:10:28Z</time>
      </trkpt>
      <trkpt lat="43.56653" lon="2.95973">
        <ele>184.22985839844</ele>
        <time>2012-05-07T13:10:32Z</time>
      </trkpt>
      <trkpt lat="43.56652" lon="2.95983">
        <ele>185.67175292969</ele>
        <time>2012-05-07T13:10:38Z</time>
      </trkpt>
      <trkpt lat="43.56652" lon="2.95986">
        <ele>185.67175292969</ele>
        <time>2012-05-07T13:10:41Z</time>
      </trkpt>
    </trkseg>
  </trk>
</gpx>